# Wetter Temperatur Luftdruck Luftfeuchtigkeit Sichtweite Windgeschwindigkeit Windrichtung Zeit
1 Clouds -10 1008 94 0 0.41 50 11:21 08.04.2020
2 Clouds -10 1008 94 0 0.41 50 10:56 08.04.2020
3 Clouds -10 1008 94 0 0.41 50 10:56 08.04.2020
4 Clouds -10 1008 94 0 0.41 50 10:37 08.04.2020
5 Clouds -10 1008 94 0 0.41 50 10:18 08.04.2020
6 Clouds -10 1008 94 0 0.41 50 09:55 08.04.2020
7 Clouds -10 1008 94 0 0.41 50 09:36 08.04.2020
8 Clouds -11 1010 94 0 0.97 110 09:18 08.04.2020
9 Clouds -11 1010 94 0 0.97 110 08:42 08.04.2020
10 Clouds -11 1010 94 0 0.97 110 08:22 08.04.2020
11 Clouds -11 1010 94 0 0.97 110 07:44 08.04.2020
12 Clouds -11 1010 94 0 0.97 110 07:25 08.04.2020
13 Clouds -11 1010 94 0 0.97 110 06:55 08.04.2020
14 Clouds -13 1013 94 0 0.28 251 05:56 08.04.2020
15 Clouds -13 1013 94 0 0.28 251 03:34 08.04.2020
16 Clouds -15 1016 94 0 0.4 42 02:49 08.04.2020
17 Clouds -15 1016 94 0 0.27 62 02:19 08.04.2020
18 Clouds -15 1016 94 0 0.27 62 01:30 08.04.2020
19 Clouds -15 1016 94 0 0.27 62 01:30 08.04.2020
20 Clouds -15 1016 94 0 0.27 62 00:59 08.04.2020
21 Clouds -15 1016 94 0 0.27 62 00:59 08.04.2020
22 Clouds -15 1016 94 0 0.27 62 00:40 08.04.2020
23 Clouds -14 1017 95 0 1.14 1 00:20 08.04.2020
24 Clouds -14 1017 95 0 1.14 1 23:39 07.04.2020
25 Clouds -14 1017 95 0 1.14 1 23:20 07.04.2020
26 Clouds -14 1017 95 0 1.14 1 22:57 07.04.2020
27 Clouds -14 1017 95 0 1.14 1 22:38 07.04.2020
28 Clouds -14 1017 95 0 1.14 1 22:19 07.04.2020
29 Clouds -14 1017 95 0 1.14 1 21:56 07.04.2020
30 Clouds -14 1017 95 0 2.07 19 21:38 07.04.2020
31 Clouds -13 1017 95 0 2.58 8 21:19 07.04.2020
32 Clouds -13 1017 95 0 2.58 8 20:55 07.04.2020
33 Clouds -13 1017 95 0 2.58 8 20:55 07.04.2020
34 Clouds -13 1017 95 0 2.58 8 20:36 07.04.2020
35 Clouds -13 1017 95 0 2.58 8 20:18 07.04.2020
36 Clouds -13 1017 95 0 2.58 8 20:18 07.04.2020
37 Clouds -13 1017 95 0 2.58 8 19:55 07.04.2020
38 Clouds -13 1017 95 0 2.58 8 19:36 07.04.2020
39 Clouds -13 1017 95 0 2.58 8 19:18 07.04.2020
40 Clouds -13 1017 95 0 2.58 8 19:18 07.04.2020
41 Clouds -13 1017 95 0 2.58 8 18:41 07.04.2020
42 Clouds -11 1018 96 0 3.7 7 18:21 07.04.2020
43 Clouds -11 1018 96 0 3.7 7 17:59 07.04.2020
44 Clouds -11 1018 96 0 3.7 7 17:40 07.04.2020
45 Clouds -11 1018 96 0 3.7 7 17:20 07.04.2020
46 Clouds -11 1018 96 0 3.7 7 16:45 07.04.2020
47 Clouds -11 1018 96 0 3.7 7 16:26 07.04.2020
48 Clouds -11 1018 96 0 3.7 7 15:46 07.04.2020
49 Clouds -9 1018 96 0 4.34 3 15:27 07.04.2020
50 Clouds -9 1018 96 0 4.34 3 14:58 07.04.2020
51 Clouds -9 1018 96 0 4.34 3 14:38 07.04.2020
52 Clouds -10 1018 96 0 4.19 1 14:20 07.04.2020
53 Clouds -10 1018 96 0 4.19 1 13:43 07.04.2020
54 Clouds -10 1018 96 0 4.19 1 13:20 07.04.2020
55 Clouds -10 1018 96 0 4.19 1 12:58 07.04.2020
56 Clouds -10 1018 96 0 4.19 1 12:39 07.04.2020
57 Clouds -10 1017 96 0 4.46 1 12:21 07.04.2020
58 Clouds -10 1017 96 0 4.46 1 11:58 07.04.2020
59 Clouds -10 1017 96 0 4.46 1 11:40 07.04.2020
60 Clouds -10 1017 96 0 4.46 1 11:20 07.04.2020
61 Clouds -10 1017 96 0 4.46 1 10:54 07.04.2020
62 Clouds -10 1017 96 0 4.46 1 10:36 07.04.2020
63 Clouds -10 1017 96 0 4.46 1 10:18 07.04.2020
64 Clouds -10 1017 96 0 4.46 1 09:40 07.04.2020
65 Clouds -11 1017 96 0 4.6 351 09:18 07.04.2020
66 Clouds -11 1017 96 0 4.6 351 08:40 07.04.2020
67 Clouds -11 1017 96 0 4.6 351 08:22 07.04.2020
68 Clouds -11 1017 96 0 4.6 351 07:55 07.04.2020
69 Clouds -11 1017 96 0 4.6 351 07:37 07.04.2020
70 Clouds -11 1017 96 0 4.6 351 07:18 07.04.2020
71 Clouds -11 1017 96 0 4.6 351 06:39 07.04.2020
72 Clouds -11 1016 96 0 4.17 345 06:18 07.04.2020
73 Clouds -11 1016 96 0 4.17 345 05:26 07.04.2020
74 Clouds -11 1016 96 0 4.17 345 04:31 07.04.2020
75 Clouds -12 1016 96 0 3.97 338 03:23 07.04.2020
76 Clouds -12 1016 96 0 3.97 338 02:47 07.04.2020
77 Clouds -12 1015 96 0 3.9 336 01:43 07.04.2020
78 Clouds -12 1015 96 0 3.9 336 01:22 07.04.2020
79 Clouds -11 1013 96 0 4.05 327 00:26 07.04.2020
80 Clouds -11 1013 96 0 4.05 327 23:44 06.04.2020
81 Clouds -11 1013 96 0 4.05 327 23:23 06.04.2020
82 Clouds -11 1013 96 0 4.05 327 22:56 06.04.2020
83 Clouds -11 1013 96 0 4.05 327 22:37 06.04.2020
84 Clouds -11 1013 96 0 4.05 327 22:19 06.04.2020
85 Clouds -11 1013 96 0 4.05 327 21:56 06.04.2020
86 Clouds -11 1013 96 0 4.05 327 21:37 06.04.2020
87 Clouds -12 1013 95 0 3.6 328 21:18 06.04.2020
88 Clouds -12 1013 95 0 3.6 328 20:41 06.04.2020
89 Clouds -12 1013 95 0 3.6 328 20:21 06.04.2020
90 Clouds -12 1013 95 0 3.6 328 19:58 06.04.2020
91 Clouds -12 1013 95 0 3.6 328 19:39 06.04.2020
92 Clouds -12 1013 95 0 3.6 328 19:20 06.04.2020
93 Clouds -12 1013 95 0 3.6 328 18:43 06.04.2020
94 Clouds -11 1012 95 0 3.41 317 18:24 06.04.2020
95 Clouds -11 1012 95 0 3.41 317 17:59 06.04.2020
96 Clouds -11 1012 95 0 3.41 317 17:41 06.04.2020
97 Clouds -11 1012 95 0 3.41 317 17:19 06.04.2020
98 Clouds -11 1012 95 0 3.41 317 16:49 06.04.2020
99 Clouds -11 1012 95 0 3.41 317 16:30 06.04.2020
100 Clouds -9 1010 95 0 2.74 326 14:59 06.04.2020
101 Clouds -9 1010 95 0 2.74 326 14:59 06.04.2020
102 Clouds -9 1010 95 0 2.74 326 14:59 06.04.2020
103 Clouds -9 1010 95 0 2.74 326 14:59 06.04.2020
104 Clouds -9 1010 95 0 3 333 13:45 06.04.2020
105 Clouds -9 1010 95 0 3 333 13:22 06.04.2020
106 Clouds -9 1010 95 0 3 333 12:47 06.04.2020
107 Clouds -9 1010 95 0 3 333 12:20 06.04.2020
108 Clouds -8 1008 96 0 3.67 312 11:45 06.04.2020
109 Clouds -8 1008 96 0 3.67 312 11:26 06.04.2020
110 Clouds -8 1008 96 0 3.67 312 11:26 06.04.2020
111 Clouds -8 1008 96 0 3.67 312 11:25 06.04.2020
112 Clouds -8 1008 96 0 3.67 312 11:25 06.04.2020
113 Clouds -8 1008 96 0 3.67 312 10:43 06.04.2020
114 Clouds -8 1008 96 0 3.67 312 10:21 06.04.2020
115 Clouds -8 1008 96 0 3.67 312 10:21 06.04.2020
116 Clouds -8 1008 96 0 3.67 312 10:21 06.04.2020
117 Clouds -8 1008 96 0 3.67 312 10:21 06.04.2020
118 Clouds -8 1008 96 0 3.67 312 10:21 06.04.2020
119 Clouds -8 1008 96 0 3.67 312 09:41 06.04.2020
120 Clouds -8 1008 96 0 3.67 312 09:41 06.04.2020
121 Clouds -8 1008 96 0 3.67 312 09:41 06.04.2020
122 Clouds -8 1008 96 0 3.67 312 09:41 06.04.2020
123 Clouds -8 1008 96 0 3.67 312 09:41 06.04.2020
124 Clouds -7 1007 97 0 2.81 295 09:20 06.04.2020
125 Clouds -7 1007 97 0 2.81 295 08:49 06.04.2020
126 Clouds -7 1007 97 0 2.81 295 08:29 06.04.2020
127 Clouds -7 1007 97 0 2.81 295 08:29 06.04.2020
128 Clouds -7 1007 97 0 2.81 295 07:23 06.04.2020
129 Clouds -7 1007 97 0 2.81 295 06:28 06.04.2020
130 Snow -8 1006 97 0 3.2 246 05:56 06.04.2020
131 Snow -8 1006 97 0 3.2 246 05:55 06.04.2020
132 Snow -8 1006 97 0 3.2 246 05:55 06.04.2020
133 Snow -8 1006 97 0 3.2 246 04:18 06.04.2020
134 Snow -7 1005 97 0 3.31 220 02:54 06.04.2020
135 Snow -7 1005 97 0 3.17 223 01:56 06.04.2020
136 Snow -7 1005 97 0 3.17 223 00:58 06.04.2020
137 Snow -7 1005 97 0 3.17 223 00:28 06.04.2020
138 Clouds -8 1004 97 0 3.17 222 23:55 05.04.2020
139 Clouds -8 1004 97 0 3.17 222 23:37 05.04.2020
140 Clouds -8 1004 97 0 3.17 222 23:19 05.04.2020
141 Clouds -8 1004 97 0 3.17 222 22:54 05.04.2020
142 Clouds -8 1004 97 0 3.17 222 22:36 05.04.2020
143 Clouds -8 1004 97 0 3.17 222 22:18 05.04.2020
144 Clouds -8 1004 97 0 3.17 222 21:41 05.04.2020
145 Clouds -8 1004 97 0 3.17 222 21:23 05.04.2020
146 Clouds -7 1004 97 0 3.51 216 20:24 05.04.2020
147 Clouds -7 1004 97 0 3.51 216 20:24 05.04.2020
148 Clouds -7 1004 97 0 3.51 216 20:24 05.04.2020
149 Clouds -7 1004 97 0 3.51 216 19:43 05.04.2020
150 Clouds -7 1004 97 0 3.51 216 19:23 05.04.2020
151 Clouds -7 1004 97 0 3.51 216 18:48 05.04.2020
152 Clouds -7 1004 97 0 4.07 215 18:18 05.04.2020
153 Clouds -7 1004 97 0 4.07 215 18:18 05.04.2020
154 Clouds -7 1004 97 0 4.07 215 17:47 05.04.2020
155 Clouds -7 1004 97 0 4.07 215 17:47 05.04.2020
156 Clouds -7 1004 97 0 4.07 215 17:47 05.04.2020
157 Clouds -7 1004 97 0 4.07 215 17:47 05.04.2020
158 Clouds -7 1004 97 0 4.07 215 17:47 05.04.2020
159 Clouds -7 1004 97 0 4.07 215 17:22 05.04.2020
160 Clouds -7 1004 97 0 4.07 215 16:47 05.04.2020
161 Clouds -7 1004 97 0 4.07 215 16:19 05.04.2020
162 Clouds -7 1004 97 0 4.07 215 16:19 05.04.2020
163 Clouds -7 1004 97 0 4.07 215 15:45 05.04.2020
164 Clouds -7 1004 97 0 4.07 215 15:26 05.04.2020
165 Clouds -4 1003 95 0 5.02 231 14:48 05.04.2020
166 Clouds -4 1003 95 0 5.02 231 14:48 05.04.2020
167 Clouds -4 1003 95 0 5.02 231 14:48 05.04.2020
168 Clouds -4 1003 95 0 5.02 231 14:48 05.04.2020
169 Clouds -4 1003 95 0 5.02 231 14:48 05.04.2020
170 Clouds -5 1003 96 0 4.86 223 13:59 05.04.2020
171 Clouds -5 1003 96 0 4.86 223 13:40 05.04.2020
172 Clouds -5 1003 96 0 4.86 223 13:40 05.04.2020
173 Clouds -5 1003 96 0 4.86 223 13:40 05.04.2020
174 Clouds -5 1003 96 0 4.86 223 13:40 05.04.2020
175 Clouds -5 1003 96 0 4.86 223 13:40 05.04.2020
176 Clouds -4 1002 97 0 5.32 224 12:20 05.04.2020
177 Clouds -4 1002 97 0 5.32 224 12:20 05.04.2020
178 Clouds -4 1002 97 0 5.32 224 12:20 05.04.2020
179 Clouds -4 1002 97 0 5.32 224 11:39 05.04.2020
180 Clouds -4 1002 97 0 5.32 224 11:19 05.04.2020
181 Clouds -4 1002 97 0 5.32 224 10:47 05.04.2020
182 Clouds -4 1002 97 0 5.32 224 10:23 05.04.2020
183 Clouds -4 1002 97 0 5.32 224 09:53 05.04.2020
184 Clouds -6 1002 96 0 5.56 221 09:27 05.04.2020
185 Clouds -6 1002 96 0 5.56 221 09:27 05.04.2020
186 Clouds -6 1002 96 0 5.56 221 09:27 05.04.2020
187 Clouds -6 1001 97 0 5.57 231 08:31 05.04.2020
188 Clouds -6 1001 97 0 5.57 231 08:31 05.04.2020
189 Clouds -6 1001 97 0 5.57 231 08:31 05.04.2020
190 Clouds -6 1001 97 0 5.57 231 08:31 05.04.2020
191 Clouds -6 1001 97 0 5.57 231 08:31 05.04.2020
192 Clouds -6 1001 97 0 5.57 231 06:55 05.04.2020
193 Clouds -6 1001 97 0 5.57 231 06:51 05.04.2020
194 Clouds -6 1001 97 0 5.57 231 06:51 05.04.2020
195 Clouds -6 1001 97 0 5.57 231 06:49 05.04.2020
196 Clouds -6 1001 97 0 5.57 231 06:49 05.04.2020
197 Clouds -7 1000 97 0 5.8 230 04:31 05.04.2020
198 Clouds -7 1000 97 0 5.8 230 03:28 05.04.2020
199 Clouds -6 998 97 0 5.63 238 02:19 05.04.2020
200 Clouds -7 998 97 0 5.96 235 01:42 05.04.2020
201 Clouds -7 998 97 0 5.96 235 01:22 05.04.2020
202 Clouds -7 998 97 0 5.96 235 00:37 05.04.2020
203 Snow -2 995 97 0 6.44 252 00:18 05.04.2020
204 Snow -2 995 97 0 6.44 252 23:41 04.04.2020
205 Snow -2 995 97 0 6.44 252 23:22 04.04.2020
206 Snow -2 995 97 0 6.44 252 22:57 04.04.2020
207 Snow -2 995 97 0 6.44 252 22:39 04.04.2020
208 Snow -2 995 97 0 6.44 252 22:20 04.04.2020
209 Snow -2 995 97 0 6.44 252 21:57 04.04.2020
210 Snow -2 995 97 0 6.44 252 21:39 04.04.2020
211 Snow 0 994 96 0 5.97 227 21:19 04.04.2020
212 Snow 0 994 96 0 5.97 227 20:55 04.04.2020
213 Snow 0 994 96 0 5.97 227 20:36 04.04.2020
214 Snow 0 994 96 0 5.97 227 20:18 04.04.2020
215 Snow 0 994 96 0 5.97 227 19:41 04.04.2020
216 Snow 0 994 96 0 5.97 227 19:21 04.04.2020
217 Snow 0 994 96 0 5.97 227 18:59 04.04.2020
218 Snow 0 994 96 0 5.97 227 18:39 04.04.2020
219 Snow 0 994 96 0 5.97 227 18:21 04.04.2020
220 Snow 0 994 96 0 5.97 227 18:21 04.04.2020
221 Snow 0 993 96 0 6.03 220 17:58 04.04.2020
222 Snow 0 993 96 0 6.03 220 17:39 04.04.2020
223 Snow 0 993 96 0 6.03 220 17:19 04.04.2020
224 Snow 0 993 96 0 6.03 220 16:45 04.04.2020
225 Snow 0 993 96 0 6.03 220 16:27 04.04.2020
226 Snow 0 993 96 0 6.03 220 15:59 04.04.2020
227 Snow 0 993 96 0 6.03 220 15:39 04.04.2020
228 Snow 1 993 95 0 8.02 227 15:19 04.04.2020
229 Snow 1 993 95 0 8.02 227 14:55 04.04.2020
230 Snow 1 993 95 0 8.02 227 14:37 04.04.2020
231 Snow 1 992 95 0 7.48 226 14:18 04.04.2020
232 Snow 1 992 95 0 7.48 226 13:42 04.04.2020
233 Snow 1 992 95 0 7.48 226 13:22 04.04.2020
234 Snow 1 992 95 0 7.48 226 12:58 04.04.2020
235 Snow 1 992 95 0 7.48 226 12:40 04.04.2020
236 Snow 1 992 95 0 8.59 202 12:20 04.04.2020
237 Snow 1 992 95 0 8.59 202 11:42 04.04.2020
238 Snow 1 992 95 0 8.59 202 11:23 04.04.2020
239 Snow 1 992 95 0 8.59 202 10:59 04.04.2020
240 Snow 1 992 95 0 8.59 202 10:41 04.04.2020
241 Snow 1 992 95 0 8.59 202 10:23 04.04.2020
242 Snow 1 992 95 0 8.59 202 09:57 04.04.2020
243 Snow 1 992 95 0 8.59 202 09:39 04.04.2020
244 Snow 1 992 95 0 8.24 200 09:20 04.04.2020
245 Snow 1 993 95 0 8.12 200 08:44 04.04.2020
246 Snow 1 993 95 0 8.12 200 08:25 04.04.2020
247 Snow 1 993 95 0 8.12 200 07:59 04.04.2020
248 Snow 1 993 95 0 8.12 200 07:40 04.04.2020
249 Snow 1 993 95 0 8.12 200 07:21 04.04.2020
250 Snow 1 993 95 0 8.12 200 06:40 04.04.2020
251 Snow -2 995 98 0 5.15 171 05:52 04.04.2020
252 Snow -2 995 98 0 5.15 171 05:52 04.04.2020
253 Snow -2 995 98 0 5.15 171 05:33 04.04.2020
254 Snow -2 995 98 0 5.15 171 04:34 04.04.2020
255 Snow -2 995 98 0 5.15 171 03:57 04.04.2020
256 Snow -2 995 98 0 5.15 171 03:37 04.04.2020
257 Snow -6 996 97 0 5.97 128 02:48 04.04.2020
258 Snow -5 996 97 0 5.72 133 02:29 04.04.2020
259 Snow -5 996 97 0 5.72 133 01:46 04.04.2020
260 Snow -5 996 97 0 5.72 133 01:20 04.04.2020
261 Snow -5 996 97 0 5.72 133 00:43 04.04.2020
262 Snow -5 996 97 0 5.72 133 00:23 04.04.2020
263 Clouds -8 997 95 0 4.38 115 23:38 03.04.2020
264 Clouds -8 997 95 0 4.38 115 23:19 03.04.2020
265 Clouds -8 997 95 0 4.38 115 22:41 03.04.2020
266 Clouds -8 997 95 0 4.38 115 22:20 03.04.2020
267 Clouds -8 997 95 0 4.38 115 21:59 03.04.2020
268 Clouds -8 997 95 0 4.38 115 21:40 03.04.2020
269 Clouds -9 997 95 0 3.91 120 21:21 03.04.2020
270 Clouds -11 999 95 0 3.05 153 20:56 03.04.2020
271 Clouds -11 999 95 0 3.05 153 20:36 03.04.2020
272 Clouds -11 999 95 0 3.05 153 20:36 03.04.2020
273 Clouds -11 999 95 0 3.05 153 20:18 03.04.2020
274 Clouds -11 999 95 0 3.05 153 19:55 03.04.2020
275 Clouds -11 999 95 0 3.05 153 19:36 03.04.2020
276 Clouds -11 999 95 0 3.05 153 19:18 03.04.2020
277 Clouds -11 999 95 0 3.05 153 18:57 03.04.2020
278 Clouds -11 999 95 0 3.05 153 18:39 03.04.2020
279 Clouds -11 999 95 0 3.05 153 18:21 03.04.2020
280 Clouds -11 998 94 0 3.23 178 17:41 03.04.2020
281 Clouds -11 998 94 0 3.23 178 17:20 03.04.2020
282 Clouds -11 998 94 0 3.23 178 16:56 03.04.2020
283 Clouds -11 998 94 0 3.23 178 16:37 03.04.2020
284 Clouds -11 998 94 0 3.23 178 16:19 03.04.2020
285 Clouds -11 998 94 0 3.23 178 15:56 03.04.2020
286 Clouds -11 998 94 0 3.23 178 15:37 03.04.2020
287 Clouds -10 997 94 0 3.92 207 15:19 03.04.2020
288 Clouds -10 997 94 0 3.92 207 14:40 03.04.2020
289 Clouds -10 997 93 0 4.11 208 14:22 03.04.2020
290 Clouds -10 997 93 0 4.11 208 13:54 03.04.2020
291 Clouds -10 997 93 0 4.11 208 13:36 03.04.2020
292 Clouds -10 997 93 0 4.11 208 13:18 03.04.2020
293 Clouds -10 997 93 0 4.11 208 12:42 03.04.2020
294 Clouds -10 995 93 0 5.79 230 12:19 03.04.2020
295 Clouds -10 995 93 0 5.79 230 11:56 03.04.2020
296 Clouds -10 995 93 0 5.79 230 11:37 03.04.2020
297 Clouds -10 995 93 0 5.79 230 11:18 03.04.2020
298 Clouds -10 995 93 0 5.79 230 10:57 03.04.2020
299 Clouds -10 995 93 0 5.79 230 10:57 03.04.2020
300 Clouds -10 995 93 0 5.79 230 10:38 03.04.2020
301 Clouds -10 995 93 0 5.79 230 10:20 03.04.2020
302 Clouds -10 995 93 0 5.79 230 10:20 03.04.2020
303 Clouds -10 995 93 0 5.79 230 09:56 03.04.2020
304 Clouds -10 995 93 0 5.79 230 09:37 03.04.2020
305 Clouds -10 995 93 0 5.79 230 09:37 03.04.2020
306 Clouds -12 994 93 0 6.37 239 09:19 03.04.2020
307 Clouds -12 994 93 0 6.37 239 08:44 03.04.2020
308 Clouds -12 994 93 0 6.37 239 08:25 03.04.2020
309 Clouds -12 994 93 0 6.37 239 07:57 03.04.2020
310 Clouds -12 994 93 0 6.37 239 07:39 03.04.2020
311 Clouds -12 994 93 0 6.37 239 07:20 03.04.2020
312 Clouds -12 994 93 0 6.37 239 06:28 03.04.2020
313 Clouds -12 994 93 0 6.37 239 06:28 03.04.2020
314 Clouds -14 991 92 0 5.46 278 05:43 03.04.2020
315 Clouds -14 991 92 0 5.46 278 04:27 03.04.2020
316 Clouds -14 991 92 0 5.46 278 03:33 03.04.2020
317 Clouds -14 988 92 0 8.5 294 02:39 03.04.2020
318 Clouds -14 987 92 0 8.49 293 01:25 03.04.2020
319 Clouds -14 987 92 0 8.49 293 00:47 03.04.2020
320 Clouds -14 987 92 0 8.49 293 00:29 03.04.2020
321 Snow -13 983 93 0 8.76 292 23:54 02.04.2020
322 Snow -13 983 93 0 8.76 292 23:36 02.04.2020
323 Snow -13 983 93 0 8.76 292 23:18 02.04.2020
324 Snow -13 983 93 0 8.76 292 22:41 02.04.2020
325 Snow -13 983 93 0 8.76 292 22:22 02.04.2020
326 Snow -13 983 93 0 8.76 292 21:58 02.04.2020
327 Snow -13 983 93 0 8.76 292 21:37 02.04.2020
328 Snow -12 980 94 0 8.98 289 21:18 02.04.2020
329 Snow -12 980 94 0 9.54 290 20:44 02.04.2020
330 Snow -12 980 94 0 9.54 290 20:24 02.04.2020
331 Snow -12 980 94 0 9.54 290 19:57 02.04.2020
332 Snow -12 980 94 0 9.54 290 19:38 02.04.2020
333 Snow -12 980 94 0 9.54 290 19:20 02.04.2020
334 Snow -12 980 94 0 9.54 290 18:43 02.04.2020
335 Snow -12 980 94 0 9.54 290 18:21 02.04.2020
336 Snow -10 977 95 0 8.91 243 17:59 02.04.2020
337 Snow -10 977 95 0 8.91 243 17:59 02.04.2020
338 Snow -10 977 95 0 8.91 243 17:41 02.04.2020
339 Snow -10 977 95 0 8.91 243 17:22 02.04.2020
340 Snow -10 977 95 0 8.91 243 16:58 02.04.2020
341 Snow -10 977 95 0 8.91 243 16:39 02.04.2020
342 Snow -10 977 95 0 8.91 243 16:21 02.04.2020
343 Snow -10 977 95 0 8.91 243 15:56 02.04.2020
344 Snow -10 977 95 0 8.91 243 15:38 02.04.2020
345 Snow -8 976 95 0 7.99 231 15:18 02.04.2020
346 Snow -8 976 95 0 7.99 231 14:55 02.04.2020
347 Snow -8 976 95 0 7.99 231 14:37 02.04.2020
348 Snow -8 977 95 0 7.22 237 14:18 02.04.2020
349 Snow -8 977 95 0 7.22 237 13:40 02.04.2020
350 Snow -8 977 95 0 7.22 237 13:21 02.04.2020
351 Snow -8 977 95 0 7.22 237 12:59 02.04.2020
352 Snow -8 977 95 0 7.22 237 12:41 02.04.2020
353 Snow -6 977 95 0 4.91 207 12:19 02.04.2020
354 Snow -6 977 95 0 4.91 207 11:57 02.04.2020
355 Snow -6 977 95 0 4.91 207 11:38 02.04.2020
356 Snow -6 977 95 0 4.91 207 11:19 02.04.2020
357 Snow -6 977 95 0 4.91 207 10:55 02.04.2020
358 Snow -6 977 95 0 4.91 207 10:37 02.04.2020
359 Snow -6 977 95 0 4.91 207 10:19 02.04.2020
360 Snow -6 977 95 0 4.91 207 09:56 02.04.2020
361 Snow -6 977 95 0 4.91 207 09:38 02.04.2020
362 Snow -7 980 96 0 4.5 131 09:19 02.04.2020
363 Snow -7 980 96 0 4.5 131 08:46 02.04.2020
364 Snow -7 980 96 0 4.5 131 08:26 02.04.2020
365 Snow -7 980 96 0 4.5 131 07:45 02.04.2020
366 Snow -7 980 96 0 4.5 131 07:21 02.04.2020
367 Snow -7 980 96 0 4.5 131 06:58 02.04.2020
368 Snow -7 980 96 0 4.5 131 06:22 02.04.2020
369 Snow -9 984 96 0 9.28 93 05:45 02.04.2020
370 Snow -9 984 96 0 9.28 93 04:35 02.04.2020
371 Clouds -11 990 94 0 8.86 89 01:52 02.04.2020
372 Clouds -11 990 94 0 8.86 89 00:51 02.04.2020
373 Clouds -11 990 94 0 8.86 89 00:29 02.04.2020
374 Clouds -11 996 93 0 6.23 83 23:57 01.04.2020
375 Clouds -11 996 93 0 6.23 83 23:37 01.04.2020
376 Clouds -11 996 93 0 6.23 83 23:37 01.04.2020
377 Clouds -11 996 93 0 6.23 83 23:18 01.04.2020
378 Clouds -11 996 93 0 6.23 83 22:41 01.04.2020
379 Clouds -11 996 93 0 6.23 83 22:22 01.04.2020
380 Clouds -11 996 93 0 6.23 83 21:57 01.04.2020
381 Clouds -11 996 93 0 6.23 83 21:57 01.04.2020
382 Clouds -11 996 93 0 6.23 83 21:38 01.04.2020
383 Clouds -12 1001 93 0 4.6 122 21:18 01.04.2020
384 Clouds -12 1002 93 0 4.83 124 20:55 01.04.2020
385 Clouds -12 1002 93 0 4.83 124 20:37 01.04.2020
386 Clouds -12 1002 93 0 4.83 124 20:18 01.04.2020
387 Clouds -12 1002 93 0 4.83 124 19:43 01.04.2020
388 Clouds -12 1002 93 0 4.83 124 19:22 01.04.2020
389 Clouds -12 1002 93 0 4.83 124 18:59 01.04.2020
390 Clouds -12 1002 93 0 4.83 124 18:40 01.04.2020
391 Clouds -12 1002 93 0 4.83 124 18:21 01.04.2020
392 Clouds -11 1004 93 0 3.31 131 17:55 01.04.2020
393 Clouds -11 1004 93 0 3.31 131 17:36 01.04.2020
394 Clouds -11 1004 93 0 3.31 131 17:18 01.04.2020
395 Clouds -11 1004 93 0 3.31 131 16:43 01.04.2020
396 Clouds -11 1004 93 0 3.31 131 16:25 01.04.2020
397 Clouds -11 1004 93 0 3.31 131 15:59 01.04.2020
398 Clouds -11 1004 93 0 3.31 131 15:41 01.04.2020
399 Clouds -11 1004 93 0 3.31 131 15:22 01.04.2020
400 Clouds -11 1006 93 0 2.94 167 14:58 01.04.2020
401 Clouds -11 1006 93 0 2.94 167 14:39 01.04.2020
402 Clouds -11 1006 93 0 2.94 167 14:20 01.04.2020
403 Clouds -11 1006 92 0 2.84 160 13:58 01.04.2020
404 Clouds -11 1006 92 0 2.84 160 13:38 01.04.2020
405 Clouds -11 1006 92 0 2.84 160 13:19 01.04.2020
406 Clouds -11 1006 92 0 2.84 160 12:56 01.04.2020
407 Clouds -11 1006 92 0 2.84 160 12:36 01.04.2020
408 Clear -11 1007 92 0 2.98 191 12:18 01.04.2020
409 Clear -11 1007 92 0 2.98 191 11:44 01.04.2020
410 Clear -11 1007 92 0 2.98 191 11:24 01.04.2020
411 Clear -11 1007 92 0 2.98 191 10:59 01.04.2020
412 Clear -11 1007 92 0 2.98 191 10:38 01.04.2020
413 Clear -11 1007 92 0 2.98 191 10:20 01.04.2020
414 Clear -11 1007 92 0 2.98 191 09:57 01.04.2020
415 Clear -11 1007 92 0 2.98 191 09:39 01.04.2020
416 Clouds -12 1007 93 0 3.37 196 09:19 01.04.2020
417 Clouds -12 1008 93 0 3.19 199 08:42 01.04.2020
418 Clouds -12 1008 93 0 3.19 199 08:18 01.04.2020
419 Clouds -12 1008 93 0 3.19 199 07:46 01.04.2020
420 Clouds -12 1008 93 0 3.19 199 07:21 01.04.2020
421 Clouds -12 1008 93 0 3.19 199 06:52 01.04.2020
422 Clouds -12 1008 93 0 3.19 199 06:27 01.04.2020
423 Clouds -14 1007 94 0 3.07 207 05:58 01.04.2020
424 Clouds -14 1007 94 0 3.07 207 04:36 01.04.2020
425 Clouds -14 1007 94 0 3.07 207 03:33 01.04.2020
426 Clouds -15 1008 94 0 2.66 220 02:57 01.04.2020
427 Clouds -15 1007 94 0 2.72 223 01:59 01.04.2020
428 Clouds -15 1007 94 0 2.72 223 01:40 01.04.2020
429 Clouds -15 1007 94 0 2.72 223 01:19 01.04.2020
430 Clouds -15 1007 94 0 2.72 223 00:46 01.04.2020
431 Clouds -15 1007 94 0 2.72 223 00:21 01.04.2020
432 Clouds -14 1006 94 0 1.94 240 23:48 31.03.2020
433 Clouds -14 1006 94 0 1.94 240 23:27 31.03.2020
434 Clouds -14 1006 94 0 1.94 240 22:59 31.03.2020
435 Clouds -14 1006 94 0 1.94 240 22:37 31.03.2020
436 Clouds -14 1006 94 0 1.94 240 22:19 31.03.2020
437 Clouds -14 1006 94 0 1.94 240 21:57 31.03.2020
438 Clouds -14 1006 94 0 1.94 240 21:39 31.03.2020
439 Clouds -14 1006 94 0 1.46 244 21:20 31.03.2020
440 Clouds -14 1006 94 0 1.46 244 20:55 31.03.2020
441 Clouds -14 1006 94 0 1.46 244 20:36 31.03.2020
442 Clouds -14 1006 94 0 1.46 244 20:36 31.03.2020
443 Clouds -14 1006 94 0 1.46 244 20:36 31.03.2020
444 Clouds -14 1006 94 0 1.46 244 20:36 31.03.2020
445 Clouds -14 1006 94 0 1.46 244 20:18 31.03.2020
446 Clouds -14 1006 94 0 1.46 244 19:42 31.03.2020
447 Clouds -14 1006 94 0 1.46 244 19:24 31.03.2020
448 Clouds -14 1006 94 0 1.46 244 18:59 31.03.2020
449 Clouds -14 1006 94 0 1.46 244 18:59 31.03.2020
450 Clouds -14 1006 94 0 1.46 244 18:40 31.03.2020
451 Clouds -14 1005 93 0 1.54 302 18:19 31.03.2020
452 Clouds -14 1005 93 0 1.54 302 17:55 31.03.2020
453 Clouds -14 1005 93 0 1.54 302 17:37 31.03.2020
454 Clouds -14 1005 93 0 1.54 302 17:19 31.03.2020
455 Clouds -14 1005 93 0 1.54 302 16:41 31.03.2020
456 Clouds -14 1005 93 0 1.54 302 16:20 31.03.2020
457 Clouds -14 1005 93 0 1.54 302 15:58 31.03.2020
458 Clouds -14 1005 93 0 1.54 302 15:40 31.03.2020
459 Clouds -14 1005 93 0 1.54 302 15:22 31.03.2020
460 Clouds -12 1005 94 0 2.78 309 14:58 31.03.2020
461 Clouds -12 1005 94 0 2.78 309 14:39 31.03.2020
462 Clouds -12 1004 94 0 2.9 320 14:21 31.03.2020
463 Clouds -12 1004 94 0 2.9 320 13:43 31.03.2020
464 Clouds -12 1004 94 0 2.9 320 13:20 31.03.2020
465 Clouds -12 1004 94 0 2.9 320 12:59 31.03.2020
466 Clouds -12 1004 94 0 2.9 320 12:40 31.03.2020
467 Snow -11 1002 96 0 4.66 336 12:19 31.03.2020
468 Snow -11 1002 96 0 4.66 336 12:19 31.03.2020
469 Snow -11 1002 96 0 4.66 336 11:41 31.03.2020
470 Snow -11 1002 96 0 4.66 336 11:20 31.03.2020
471 Snow -11 1002 96 0 4.66 336 10:59 31.03.2020
472 Snow -11 1002 96 0 4.66 336 10:41 31.03.2020
473 Snow -11 1002 96 0 4.66 336 10:22 31.03.2020
474 Snow -11 1002 96 0 4.66 336 09:59 31.03.2020
475 Snow -11 1002 96 0 4.66 336 09:41 31.03.2020
476 Snow -11 1003 95 0 4.24 330 09:22 31.03.2020
477 Snow -9 1001 96 0 4.43 350 08:57 31.03.2020
478 Snow -9 1001 96 0 4.43 350 08:38 31.03.2020
479 Snow -9 1001 96 0 4.43 350 08:19 31.03.2020
480 Snow -9 1001 96 0 4.43 350 08:19 31.03.2020
481 Snow -9 1001 96 0 4.43 350 07:56 31.03.2020
482 Snow -9 1001 96 0 4.43 350 07:37 31.03.2020
483 Snow -9 1001 96 0 4.43 350 07:18 31.03.2020
484 Snow -9 1001 96 0 4.43 350 06:45 31.03.2020
485 Snow -8 999 97 0 1.1 12 06:18 31.03.2020
486 Snow -8 999 97 0 1.1 12 05:39 31.03.2020
487 Snow -8 999 97 0 1.1 12 03:34 31.03.2020
488 Snow -7 999 96 0 5.02 225 01:54 31.03.2020
489 Snow -7 999 96 0 5.02 225 01:34 31.03.2020
490 Snow -7 999 96 0 5.02 225 00:47 31.03.2020
491 Snow -7 999 96 0 5.02 225 00:25 31.03.2020
492 Snow -7 998 97 0 4.9 228 23:42 30.03.2020
493 Snow -7 998 97 0 4.9 228 23:20 30.03.2020
494 Snow -7 998 97 0 4.9 228 22:58 30.03.2020
495 Snow -7 998 97 0 4.9 228 22:39 30.03.2020
496 Snow -7 998 97 0 4.9 228 22:21 30.03.2020
497 Snow -7 998 97 0 4.9 228 21:58 30.03.2020
498 Snow -7 998 97 0 4.9 228 21:39 30.03.2020
499 Snow -7 998 97 0 4.9 228 21:21 30.03.2020
500 Clouds -7 997 97 0 2.49 212 20:59 30.03.2020
501 Clouds -7 997 97 0 2.49 212 20:39 30.03.2020
502 Clouds -7 997 97 0 2.49 212 20:20 30.03.2020
503 Clouds -7 997 97 0 2.49 212 19:57 30.03.2020
504 Clouds -7 997 97 0 2.49 212 19:39 30.03.2020
505 Clouds -7 997 97 0 2.49 212 19:20 30.03.2020
506 Clouds -7 997 97 0 2.49 212 18:44 30.03.2020
507 Clouds -7 997 97 0 2.49 212 18:26 30.03.2020
508 Clouds -6 996 96 0 3.74 176 17:58 30.03.2020
509 Clouds -6 996 96 0 3.74 176 17:40 30.03.2020
510 Clouds -6 996 96 0 3.74 176 17:22 30.03.2020
511 Clouds -6 996 96 0 3.74 176 16:59 30.03.2020
512 Clouds -6 996 96 0 3.74 176 16:40 30.03.2020
513 Clouds -6 996 96 0 3.74 176 16:21 30.03.2020
514 Clouds -6 996 96 0 3.74 176 15:56 30.03.2020
515 Clouds -6 996 96 0 3.74 176 15:56 30.03.2020
516 Clouds -6 996 96 0 3.74 176 15:38 30.03.2020
517 Snow -5 996 96 0 6.58 208 15:20 30.03.2020
518 Snow -5 996 96 0 6.58 208 14:56 30.03.2020
519 Snow -5 996 96 0 6.58 208 14:37 30.03.2020
520 Snow -5 996 96 0 6.58 208 14:18 30.03.2020
521 Snow -5 996 96 0 6.58 208 14:18 30.03.2020
522 Snow -4 996 96 0 5.24 197 13:56 30.03.2020
523 Snow -4 996 96 0 5.24 197 13:37 30.03.2020
524 Snow -4 996 96 0 5.24 197 13:19 30.03.2020
525 Snow -4 996 96 0 5.24 197 12:44 30.03.2020
526 Snow -4 996 96 0 5.24 197 12:21 30.03.2020
527 Snow -5 994 96 0 5.08 187 11:58 30.03.2020
528 Snow -5 994 96 0 5.08 187 11:39 30.03.2020
529 Snow -5 994 96 0 5.08 187 11:21 30.03.2020
530 Snow -5 994 96 0 5.08 187 10:42 30.03.2020
531 Snow -5 994 96 0 5.08 187 10:23 30.03.2020
532 Snow -5 994 96 0 5.08 187 09:59 30.03.2020
533 Snow -5 994 96 0 5.08 187 09:40 30.03.2020
534 Snow -7 994 95 0 4.73 183 09:19 30.03.2020
535 Snow -7 994 95 0 4.73 183 08:54 30.03.2020
536 Snow -7 994 95 0 4.73 183 08:36 30.03.2020
537 Snow -7 994 95 0 4.73 183 08:18 30.03.2020
538 Snow -7 994 95 0 4.73 183 07:41 30.03.2020
539 Snow -7 994 95 0 4.73 183 07:20 30.03.2020
540 Snow -7 994 95 0 4.73 183 06:39 30.03.2020
541 Snow -7 992 96 0 3.6 148 06:19 30.03.2020
542 Snow -7 992 96 0 3.6 148 05:39 30.03.2020
543 Snow -7 992 96 0 3.6 148 04:28 30.03.2020
544 Snow -7 992 96 0 3.6 148 03:52 30.03.2020
545 Snow -7 991 96 0 3.06 111 02:44 30.03.2020
546 Snow -6 991 97 0 2.65 137 01:54 30.03.2020
547 Snow -6 991 97 0 2.65 137 00:57 30.03.2020
548 Snow -6 991 97 0 2.65 137 00:26 30.03.2020
549 Snow -7 989 96 0 3.56 113 23:55 29.03.2020
550 Snow -7 989 96 0 3.56 113 23:36 29.03.2020
551 Snow -7 989 96 0 3.56 113 23:18 29.03.2020
552 Snow -7 989 96 0 3.56 113 22:40 29.03.2020
553 Snow -7 989 96 0 3.56 113 22:20 29.03.2020
554 Snow -7 989 96 0 3.56 113 21:59 29.03.2020
555 Snow -7 989 96 0 3.56 113 21:37 29.03.2020
556 Snow -7 989 97 0 5.8 90 21:19 29.03.2020
557 Snow -7 989 97 0 5.8 90 20:55 29.03.2020
558 Snow -7 989 97 0 5.8 90 20:37 29.03.2020
559 Snow -7 989 97 0 5.8 90 20:18 29.03.2020
560 Snow -7 989 97 0 5.8 90 20:18 29.03.2020
561 Snow -7 989 97 0 5.8 90 20:18 29.03.2020
562 Snow -7 989 97 0 5.8 90 19:55 29.03.2020
563 Snow -7 989 97 0 5.8 90 19:37 29.03.2020
564 Snow -7 989 97 0 5.8 90 19:19 29.03.2020
565 Snow -7 989 97 0 5.8 90 18:55 29.03.2020
566 Snow -7 989 97 0 5.8 90 18:37 29.03.2020
567 Snow -7 986 96 0 5.81 102 18:18 29.03.2020
568 Snow -7 986 96 0 5.81 102 17:54 29.03.2020
569 Snow -7 986 96 0 5.81 102 17:36 29.03.2020
570 Snow -7 986 96 0 5.81 102 17:18 29.03.2020
571 Snow -7 986 96 0 5.81 102 17:18 29.03.2020
572 Snow -7 986 96 0 5.81 102 16:55 29.03.2020
573 Snow -7 986 96 0 5.81 102 16:36 29.03.2020
574 Snow -7 986 96 0 5.81 102 16:36 29.03.2020
575 Snow -7 986 96 0 5.81 102 16:36 29.03.2020
576 Snow -7 986 96 0 5.81 102 16:36 29.03.2020
577 Snow -7 986 96 0 5.81 102 16:36 29.03.2020
578 Snow -7 986 96 0 5.81 102 16:18 29.03.2020
579 Snow -7 986 96 0 5.81 102 15:40 29.03.2020
580 Snow -7 986 96 0 5.81 102 15:22 29.03.2020
581 Snow -5 987 97 0 6.26 123 14:57 29.03.2020
582 Snow -5 987 97 0 6.26 123 14:38 29.03.2020
583 Snow -5 987 97 0 6.26 123 14:19 29.03.2020
584 Snow -5 988 97 0 6.08 125 13:56 29.03.2020
585 Snow -5 988 97 0 6.08 125 13:37 29.03.2020
586 Snow -5 988 97 0 6.08 125 13:19 29.03.2020
587 Snow -5 988 97 0 6.08 125 12:55 29.03.2020
588 Snow -5 988 97 0 6.08 125 12:37 29.03.2020
589 Snow -3 986 98 0 7.84 125 12:18 29.03.2020
590 Snow -3 986 98 0 7.84 125 11:39 29.03.2020
591 Snow -3 986 98 0 7.84 125 11:21 29.03.2020
592 Snow -3 986 98 0 7.84 125 10:55 29.03.2020
593 Snow -3 986 98 0 7.84 125 10:37 29.03.2020
594 Snow -3 986 98 0 7.84 125 10:18 29.03.2020
595 Snow -3 986 98 0 7.84 125 09:39 29.03.2020
596 Snow -3 989 97 0 11.24 115 09:19 29.03.2020
597 Snow -4 988 97 0 11.13 107 08:52 29.03.2020
598 Snow -4 988 97 0 11.13 107 08:28 29.03.2020
599 Snow -4 988 97 0 11.13 107 07:58 29.03.2020
600 Snow -4 988 97 0 11.13 107 07:39 29.03.2020
601 Snow -4 988 97 0 11.13 107 07:20 29.03.2020
602 Clouds -5 990 96 0 9.14 118 04:59 29.03.2020
603 Clouds -5 990 96 0 9.14 118 03:48 29.03.2020
604 Clouds -5 990 96 0 9.14 118 03:26 29.03.2020
605 Clouds -5 994 97 0 5.76 121 01:50 29.03.2020
606 Clouds -5 995 96 0 6.14 123 01:23 29.03.2020
607 Clouds -5 995 96 0 6.14 123 00:53 29.03.2020
608 Clouds -5 995 96 0 6.14 123 00:30 29.03.2020
609 Clouds -5 995 96 0 6.14 123 23:42 28.03.2020
610 Clouds -5 995 96 0 6.14 123 23:23 28.03.2020
611 Clouds -5 996 95 0 3.96 138 22:57 28.03.2020
612 Clouds -5 996 95 0 3.96 138 22:37 28.03.2020
613 Clouds -5 996 95 0 3.96 138 22:19 28.03.2020
614 Clouds -5 996 95 0 3.96 138 21:42 28.03.2020
615 Clouds -5 996 95 0 3.96 138 21:24 28.03.2020
616 Clouds -5 996 95 0 3.96 138 20:58 28.03.2020
617 Clouds -5 996 95 0 3.96 138 20:39 28.03.2020
618 Clouds -6 996 95 0 3.17 117 20:21 28.03.2020
619 Clouds -6 997 94 0 2.43 62 19:56 28.03.2020
620 Clouds -6 997 94 0 2.43 62 19:37 28.03.2020
621 Clouds -6 997 94 0 2.43 62 19:37 28.03.2020
622 Clouds -6 997 94 0 2.43 62 19:19 28.03.2020
623 Clouds -6 997 94 0 2.43 62 18:55 28.03.2020
624 Clouds -6 997 94 0 2.43 62 18:36 28.03.2020
625 Clouds -6 997 94 0 2.43 62 18:18 28.03.2020
626 Clouds -6 997 94 0 2.43 62 17:38 28.03.2020
627 Snow -3 996 95 0 1.1 21 17:19 28.03.2020
628 Snow -3 996 95 0 1.1 21 16:42 28.03.2020
629 Snow -3 996 95 0 1.1 21 16:20 28.03.2020
630 Snow -3 996 95 0 1.1 21 15:56 28.03.2020
631 Snow -3 996 95 0 1.1 21 15:38 28.03.2020
632 Snow -3 996 95 0 1.1 21 15:18 28.03.2020
633 Snow -3 996 95 0 1.1 21 14:42 28.03.2020
634 Snow -3 996 95 0 1.1 21 14:22 28.03.2020
635 Snow -3 998 95 0 3.41 262 13:57 28.03.2020
636 Snow -3 998 95 0 3.41 262 13:37 28.03.2020
637 Snow -2 998 96 0 4.31 263 13:18 28.03.2020
638 Snow -2 998 96 0 4.31 263 12:38 28.03.2020
639 Snow -2 998 96 0 4.31 263 12:19 28.03.2020
640 Snow -2 998 96 0 4.31 263 11:42 28.03.2020
641 Snow -2 998 96 0 4.31 263 11:21 28.03.2020
642 Clouds -3 997 94 0 7.91 279 10:55 28.03.2020
643 Clouds -3 997 94 0 7.91 279 10:36 28.03.2020
644 Clouds -3 997 94 0 7.91 279 10:18 28.03.2020
645 Clouds -3 997 94 0 7.91 279 09:40 28.03.2020
646 Clouds -3 997 94 0 7.91 279 09:22 28.03.2020
647 Clouds -3 997 94 0 7.91 279 08:45 28.03.2020
648 Clouds -3 997 94 0 8.55 281 08:25 28.03.2020
649 Clouds -3 997 95 0 11.18 281 07:59 28.03.2020
650 Clouds -3 997 95 0 11.18 281 07:41 28.03.2020
651 Clouds -3 997 95 0 11.18 281 06:54 28.03.2020
652 Clouds -3 997 95 0 11.18 281 06:29 28.03.2020
653 Clouds -3 997 95 0 11.18 281 05:38 28.03.2020
654 Snow -2 996 96 0 9.99 271 05:19 28.03.2020
655 Snow -2 996 96 0 9.99 271 04:39 28.03.2020
656 Snow -2 996 96 0 9.99 271 02:52 28.03.2020
657 Snow -1 997 97 0 9.24 265 01:48 28.03.2020
658 Snow -1 997 97 0 9.44 267 01:23 28.03.2020
659 Snow -1 997 97 0 9.24 265 00:52 28.03.2020
660 Snow -1 997 97 0 9.24 265 00:28 28.03.2020
661 Snow -1 997 97 0 9.24 265 23:44 27.03.2020
662 Snow -1 997 97 0 9.24 265 23:26 27.03.2020
663 Snow -3 997 97 0 7.86 238 22:57 27.03.2020
664 Snow -3 997 97 0 7.86 238 22:39 27.03.2020
665 Snow -3 997 97 0 7.86 238 22:21 27.03.2020
666 Snow -3 997 97 0 7.86 238 21:58 27.03.2020
667 Snow -3 997 97 0 7.86 238 21:40 27.03.2020
668 Snow -3 997 97 0 7.86 238 21:22 27.03.2020
669 Snow -3 997 97 0 7.86 238 20:57 27.03.2020
670 Snow -3 997 97 0 7.55 232 20:39 27.03.2020
671 Snow -2 1000 97 0 7.83 252 20:19 27.03.2020
672 Snow -2 1000 97 0 8.21 252 20:19 27.03.2020
673 Snow -2 1000 97 0 7.83 252 20:19 27.03.2020
674 Snow -2 1000 97 0 7.83 252 19:55 27.03.2020
675 Snow -2 1000 97 0 7.83 252 19:55 27.03.2020
676 Snow -2 1000 97 0 7.83 252 19:36 27.03.2020
677 Snow -2 1000 97 0 7.83 252 19:18 27.03.2020
678 Snow -2 1000 97 0 7.83 252 18:42 27.03.2020
679 Snow -2 1000 97 0 7.83 252 18:22 27.03.2020
680 Snow -2 1000 97 0 7.83 252 17:54 27.03.2020
681 Snow -2 1000 97 0 7.83 252 17:36 27.03.2020
682 Snow -3 1002 98 0 5.06 224 17:18 27.03.2020
683 Snow -3 1002 98 0 5.06 224 16:41 27.03.2020
684 Snow -3 1002 98 0 5.06 224 16:23 27.03.2020
685 Snow -3 1002 98 0 5.06 224 15:43 27.03.2020
686 Snow -3 1002 98 0 5.06 224 15:25 27.03.2020
687 Snow -3 1002 98 0 5.06 224 14:48 27.03.2020
688 Snow -3 1002 98 0 5.06 224 14:27 27.03.2020
689 Clouds -5 1004 94 0 4.94 278 13:58 27.03.2020
690 Clouds -5 1004 94 0 4.94 278 13:40 27.03.2020
691 Clouds -5 1004 94 0 4.94 278 13:21 27.03.2020
692 Clouds -5 1004 94 0 4.7 274 12:57 27.03.2020
693 Clouds -5 1004 94 0 4.7 274 12:39 27.03.2020
694 Clouds -5 1004 94 0 4.7 274 12:19 27.03.2020
695 Clouds -5 1004 94 0 4.7 274 11:41 27.03.2020
696 Clouds -5 1004 94 0 4.7 274 11:23 27.03.2020
697 Clouds -5 1004 94 0 4.7 274 11:23 27.03.2020
698 Clouds -4 1003 93 0 7.7 302 10:55 27.03.2020
699 Clouds -4 1003 93 0 7.7 302 10:37 27.03.2020
700 Clouds -4 1003 93 0 7.7 302 10:19 27.03.2020
701 Clouds -4 1003 93 0 7.7 302 09:57 27.03.2020
702 Clouds -4 1003 93 0 7.7 302 09:37 27.03.2020
703 Clouds -4 1003 93 0 7.7 302 09:18 27.03.2020
704 Clouds -4 1003 93 0 7.7 302 08:56 27.03.2020
705 Clouds -4 1003 93 0 7.7 302 08:38 27.03.2020
706 Clouds -5 1002 94 0 7.63 314 08:20 27.03.2020
707 Clouds -5 1002 94 0 7.63 314 07:50 27.03.2020
708 Clouds -5 1002 94 0 7.63 314 07:24 27.03.2020
709 Clouds -5 1002 94 0 7.63 314 06:53 27.03.2020
710 Clouds -5 1002 94 0 7.63 314 06:35 27.03.2020
711 Clouds -5 999 94 0 8.26 312 04:24 27.03.2020
712 Clouds -5 999 94 0 8.26 312 02:36 27.03.2020
713 Clouds -4 997 97 0 7.5 302 01:23 27.03.2020
714 Clouds -4 997 97 0 7.5 302 00:50 27.03.2020
715 Clouds -4 997 97 0 7.5 302 00:24 27.03.2020
716 Clouds -4 997 97 0 7.5 302 23:44 26.03.2020
717 Clouds -4 997 97 0 7.5 302 23:22 26.03.2020
718 Clouds -5 994 97 0 5.55 298 22:59 26.03.2020
719 Clouds -5 994 97 0 5.55 298 22:38 26.03.2020
720 Clouds -5 994 97 0 5.55 298 22:19 26.03.2020
721 Clouds -5 994 97 0 5.55 298 21:56 26.03.2020
722 Clouds -5 994 97 0 5.55 298 21:37 26.03.2020
723 Clouds -5 994 97 0 5.55 298 21:18 26.03.2020
724 Clouds -5 994 97 0 5.55 298 20:56 26.03.2020
725 Clouds -5 994 97 0 5.55 298 20:37 26.03.2020
726 Clouds -4 993 98 0 5.61 302 20:19 26.03.2020
727 Clouds -4 993 98 0 5.61 302 19:54 26.03.2020
728 Clouds -4 993 98 0 5.61 302 19:36 26.03.2020
729 Clouds -4 993 98 0 5.61 302 19:18 26.03.2020
730 Clouds -4 993 98 0 5.61 302 18:41 26.03.2020
731 Clouds -4 993 98 0 5.61 302 18:23 26.03.2020
732 Clouds -4 993 98 0 5.61 302 17:55 26.03.2020
733 Clouds -4 993 98 0 5.61 302 17:37 26.03.2020
734 Clouds -2 990 97 0 6.29 301 17:18 26.03.2020
735 Clouds -2 990 97 0 6.29 301 16:39 26.03.2020
736 Clouds -2 990 97 0 6.29 301 16:21 26.03.2020
737 Clouds -2 990 97 0 6.29 301 15:56 26.03.2020
738 Clouds -2 990 97 0 6.29 301 15:38 26.03.2020
739 Clouds -2 990 97 0 6.29 301 15:38 26.03.2020
740 Clouds -2 990 97 0 6.29 301 15:20 26.03.2020
741 Clouds -2 990 97 0 6.29 301 14:43 26.03.2020
742 Clouds -2 990 97 0 6.29 301 14:25 26.03.2020
743 Snow -1 988 97 0 7.95 307 13:59 26.03.2020
744 Snow -1 988 97 0 7.95 307 13:40 26.03.2020
745 Snow -1 988 97 0 7.95 307 13:21 26.03.2020
746 Snow -1 988 97 0 7.95 307 13:21 26.03.2020
747 Snow -1 988 97 0 7.79 306 12:39 26.03.2020
748 Snow -1 988 97 0 7.79 306 12:21 26.03.2020
749 Snow -1 988 97 0 7.79 306 11:56 26.03.2020
750 Snow -1 988 97 0 7.79 306 11:56 26.03.2020
751 Snow -1 988 97 0 7.79 306 11:37 26.03.2020
752 Snow -1 985 98 0 9.14 315 11:19 26.03.2020
753 Snow -1 985 98 0 9.14 315 10:42 26.03.2020
754 Snow -1 985 98 0 9.14 315 10:20 26.03.2020
755 Snow -1 985 98 0 9.14 315 09:46 26.03.2020
756 Snow -1 985 98 0 9.14 315 09:24 26.03.2020
757 Snow -1 985 98 0 9.14 315 08:58 26.03.2020
758 Snow -1 985 98 0 9.14 315 08:40 26.03.2020
759 Snow -1 986 98 0 8.59 314 08:22 26.03.2020
760 Snow -1 984 98 0 5.49 286 07:56 26.03.2020
761 Snow -1 984 98 0 5.49 286 07:38 26.03.2020
762 Snow -1 984 98 0 5.49 286 07:19 26.03.2020
763 Snow -1 984 98 0 5.49 286 06:33 26.03.2020
764 Snow -1 984 98 0 5.49 286 05:47 26.03.2020
765 Snow -1 983 98 0 6.2 209 03:46 26.03.2020
766 Snow -1 983 98 0 6.2 209 02:58 26.03.2020
767 Snow -2 987 98 0 8.22 194 01:51 26.03.2020
768 Snow -2 987 98 0 8.22 194 01:18 26.03.2020
769 Snow -2 986 98 0 7.96 194 00:32 26.03.2020
770 Snow -2 986 98 0 7.96 194 23:44 25.03.2020
771 Snow -2 986 98 0 7.96 194 23:24 25.03.2020
772 Snow -2 989 98 0 7.6 199 22:54 25.03.2020
773 Snow -2 989 98 0 7.6 199 22:36 25.03.2020
774 Snow -2 989 98 0 7.6 199 22:18 25.03.2020
775 Snow -2 989 98 0 7.6 199 21:42 25.03.2020
776 Snow -2 989 98 0 7.6 199 21:23 25.03.2020
777 Snow -2 989 98 0 7.6 199 20:58 25.03.2020
778 Snow -2 989 98 0 7.6 199 20:38 25.03.2020
779 Snow -1 994 97 0 7.75 228 20:19 25.03.2020
780 Snow 0 994 98 0 7.65 226 19:55 25.03.2020
781 Snow 0 994 98 0 7.65 226 19:36 25.03.2020
782 Snow 0 994 98 0 7.65 226 19:18 25.03.2020
783 Snow 0 994 98 0 7.65 226 18:42 25.03.2020
784 Snow 0 994 98 0 7.65 226 18:24 25.03.2020
785 Snow 0 994 98 0 7.65 226 17:58 25.03.2020
786 Snow 0 994 98 0 7.65 226 17:40 25.03.2020
787 Snow 0 994 98 0 7.65 226 17:21 25.03.2020
788 Snow 0 995 97 0 8.16 242 16:55 25.03.2020
789 Snow 0 995 97 0 8.75 240 16:37 25.03.2020
790 Snow 0 995 97 0 8.75 240 16:19 25.03.2020
791 Snow 0 995 97 0 8.75 240 15:42 25.03.2020
792 Snow 0 995 97 0 8.75 240 15:20 25.03.2020
793 Snow 0 995 97 0 8.75 240 14:56 25.03.2020
794 Snow 0 995 97 0 8.75 240 14:37 25.03.2020
795 Snow 1 996 93 0 9.01 255 14:19 25.03.2020
796 Snow 1 996 94 0 9.26 255 13:44 25.03.2020
797 Snow 1 996 93 0 9.01 255 13:22 25.03.2020
798 Snow 1 996 93 0 9.01 255 12:39 25.03.2020
799 Snow 1 996 94 0 9.26 255 12:20 25.03.2020
800 Snow 1 996 94 0 9.26 255 11:57 25.03.2020
801 Snow 1 996 94 0 9.26 255 11:39 25.03.2020
802 -273 0 0 0 0 0 11:20 25.03.2020
803 Snow 0 995 96 0 12.08 257 10:57 25.03.2020
804 Snow 0 995 96 0 12.08 257 10:39 25.03.2020
805 Snow 0 995 96 0 12.08 257 10:18 25.03.2020
806 Snow 0 995 96 0 12.08 257 09:43 25.03.2020
807 Snow 0 995 96 0 12.08 257 09:25 25.03.2020
808 Snow 0 995 96 0 12.08 257 08:58 25.03.2020
809 Snow 0 995 96 0 12.08 257 08:58 25.03.2020
810 Snow 0 995 96 0 12.08 257 08:39 25.03.2020
811 Snow -2 997 97 0 11.69 223 08:20 25.03.2020
812 Snow -2 997 97 0 11.69 223 07:44 25.03.2020
813 Snow -2 997 97 0 11.69 223 07:24 25.03.2020
814 Snow -2 997 97 0 11.69 223 06:50 25.03.2020
815 Snow -2 997 97 0 11.69 223 06:29 25.03.2020
816 Snow -2 997 97 0 11.69 223 06:29 25.03.2020
817 Snow -2 997 97 0 11.69 223 05:58 25.03.2020
818 Snow -2 997 97 0 11.69 223 05:37 25.03.2020
819 Snow -3 1000 97 0 10.76 220 04:41 25.03.2020
820 Snow -3 1000 97 0 10.76 220 03:52 25.03.2020
821 Snow -3 1000 97 0 10.76 220 03:29 25.03.2020
822 Snow -3 1005 97 0 10.6 219 01:31 25.03.2020
823 Snow -3 1004 97 0 10.83 219 00:49 25.03.2020
824 Snow -3 1004 97 0 10.83 219 00:26 25.03.2020
825 Snow -3 1004 97 0 10.83 219 23:50 24.03.2020
826 Snow -3 1004 97 0 10.83 219 23:28 24.03.2020
827 Snow -3 1007 97 0 9.74 219 22:57 24.03.2020
828 Snow -3 1007 97 0 9.74 219 22:38 24.03.2020
829 Snow -3 1007 97 0 9.74 219 22:19 24.03.2020
830 Snow -3 1007 97 0 9.74 219 21:57 24.03.2020
831 Snow -3 1007 97 0 9.74 219 21:38 24.03.2020
832 Snow -3 1007 97 0 9.74 219 21:18 24.03.2020
833 Snow -3 1007 97 0 9.74 219 20:57 24.03.2020
834 Snow -3 1007 97 0 9.74 219 20:39 24.03.2020
835 Snow -3 1007 97 0 9.74 219 20:21 24.03.2020
836 Snow -3 1011 97 0 9.46 233 19:45 24.03.2020
837 Snow -3 1011 97 0 9.46 233 19:20 24.03.2020
838 Snow -3 1011 97 0 9.46 233 18:56 24.03.2020
839 Snow -3 1011 97 0 9.46 233 18:37 24.03.2020
840 Snow -3 1011 97 0 9.46 233 18:19 24.03.2020
841 Snow -3 1011 97 0 9.46 233 17:56 24.03.2020
842 Snow -3 1011 97 0 9.46 233 17:37 24.03.2020
843 Snow -1 1012 98 0 8.93 233 17:19 24.03.2020
844 Snow -1 1011 96 0 9.12 233 16:54 24.03.2020
845 Snow -1 1011 96 0 9.12 233 16:36 24.03.2020
846 Snow -1 1011 96 0 9.12 233 16:36 24.03.2020
847 Snow -1 1011 96 0 9.12 233 16:18 24.03.2020
848 Snow -1 1011 96 0 9.12 233 15:42 24.03.2020
849 Snow -1 1011 96 0 9.12 233 15:23 24.03.2020
850 Snow -1 1011 96 0 9.12 233 14:44 24.03.2020
851 Snow -1 1012 98 0 8.93 233 14:22 24.03.2020
852 Clouds -2 1014 97 0 8.69 238 13:58 24.03.2020
853 Clouds -2 1014 97 0 8.69 238 13:40 24.03.2020
854 Clouds -2 1013 97 0 9.13 246 13:21 24.03.2020
855 Clouds -2 1013 97 0 9.13 246 12:42 24.03.2020
856 Clouds -2 1013 97 0 9.13 246 12:24 24.03.2020
857 Clouds -2 1013 97 0 9.13 246 11:41 24.03.2020
858 Clouds -1 1012 90 0 9.01 251 11:21 24.03.2020
859 Clouds -2 1012 87 0 10.33 252 10:59 24.03.2020
860 Clouds -2 1012 87 0 10.33 252 10:40 24.03.2020
861 Clouds -2 1012 87 0 10.33 252 10:18 24.03.2020
862 Clouds -2 1012 87 0 10.33 252 10:18 24.03.2020
863 Clouds -2 1012 87 0 10.33 252 09:46 24.03.2020
864 Clouds -2 1012 87 0 10.33 252 09:26 24.03.2020
865 Clouds -2 1012 87 0 10.33 252 08:57 24.03.2020
866 Clouds -2 1012 87 0 10.33 252 08:37 24.03.2020
867 Snow -1 1012 88 0 11.24 258 08:18 24.03.2020
868 Snow -1 1012 88 0 11.24 258 07:44 24.03.2020
869 Snow -1 1012 88 0 11.24 258 07:22 24.03.2020
870 Snow -1 1012 88 0 11.24 258 07:22 24.03.2020
871 Snow -1 1012 88 0 11.24 258 06:40 24.03.2020
872 Snow -1 1012 88 0 11.24 258 06:18 24.03.2020
873 Clear -2 1011 96 0 9.25 264 04:51 24.03.2020
874 Clear -2 1011 96 0 9.25 264 03:22 24.03.2020
875 Clear -2 1011 96 0 9.25 264 02:43 24.03.2020
876 Clouds -2 1010 87 0 9.64 267 00:57 24.03.2020
877 Clouds -2 1010 87 0 9.64 267 00:28 24.03.2020
878 Clouds -2 1010 87 0 9.64 267 23:58 23.03.2020
879 Clouds -2 1010 87 0 9.64 267 23:38 23.03.2020
880 Snow -2 1007 86 0 11.03 271 23:19 23.03.2020
881 Snow -2 1007 86 0 11.03 271 22:44 23.03.2020
882 Snow -2 1007 86 0 11.03 271 22:23 23.03.2020
883 Snow -2 1007 86 0 11.03 271 21:55 23.03.2020
884 Snow -2 1007 86 0 11.03 271 21:37 23.03.2020
885 Snow -2 1007 86 0 11.03 271 21:18 23.03.2020
886 Snow -2 1007 86 0 11.03 271 21:18 23.03.2020
887 Snow -2 1007 86 0 11.03 271 20:44 23.03.2020
888 Snow -2 1007 83 0 10.77 273 20:26 23.03.2020
889 Snow -1 1006 94 0 15.34 261 19:59 23.03.2020
890 Snow -1 1006 94 0 15.34 261 19:41 23.03.2020
891 Snow -1 1006 94 0 15.34 261 19:22 23.03.2020
892 Snow -1 1006 94 0 15.34 261 18:54 23.03.2020
893 Snow -1 1006 94 0 15.34 261 18:36 23.03.2020
894 Snow -1 1006 94 0 15.34 261 18:18 23.03.2020
895 Snow -1 1006 94 0 15.34 261 17:41 23.03.2020
896 Snow 0 1006 86 0 11.67 265 17:20 23.03.2020
897 Snow 0 1006 86 0 11.67 265 16:44 23.03.2020
898 Snow 0 1006 86 0 11.67 265 16:26 23.03.2020
899 Snow 0 1006 86 0 11.67 265 15:59 23.03.2020
900 Snow 0 1006 86 0 11.67 265 15:39 23.03.2020
901 Snow 0 1006 86 0 11.67 265 15:19 23.03.2020
902 Snow 0 1006 86 0 11.67 265 14:37 23.03.2020
903 Snow -1 1007 93 0 12.31 258 14:19 23.03.2020
904 Snow -1 1007 93 0 12.31 258 13:57 23.03.2020
905 Snow -1 1007 93 0 12.31 258 13:38 23.03.2020
906 Snow -1 1007 93 0 12.31 258 13:20 23.03.2020
907 Snow -1 1007 90 0 12.9 262 12:43 23.03.2020
908 Snow -1 1007 90 0 12.9 262 12:23 23.03.2020
909 Snow -1 1007 90 0 12.9 262 11:56 23.03.2020
910 Snow -1 1007 90 0 12.9 262 11:37 23.03.2020
911 Snow -2 1007 88 0 13.36 249 11:19 23.03.2020
912 Snow -2 1007 88 0 13.36 249 10:56 23.03.2020
913 Snow -2 1007 88 0 13.36 249 10:36 23.03.2020
914 Snow -2 1007 88 0 13.36 249 10:18 23.03.2020
915 Snow -2 1007 88 0 13.36 249 09:42 23.03.2020
916 Snow -2 1007 88 0 13.36 249 09:20 23.03.2020
917 Snow -2 1007 88 0 13.36 249 08:38 23.03.2020
918 Snow -3 1010 89 0 12.59 242 08:20 23.03.2020
919 Snow -3 1010 89 0 12.59 242 07:54 23.03.2020
920 Snow -3 1010 89 0 12.59 242 07:34 23.03.2020
921 Snow -3 1010 89 0 12.59 242 06:58 23.03.2020
922 Snow -3 1010 89 0 12.59 242 06:40 23.03.2020
923 Snow -3 1010 89 0 12.59 242 05:44 23.03.2020
924 Snow -4 1011 92 0 11.7 238 04:41 23.03.2020
925 Snow -4 1011 92 0 11.7 238 02:59 23.03.2020
926 Snow -6 1014 93 0 10.6 229 01:50 23.03.2020
927 Snow -6 1013 93 0 10.8 227 00:50 23.03.2020
928 Snow -6 1013 93 0 10.8 227 00:31 23.03.2020
929 Snow -6 1013 93 0 10.8 227 23:45 22.03.2020
930 Snow -6 1013 93 0 10.8 227 23:25 22.03.2020
931 Clouds -10 1015 92 0 7.78 224 22:44 22.03.2020
932 Clouds -10 1015 92 0 7.78 224 22:22 22.03.2020
933 Clouds -10 1015 92 0 7.78 224 21:55 22.03.2020
934 Clouds -10 1015 92 0 7.78 224 21:36 22.03.2020
935 Clouds -10 1015 92 0 7.78 224 21:18 22.03.2020
936 Clouds -10 1015 92 0 7.78 224 20:45 22.03.2020
937 Clouds -10 1015 92 0 7.78 224 20:25 22.03.2020
938 Clear -13 1017 83 0 5.15 245 19:58 22.03.2020
939 Clear -13 1017 83 0 5.15 245 19:39 22.03.2020
940 Clear -13 1017 83 0 5.15 245 19:20 22.03.2020
941 Clear -13 1017 83 0 5.15 245 18:58 22.03.2020
942 Clear -13 1017 83 0 5.15 245 18:40 22.03.2020
943 Clear -13 1017 83 0 5.15 245 18:21 22.03.2020
944 Clear -13 1017 83 0 5.15 245 17:57 22.03.2020
945 Clear -13 1017 83 0 5.15 245 17:38 22.03.2020
946 Clear -13 1016 88 0 4.33 271 17:20 22.03.2020
947 Clear -13 1016 88 0 4.33 271 16:57 22.03.2020
948 Clear -13 1016 88 0 4.33 271 16:39 22.03.2020
949 -273 0 0 0 0 0 16:20 22.03.2020
950 Clear -13 1016 88 0 4.33 271 15:40 22.03.2020
951 Clear -13 1016 88 0 4.33 271 15:40 22.03.2020
952 Clear -13 1016 88 0 4.33 271 15:21 22.03.2020
953 Clear -13 1016 88 0 4.33 271 14:46 22.03.2020
954 Clear -11 1016 89 0 3.94 276 14:19 22.03.2020
955 Clear -11 1016 89 0 3.94 276 13:44 22.03.2020
956 Clear -11 1016 89 0 4.04 284 13:20 22.03.2020
957 Clear -11 1016 89 0 4.04 284 12:59 22.03.2020
958 Clear -11 1016 89 0 4.04 284 12:41 22.03.2020
959 Clear -11 1016 89 0 4.04 284 12:19 22.03.2020
960 Clear -11 1016 89 0 4.04 284 11:43 22.03.2020
961 Clear -11 1016 89 0 4.04 284 11:43 22.03.2020
962 Clear -11 1016 89 0 4.04 284 11:25 22.03.2020
963 Clear -10 1015 88 0 4.45 289 10:58 22.03.2020
964 Clear -10 1015 88 0 4.45 289 10:40 22.03.2020
965 Clear -10 1015 88 0 4.45 289 10:22 22.03.2020
966 Clear -10 1015 88 0 4.45 289 10:22 22.03.2020
967 Clear -10 1015 88 0 4.45 289 09:46 22.03.2020
968 Clear -10 1015 88 0 4.45 289 09:46 22.03.2020
969 Clear -10 1015 88 0 4.45 289 09:27 22.03.2020
970 Clear -10 1015 88 0 4.45 289 08:48 22.03.2020
971 Clear -10 1015 88 0 4.45 289 08:48 22.03.2020
972 Clear -10 1015 88 0 4.45 289 08:30 22.03.2020
973 Clear -12 1014 90 0 3.6 275 07:55 22.03.2020
974 Clear -12 1014 90 0 3.6 275 07:37 22.03.2020
975 Clear -12 1014 90 0 3.6 275 06:41 22.03.2020
976 Clear -12 1014 90 0 3.6 275 05:47 22.03.2020
977 Clear -14 1012 93 0 3.81 287 04:39 22.03.2020
978 Clouds -14 1011 93 0 4.31 305 01:47 22.03.2020
979 Clouds -15 1011 86 0 4.67 297 00:50 22.03.2020
980 Clouds -15 1011 86 0 4.67 297 00:31 22.03.2020
981 Clouds -15 1011 86 0 4.67 297 23:46 21.03.2020
982 Clouds -15 1011 86 0 4.67 297 23:22 21.03.2020
983 Clouds -15 1009 91 0 4.46 316 22:58 21.03.2020
984 Clouds -15 1009 91 0 4.46 316 22:38 21.03.2020
985 Clouds -15 1009 91 0 4.46 316 22:19 21.03.2020
986 Clouds -15 1009 91 0 4.46 316 21:57 21.03.2020
987 Clouds -15 1009 91 0 4.46 316 21:38 21.03.2020
988 Clouds -15 1009 91 0 4.46 316 21:19 21.03.2020
989 Clouds -15 1009 91 0 4.46 316 20:42 21.03.2020
990 Clouds -15 1009 91 0 5.1 311 20:22 21.03.2020
991 Clouds -13 1008 89 0 5.08 301 19:55 21.03.2020
992 Clouds -13 1008 89 0 5.08 301 19:36 21.03.2020
993 Clouds -13 1008 89 0 5.08 301 19:18 21.03.2020
994 Clouds -13 1008 89 0 5.08 301 19:18 21.03.2020
995 Clouds -13 1008 89 0 5.08 301 18:41 21.03.2020
996 Clouds -13 1008 89 0 5.08 301 18:20 21.03.2020
997 Clouds -13 1008 89 0 5.08 301 17:58 21.03.2020
998 Clouds -13 1008 89 0 5.08 301 17:40 21.03.2020
999 Clouds -13 1008 89 0 5.08 301 17:22 21.03.2020
1000 Clouds -14 1006 85 0 4.53 298 16:42 21.03.2020
1001 Clouds -14 1006 85 0 4.53 298 16:23 21.03.2020
1002 Clouds -14 1006 85 0 4.53 298 15:58 21.03.2020
1003 Clouds -14 1006 85 0 4.53 298 15:40 21.03.2020
1004 Clouds -14 1006 85 0 4.53 298 15:21 21.03.2020
1005 Clouds -14 1006 85 0 4.53 298 14:55 21.03.2020
1006 Clouds -14 1006 85 0 4.53 298 14:37 21.03.2020
1007 Clouds -10 1004 90 0 5.22 319 14:19 21.03.2020
1008 Clouds -10 1004 90 0 5.22 319 13:57 21.03.2020
1009 Clouds -10 1004 90 0 5.22 319 13:57 21.03.2020
1010 Clouds -10 1004 90 0 5.22 319 13:38 21.03.2020
1011 Clouds -11 1005 91 0 4.49 324 13:20 21.03.2020
1012 Clouds -11 1005 91 0 4.49 324 12:41 21.03.2020
1013 Clouds -11 1005 91 0 4.49 324 12:21 21.03.2020
1014 Clouds -11 1005 91 0 4.49 324 11:59 21.03.2020
1015 Clouds -11 1005 91 0 4.49 324 11:39 21.03.2020
1016 Clouds -11 1005 91 0 4.49 324 11:39 21.03.2020
1017 Clouds -12 1003 91 0 4.2 271 11:20 21.03.2020
1018 Clouds -12 1003 91 0 4.2 271 10:58 21.03.2020
1019 Clouds -12 1003 91 0 4.2 271 10:58 21.03.2020
1020 Clouds -12 1003 91 0 4.2 271 10:40 21.03.2020
1021 Clouds -12 1003 91 0 4.2 271 10:22 21.03.2020
1022 Clouds -12 1003 91 0 4.2 271 09:59 21.03.2020
1023 Clouds -12 1003 91 0 4.2 271 09:39 21.03.2020
1024 Clouds -12 1003 91 0 4.2 271 09:20 21.03.2020
1025 Clouds -12 1003 91 0 4.2 271 08:55 21.03.2020
1026 Clouds -12 1003 91 0 4.2 271 08:37 21.03.2020
1027 Clouds -15 1001 92 0 4.21 257 08:19 21.03.2020
1028 Clouds -16 1002 93 0 3.83 249 07:37 21.03.2020
1029 Clouds -16 1002 93 0 3.83 249 07:19 21.03.2020
1030 Clouds -16 1002 93 0 3.83 249 06:44 21.03.2020
1031 Clouds -16 1002 93 0 3.83 249 06:24 21.03.2020
1032 Clouds -16 1002 93 0 3.83 249 05:40 21.03.2020
1033 Clear -19 1000 95 0 2.99 266 03:49 21.03.2020
1034 Clear -19 1000 95 0 2.99 266 02:37 21.03.2020
1035 Clouds -20 1000 97 0 3.49 298 01:44 21.03.2020
1036 Clouds -21 1000 96 0 3.1 292 01:23 21.03.2020
1037 Clouds -21 1000 96 0 3.1 292 00:39 21.03.2020
1038 Clouds -21 1000 96 0 3.1 292 00:21 21.03.2020
1039 Clouds -21 1000 96 0 3.1 292 23:42 20.03.2020
1040 Clouds -21 1000 96 0 3.1 292 23:22 20.03.2020
1041 Clouds -19 998 96 0 4.19 321 22:44 20.03.2020
1042 Clouds -19 998 96 0 4.19 321 22:25 20.03.2020
1043 Clouds -19 998 96 0 4.19 321 21:58 20.03.2020
1044 Clouds -19 998 96 0 4.19 321 21:40 20.03.2020
1045 Clouds -19 998 96 0 4.19 321 21:20 20.03.2020
1046 Clouds -19 998 96 0 4.19 321 20:58 20.03.2020
1047 Clouds -19 998 96 0 4.19 321 20:40 20.03.2020
1048 Snow -17 997 95 0 5.35 334 20:20 20.03.2020
1049 Snow -17 997 95 0 5.35 334 19:48 20.03.2020
1050 Snow -17 997 95 0 5.35 334 19:20 20.03.2020
1051 Snow -17 997 95 0 5.35 334 18:58 20.03.2020
1052 Snow -17 997 95 0 5.35 334 18:38 20.03.2020
1053 Snow -17 997 95 0 5.35 334 18:20 20.03.2020
1054 Snow -17 997 95 0 5.35 334 17:56 20.03.2020
1055 Snow -17 997 95 0 5.35 334 17:37 20.03.2020
1056 Snow -17 996 94 0 5.94 336 17:18 20.03.2020
1057 Snow -17 996 94 0 5.94 336 16:41 20.03.2020
1058 Snow -17 996 94 0 5.94 336 16:21 20.03.2020
1059 Snow -17 996 94 0 5.94 336 15:45 20.03.2020
1060 Snow -17 996 94 0 5.94 336 15:23 20.03.2020
1061 Snow -17 996 94 0 5.94 336 14:59 20.03.2020
1062 Snow -17 996 94 0 5.94 336 14:59 20.03.2020
1063 Snow -17 996 94 0 5.94 336 14:41 20.03.2020
1064 Snow -17 996 94 0 5.94 336 14:20 20.03.2020
1065 Snow -16 995 93 0 5.07 348 13:48 20.03.2020
1066 Snow -16 995 93 0 5.07 348 13:24 20.03.2020
1067 Snow -16 995 93 0 5.07 348 13:24 20.03.2020
1068 Clouds -16 996 93 0 4.63 339 12:58 20.03.2020
1069 Clouds -16 996 93 0 4.63 339 12:38 20.03.2020
1070 Clouds -16 996 93 0 4.63 339 12:19 20.03.2020
1071 Clouds -16 996 93 0 4.63 339 11:39 20.03.2020
1072 Clouds -16 996 93 0 4.63 339 11:20 20.03.2020
1073 Snow -17 995 92 0 4.11 5 10:55 20.03.2020
1074 Snow -17 995 92 0 4.11 5 10:37 20.03.2020
1075 Snow -17 995 92 0 4.11 5 10:18 20.03.2020
1076 Snow -17 995 92 0 4.11 5 10:18 20.03.2020
1077 Snow -17 995 92 0 4.11 5 09:45 20.03.2020
1078 Snow -17 995 92 0 4.11 5 09:21 20.03.2020
1079 Snow -17 995 92 0 4.11 5 08:57 20.03.2020
1080 Snow -17 995 92 0 4.11 5 08:38 20.03.2020
1081 Snow -18 995 96 0 4.47 54 08:18 20.03.2020
1082 Snow -18 994 95 0 3.95 50 07:39 20.03.2020
1083 Snow -18 994 95 0 3.95 50 07:21 20.03.2020
1084 Snow -18 994 95 0 3.95 50 06:42 20.03.2020
1085 Snow -18 994 95 0 3.95 50 06:18 20.03.2020
1086 Snow -19 994 98 0 5.26 80 04:38 20.03.2020
1087 Snow -19 994 98 0 5.26 80 02:51 20.03.2020
1088 Snow -19 996 100 0 6.15 85 01:50 20.03.2020
1089 Clouds -19 995 100 0 6.38 93 00:45 20.03.2020
1090 Clouds -19 995 100 0 6.38 93 00:23 20.03.2020
1091 Clouds -19 995 100 0 6.38 93 23:42 19.03.2020
1092 Clouds -19 995 100 0 6.38 93 23:23 19.03.2020
1093 Clouds -20 995 99 0 6.94 97 22:41 19.03.2020
1094 Clouds -20 995 99 0 6.94 97 22:23 19.03.2020
1095 Clouds -20 995 99 0 6.94 97 21:58 19.03.2020
1096 Clouds -20 995 99 0 6.94 97 21:38 19.03.2020
1097 Clouds -20 995 99 0 6.94 97 21:19 19.03.2020
1098 Clouds -20 995 99 0 6.94 97 20:44 19.03.2020
1099 Clouds -19 996 100 0 6.79 99 20:25 19.03.2020
1100 Clouds -19 997 100 0 7.42 98 19:59 19.03.2020
1101 Clouds -19 997 100 0 7.42 98 19:39 19.03.2020
1102 Clouds -19 997 100 0 7.42 98 19:21 19.03.2020
1103 Clouds -19 997 100 0 7.42 98 18:58 19.03.2020
1104 Clouds -19 997 100 0 7.42 98 18:40 19.03.2020
1105 Clouds -19 997 100 0 7.42 98 18:22 19.03.2020
1106 Clouds -19 997 100 0 7.42 98 17:54 19.03.2020
1107 Clouds -19 997 100 0 7.42 98 17:36 19.03.2020
1108 Clouds -18 997 97 0 7.81 93 17:18 19.03.2020
1109 Clouds -18 997 97 0 7.81 93 16:41 19.03.2020
1110 Clouds -18 997 97 0 7.81 93 16:21 19.03.2020
1111 Clouds -18 997 97 0 7.81 93 15:42 19.03.2020
1112 Clouds -18 997 97 0 7.81 93 15:23 19.03.2020
1113 Clouds -18 997 97 0 7.81 93 14:43 19.03.2020
1114 Clouds -18 997 97 0 7.81 93 14:23 19.03.2020
1115 Clouds -17 997 92 0 8.3 84 13:57 19.03.2020
1116 Clouds -17 997 92 0 8.3 84 13:37 19.03.2020
1117 Clouds -18 999 94 0 7.78 86 13:18 19.03.2020
1118 Clouds -18 999 94 0 7.78 86 12:41 19.03.2020
1119 Clouds -18 999 94 0 7.78 86 12:23 19.03.2020
1120 Clouds -18 999 94 0 7.78 86 11:58 19.03.2020
1121 Clouds -18 999 94 0 7.78 86 11:40 19.03.2020
1122 Clouds -18 999 94 0 7.78 86 11:22 19.03.2020
1123 Clouds -16 998 95 0 7.69 76 10:42 19.03.2020
1124 Clouds -16 998 95 0 7.69 76 10:21 19.03.2020
1125 Clouds -16 998 95 0 7.69 76 09:58 19.03.2020
1126 Clouds -16 998 95 0 7.69 76 09:38 19.03.2020
1127 Clouds -16 998 95 0 7.69 76 09:19 19.03.2020
1128 Clouds -16 998 95 0 7.69 76 08:45 19.03.2020
1129 Clouds -16 998 95 0 7.69 76 08:21 19.03.2020
1130 Clouds -15 998 97 0 5.45 69 07:47 19.03.2020
1131 Clouds -15 998 97 0 5.45 69 07:28 19.03.2020
1132 Clouds -15 998 97 0 5.45 69 06:49 19.03.2020
1133 Clouds -15 998 97 0 5.45 69 05:52 19.03.2020
1134 Clouds -14 996 94 0 3.01 53 05:19 19.03.2020
1135 Clouds -14 996 94 0 3.01 53 04:40 19.03.2020
1136 Clouds -14 996 94 0 3.01 53 03:20 19.03.2020
1137 Clouds -13 995 93 0 2.74 29 01:27 19.03.2020
1138 Clouds -13 995 93 0 2.74 29 00:35 19.03.2020
1139 Clouds -13 995 93 0 2.74 29 23:57 18.03.2020
1140 Clouds -13 995 93 0 2.74 29 23:31 18.03.2020
1141 Clouds -11 994 89 0 1.52 343 22:58 18.03.2020
1142 Clouds -11 994 89 0 1.52 343 22:40 18.03.2020
1143 Clouds -11 994 89 0 1.52 343 22:21 18.03.2020
1144 Clouds -11 994 89 0 1.52 343 21:43 18.03.2020
1145 Clouds -11 994 89 0 1.52 343 21:43 18.03.2020
1146 Clouds -11 994 89 0 1.52 343 21:22 18.03.2020
1147 Clouds -11 994 89 0 1.52 343 20:59 18.03.2020
1148 Clouds -11 994 89 0 1.52 343 20:40 18.03.2020
1149 Clouds -11 994 89 0 1.52 343 20:40 18.03.2020
1150 Clouds -10 993 93 0 2.25 250 20:20 18.03.2020
1151 Clouds -10 993 93 0 2.25 250 19:58 18.03.2020
1152 Clouds -10 993 93 0 2.25 250 19:39 18.03.2020
1153 Clouds -10 993 93 0 2.25 250 19:20 18.03.2020
1154 Clouds -10 993 93 0 2.25 250 18:42 18.03.2020
1155 Clouds -10 993 93 0 2.25 250 18:21 18.03.2020
1156 Clouds -10 993 93 0 2.25 250 17:59 18.03.2020
1157 Clouds -10 993 93 0 2.25 250 17:59 18.03.2020
1158 Clouds -10 993 93 0 2.25 250 17:41 18.03.2020
1159 Clouds -10 993 93 0 2.25 250 17:22 18.03.2020
1160 Clouds -10 992 96 0 2.18 245 16:58 18.03.2020
1161 Clouds -10 992 96 0 2.18 245 16:40 18.03.2020
1162 Clouds -10 992 96 0 2.18 245 16:20 18.03.2020
1163 Clouds -10 992 96 0 2.18 245 16:20 18.03.2020
1164 Clouds -10 992 96 0 2.18 245 15:45 18.03.2020
1165 Clouds -10 992 96 0 2.18 245 15:23 18.03.2020
1166 Clouds -10 992 96 0 2.18 245 14:57 18.03.2020
1167 Clouds -10 992 96 0 2.18 245 14:39 18.03.2020
1168 Clouds -9 992 84 0 2.63 249 14:20 18.03.2020
1169 Clouds -9 992 84 0 2.63 249 13:39 18.03.2020
1170 Clouds -8 993 81 0 3.66 276 13:19 18.03.2020
1171 Clouds -8 993 81 0 3.66 276 12:42 18.03.2020
1172 Clouds -8 993 81 0 3.66 276 12:20 18.03.2020
1173 Clouds -8 993 81 0 3.66 276 11:41 18.03.2020
1174 Clouds -8 993 81 0 3.66 276 11:22 18.03.2020
1175 Clouds -8 992 77 0 3.79 285 10:59 18.03.2020
1176 Clouds -8 992 77 0 3.79 285 10:39 18.03.2020
1177 Clouds -8 992 77 0 3.79 285 10:20 18.03.2020
1178 Clouds -8 992 77 0 3.79 285 09:59 18.03.2020
1179 Clouds -8 992 77 0 3.79 285 09:39 18.03.2020
1180 Clouds -8 992 77 0 3.79 285 09:21 18.03.2020
1181 Clouds -8 992 77 0 3.79 285 08:40 18.03.2020
1182 Clouds -8 992 75 0 4.51 288 08:21 18.03.2020
1183 Clouds -8 992 73 0 5.58 282 07:49 18.03.2020
1184 Clouds -8 992 73 0 5.58 282 07:31 18.03.2020
1185 Clouds -8 992 73 0 5.58 282 06:54 18.03.2020
1186 Clouds -8 992 73 0 5.58 282 06:35 18.03.2020
1187 Clouds -8 992 73 0 5.58 282 05:37 18.03.2020
1188 Clouds -9 993 72 0 6.61 295 04:32 18.03.2020
1189 Clouds -9 993 72 0 6.61 295 03:21 18.03.2020
1190 Clouds -9 993 72 0 6.61 295 02:35 18.03.2020
1191 Clouds -8 992 72 0 8.61 288 01:32 18.03.2020
1192 Clouds -8 992 71 0 8.21 287 00:42 18.03.2020
1193 Clouds -11 992 83 0 5.72 280 00:21 18.03.2020
1194 Clouds -8 992 71 0 8.21 287 23:41 17.03.2020
1195 Clouds -7 990 71 0 10.42 283 23:20 17.03.2020
1196 Clouds -9 989 77 0 9 290 22:42 17.03.2020
1197 Clouds -7 990 71 0 10.42 283 22:24 17.03.2020
1198 Clouds -7 990 71 0 10.42 283 21:43 17.03.2020
1199 Clouds -7 990 71 0 10.42 283 21:23 17.03.2020
1200 Clouds -7 990 71 0 10.42 283 20:57 17.03.2020
1201 Clouds -7 990 71 0 10.42 283 20:37 17.03.2020
1202 Clouds -8 988 93 0 7.83 226 20:19 17.03.2020
1203 Clouds -8 988 93 0 7.83 226 19:41 17.03.2020
1204 Clouds -8 988 93 0 7.83 226 19:18 17.03.2020
1205 Clouds -8 988 93 0 7.83 226 18:57 17.03.2020
1206 Clouds -8 988 93 0 7.83 226 18:39 17.03.2020
1207 Clouds -8 988 93 0 7.83 226 18:21 17.03.2020
1208 Clouds -8 988 93 0 7.83 226 18:21 17.03.2020
1209 Clouds -8 988 93 0 7.83 226 17:55 17.03.2020
1210 Clouds -8 988 93 0 7.83 226 17:36 17.03.2020
1211 Clouds -6 989 84 0 6.19 294 17:18 17.03.2020
1212 Clouds -6 989 84 0 6.19 294 16:41 17.03.2020
1213 Clouds -6 989 84 0 6.19 294 16:19 17.03.2020
1214 Clouds -6 989 84 0 6.19 294 15:44 17.03.2020
1215 Clouds -6 989 84 0 6.19 294 15:22 17.03.2020
1216 Clouds -6 989 84 0 6.19 294 14:44 17.03.2020
1217 Clouds -6 989 84 0 6.19 294 14:24 17.03.2020
1218 Clouds -8 989 88 0 4.36 250 13:57 17.03.2020
1219 Clouds -8 989 88 0 4.36 250 13:39 17.03.2020
1220 Clouds -8 988 88 0 4.73 239 13:21 17.03.2020
1221 Clouds -8 988 88 0 4.73 239 13:21 17.03.2020
1222 Clouds -9 988 87 0 4.17 256 12:43 17.03.2020
1223 Clouds -8 988 88 0 4.73 239 12:24 17.03.2020
1224 Clouds -8 988 88 0 4.73 239 11:48 17.03.2020
1225 Clouds -9 988 87 0 4.17 256 11:29 17.03.2020
1226 Clouds -7 986 88 0 4.79 319 10:58 17.03.2020
1227 Clouds -7 986 88 0 4.79 319 10:40 17.03.2020
1228 Clouds -6 987 91 0 3.58 305 10:22 17.03.2020
1229 Clouds -6 987 91 0 3.58 305 09:59 17.03.2020
1230 Clouds -6 987 91 0 3.58 305 09:40 17.03.2020
1231 Clouds -6 987 91 0 3.58 305 09:19 17.03.2020
1232 Clouds -6 987 91 0 3.58 305 08:48 17.03.2020
1233 Clouds -7 986 88 0 4.79 319 08:23 17.03.2020
1234 Snow -6 985 92 0 2.6 323 07:56 17.03.2020
1235 Snow -6 985 92 0 2.6 323 07:38 17.03.2020
1236 Snow -6 985 92 0 2.6 323 07:19 17.03.2020
1237 Snow -6 985 92 0 2.6 323 06:38 17.03.2020
1238 Snow -6 985 92 0 2.6 323 05:58 17.03.2020
1239 Snow -7 986 94 0 2.41 231 03:58 17.03.2020
1240 Snow -7 986 94 0 2.41 231 03:58 17.03.2020
1241 Snow -7 986 94 0 2.41 231 02:54 17.03.2020
1242 Clouds -8 989 93 0 5.18 224 01:49 17.03.2020
1243 Clouds -8 989 93 0 5.18 224 01:25 17.03.2020
1244 Clouds -9 989 93 0 4.8 222 00:46 17.03.2020
1245 Clouds -9 989 93 0 4.8 222 23:48 16.03.2020
1246 Clouds -9 989 93 0 4.8 222 23:48 16.03.2020
1247 Clouds -9 989 93 0 4.8 222 23:30 16.03.2020
1248 Clouds -8 990 94 0 6 228 22:42 16.03.2020
1249 Clouds -8 990 94 0 6 228 22:24 16.03.2020
1250 Clouds -8 990 94 0 6 228 21:58 16.03.2020
1251 Clouds -8 990 94 0 6 228 21:40 16.03.2020
1252 Clouds -8 990 94 0 6 228 21:21 16.03.2020
1253 Clouds -8 990 94 0 6 228 20:56 16.03.2020
1254 Clouds -8 990 94 0 6 228 20:37 16.03.2020
1255 Clouds -7 991 91 0 7.48 219 20:19 16.03.2020
1256 Clouds -7 991 91 0 7.48 219 19:41 16.03.2020
1257 Clouds -7 991 91 0 7.48 219 19:20 16.03.2020
1258 Clouds -7 991 91 0 7.48 219 18:43 16.03.2020
1259 Clouds -7 991 91 0 7.48 219 18:22 16.03.2020
1260 Clouds -7 991 91 0 7.48 219 17:56 16.03.2020
1261 Clouds -7 991 91 0 7.48 219 17:56 16.03.2020
1262 Clouds -7 991 91 0 7.48 219 17:37 16.03.2020
1263 Clouds -5 991 89 0 8.16 229 17:18 16.03.2020
1264 Clouds -5 991 89 0 8.16 229 16:45 16.03.2020
1265 Clouds -5 991 89 0 8.16 229 16:27 16.03.2020
1266 Clouds -5 991 89 0 8.16 229 15:46 16.03.2020
1267 Clouds -5 991 89 0 8.16 229 15:28 16.03.2020
1268 Clouds -5 991 89 0 8.16 229 14:49 16.03.2020
1269 Clouds -5 991 89 0 8.16 229 14:28 16.03.2020
1270 Snow -4 991 89 0 9.84 234 13:59 16.03.2020
1271 Snow -4 991 89 0 9.84 234 13:41 16.03.2020
1272 Snow -4 991 89 0 9.84 234 13:22 16.03.2020
1273 Snow -4 992 90 0 10.09 233 12:45 16.03.2020
1274 Snow -4 992 90 0 10.09 233 12:24 16.03.2020
1275 Snow -4 992 90 0 10.09 233 11:56 16.03.2020
1276 Snow -4 992 90 0 10.09 233 11:37 16.03.2020
1277 Snow -4 991 91 0 11.21 242 11:18 16.03.2020
1278 Snow -4 991 91 0 11.21 242 10:40 16.03.2020
1279 Snow -4 991 91 0 11.21 242 10:19 16.03.2020
1280 Snow -4 991 91 0 11.21 242 09:42 16.03.2020
1281 Snow -4 991 91 0 11.21 242 09:24 16.03.2020
1282 Snow -4 991 91 0 11.21 242 08:53 16.03.2020
1283 Snow -4 991 91 0 11.21 242 08:25 16.03.2020
1284 Snow -8 992 87 0 13.21 212 07:49 16.03.2020
1285 Snow -8 992 87 0 13.21 212 07:25 16.03.2020
1286 Snow -8 992 87 0 13.21 212 06:54 16.03.2020
1287 Snow -8 992 87 0 13.21 212 06:25 16.03.2020
1288 Clouds -13 995 87 0 12.36 193 04:55 16.03.2020
1289 Clouds -13 995 87 0 12.36 193 02:42 16.03.2020
1290 Clouds -13 999 80 0 11.98 191 00:52 16.03.2020
1291 Clouds -13 999 80 0 11.98 191 00:33 16.03.2020
1292 Clouds -13 999 80 0 11.98 191 23:46 15.03.2020
1293 Clouds -13 1002 76 0 10.05 204 23:20 15.03.2020
1294 Clouds -13 1002 76 0 10.05 204 22:42 15.03.2020
1295 Clouds -13 1002 76 0 10.05 204 22:22 15.03.2020
1296 Clouds -13 1002 76 0 10.05 204 22:22 15.03.2020
1297 Clouds -13 1002 76 0 10.05 204 21:56 15.03.2020
1298 Clouds -13 1002 76 0 10.05 204 21:56 15.03.2020
1299 Clouds -13 1002 76 0 10.05 204 21:37 15.03.2020
1300 Clouds -13 1002 76 0 10.05 204 21:18 15.03.2020
1301 Clouds -13 1002 76 0 10.05 204 20:42 15.03.2020
1302 Clouds -13 1003 80 0 9.16 217 20:20 15.03.2020
1303 Clouds -13 1004 82 0 8.9 217 19:58 15.03.2020
1304 Clouds -13 1004 82 0 8.9 217 19:38 15.03.2020
1305 Clouds -13 1004 82 0 8.9 217 19:19 15.03.2020
1306 Clouds -13 1004 82 0 8.9 217 18:55 15.03.2020
1307 Clouds -13 1004 82 0 8.9 217 18:37 15.03.2020
1308 Clouds -13 1004 82 0 8.9 217 18:19 15.03.2020
1309 Clouds -13 1004 82 0 8.9 217 17:41 15.03.2020
1310 Clouds -13 1004 82 0 8.9 217 17:21 15.03.2020
1311 Clear -15 1005 85 0 6.13 208 16:58 15.03.2020
1312 Clear -15 1005 85 0 6.13 208 16:58 15.03.2020
1313 Clear -15 1005 85 0 6.13 208 16:38 15.03.2020
1314 Clear -15 1005 85 0 6.13 208 16:19 15.03.2020
1315 Clear -15 1005 85 0 6.13 208 15:45 15.03.2020
1316 Clear -15 1005 85 0 6.13 208 15:27 15.03.2020
1317 Clear -15 1005 85 0 6.13 208 14:57 15.03.2020
1318 Clear -15 1005 85 0 6.13 208 14:38 15.03.2020
1319 Clear -14 1005 84 0 3.89 239 14:18 15.03.2020
1320 Clear -14 1005 84 0 3.89 239 14:18 15.03.2020
1321 Clear -14 1005 84 0 3.89 239 13:54 15.03.2020
1322 Clear -14 1005 84 0 3.89 239 13:36 15.03.2020
1323 Clear -14 1005 85 0 4.3 240 13:18 15.03.2020
1324 Clear -14 1005 84 0 3.89 239 13:18 15.03.2020
1325 Clear -14 1005 85 0 4.3 240 12:39 15.03.2020
1326 Clear -14 1005 85 0 4.3 240 12:21 15.03.2020
1327 Clear -14 1005 85 0 4.3 240 11:43 15.03.2020
1328 Clear -14 1005 85 0 4.3 240 11:24 15.03.2020
1329 Clear -13 1003 83 0 4.11 277 10:57 15.03.2020
1330 Clear -13 1003 83 0 4.11 277 10:39 15.03.2020
1331 Clear -13 1003 83 0 4.11 277 10:21 15.03.2020
1332 Clear -13 1003 83 0 4.11 277 09:42 15.03.2020
1333 Clear -13 1003 83 0 4.11 277 09:23 15.03.2020
1334 Clear -13 1003 83 0 4.11 277 08:58 15.03.2020
1335 Clear -13 1003 83 0 4.11 277 08:40 15.03.2020
1336 Clouds -16 1001 90 0 3.58 308 08:18 15.03.2020
1337 Clouds -16 1001 90 0 3.58 308 07:44 15.03.2020
1338 Clouds -16 1001 90 0 3.58 308 06:59 15.03.2020
1339 Clouds -16 1001 90 0 3.58 308 06:35 15.03.2020
1340 Clouds -16 1001 90 0 3.58 308 05:46 15.03.2020
1341 Clouds -16 998 95 0 4.91 288 04:49 15.03.2020
1342 Clouds -16 998 95 0 4.91 288 04:29 15.03.2020
1343 Clouds -16 998 95 0 4.91 288 03:55 15.03.2020
1344 Clouds -16 998 95 0 4.91 288 02:48 15.03.2020
1345 Clouds -16 996 78 0 7.23 237 01:56 15.03.2020
1346 Clouds -15 996 81 0 8.1 242 00:51 15.03.2020
1347 Clouds -15 996 81 0 8.1 242 00:28 15.03.2020
1348 Clouds -15 996 81 0 8.1 242 23:58 14.03.2020
1349 Clouds -15 996 81 0 8.1 242 23:37 14.03.2020
1350 Clouds -16 994 81 0 4.13 234 23:19 14.03.2020
1351 Clouds -16 994 81 0 4.13 234 22:44 14.03.2020
1352 Clouds -16 994 81 0 4.13 234 22:26 14.03.2020
1353 Clouds -16 994 81 0 4.13 234 21:57 14.03.2020
1354 Clouds -16 994 81 0 4.13 234 21:37 14.03.2020
1355 Clouds -16 994 81 0 4.13 234 21:19 14.03.2020
1356 Clouds -16 994 81 0 4.13 234 21:19 14.03.2020
1357 Clouds -16 994 81 0 4.13 234 20:59 14.03.2020
1358 Clouds -16 994 81 0 4.13 234 20:41 14.03.2020
1359 Clouds -15 993 80 0 1.51 336 20:20 14.03.2020
1360 Clouds -17 993 81 0 2 260 20:20 14.03.2020
1361 Clouds -15 993 80 0 1.51 336 19:58 14.03.2020
1362 Clouds -15 993 80 0 1.51 336 19:39 14.03.2020
1363 Clouds -15 993 80 0 1.51 336 19:19 14.03.2020
1364 Clouds -15 993 80 0 1.51 336 18:37 14.03.2020
1365 Clouds -15 993 80 0 1.51 336 18:19 14.03.2020
1366 Clouds -15 993 80 0 1.51 336 17:40 14.03.2020
1367 Clouds -15 993 80 0 1.51 336 17:21 14.03.2020
1368 Clouds -15 992 79 0 4.04 8 16:41 14.03.2020
1369 Clouds -15 992 79 0 4.04 8 16:23 14.03.2020
1370 Clouds -15 992 79 0 4.04 8 15:59 14.03.2020
1371 Clouds -15 992 79 0 4.04 8 15:27 14.03.2020
1372 Clouds -15 992 79 0 4.04 8 14:59 14.03.2020
1373 Clouds -15 992 79 0 4.04 8 14:37 14.03.2020
1374 Clouds -14 989 77 0 5.69 12 14:19 14.03.2020
1375 Clouds -14 989 77 0 5.69 12 13:54 14.03.2020
1376 Clouds -14 989 77 0 5.69 12 13:36 14.03.2020
1377 Clouds -14 989 77 0 5.69 12 13:18 14.03.2020
1378 Clouds -14 989 75 0 6 7 12:42 14.03.2020
1379 Clouds -14 989 75 0 6 7 12:23 14.03.2020
1380 Clouds -14 989 75 0 6 7 11:43 14.03.2020
1381 Clouds -14 989 75 0 6 7 11:25 14.03.2020
1382 Clouds -13 986 72 0 6.61 11 10:47 14.03.2020
1383 Clouds -13 986 72 0 6.61 11 10:47 14.03.2020
1384 Clouds -13 986 72 0 6.61 11 10:28 14.03.2020
1385 Clouds -13 986 72 0 6.61 11 09:59 14.03.2020
1386 Clouds -13 986 72 0 6.61 11 09:40 14.03.2020
1387 Clouds -13 986 72 0 6.61 11 09:20 14.03.2020
1388 Clouds -13 986 72 0 6.61 11 08:46 14.03.2020
1389 Clouds -13 985 79 0 7.19 11 08:26 14.03.2020
1390 Clouds -13 983 84 0 7.4 17 07:40 14.03.2020
1391 Clouds -13 983 84 0 7.4 17 07:21 14.03.2020
1392 Clouds -13 983 84 0 7.4 17 06:55 14.03.2020
1393 Clouds -13 983 84 0 7.4 17 06:34 14.03.2020
1394 Clouds -13 981 92 0 6.99 8 04:55 14.03.2020
1395 Clouds -13 981 92 0 6.99 8 03:34 14.03.2020
1396 Clouds -13 981 92 0 6.99 8 02:48 14.03.2020
1397 Snow -11 978 90 0 7.51 356 01:46 14.03.2020
1398 Snow -11 977 90 0 8.2 350 00:34 14.03.2020
1399 Snow -11 977 90 0 8.2 350 23:42 13.03.2020
1400 Snow -11 977 90 0 8.2 350 23:23 13.03.2020
1401 Snow -9 973 90 0 8.78 337 22:44 13.03.2020
1402 Snow -9 973 90 0 8.78 337 22:22 13.03.2020
1403 Snow -9 973 90 0 8.78 337 21:41 13.03.2020
1404 Snow -9 973 90 0 8.78 337 21:19 13.03.2020
1405 Snow -9 973 90 0 8.78 337 20:43 13.03.2020
1406 Snow -10 973 90 0 7.88 332 20:23 13.03.2020
1407 Snow -8 969 91 0 9.55 339 19:58 13.03.2020
1408 Snow -8 969 91 0 9.55 339 19:39 13.03.2020
1409 Snow -8 969 91 0 9.55 339 19:19 13.03.2020
1410 Snow -8 969 91 0 9.55 339 18:43 13.03.2020
1411 Snow -8 969 91 0 9.55 339 18:23 13.03.2020
1412 Snow -8 969 91 0 9.55 339 17:43 13.03.2020
1413 Snow -8 969 91 0 9.55 339 17:21 13.03.2020
1414 Snow -2 966 96 0 8.4 227 16:57 13.03.2020
1415 Snow -2 966 96 0 8.4 227 16:38 13.03.2020
1416 Snow -2 966 96 0 8.4 227 16:20 13.03.2020
1417 Snow -2 966 96 0 8.4 227 15:45 13.03.2020
1418 Snow -2 966 96 0 8.4 227 15:22 13.03.2020
1419 Snow -2 966 96 0 8.4 227 14:58 13.03.2020
1420 Snow -2 966 96 0 8.4 227 14:40 13.03.2020
1421 Snow -2 966 96 0 8.4 227 14:21 13.03.2020
1422 Snow 0 965 95 0 10.73 222 13:42 13.03.2020
1423 Snow 0 965 95 0 10.73 222 13:24 13.03.2020
1424 Snow 0 966 95 0 10.1 221 12:59 13.03.2020
1425 Snow 0 966 95 0 10.1 221 12:38 13.03.2020
1426 Snow 0 966 95 0 10.1 221 12:19 13.03.2020
1427 Snow 0 966 95 0 10.1 221 11:55 13.03.2020
1428 Snow 0 966 95 0 10.1 221 11:36 13.03.2020
1429 Snow 0 966 97 0 11.14 219 11:18 13.03.2020
1430 Snow 0 966 97 0 11.14 219 10:46 13.03.2020
1431 Snow 0 966 97 0 11.14 219 10:25 13.03.2020
1432 Snow 0 966 97 0 11.14 219 09:48 13.03.2020
1433 Snow 0 966 97 0 11.14 219 09:28 13.03.2020
1434 Snow 0 966 97 0 11.14 219 08:59 13.03.2020
1435 Snow 0 966 97 0 11.14 219 08:38 13.03.2020
1436 Snow 0 968 98 0 6.78 176 08:20 13.03.2020
1437 Snow 0 968 98 0 5.84 164 07:44 13.03.2020
1438 Snow 0 968 98 0 5.84 164 07:25 13.03.2020
1439 Snow 0 968 98 0 5.84 164 06:46 13.03.2020
1440 Snow 0 968 98 0 5.84 164 06:21 13.03.2020
1441 Snow 0 968 98 0 5.84 164 05:45 13.03.2020
1442 Snow -2 971 97 0 4.39 111 04:57 13.03.2020
1443 Snow -2 971 97 0 4.39 111 04:25 13.03.2020
1444 Snow -2 971 97 0 4.39 111 02:42 13.03.2020
1445 Snow -4 976 96 0 4.91 127 01:37 13.03.2020
1446 Snow -3 975 96 0 4.53 123 01:18 13.03.2020
1447 Snow -3 975 96 0 4.53 123 00:39 13.03.2020
1448 Snow -3 975 96 0 4.53 123 00:18 13.03.2020
1449 Snow -3 975 96 0 4.53 123 23:38 12.03.2020
1450 Snow -4 979 95 0 4.62 131 23:19 12.03.2020
1451 Snow -4 979 95 0 4.62 131 22:44 12.03.2020
1452 Snow -4 979 95 0 4.62 131 22:25 12.03.2020
1453 Snow -4 979 95 0 4.62 131 21:55 12.03.2020
1454 Snow -4 979 95 0 4.62 131 21:37 12.03.2020
1455 Snow -4 979 95 0 4.62 131 21:18 12.03.2020
1456 Snow -4 979 95 0 4.62 131 20:42 12.03.2020
1457 Snow -6 982 94 0 5.55 133 20:20 12.03.2020
1458 Snow -5 983 95 0 6.31 131 19:42 12.03.2020
1459 Snow -5 983 95 0 6.31 131 19:21 12.03.2020
1460 Snow -5 983 95 0 6.31 131 18:59 12.03.2020
1461 Snow -5 983 95 0 6.31 131 18:41 12.03.2020
1462 Snow -5 983 95 0 6.31 131 18:22 12.03.2020
1463 Snow -5 983 95 0 6.31 131 17:41 12.03.2020
1464 Clouds -4 987 85 0 6 148 17:22 12.03.2020
1465 Clouds -4 987 85 0 6 148 16:59 12.03.2020
1466 Clouds -4 987 85 0 6 148 16:40 12.03.2020
1467 Clouds -4 987 85 0 6 148 16:22 12.03.2020
1468 Clouds -4 987 85 0 6 148 15:48 12.03.2020
1469 Clouds -4 987 85 0 6 148 15:28 12.03.2020
1470 Clouds -4 987 85 0 6 148 14:55 12.03.2020
1471 Clouds -4 987 85 0 6 148 14:37 12.03.2020
1472 Clouds -5 990 88 0 6.79 148 14:18 12.03.2020
1473 Clouds -5 990 88 0 6.79 148 13:38 12.03.2020
1474 Clouds -5 990 88 0 6.79 148 13:20 12.03.2020
1475 Clouds -4 990 87 0 6.88 150 12:43 12.03.2020
1476 Clouds -4 990 87 0 6.88 150 12:24 12.03.2020
1477 Clouds -4 990 87 0 6.88 150 11:59 12.03.2020
1478 Clouds -4 990 87 0 6.88 150 11:59 12.03.2020
1479 Clouds -4 990 87 0 6.88 150 11:39 12.03.2020
1480 Clouds -4 990 87 0 6.88 150 11:21 12.03.2020
1481 Snow -9 994 90 0 8.66 134 10:59 12.03.2020
1482 Snow -9 994 90 0 8.66 134 10:41 12.03.2020
1483 Snow -9 994 90 0 8.66 134 10:23 12.03.2020
1484 Snow -9 994 90 0 8.66 134 09:49 12.03.2020
1485 Snow -9 994 90 0 8.66 134 09:29 12.03.2020
1486 Snow -9 994 90 0 8.66 134 08:55 12.03.2020
1487 Snow -9 994 90 0 8.66 134 08:37 12.03.2020
1488 Clouds -11 998 89 0 10.27 126 08:18 12.03.2020
1489 Clouds -11 998 89 0 10.27 126 07:47 12.03.2020
1490 Clouds -11 998 89 0 10.27 126 07:21 12.03.2020
1491 Clouds -11 998 89 0 10.27 126 06:18 12.03.2020
1492 Clouds -11 998 89 0 10.27 126 05:33 12.03.2020
1493 Clouds -13 1001 91 0 8.38 127 02:54 12.03.2020
1494 Clouds -12 1004 90 0 5.56 138 01:43 12.03.2020
1495 Clouds -12 1004 90 0 6.69 135 01:21 12.03.2020
1496 Clouds -12 1004 90 0 6.69 135 00:42 12.03.2020
1497 Clouds -12 1004 90 0 6.69 135 23:57 11.03.2020
1498 Clouds -12 1004 90 0 6.69 135 23:28 11.03.2020
1499 Clouds -12 1005 92 0 3.18 165 22:58 11.03.2020
1500 Clouds -12 1005 92 0 3.18 165 22:39 11.03.2020
1501 Clouds -12 1005 92 0 3.18 165 22:21 11.03.2020
1502 Clouds -12 1005 92 0 3.18 165 21:56 11.03.2020
1503 Clouds -12 1005 92 0 3.18 165 21:37 11.03.2020
1504 Clouds -12 1005 92 0 3.18 165 21:19 11.03.2020
1505 Clouds -12 1005 92 0 3.18 165 20:55 11.03.2020
1506 Clouds -12 1005 92 0 3.18 165 20:55 11.03.2020
1507 Clouds -12 1005 92 0 3.18 165 20:55 11.03.2020
1508 Clouds -12 1005 92 0 3.18 165 20:36 11.03.2020
1509 Clear -14 1004 96 0 1.15 313 20:18 11.03.2020
1510 Clear -14 1004 96 0 1.15 313 19:42 11.03.2020
1511 Clear -14 1004 96 0 1.15 313 19:23 11.03.2020
1512 Clear -14 1004 96 0 1.15 313 18:56 11.03.2020
1513 Clear -14 1004 96 0 1.15 313 18:36 11.03.2020
1514 Clear -14 1004 96 0 1.15 313 18:18 11.03.2020
1515 Clear -14 1004 96 0 1.15 313 17:40 11.03.2020
1516 Clear -14 1004 96 0 1.15 313 17:21 11.03.2020
1517 Clear -12 1002 87 0 4.41 314 16:56 11.03.2020
1518 Clear -12 1002 87 0 4.41 314 16:38 11.03.2020
1519 Clear -12 1002 87 0 4.41 314 16:19 11.03.2020
1520 Clear -12 1002 87 0 4.41 314 15:42 11.03.2020
1521 Clear -12 1002 87 0 4.41 314 15:22 11.03.2020
1522 Clear -12 1002 87 0 4.41 314 14:44 11.03.2020
1523 Clear -12 1002 87 0 4.41 314 14:23 11.03.2020
1524 Clouds -10 998 77 0 8.12 311 13:59 11.03.2020
1525 Clouds -10 998 77 0 8.12 311 13:39 11.03.2020
1526 Clouds -9 998 76 0 8.31 317 13:21 11.03.2020
1527 Clouds -9 998 76 0 8.31 317 12:41 11.03.2020
1528 Clouds -9 998 76 0 8.31 317 12:21 11.03.2020
1529 Clouds -9 998 76 0 8.31 317 11:57 11.03.2020
1530 Clouds -9 998 76 0 8.31 317 11:57 11.03.2020
1531 Clouds -9 998 76 0 8.31 317 11:38 11.03.2020
1532 Clouds -6 990 77 0 12.52 303 11:19 11.03.2020
1533 Clouds -6 990 77 0 12.52 303 10:43 11.03.2020
1534 Clouds -6 990 77 0 12.52 303 10:19 11.03.2020
1535 Clouds -6 990 77 0 12.52 303 09:44 11.03.2020
1536 Clouds -6 990 77 0 12.52 303 09:25 11.03.2020
1537 Clouds -6 990 77 0 12.52 303 08:58 11.03.2020
1538 Clouds -6 990 77 0 12.52 303 08:40 11.03.2020
1539 Snow -3 982 75 0 17.28 271 08:19 11.03.2020
1540 Snow -5 985 75 0 14.95 289 07:44 11.03.2020
1541 Snow -5 985 75 0 14.95 289 07:19 11.03.2020
1542 Snow -5 985 75 0 14.95 289 06:46 11.03.2020
1543 Snow -5 985 75 0 14.95 289 05:41 11.03.2020
1544 Snow -1 982 86 0 13.01 245 04:50 11.03.2020
1545 Snow -1 982 86 0 13.01 245 02:30 11.03.2020
1546 Snow -1 984 93 0 11.02 239 01:43 11.03.2020
1547 Snow -1 983 92 0 10.95 239 00:49 11.03.2020
1548 Snow -1 983 92 0 10.95 239 00:21 11.03.2020
1549 Snow -1 983 92 0 10.95 239 23:43 10.03.2020
1550 Snow -1 983 92 0 10.95 239 23:22 10.03.2020
1551 Snow 0 985 94 0 11.54 245 22:41 10.03.2020
1552 Snow 0 985 94 0 11.54 245 22:20 10.03.2020
1553 Snow 0 985 94 0 11.54 245 21:57 10.03.2020
1554 Snow 0 985 94 0 11.54 245 21:39 10.03.2020
1555 Snow 0 985 94 0 11.54 245 21:20 10.03.2020
1556 Snow 0 985 94 0 11.54 245 20:59 10.03.2020
1557 Snow 0 985 94 0 11.54 245 20:41 10.03.2020
1558 Snow 0 986 94 0 11.08 240 20:19 10.03.2020
1559 Clouds 0 986 95 0 11.61 239 19:57 10.03.2020
1560 Clouds 0 986 95 0 11.61 239 19:39 10.03.2020
1561 Clouds 0 986 95 0 11.61 239 19:21 10.03.2020
1562 Clouds 0 986 95 0 11.61 239 18:45 10.03.2020
1563 Clouds 0 986 95 0 11.61 239 18:45 10.03.2020
1564 Clouds 0 986 95 0 11.61 239 18:27 10.03.2020
1565 Clouds 0 986 95 0 11.61 239 17:58 10.03.2020
1566 Clouds 0 986 95 0 11.61 239 17:40 10.03.2020
1567 Clouds 0 986 95 0 11.61 239 17:21 10.03.2020
1568 Snow 0 989 97 0 10.46 248 16:40 10.03.2020
1569 Snow 0 989 97 0 10.46 248 16:20 10.03.2020
1570 Snow 0 989 97 0 10.46 248 15:58 10.03.2020
1571 Snow 0 989 97 0 10.46 248 15:39 10.03.2020
1572 Snow 0 989 97 0 10.46 248 15:19 10.03.2020
1573 Snow 0 989 97 0 10.46 248 14:57 10.03.2020
1574 Snow 0 989 97 0 10.46 248 14:39 10.03.2020
1575 Snow 0 989 96 0 10.62 258 14:18 10.03.2020
1576 Snow 0 989 96 0 10.62 258 13:42 10.03.2020
1577 Snow 0 989 96 0 10.62 258 13:42 10.03.2020
1578 Snow 0 989 96 0 10.62 258 13:24 10.03.2020
1579 Snow 1 990 97 0 10.46 254 12:42 10.03.2020
1580 Snow 1 990 97 0 10.46 254 12:21 10.03.2020
1581 Snow 1 990 97 0 10.46 254 11:59 10.03.2020
1582 Snow 1 990 97 0 10.46 254 11:41 10.03.2020
1583 Snow 1 990 97 0 10.46 254 11:23 10.03.2020
1584 Clouds 0 988 96 0 12.03 259 10:54 10.03.2020
1585 Clouds 0 988 96 0 12.03 259 10:36 10.03.2020
1586 Clouds 0 988 96 0 12.03 259 10:18 10.03.2020
1587 Clouds 0 988 96 0 12.03 259 09:42 10.03.2020
1588 Clouds 0 988 96 0 12.03 259 09:19 10.03.2020
1589 Clouds 0 988 96 0 12.03 259 08:53 10.03.2020
1590 Clouds 0 988 96 0 12.03 259 08:33 10.03.2020
1591 Snow 0 986 96 0 12.83 261 07:52 10.03.2020
1592 Snow 0 986 96 0 12.83 261 07:32 10.03.2020
1593 Snow 0 986 96 0 12.83 261 06:50 10.03.2020
1594 Snow 0 986 96 0 12.83 261 06:31 10.03.2020
1595 Snow 0 986 96 0 12.83 261 05:42 10.03.2020
1596 Snow 1 986 96 0 11.57 246 04:53 10.03.2020
1597 Snow 1 986 96 0 11.57 246 04:24 10.03.2020
1598 Snow 1 986 96 0 11.57 246 02:46 10.03.2020
1599 Snow -1 989 94 0 11.97 223 01:31 10.03.2020
1600 Snow -1 989 94 0 11.97 223 00:50 10.03.2020
1601 Snow -1 989 94 0 11.97 223 00:27 10.03.2020
1602 Snow -1 989 94 0 11.97 223 23:41 09.03.2020
1603 Snow -1 989 94 0 11.97 223 23:22 09.03.2020
1604 Snow -2 993 95 0 9.6 215 22:56 09.03.2020
1605 Snow -2 993 95 0 9.6 215 22:37 09.03.2020
1606 Snow -2 993 95 0 9.6 215 22:18 09.03.2020
1607 Snow -2 993 95 0 9.6 215 21:42 09.03.2020
1608 Snow -2 993 95 0 9.6 215 21:22 09.03.2020
1609 Snow -2 993 95 0 9.6 215 20:58 09.03.2020
1610 Snow -2 993 95 0 9.6 215 20:39 09.03.2020
1611 Snow -3 998 90 0 8.19 201 20:20 09.03.2020
1612 Snow -3 998 90 0 8.19 201 19:45 09.03.2020
1613 Snow -3 998 90 0 8.19 201 19:26 09.03.2020
1614 Snow -3 998 90 0 8.19 201 18:59 09.03.2020
1615 Snow -3 998 90 0 8.19 201 18:40 09.03.2020
1616 Snow -3 998 90 0 8.19 201 18:20 09.03.2020
1617 Snow -3 998 90 0 8.19 201 17:58 09.03.2020
1618 Snow -3 998 90 0 8.19 201 17:38 09.03.2020
1619 Snow -4 1003 94 0 5.15 191 17:20 09.03.2020
1620 Snow -4 1003 94 0 5.15 191 16:58 09.03.2020
1621 Snow -4 1003 94 0 5.15 191 16:40 09.03.2020
1622 Snow -4 1003 94 0 5.15 191 16:22 09.03.2020
1623 Snow -4 1003 94 0 5.15 191 15:58 09.03.2020
1624 Snow -4 1003 94 0 5.15 191 15:39 09.03.2020
1625 Snow -4 1003 94 0 5.15 191 15:21 09.03.2020
1626 Snow -4 1003 94 0 5.15 191 14:57 09.03.2020
1627 Snow -4 1003 94 0 5.15 191 14:37 09.03.2020
1628 Snow -3 1005 94 0 5.27 211 14:19 09.03.2020
1629 Snow -3 1005 94 0 5.27 211 13:55 09.03.2020
1630 Snow -3 1005 94 0 5.27 211 13:37 09.03.2020
1631 Snow -3 1005 95 0 4.85 212 13:18 09.03.2020
1632 Snow -3 1005 95 0 4.85 212 12:42 09.03.2020
1633 Snow -3 1005 95 0 4.85 212 12:22 09.03.2020
1634 Snow -3 1005 95 0 4.85 212 12:22 09.03.2020
1635 Snow -3 1005 95 0 4.85 212 11:54 09.03.2020
1636 Snow -3 1005 95 0 4.85 212 11:36 09.03.2020
1637 Snow -4 1007 92 0 4.52 223 11:18 09.03.2020
1638 Snow -4 1007 92 0 4.52 223 10:54 09.03.2020
1639 Snow -4 1007 92 0 4.52 223 10:36 09.03.2020
1640 Snow -4 1007 92 0 4.52 223 10:18 09.03.2020
1641 Snow -4 1007 92 0 4.52 223 09:38 09.03.2020
1642 Snow -4 1007 92 0 4.52 223 09:19 09.03.2020
1643 Snow -4 1007 92 0 4.52 223 08:44 09.03.2020
1644 Snow -5 1007 91 0 4.95 220 08:25 09.03.2020
1645 Snow -7 1007 93 0 5.47 207 07:41 09.03.2020
1646 Snow -7 1007 93 0 5.47 207 07:22 09.03.2020
1647 Snow -7 1007 93 0 5.47 207 06:46 09.03.2020
1648 Snow -7 1007 93 0 5.47 207 06:25 09.03.2020
1649 Snow -7 1007 93 0 5.47 207 05:52 09.03.2020
1650 Snow -7 1007 93 0 5.47 207 05:34 09.03.2020
1651 Snow -8 1009 94 0 3.95 206 04:43 09.03.2020
1652 Snow -8 1009 94 0 3.95 206 04:22 09.03.2020
1653 Snow -8 1009 94 0 3.95 206 03:20 09.03.2020
1654 Clouds -11 1009 95 0 2.19 203 01:41 09.03.2020
1655 Clouds -11 1009 95 0 3.29 218 00:38 09.03.2020
1656 Clouds -11 1009 95 0 3.29 218 00:20 09.03.2020
1657 Clouds -11 1009 95 0 3.29 218 23:48 08.03.2020
1658 Clouds -11 1009 95 0 3.29 218 23:23 08.03.2020
1659 Snow -12 1009 93 0 1.77 216 22:57 08.03.2020
1660 Snow -12 1009 93 0 1.77 216 22:57 08.03.2020
1661 Snow -12 1009 93 0 1.77 216 22:38 08.03.2020
1662 Snow -12 1009 93 0 1.77 216 22:20 08.03.2020
1663 Snow -12 1009 93 0 1.77 216 21:54 08.03.2020
1664 Snow -12 1009 93 0 1.77 216 21:36 08.03.2020
1665 Snow -12 1009 93 0 1.77 216 21:18 08.03.2020
1666 Snow -12 1009 93 0 1.77 216 20:39 08.03.2020
1667 Snow -12 1009 93 0 0.4 193 20:21 08.03.2020
1668 Snow -12 1009 93 0 0.4 193 20:21 08.03.2020
1669 Snow -13 1008 93 0 2.55 326 19:56 08.03.2020
1670 Snow -13 1008 93 0 2.55 326 19:37 08.03.2020
1671 Snow -13 1008 93 0 2.55 326 19:18 08.03.2020
1672 Snow -13 1008 93 0 2.55 326 18:41 08.03.2020
1673 Snow -13 1008 93 0 2.55 326 18:23 08.03.2020
1674 Snow -13 1008 93 0 2.55 326 17:56 08.03.2020
1675 Snow -13 1008 93 0 2.55 326 17:37 08.03.2020
1676 Clouds -14 1007 92 0 5.18 319 17:18 08.03.2020
1677 Clouds -14 1007 92 0 5.18 319 16:45 08.03.2020
1678 Clouds -14 1007 92 0 5.18 319 16:27 08.03.2020
1679 Clouds -14 1007 92 0 5.18 319 15:56 08.03.2020
1680 Clouds -14 1007 92 0 5.18 319 15:56 08.03.2020
1681 Clouds -14 1007 92 0 5.18 319 15:37 08.03.2020
1682 Clouds -14 1007 92 0 5.18 319 15:19 08.03.2020
1683 Clouds -14 1007 92 0 5.18 319 14:40 08.03.2020
1684 Clouds -14 1007 92 0 5.18 319 14:21 08.03.2020
1685 Clouds -14 1007 92 0 5.18 319 14:21 08.03.2020
1686 Clouds -14 1007 92 0 5.18 319 14:21 08.03.2020
1687 Clouds -13 1005 88 0 7.34 315 13:57 08.03.2020
1688 Clouds -13 1005 88 0 7.34 315 13:38 08.03.2020
1689 Clouds -15 1005 91 0 6.7 314 13:19 08.03.2020
1690 Clouds -15 1005 91 0 6.7 314 12:39 08.03.2020
1691 Clouds -15 1005 91 0 6.7 314 12:20 08.03.2020
1692 Clouds -15 1005 91 0 6.7 314 11:54 08.03.2020
1693 Clouds -15 1005 91 0 6.7 314 11:36 08.03.2020
1694 Clouds -14 1003 90 0 8.25 314 11:18 08.03.2020
1695 Clouds -14 1003 90 0 8.25 314 10:41 08.03.2020
1696 Clouds -14 1003 90 0 8.25 314 10:23 08.03.2020
1697 Clouds -14 1003 90 0 8.25 314 09:40 08.03.2020
1698 Clouds -14 1003 90 0 8.25 314 09:22 08.03.2020
1699 Clouds -14 1003 90 0 8.25 314 08:50 08.03.2020
1700 Clouds -14 1003 90 0 8.25 314 08:27 08.03.2020
1701 Clouds -15 999 92 0 8.7 318 07:51 08.03.2020
1702 Clouds -15 999 92 0 8.7 318 07:29 08.03.2020
1703 Clouds -15 999 92 0 8.7 318 06:58 08.03.2020
1704 Clouds -15 999 92 0 8.7 318 06:37 08.03.2020
1705 Clouds -15 999 92 0 8.7 318 06:18 08.03.2020
1706 Snow -13 995 93 0 7.61 315 05:18 08.03.2020
1707 Snow -13 995 93 0 7.61 315 03:50 08.03.2020
1708 Snow -13 995 93 0 7.61 315 02:28 08.03.2020
1709 Snow -11 992 91 0 6.57 307 01:22 08.03.2020
1710 Snow -10 992 92 0 6.55 306 00:43 08.03.2020
1711 Snow -10 992 92 0 6.55 306 00:24 08.03.2020
1712 Snow -10 992 92 0 6.55 306 23:43 07.03.2020
1713 Snow -10 992 92 0 6.55 306 23:22 07.03.2020
1714 Snow -5 990 93 0 8.45 282 22:40 07.03.2020
1715 Snow -5 990 93 0 8.45 282 22:21 07.03.2020
1716 Snow -5 990 93 0 8.45 282 21:48 07.03.2020
1717 Snow -5 990 93 0 8.45 282 21:25 07.03.2020
1718 Snow -5 990 93 0 8.45 282 20:42 07.03.2020
1719 Snow -5 990 94 0 8.01 289 20:24 07.03.2020
1720 Snow -3 989 96 0 6.05 225 19:59 07.03.2020
1721 Snow -3 989 96 0 6.05 225 19:40 07.03.2020
1722 Snow -3 989 96 0 6.05 225 19:20 07.03.2020
1723 Snow -3 989 96 0 6.05 225 18:42 07.03.2020
1724 Snow -3 989 96 0 6.05 225 18:24 07.03.2020
1725 Snow -3 989 96 0 6.05 225 17:56 07.03.2020
1726 Snow -3 989 96 0 6.05 225 17:38 07.03.2020
1727 Snow -4 988 95 0 5.94 236 17:18 07.03.2020
1728 Snow -4 988 95 0 5.94 236 16:42 07.03.2020
1729 Snow -4 988 95 0 5.94 236 16:23 07.03.2020
1730 Snow -4 988 95 0 5.94 236 15:58 07.03.2020
1731 Snow -4 988 95 0 5.94 236 15:40 07.03.2020
1732 Snow -4 988 95 0 5.94 236 15:21 07.03.2020
1733 Snow -4 988 95 0 5.94 236 15:21 07.03.2020
1734 Snow -4 988 95 0 5.94 236 14:57 07.03.2020
1735 Snow -4 988 95 0 5.94 236 14:38 07.03.2020
1736 Snow -3 988 95 0 7.05 241 14:19 07.03.2020
1737 Snow -3 988 95 0 7.05 241 13:40 07.03.2020
1738 Snow -3 988 95 0 6.62 241 13:21 07.03.2020
1739 Snow -3 988 95 0 6.62 241 12:44 07.03.2020
1740 Snow -3 988 95 0 6.62 241 12:22 07.03.2020
1741 Snow -3 988 95 0 6.62 241 11:59 07.03.2020
1742 Snow -3 988 95 0 6.62 241 11:40 07.03.2020
1743 Snow -3 988 95 0 6.62 241 11:22 07.03.2020
1744 Snow -2 988 93 0 7.57 246 10:42 07.03.2020
1745 Snow -2 988 93 0 7.57 246 10:21 07.03.2020
1746 Snow -2 988 93 0 7.57 246 09:58 07.03.2020
1747 Snow -2 988 93 0 7.57 246 09:39 07.03.2020
1748 Snow -2 988 93 0 7.57 246 09:19 07.03.2020
1749 Snow -2 988 93 0 7.57 246 08:44 07.03.2020
1750 Snow -2 988 93 0 7.56 247 08:22 07.03.2020
1751 Snow -3 988 92 0 7.64 236 07:56 07.03.2020
1752 Snow -3 988 92 0 7.64 236 07:37 07.03.2020
1753 Snow -3 988 92 0 7.64 236 07:19 07.03.2020
1754 Snow -3 988 92 0 7.64 236 06:35 07.03.2020
1755 Snow -3 988 92 0 7.64 236 05:55 07.03.2020
1756 Snow -3 988 93 0 7.87 236 04:56 07.03.2020
1757 Snow -3 988 93 0 7.87 236 02:58 07.03.2020
1758 Snow -3 988 93 0 7.87 236 02:34 07.03.2020
1759 Snow -4 990 93 0 10.36 203 01:46 07.03.2020
1760 Snow -6 991 91 0 9.32 199 00:41 07.03.2020
1761 Snow -6 991 91 0 9.32 199 00:22 07.03.2020
1762 Snow -6 991 91 0 9.32 199 23:54 06.03.2020
1763 Snow -6 991 91 0 9.32 199 23:26 06.03.2020
1764 Snow -11 994 93 0 9.58 152 22:58 06.03.2020
1765 Snow -11 994 93 0 9.58 152 22:40 06.03.2020
1766 Snow -11 994 93 0 9.58 152 22:18 06.03.2020
1767 Snow -11 994 93 0 9.58 152 21:43 06.03.2020
1768 Snow -11 994 93 0 9.58 152 21:19 06.03.2020
1769 Snow -11 994 93 0 9.58 152 20:39 06.03.2020
1770 Snow -12 1000 93 0 10.29 154 20:21 06.03.2020
1771 Snow -12 1001 93 0 10.23 151 19:52 06.03.2020
1772 Snow -12 1001 93 0 10.23 151 19:33 06.03.2020
1773 Snow -12 1001 93 0 10.23 151 18:59 06.03.2020
1774 Snow -12 1001 93 0 10.23 151 18:40 06.03.2020
1775 Snow -12 1001 93 0 10.23 151 18:19 06.03.2020
1776 Snow -12 1001 93 0 10.23 151 18:19 06.03.2020
1777 Snow -12 1001 93 0 10.23 151 17:43 06.03.2020
1778 Snow -12 1001 93 0 10.23 151 17:43 06.03.2020
1779 Snow -12 1001 93 0 10.23 151 17:25 06.03.2020
1780 Snow -13 1007 93 0 10.76 138 16:59 06.03.2020
1781 Snow -13 1007 93 0 10.76 138 16:41 06.03.2020
1782 Snow -13 1007 93 0 10.76 138 16:20 06.03.2020
1783 Snow -13 1007 93 0 10.76 138 15:45 06.03.2020
1784 Snow -13 1007 93 0 10.76 138 15:25 06.03.2020
1785 Snow -13 1007 93 0 10.76 138 14:55 06.03.2020
1786 Snow -13 1007 93 0 10.76 138 14:37 06.03.2020
1787 Snow -15 1013 90 0 10.22 133 14:19 06.03.2020
1788 Snow -15 1013 90 0 10.22 133 13:43 06.03.2020
1789 Clouds -15 1014 82 0 10.3 131 13:22 06.03.2020
1790 Clouds -15 1014 82 0 10.3 131 12:57 06.03.2020
1791 Clouds -15 1014 82 0 10.3 131 12:38 06.03.2020
1792 Clouds -15 1014 82 0 10.3 131 12:19 06.03.2020
1793 Clouds -15 1014 82 0 10.3 131 11:57 06.03.2020
1794 Clouds -15 1014 82 0 10.3 131 11:38 06.03.2020
1795 Clouds -15 1014 82 0 10.3 131 11:38 06.03.2020
1796 Clouds -15 1019 66 0 9.86 127 11:19 06.03.2020
1797 Clouds -15 1019 66 0 9.86 127 10:38 06.03.2020
1798 Clouds -15 1019 66 0 9.86 127 10:20 06.03.2020
1799 Clouds -15 1019 66 0 9.86 127 09:55 06.03.2020
1800 Clouds -15 1019 66 0 9.86 127 09:36 06.03.2020
1801 Clouds -15 1019 66 0 9.86 127 09:18 06.03.2020
1802 Clouds -15 1019 66 0 9.86 127 08:42 06.03.2020
1803 Clouds -15 1019 66 0 9.86 127 08:42 06.03.2020
1804 Clouds -15 1019 66 0 9.86 127 08:24 06.03.2020
1805 Clouds -16 1024 68 0 6.64 134 07:47 06.03.2020
1806 Clouds -16 1024 68 0 6.64 134 07:26 06.03.2020
1807 Clouds -16 1024 68 0 6.64 134 06:56 06.03.2020
1808 Clouds -16 1024 68 0 6.64 134 06:38 06.03.2020
1809 Clouds -16 1024 68 0 6.64 134 05:42 06.03.2020
1810 Clouds -16 1024 68 0 6.64 134 05:22 06.03.2020
1811 Clouds -18 1027 73 0 5.21 157 04:55 06.03.2020
1812 Clear -19 1030 77 0 4 167 01:58 06.03.2020
1813 Clear -19 1030 77 0 4 167 01:39 06.03.2020
1814 Clear -19 1030 77 0 4 167 01:19 06.03.2020
1815 Clear -18 1030 77 0 3.83 170 00:32 06.03.2020
1816 Clear -18 1030 77 0 3.83 170 23:50 05.03.2020
1817 Clear -18 1030 77 0 3.83 170 23:30 05.03.2020
1818 Clear -18 1031 79 0 3.17 198 22:58 05.03.2020
1819 Clear -18 1031 79 0 3.17 198 22:39 05.03.2020
1820 Clear -18 1031 79 0 3.17 198 22:21 05.03.2020
1821 Clear -18 1031 79 0 3.17 198 21:57 05.03.2020
1822 Clear -18 1031 79 0 3.17 198 21:38 05.03.2020
1823 Clear -18 1031 79 0 3.17 198 21:20 05.03.2020
1824 Clear -18 1031 79 0 3.17 198 20:57 05.03.2020
1825 Clear -18 1031 79 0 3.17 198 20:38 05.03.2020
1826 Clouds -17 1031 85 0 2.12 207 20:19 05.03.2020
1827 Clear -17 1031 87 0 2.54 192 19:56 05.03.2020
1828 Clear -17 1031 87 0 2.54 192 19:37 05.03.2020
1829 Clear -17 1031 87 0 2.54 192 19:18 05.03.2020
1830 Clear -17 1031 87 0 2.54 192 18:39 05.03.2020
1831 Clear -17 1031 87 0 2.54 192 18:20 05.03.2020
1832 Clear -17 1031 87 0 2.54 192 17:59 05.03.2020
1833 Clear -17 1031 87 0 2.54 192 17:40 05.03.2020
1834 Clear -17 1031 87 0 2.54 192 17:22 05.03.2020
1835 Clear -17 1030 86 0 1.08 350 16:54 05.03.2020
1836 Clear -17 1030 86 0 1.08 350 16:36 05.03.2020
1837 Clear -17 1030 86 0 1.08 350 16:18 05.03.2020
1838 Clear -17 1030 86 0 1.08 350 15:44 05.03.2020
1839 Clear -17 1030 86 0 1.08 350 15:22 05.03.2020
1840 Clear -17 1030 86 0 1.08 350 14:56 05.03.2020
1841 Clear -17 1030 86 0 1.08 350 14:37 05.03.2020
1842 Clear -16 1030 85 0 3.29 330 14:18 05.03.2020
1843 Clear -16 1030 85 0 3.29 330 13:43 05.03.2020
1844 Clear -16 1029 85 0 3.19 333 13:21 05.03.2020
1845 Clear -16 1029 85 0 3.19 333 12:58 05.03.2020
1846 Clear -16 1029 85 0 3.19 333 12:40 05.03.2020
1847 Clear -16 1029 85 0 3.19 333 12:19 05.03.2020
1848 Clear -16 1029 85 0 3.19 333 11:56 05.03.2020
1849 Clear -16 1029 85 0 3.19 333 11:37 05.03.2020
1850 Clear -15 1027 76 0 6.16 347 11:18 05.03.2020
1851 Clear -15 1027 76 0 6.16 347 10:56 05.03.2020
1852 Clear -15 1027 76 0 6.16 347 10:38 05.03.2020
1853 Clear -15 1027 76 0 6.16 347 10:20 05.03.2020
1854 Clear -15 1027 76 0 6.16 347 09:44 05.03.2020
1855 Clear -15 1027 76 0 6.16 347 09:26 05.03.2020
1856 Clear -15 1027 76 0 6.16 347 08:44 05.03.2020
1857 Clear -16 1027 79 0 5.91 348 08:25 05.03.2020
1858 Clear -16 1025 82 0 6.76 346 07:48 05.03.2020
1859 Clear -16 1025 82 0 6.76 346 07:22 05.03.2020
1860 Clear -16 1025 82 0 6.76 346 06:49 05.03.2020
1861 Clear -16 1025 82 0 6.76 346 06:22 05.03.2020
1862 Clear -16 1025 82 0 6.76 346 05:57 05.03.2020
1863 Clear -16 1025 82 0 6.76 346 05:25 05.03.2020
1864 Clear -15 1021 83 0 6.9 344 04:22 05.03.2020
1865 Clear -15 1021 83 0 6.9 344 03:51 05.03.2020
1866 Clouds -13 1019 79 0 8.62 346 01:58 05.03.2020
1867 Clouds -13 1019 79 0 8.62 346 01:22 05.03.2020
1868 Clouds -14 1019 78 0 8.49 345 00:26 05.03.2020
1869 Clouds -14 1019 78 0 8.49 345 23:43 04.03.2020
1870 Clouds -14 1019 78 0 8.49 345 23:23 04.03.2020
1871 Clouds -12 1015 91 0 6.92 345 22:58 04.03.2020
1872 Clouds -12 1015 91 0 6.92 345 22:39 04.03.2020
1873 Clouds -12 1015 91 0 6.92 345 22:19 04.03.2020
1874 Clouds -12 1015 91 0 6.92 345 21:58 04.03.2020
1875 Clouds -12 1015 91 0 6.92 345 21:40 04.03.2020
1876 Clouds -12 1015 91 0 6.92 345 21:20 04.03.2020
1877 Clouds -12 1015 91 0 6.92 345 20:54 04.03.2020
1878 Clouds -12 1015 91 0 6.92 345 20:36 04.03.2020
1879 Clouds -13 1013 91 0 7.55 338 20:18 04.03.2020
1880 Clouds -13 1013 91 0 7.55 338 19:42 04.03.2020
1881 Clouds -13 1013 91 0 7.55 338 19:23 04.03.2020
1882 Clouds -13 1013 91 0 7.55 338 18:55 04.03.2020
1883 Clouds -13 1013 91 0 7.55 338 18:36 04.03.2020
1884 Clouds -13 1013 91 0 7.55 338 18:18 04.03.2020
1885 Clouds -13 1013 91 0 7.55 338 17:54 04.03.2020
1886 Clouds -13 1013 91 0 7.55 338 17:36 04.03.2020
1887 Clouds -14 1010 92 0 9.21 347 17:18 04.03.2020
1888 Clouds -14 1010 92 0 9.21 347 16:42 04.03.2020
1889 Clouds -14 1010 92 0 9.21 347 16:23 04.03.2020
1890 Clouds -14 1010 92 0 9.21 347 15:57 04.03.2020
1891 Clouds -14 1010 92 0 9.21 347 15:39 04.03.2020
1892 Clouds -14 1010 92 0 9.21 347 15:19 04.03.2020
1893 Clouds -14 1010 92 0 9.21 347 15:19 04.03.2020
1894 Clouds -14 1010 92 0 9.21 347 14:54 04.03.2020
1895 Clouds -14 1010 92 0 9.21 347 14:36 04.03.2020
1896 Clouds -14 1006 91 0 9.55 351 14:18 04.03.2020
1897 Clouds -14 1006 91 0 9.55 351 13:40 04.03.2020
1898 Clouds -14 1007 91 0 9.56 352 13:22 04.03.2020
1899 Clouds -14 1007 91 0 9.56 352 12:59 04.03.2020
1900 Clouds -14 1007 91 0 9.56 352 12:41 04.03.2020
1901 Clouds -14 1007 91 0 9.56 352 12:23 04.03.2020
1902 Clouds -14 1007 91 0 9.56 352 11:55 04.03.2020
1903 Clouds -14 1007 91 0 9.56 352 11:55 04.03.2020
1904 Clouds -14 1007 91 0 9.56 352 11:37 04.03.2020
1905 Snow -14 1002 94 0 10.26 357 11:19 04.03.2020
1906 Snow -14 1002 94 0 10.26 357 10:42 04.03.2020
1907 Snow -14 1002 94 0 10.26 357 10:23 04.03.2020
1908 Snow -14 1002 94 0 10.26 357 09:55 04.03.2020
1909 Snow -14 1002 94 0 10.26 357 09:37 04.03.2020
1910 Snow -14 1002 94 0 10.26 357 09:18 04.03.2020
1911 Snow -14 1002 94 0 10.26 357 08:41 04.03.2020
1912 Snow -14 1004 92 0 10.08 353 08:23 04.03.2020
1913 Snow -14 1000 94 0 9.91 359 07:47 04.03.2020
1914 Snow -14 1000 94 0 9.91 359 07:28 04.03.2020
1915 Snow -14 1000 94 0 9.91 359 06:51 04.03.2020
1916 Snow -14 1000 94 0 9.91 359 06:26 04.03.2020
1917 Snow -14 1000 94 0 9.91 359 05:57 04.03.2020
1918 Snow -13 996 95 0 9.93 4 05:21 04.03.2020
1919 Snow -13 996 95 0 9.93 4 03:52 04.03.2020
1920 Snow -13 996 95 0 9.93 4 03:33 04.03.2020
1921 Snow -13 996 95 0 9.93 4 02:58 04.03.2020
1922 Snow -13 996 95 0 9.93 4 02:26 04.03.2020
1923 Snow -11 993 93 0 7.62 16 01:56 04.03.2020
1924 Snow -11 993 93 0 7.62 16 01:31 04.03.2020
1925 Snow -12 993 94 0 8.46 10 00:41 04.03.2020
1926 Snow -12 993 94 0 8.46 10 00:21 04.03.2020
1927 Snow -12 993 94 0 8.46 10 23:42 03.03.2020
1928 Snow -12 993 94 0 8.46 10 23:22 03.03.2020
1929 Snow -10 990 93 0 5.91 64 22:55 03.03.2020
1930 Snow -10 990 93 0 5.91 64 22:37 03.03.2020
1931 Snow -10 990 93 0 5.91 64 22:18 03.03.2020
1932 Snow -10 990 93 0 5.91 64 21:41 03.03.2020
1933 Snow -10 990 93 0 5.91 64 21:22 03.03.2020
1934 Snow -10 990 93 0 5.91 64 20:58 03.03.2020
1935 Snow -10 990 93 0 5.91 64 20:39 03.03.2020
1936 Snow -8 989 94 0 6.32 231 20:18 03.03.2020
1937 Snow -8 989 94 0 6.32 231 19:56 03.03.2020
1938 Snow -8 989 94 0 6.32 231 19:37 03.03.2020
1939 Snow -8 990 94 0 3.27 223 19:18 03.03.2020
1940 Snow -8 989 94 0 6.32 231 18:56 03.03.2020
1941 Snow -8 989 94 0 6.32 231 18:38 03.03.2020
1942 Snow -8 989 94 0 6.32 231 18:18 03.03.2020
1943 Snow -8 989 94 0 6.32 231 17:41 03.03.2020
1944 Snow -8 989 94 0 6.32 231 17:22 03.03.2020
1945 Snow -8 990 94 0 9.9 123 16:59 03.03.2020
1946 Snow -8 990 94 0 9.9 123 16:39 03.03.2020
1947 Snow -8 991 94 0 9.58 118 16:21 03.03.2020
1948 Snow -8 990 94 0 9.9 123 15:58 03.03.2020
1949 Snow -8 991 94 0 9.58 118 15:40 03.03.2020
1950 Snow -8 990 94 0 9.9 123 15:20 03.03.2020
1951 Snow -8 990 94 0 9.9 123 14:43 03.03.2020
1952 Snow -8 990 94 0 9.9 123 14:21 03.03.2020
1953 Snow -8 993 94 0 10.31 113 13:58 03.03.2020
1954 Snow -8 993 94 0 10.82 117 13:40 03.03.2020
1955 Snow -8 993 94 0 10.82 117 13:22 03.03.2020
1956 Snow -8 993 94 0 10.82 117 12:48 03.03.2020
1957 Snow -8 993 94 0 10.82 117 12:27 03.03.2020
1958 Snow -8 993 94 0 10.82 117 11:59 03.03.2020
1959 Snow -8 993 94 0 10.82 117 11:38 03.03.2020
1960 Clouds -8 995 85 0 8.55 113 11:19 03.03.2020
1961 Clouds -8 995 85 0 8.55 113 10:56 03.03.2020
1962 Clouds -8 995 85 0 8.55 113 10:38 03.03.2020
1963 Clouds -8 995 85 0 8.55 113 10:19 03.03.2020
1964 Clouds -8 995 85 0 8.55 113 09:45 03.03.2020
1965 Clouds -8 995 85 0 8.55 113 09:23 03.03.2020
1966 Clouds -8 995 85 0 8.55 113 08:58 03.03.2020
1967 Clouds -8 995 85 0 8.55 113 08:39 03.03.2020
1968 Clouds -8 997 87 0 6.36 115 08:21 03.03.2020
1969 Clouds -8 997 87 0 6.36 115 07:44 03.03.2020
1970 Clouds -8 997 87 0 6.36 115 07:22 03.03.2020
1971 Clouds -8 997 87 0 6.36 115 06:51 03.03.2020
1972 Clouds -8 997 87 0 6.36 115 06:23 03.03.2020
1973 Clouds -8 997 87 0 6.36 115 05:47 03.03.2020
1974 Clouds -9 999 88 0 3.19 169 05:19 03.03.2020
1975 Clouds -9 999 88 0 3.19 169 04:30 03.03.2020
1976 Clouds -8 1000 89 0 1.22 244 01:40 03.03.2020
1977 Clouds -8 999 90 0 1.7 241 00:49 03.03.2020
1978 Clouds -8 999 90 0 1.7 241 00:27 03.03.2020
1979 Clouds -8 999 90 0 1.7 241 23:57 02.03.2020
1980 Clouds -8 999 90 0 1.7 241 23:38 02.03.2020
1981 Clouds -8 998 91 0 3.81 277 23:20 02.03.2020
1982 Clouds -8 998 91 0 3.81 277 22:55 02.03.2020
1983 Clouds -8 998 91 0 3.81 277 22:37 02.03.2020
1984 Clouds -8 998 91 0 3.81 277 22:18 02.03.2020
1985 Clouds -8 998 91 0 3.81 277 21:42 02.03.2020
1986 Clouds -8 998 91 0 3.81 277 21:23 02.03.2020
1987 Clouds -8 998 91 0 3.81 277 20:58 02.03.2020
1988 Clouds -8 998 91 0 3.81 277 20:40 02.03.2020
1989 Clouds -7 997 85 0 6.46 298 20:20 02.03.2020
1990 Clouds -7 997 85 0 6.46 298 19:56 02.03.2020
1991 Clouds -7 997 85 0 6.46 298 19:38 02.03.2020
1992 Clouds -7 997 85 0 6.46 298 19:20 02.03.2020
1993 Clouds -7 997 85 0 6.46 298 18:45 02.03.2020
1994 Clouds -7 997 85 0 6.46 298 18:20 02.03.2020
1995 Clouds -7 997 85 0 6.46 298 17:59 02.03.2020
1996 Clouds -7 997 85 0 6.46 298 17:59 02.03.2020
1997 Clouds -7 997 85 0 6.46 298 17:41 02.03.2020
1998 Clouds -7 997 85 0 6.46 298 17:21 02.03.2020
1999 Clouds -7 997 85 0 6.46 298 17:21 02.03.2020
2000 Clouds -7 997 85 0 6.46 298 17:21 02.03.2020
2001 Clouds -7 994 84 0 7.6 296 16:56 02.03.2020
2002 Clouds -7 994 84 0 7.6 296 16:38 02.03.2020
2003 Clouds -7 994 84 0 7.6 296 16:20 02.03.2020
2004 Clouds -7 994 84 0 7.6 296 15:44 02.03.2020
2005 Clouds -7 994 84 0 7.6 296 15:20 02.03.2020
2006 Clouds -7 994 84 0 7.6 296 14:56 02.03.2020
2007 Clouds -7 994 84 0 7.6 296 14:36 02.03.2020
2008 Snow -6 991 83 0 8.71 300 14:18 02.03.2020
2009 Snow -6 991 83 0 8.71 300 13:40 02.03.2020
2010 Snow -6 991 83 0 8.71 300 13:19 02.03.2020
2011 Snow -7 991 82 0 8.87 297 13:19 02.03.2020
2012 Snow -7 991 82 0 8.87 297 12:54 02.03.2020
2013 Snow -7 991 82 0 8.87 297 12:36 02.03.2020
2014 Snow -7 991 82 0 8.87 297 12:18 02.03.2020
2015 Snow -7 991 82 0 8.87 297 11:38 02.03.2020
2016 Snow -6 988 86 0 7.98 297 11:19 02.03.2020
2017 Snow -6 988 86 0 7.98 297 10:55 02.03.2020
2018 Snow -6 988 86 0 7.98 297 10:36 02.03.2020
2019 Snow -6 988 86 0 7.98 297 10:18 02.03.2020
2020 Snow -6 988 86 0 7.98 297 09:45 02.03.2020
2021 Snow -6 988 86 0 7.98 297 09:26 02.03.2020
2022 Snow -6 988 86 0 7.98 297 08:47 02.03.2020
2023 Snow -7 989 89 0 7.11 285 08:22 02.03.2020
2024 Snow -7 987 89 0 8 267 07:44 02.03.2020
2025 Snow -7 987 89 0 8 267 07:20 02.03.2020
2026 Snow -7 987 89 0 8 267 06:49 02.03.2020
2027 Snow -7 987 89 0 8 267 05:57 02.03.2020
2028 Snow -6 986 88 0 8.11 264 04:51 02.03.2020
2029 Snow -6 986 88 0 8.11 264 03:25 02.03.2020
2030 Snow -6 986 88 0 8.11 264 02:49 02.03.2020
2031 Snow -7 985 90 0 11.24 212 01:55 02.03.2020
2032 Snow -7 985 90 0 11.24 212 01:33 02.03.2020
2033 Clouds -8 985 89 0 10.8 207 00:24 02.03.2020
2034 Clouds -8 985 89 0 10.8 207 23:59 01.03.2020
2035 Clouds -8 985 89 0 10.8 207 23:41 01.03.2020
2036 Clouds -8 985 89 0 10.8 207 23:21 01.03.2020
2037 Clouds -7 984 88 0 10.53 212 22:43 01.03.2020
2038 Clouds -7 984 88 0 10.53 212 22:21 01.03.2020
2039 Clouds -7 984 88 0 10.53 212 21:57 01.03.2020
2040 Clouds -7 984 88 0 10.53 212 21:39 01.03.2020
2041 Clouds -7 984 88 0 10.53 212 21:20 01.03.2020
2042 Clouds -7 984 88 0 10.53 212 20:44 01.03.2020
2043 Clouds -7 984 87 0 10.56 213 20:25 01.03.2020
2044 Clouds -8 984 88 0 11.06 217 19:59 01.03.2020
2045 Clouds -8 984 88 0 11.06 217 19:59 01.03.2020
2046 Clouds -8 984 88 0 11.06 217 19:40 01.03.2020
2047 Clouds -8 984 88 0 11.06 217 19:21 01.03.2020
2048 Clouds -8 984 88 0 11.06 217 18:41 01.03.2020
2049 Clouds -8 984 88 0 11.06 217 18:21 01.03.2020
2050 Clouds -8 984 88 0 11.06 217 18:21 01.03.2020
2051 Clouds -8 984 88 0 11.06 217 17:58 01.03.2020
2052 Clouds -8 984 88 0 11.06 217 17:40 01.03.2020
2053 Clouds -8 984 88 0 11.06 217 17:22 01.03.2020
2054 Snow -8 984 88 0 12.29 217 16:59 01.03.2020
2055 Snow -8 984 88 0 12.29 217 16:39 01.03.2020
2056 Snow -8 984 88 0 12.29 217 16:39 01.03.2020
2057 Snow -8 984 88 0 12.29 217 16:19 01.03.2020
2058 Snow -8 984 88 0 12.29 217 15:58 01.03.2020
2059 Snow -8 984 88 0 12.29 217 15:40 01.03.2020
2060 Snow -8 984 88 0 12.29 217 15:21 01.03.2020
2061 Snow -8 984 88 0 12.29 217 14:57 01.03.2020
2062 Snow -8 984 88 0 12.29 217 14:39 01.03.2020
2063 Snow -6 983 87 0 11.8 227 14:21 01.03.2020
2064 Snow -6 983 87 0 11.8 227 13:56 01.03.2020
2065 Snow -6 983 87 0 11.8 227 13:38 01.03.2020
2066 Snow -6 983 87 0 11.8 227 13:19 01.03.2020
2067 Snow -6 983 88 0 13.27 227 12:43 01.03.2020
2068 Snow -6 983 88 0 13.27 227 12:23 01.03.2020
2069 Snow -6 983 87 0 11.98 225 11:58 01.03.2020
2070 Snow -6 983 88 0 13.27 227 11:39 01.03.2020
2071 Snow -5 981 90 0 11.78 226 11:19 01.03.2020
2072 Snow -5 981 90 0 11.78 226 10:55 01.03.2020
2073 Snow -4 981 93 0 12.63 230 10:36 01.03.2020
2074 Snow -4 981 93 0 12.63 230 10:36 01.03.2020
2075 Snow -5 981 90 0 11.78 226 10:18 01.03.2020
2076 Snow -5 981 90 0 11.78 226 09:41 01.03.2020
2077 Snow -5 981 90 0 11.78 226 09:22 01.03.2020
2078 Snow -5 981 90 0 11.78 226 08:46 01.03.2020
2079 Snow -4 981 93 0 12.63 230 08:27 01.03.2020
2080 Snow -4 980 90 0 6.41 182 07:56 01.03.2020
2081 Snow -4 980 90 0 6.41 182 07:38 01.03.2020
2082 Snow -4 980 90 0 6.41 182 07:19 01.03.2020
2083 Snow -4 980 90 0 6.41 182 06:41 01.03.2020
2084 Snow -4 980 90 0 6.41 182 05:35 01.03.2020
2085 Snow -4 982 93 0 7.64 157 02:59 01.03.2020
2086 Snow -4 985 92 0 7.71 155 02:18 01.03.2020
2087 Snow -4 985 92 0 7.71 155 01:36 01.03.2020
2088 Snow -4 985 93 0 7.56 151 00:49 01.03.2020
2089 Snow -4 985 93 0 7.56 151 00:25 01.03.2020
2090 Snow -4 985 93 0 7.56 151 23:58 29.02.2020
2091 Snow -4 985 93 0 7.56 151 23:40 29.02.2020
2092 Snow -4 985 93 0 7.56 151 23:21 29.02.2020
2093 Snow -5 989 90 0 9.08 142 22:37 29.02.2020
2094 Snow -5 989 90 0 9.08 142 22:19 29.02.2020
2095 Snow -5 989 90 0 9.08 142 21:39 29.02.2020
2096 Snow -5 989 90 0 9.08 142 21:19 29.02.2020
2097 Snow -5 989 90 0 9.08 142 20:41 29.02.2020
2098 Snow -6 995 90 0 8.32 113 20:20 29.02.2020
2099 Snow -6 995 90 0 8.32 113 19:55 29.02.2020
2100 Snow -6 995 90 0 8.32 113 19:36 29.02.2020
2101 Snow -6 995 90 0 8.32 113 19:18 29.02.2020
2102 Snow -6 995 90 0 8.32 113 18:42 29.02.2020
2103 Snow -6 995 90 0 8.32 113 18:22 29.02.2020
2104 Snow -6 995 90 0 8.32 113 17:56 29.02.2020
2105 Snow -6 995 90 0 8.32 113 17:37 29.02.2020
2106 Clouds -5 1000 71 0 12.46 119 17:19 29.02.2020
2107 Clouds -5 1000 71 0 12.46 119 16:44 29.02.2020
2108 Clouds -5 1000 71 0 12.46 119 16:19 29.02.2020
2109 Clouds -5 1000 71 0 12.46 119 15:56 29.02.2020
2110 Clouds -5 1000 71 0 12.46 119 15:36 29.02.2020
2111 Clouds -5 1000 71 0 12.46 119 15:18 29.02.2020
2112 Clouds -5 1000 71 0 12.46 119 14:39 29.02.2020
2113 Clouds -5 1000 71 0 12.46 119 14:21 29.02.2020
2114 Clouds -5 1005 62 0 9.61 136 13:45 29.02.2020
2115 Clouds -5 1005 62 0 9.61 136 13:45 29.02.2020
2116 Clouds -5 1005 62 0 9.61 136 13:27 29.02.2020
2117 Clouds -5 1004 62 0 10.42 132 12:57 29.02.2020
2118 Clouds -5 1004 62 0 10.42 132 12:38 29.02.2020
2119 Clouds -5 1004 62 0 10.42 132 12:20 29.02.2020
2120 Clouds -5 1004 62 0 10.42 132 11:45 29.02.2020
2121 Clouds -5 1004 62 0 10.42 132 11:26 29.02.2020
2122 Clouds -7 1008 72 0 5.99 130 10:51 29.02.2020
2123 Clouds -7 1008 72 0 5.99 130 10:31 29.02.2020
2124 Clouds -7 1008 72 0 5.99 130 10:31 29.02.2020
2125 Clouds -7 1008 72 0 5.99 130 09:56 29.02.2020
2126 Clouds -7 1008 72 0 5.99 130 09:38 29.02.2020
2127 Clouds -7 1008 72 0 5.99 130 09:18 29.02.2020
2128 Clouds -7 1008 72 0 5.99 130 08:40 29.02.2020
2129 Clouds -9 1010 82 0 6.42 208 08:21 29.02.2020
2130 Clouds -9 1010 82 0 6.42 208 07:52 29.02.2020
2131 Clouds -9 1010 82 0 6.42 208 07:25 29.02.2020
2132 Clouds -9 1010 82 0 6.42 208 06:55 29.02.2020
2133 Clouds -9 1010 82 0 6.42 208 06:29 29.02.2020
2134 Clouds -9 1010 82 0 6.42 208 05:52 29.02.2020
2135 Clouds -9 1010 82 0 6.42 208 05:32 29.02.2020
2136 Clouds -9 1011 92 0 9.12 220 03:59 29.02.2020
2137 Clouds -9 1011 92 0 9.12 220 03:24 29.02.2020
2138 Clouds -9 1011 92 0 9.12 220 02:57 29.02.2020
2139 Clouds -10 1011 93 0 10.47 221 01:58 29.02.2020
2140 Clouds -10 1010 96 0 10.57 221 00:51 29.02.2020
2141 Clouds -10 1010 96 0 10.57 221 00:27 29.02.2020
2142 Clouds -10 1010 96 0 10.57 221 23:41 28.02.2020
2143 Clouds -10 1010 96 0 10.57 221 23:22 28.02.2020
2144 Clouds -9 1009 92 0 10 227 22:43 28.02.2020
2145 Clouds -9 1009 92 0 10 227 22:22 28.02.2020
2146 Clouds -9 1009 92 0 10 227 21:42 28.02.2020
2147 Clouds -9 1009 92 0 10 227 21:22 28.02.2020
2148 Clouds -9 1009 92 0 10 227 20:58 28.02.2020
2149 Clouds -9 1009 92 0 10 227 20:39 28.02.2020
2150 Clouds -9 1009 92 0 10.52 225 20:20 28.02.2020
2151 Clouds -8 1010 92 0 10.88 220 19:57 28.02.2020
2152 Clouds -8 1010 92 0 10.88 220 19:57 28.02.2020
2153 Clouds -8 1010 92 0 10.88 220 19:38 28.02.2020
2154 Clouds -8 1010 92 0 10.88 220 19:20 28.02.2020
2155 Clouds -8 1010 92 0 10.88 220 18:46 28.02.2020
2156 Clouds -8 1010 92 0 10.88 220 18:25 28.02.2020
2157 Clouds -8 1010 92 0 10.88 220 17:57 28.02.2020
2158 Clouds -8 1010 92 0 10.88 220 17:38 28.02.2020
2159 Clouds -7 1008 90 0 10.39 222 17:20 28.02.2020
2160 Clouds -7 1008 90 0 10.39 222 16:38 28.02.2020
2161 Clouds -7 1008 90 0 10.39 222 16:19 28.02.2020
2162 Clouds -7 1008 90 0 10.39 222 15:56 28.02.2020
2163 Clouds -7 1008 90 0 10.39 222 15:38 28.02.2020
2164 Clouds -7 1008 90 0 10.39 222 15:18 28.02.2020
2165 Clouds -7 1008 90 0 10.39 222 14:45 28.02.2020
2166 Clouds -6 1007 92 0 8.44 226 14:20 28.02.2020
2167 Clouds -6 1007 92 0 8.44 226 13:59 28.02.2020
2168 Clouds -6 1007 92 0 8.44 226 13:40 28.02.2020
2169 Clouds -6 1007 91 0 8.11 225 13:20 28.02.2020
2170 Clouds -6 1007 91 0 8.11 225 12:46 28.02.2020
2171 Clouds -6 1007 91 0 8.11 225 12:28 28.02.2020
2172 Clouds -6 1007 91 0 8.11 225 11:59 28.02.2020
2173 Clouds -6 1007 91 0 8.11 225 11:40 28.02.2020
2174 Clouds -6 1007 91 0 8.11 225 11:21 28.02.2020
2175 Clouds -5 1005 87 0 7.53 233 10:43 28.02.2020
2176 Clouds -5 1005 87 0 7.53 233 10:24 28.02.2020
2177 Clouds -5 1005 87 0 7.53 233 09:55 28.02.2020
2178 Clouds -5 1005 87 0 7.53 233 09:36 28.02.2020
2179 Clouds -5 1005 87 0 7.53 233 09:18 28.02.2020
2180 Clouds -5 1005 87 0 7.53 233 08:42 28.02.2020
2181 Clouds -5 1003 83 0 7.11 250 08:20 28.02.2020
2182 Clouds -5 1003 83 0 7.11 250 07:45 28.02.2020
2183 Clouds -5 1003 83 0 7.11 250 07:25 28.02.2020
2184 Clouds -5 1003 83 0 7.11 250 06:50 28.02.2020
2185 Clouds -5 1003 83 0 7.11 250 06:29 28.02.2020
2186 Clouds -5 1003 83 0 7.11 250 05:22 28.02.2020
2187 Clouds -5 1001 73 0 6.22 273 04:31 28.02.2020
2188 Clouds -5 1001 73 0 6.22 273 02:48 28.02.2020
2189 Clouds -5 1001 73 0 6.22 273 02:28 28.02.2020
2190 Clouds -5 999 73 0 6.48 288 01:38 28.02.2020
2191 Clouds -5 999 70 0 7 285 00:31 28.02.2020
2192 Clouds -5 999 70 0 7 285 23:45 27.02.2020
2193 Clouds -5 999 70 0 7 285 23:22 27.02.2020
2194 Snow -5 995 79 0 6.66 320 22:56 27.02.2020
2195 Snow -5 995 79 0 6.66 320 22:37 27.02.2020
2196 Snow -5 995 79 0 6.66 320 22:19 27.02.2020
2197 Snow -5 995 79 0 6.66 320 21:41 27.02.2020
2198 Snow -5 995 79 0 6.66 320 21:22 27.02.2020
2199 Snow -5 995 79 0 6.66 320 20:58 27.02.2020
2200 Snow -5 995 79 0 6.66 320 20:40 27.02.2020
2201 Clouds -5 995 79 0 6.69 320 20:21 27.02.2020
2202 Snow -5 993 87 0 7.15 331 19:56 27.02.2020
2203 Snow -5 993 87 0 7.15 331 19:38 27.02.2020
2204 Snow -5 993 87 0 7.15 331 19:19 27.02.2020
2205 Snow -5 993 87 0 7.15 331 18:42 27.02.2020
2206 Snow -5 993 87 0 7.15 331 18:24 27.02.2020
2207 Snow -5 993 87 0 7.15 331 17:58 27.02.2020
2208 Snow -5 993 87 0 7.15 331 17:40 27.02.2020
2209 Snow -4 991 89 0 4.94 305 17:19 27.02.2020
2210 Snow -4 991 89 0 4.94 305 16:58 27.02.2020
2211 Snow -4 991 89 0 4.94 305 16:39 27.02.2020
2212 Snow -4 991 89 0 4.94 305 16:19 27.02.2020
2213 -273 0 0 0 0 0 15:57 27.02.2020
2214 Snow -4 991 89 0 4.94 305 15:37 27.02.2020
2215 Snow -4 991 89 0 4.94 305 15:18 27.02.2020
2216 Snow -4 991 89 0 4.94 305 14:55 27.02.2020
2217 Snow -4 991 89 0 4.94 305 14:36 27.02.2020
2218 Snow -5 989 92 0 8.95 223 14:18 27.02.2020
2219 Snow -5 989 92 0 8.95 223 13:41 27.02.2020
2220 Snow -5 989 92 0 8.3 226 13:21 27.02.2020
2221 Snow -5 989 92 0 8.3 226 12:47 27.02.2020
2222 Snow -5 989 92 0 8.3 226 12:25 27.02.2020
2223 Snow -5 989 92 0 8.3 226 11:59 27.02.2020
2224 Snow -5 989 92 0 8.3 226 11:39 27.02.2020
2225 Snow -5 988 91 0 10.33 221 11:21 27.02.2020
2226 Snow -5 988 91 0 10.33 221 11:21 27.02.2020
2227 Snow -5 988 91 0 10.33 221 10:43 27.02.2020
2228 Snow -5 988 91 0 10.33 221 10:22 27.02.2020
2229 Snow -5 988 91 0 10.33 221 09:48 27.02.2020
2230 Snow -5 988 91 0 10.33 221 09:29 27.02.2020
2231 Snow -5 988 91 0 10.33 221 08:57 27.02.2020
2232 Snow -5 988 91 0 10.33 221 08:39 27.02.2020
2233 Clouds -4 987 90 0 8.63 216 08:19 27.02.2020
2234 Clouds -4 987 90 0 8.63 216 07:43 27.02.2020
2235 Clouds -4 987 90 0 8.63 216 07:24 27.02.2020
2236 Clouds -4 987 90 0 8.63 216 06:42 27.02.2020
2237 Clouds -4 987 90 0 8.63 216 05:27 27.02.2020
2238 Snow -3 986 89 0 8.13 219 03:33 27.02.2020
2239 Snow -4 986 89 0 7.78 193 02:19 27.02.2020
2240 Snow -4 986 91 0 7.62 189 00:44 27.02.2020
2241 Snow -4 986 91 0 7.62 189 00:24 27.02.2020
2242 Snow -4 986 91 0 7.62 189 23:39 26.02.2020
2243 Snow -4 987 92 0 6.74 166 23:18 26.02.2020
2244 Snow -4 987 92 0 6.74 166 22:56 26.02.2020
2245 Snow -4 987 92 0 6.74 166 22:38 26.02.2020
2246 Snow -4 987 92 0 6.74 166 22:19 26.02.2020
2247 Snow -4 987 92 0 6.74 166 21:40 26.02.2020
2248 Snow -4 987 92 0 6.74 166 21:21 26.02.2020
2249 Snow -4 987 92 0 6.74 166 20:57 26.02.2020
2250 Snow -4 987 92 0 6.74 166 20:39 26.02.2020
2251 Snow -4 990 94 0 7.44 142 20:19 26.02.2020
2252 Snow -3 990 94 0 6.99 143 19:57 26.02.2020
2253 Snow -3 990 94 0 6.99 143 19:38 26.02.2020
2254 Snow -3 990 94 0 6.99 143 19:19 26.02.2020
2255 Snow -3 990 94 0 6.99 143 18:57 26.02.2020
2256 Snow -3 990 94 0 6.99 143 18:38 26.02.2020
2257 Snow -3 990 94 0 6.99 143 18:19 26.02.2020
2258 Snow -3 990 94 0 6.99 143 17:41 26.02.2020
2259 Snow -3 992 94 0 6.42 144 17:21 26.02.2020
2260 Snow -3 992 94 0 6.42 144 16:57 26.02.2020
2261 Snow -3 992 94 0 6.42 144 16:39 26.02.2020
2262 Snow -3 992 94 0 6.42 144 16:20 26.02.2020
2263 Snow -3 992 94 0 6.42 144 15:46 26.02.2020
2264 Snow -3 992 94 0 6.42 144 15:28 26.02.2020
2265 Snow -3 992 94 0 6.42 144 14:57 26.02.2020
2266 Snow -3 992 94 0 6.42 144 14:39 26.02.2020
2267 Snow -3 995 94 0 6.06 132 14:21 26.02.2020
2268 Snow -3 995 94 0 6.06 132 13:42 26.02.2020
2269 Snow -3 995 94 0 6.06 132 13:20 26.02.2020
2270 Clouds -3 995 94 0 5.4 135 12:39 26.02.2020
2271 Clouds -3 995 94 0 5.4 135 12:20 26.02.2020
2272 Clouds -3 995 94 0 5.4 135 11:57 26.02.2020
2273 Clouds -3 995 94 0 5.4 135 11:39 26.02.2020
2274 Clouds -4 997 86 0 4.22 177 11:21 26.02.2020
2275 Clouds -4 997 86 0 4.22 177 10:41 26.02.2020
2276 Clouds -4 997 86 0 4.22 177 10:23 26.02.2020
2277 Clouds -4 997 86 0 4.22 177 09:57 26.02.2020
2278 Clouds -4 997 86 0 4.22 177 09:39 26.02.2020
2279 Clouds -4 997 86 0 4.22 177 09:19 26.02.2020
2280 Clouds -4 997 86 0 4.22 177 08:39 26.02.2020
2281 Clouds -4 997 86 0 4.22 177 08:39 26.02.2020
2282 Clouds -5 997 90 0 7.9 207 08:19 26.02.2020
2283 Clouds -5 997 90 0 7.9 207 07:50 26.02.2020
2284 Clouds -5 997 90 0 7.9 207 07:29 26.02.2020
2285 Clouds -5 997 90 0 7.9 207 06:57 26.02.2020
2286 Clouds -5 997 90 0 7.9 207 06:39 26.02.2020
2287 Clouds -5 997 90 0 7.9 207 06:18 26.02.2020
2288 Clouds -5 997 90 0 7.9 207 05:47 26.02.2020
2289 Clouds -4 996 92 0 7.06 216 04:49 26.02.2020
2290 Clouds -4 996 92 0 7.06 216 02:54 26.02.2020
2291 Clouds -3 995 83 0 8.65 243 01:50 26.02.2020
2292 Clouds -3 994 88 0 8.53 240 00:51 26.02.2020
2293 Clouds -3 994 88 0 8.53 240 00:28 26.02.2020
2294 Clouds -3 994 88 0 8.53 240 23:59 25.02.2020
2295 Clouds -3 994 88 0 8.53 240 23:38 25.02.2020
2296 Clouds -2 992 90 0 9.08 247 23:20 25.02.2020
2297 Clouds -2 992 90 0 9.08 247 22:43 25.02.2020
2298 Clouds -2 992 90 0 9.08 247 22:20 25.02.2020
2299 Clouds -2 992 90 0 9.08 247 21:58 25.02.2020
2300 Clouds -2 992 90 0 9.08 247 21:37 25.02.2020
2301 Clouds -2 992 90 0 9.08 247 21:18 25.02.2020
2302 Clouds -2 992 90 0 9.08 247 20:55 25.02.2020
2303 Clouds -2 992 90 0 9.08 247 20:36 25.02.2020
2304 Snow -2 990 91 0 10.16 228 20:18 25.02.2020
2305 Snow -2 990 91 0 10.16 228 19:42 25.02.2020
2306 Snow -2 990 91 0 10.16 228 19:22 25.02.2020
2307 Snow -2 990 91 0 10.16 228 18:58 25.02.2020
2308 Snow -2 990 91 0 10.16 228 18:39 25.02.2020
2309 Snow -2 990 91 0 10.16 228 18:20 25.02.2020
2310 Snow -2 990 91 0 10.16 228 17:55 25.02.2020
2311 Snow -2 990 91 0 10.16 228 17:36 25.02.2020
2312 Snow -2 989 91 0 10.47 224 17:18 25.02.2020
2313 Snow -2 989 91 0 10.47 224 16:42 25.02.2020
2314 Snow -2 989 91 0 10.47 224 16:22 25.02.2020
2315 Snow -2 989 91 0 10.47 224 15:59 25.02.2020
2316 Snow -2 989 91 0 10.47 224 15:41 25.02.2020
2317 Snow -2 989 91 0 10.47 224 15:20 25.02.2020
2318 Snow -2 989 91 0 10.47 224 14:58 25.02.2020
2319 Snow -2 989 91 0 10.47 224 14:38 25.02.2020
2320 Clouds -2 987 90 0 11.56 219 14:18 25.02.2020
2321 Clouds -2 987 90 0 11.56 219 13:56 25.02.2020
2322 Clouds -2 987 90 0 11.56 219 13:38 25.02.2020
2323 Clouds -2 987 90 0 11.56 219 13:19 25.02.2020
2324 Clouds -2 987 90 0 11.56 219 13:19 25.02.2020
2325 Clouds -2 987 90 0 11.84 219 12:42 25.02.2020
2326 Clouds -2 987 90 0 11.84 219 12:23 25.02.2020
2327 Clouds -2 987 90 0 11.84 219 11:59 25.02.2020
2328 Clouds -2 987 90 0 11.84 219 11:41 25.02.2020
2329 Clouds -3 986 88 0 12.65 210 11:19 25.02.2020
2330 Clouds -3 986 88 0 12.65 210 10:59 25.02.2020
2331 Clouds -3 986 88 0 12.65 210 10:40 25.02.2020
2332 Clouds -3 986 88 0 12.65 210 10:22 25.02.2020
2333 Clouds -3 986 88 0 12.65 210 09:42 25.02.2020
2334 Clouds -3 986 88 0 12.65 210 09:42 25.02.2020
2335 Clouds -3 986 88 0 12.65 210 09:22 25.02.2020
2336 Clouds -3 986 88 0 12.65 210 08:55 25.02.2020
2337 Clouds -3 986 88 0 12.65 210 08:37 25.02.2020
2338 Clouds -3 985 89 0 11.07 201 08:19 25.02.2020
2339 Clouds -3 985 89 0 11.07 201 07:40 25.02.2020
2340 Clouds -3 985 89 0 11.07 201 07:20 25.02.2020
2341 Clouds -3 985 89 0 11.07 201 06:37 25.02.2020
2342 Clouds -3 985 89 0 11.07 201 05:29 25.02.2020
2343 Clouds -3 985 87 0 11.64 204 03:30 25.02.2020
2344 Clouds -3 984 87 0 12.08 202 01:36 25.02.2020
2345 Clouds -3 984 87 0 12.11 202 00:48 25.02.2020
2346 Clouds -3 984 87 0 12.11 202 00:29 25.02.2020
2347 Clouds -3 984 87 0 12.11 202 23:43 24.02.2020
2348 Clouds -3 984 86 0 12.41 203 23:20 24.02.2020
2349 Clouds -3 984 86 0 12.41 203 22:42 24.02.2020
2350 Clouds -3 984 86 0 12.41 203 22:20 24.02.2020
2351 Clouds -3 984 86 0 12.41 203 21:57 24.02.2020
2352 Clouds -3 984 86 0 12.41 203 21:39 24.02.2020
2353 Clouds -3 984 86 0 12.41 203 21:20 24.02.2020
2354 Clouds -3 984 86 0 12.41 203 20:58 24.02.2020
2355 Clouds -3 984 86 0 12.41 203 20:40 24.02.2020
2356 Clouds -3 984 86 0 12.41 203 20:40 24.02.2020
2357 Clouds -3 983 86 0 11.71 205 20:19 24.02.2020
2358 Clouds -3 983 86 0 11.71 205 19:56 24.02.2020
2359 Clouds -3 983 86 0 11.71 205 19:38 24.02.2020
2360 Clouds -3 983 86 0 11.71 205 19:20 24.02.2020
2361 Clouds -3 983 86 0 11.71 205 18:54 24.02.2020
2362 Clouds -3 983 86 0 11.71 205 18:36 24.02.2020
2363 Clouds -3 983 86 0 11.71 205 18:18 24.02.2020
2364 Clouds -3 983 86 0 11.71 205 17:40 24.02.2020
2365 Clouds -3 983 87 0 11.23 205 17:20 24.02.2020
2366 Clouds -3 983 87 0 11.23 205 16:58 24.02.2020
2367 Clouds -3 983 87 0 11.23 205 16:39 24.02.2020
2368 Clouds -3 983 87 0 11.23 205 16:20 24.02.2020
2369 Clouds -3 983 87 0 11.23 205 15:58 24.02.2020
2370 Clouds -3 983 87 0 11.23 205 15:39 24.02.2020
2371 Clouds -3 983 87 0 11.23 205 15:21 24.02.2020
2372 Clouds -3 983 87 0 11.23 205 15:21 24.02.2020
2373 Clouds -3 983 87 0 11.23 205 14:57 24.02.2020
2374 Clouds -3 983 87 0 11.23 205 14:38 24.02.2020
2375 Clouds -2 983 88 0 10.97 205 14:18 24.02.2020
2376 Clouds -2 983 88 0 10.97 205 13:56 24.02.2020
2377 Clouds -2 983 88 0 10.97 205 13:36 24.02.2020
2378 Clouds -2 983 88 0 10.97 205 13:18 24.02.2020
2379 Clouds -2 984 87 0 10.7 206 12:42 24.02.2020
2380 Clouds -2 984 87 0 10.7 206 12:42 24.02.2020
2381 Clouds -2 984 87 0 10.7 206 12:24 24.02.2020
2382 Clouds -2 984 87 0 10.7 206 11:56 24.02.2020
2383 Clouds -2 984 87 0 10.7 206 11:38 24.02.2020
2384 Clouds -2 983 85 0 10.6 206 11:19 24.02.2020
2385 Clouds -2 983 85 0 10.6 206 10:41 24.02.2020
2386 Clouds -2 983 85 0 10.6 206 10:22 24.02.2020
2387 Clouds -2 983 85 0 10.6 206 09:40 24.02.2020
2388 Clouds -2 983 85 0 10.6 206 09:19 24.02.2020
2389 Clouds -2 983 85 0 10.6 206 08:53 24.02.2020
2390 Clouds -2 983 85 0 10.6 206 08:29 24.02.2020
2391 Clouds -2 983 84 0 12.16 210 07:56 24.02.2020
2392 Clouds -2 983 84 0 12.16 210 07:33 24.02.2020
2393 Clouds -2 983 84 0 12.16 210 06:55 24.02.2020
2394 Clouds -2 983 84 0 12.16 210 06:28 24.02.2020
2395 Clouds -2 983 84 0 12.16 210 05:46 24.02.2020
2396 Clouds -2 983 84 0 12.16 210 05:27 24.02.2020
2397 Clouds -2 982 84 0 14.6 210 02:58 24.02.2020
2398 Clouds -2 982 84 0 14.6 210 02:31 24.02.2020
2399 Clouds -2 982 88 0 14.56 208 01:39 24.02.2020
2400 Snow -2 983 88 0 14.2 211 00:50 24.02.2020
2401 Snow -2 983 88 0 14.2 211 00:21 24.02.2020
2402 Snow -2 983 88 0 14.2 211 23:55 23.02.2020
2403 Snow -2 983 88 0 14.2 211 23:36 23.02.2020
2404 Snow -1 983 93 0 12.2 210 23:18 23.02.2020
2405 Snow -1 983 93 0 12.2 210 22:43 23.02.2020
2406 Snow -1 983 93 0 12.2 210 22:22 23.02.2020
2407 Snow -1 983 93 0 12.2 210 21:55 23.02.2020
2408 Snow -1 983 93 0 12.2 210 21:37 23.02.2020
2409 Snow -1 983 93 0 12.2 210 21:18 23.02.2020
2410 Snow -1 983 93 0 12.2 210 21:18 23.02.2020
2411 Snow -1 983 93 0 12.2 210 20:55 23.02.2020
2412 Snow -1 983 93 0 12.2 210 20:37 23.02.2020
2413 Snow -1 983 93 0 12.2 210 20:37 23.02.2020
2414 Snow -2 984 93 0 12.29 205 20:18 23.02.2020
2415 Snow -2 984 93 0 12.29 205 19:42 23.02.2020
2416 Snow -2 984 93 0 12.29 205 19:20 23.02.2020
2417 Snow -2 984 93 0 12.29 205 19:00 23.02.2020
2418 Snow -2 984 93 0 12.29 205 18:41 23.02.2020
2419 Snow -2 984 93 0 12.29 205 18:21 23.02.2020
2420 Snow -2 984 93 0 12.29 205 17:58 23.02.2020
2421 Snow -2 984 93 0 12.29 205 17:40 23.02.2020
2422 Snow -2 984 93 0 12.29 205 17:21 23.02.2020
2423 Snow -1 985 88 0 12.24 212 16:56 23.02.2020
2424 Snow -1 985 88 0 12.24 212 16:38 23.02.2020
2425 Snow -1 985 88 0 12.24 212 16:19 23.02.2020
2426 Snow -1 985 88 0 12.24 212 15:54 23.02.2020
2427 Snow -1 985 88 0 12.24 212 15:36 23.02.2020
2428 Snow -1 985 88 0 12.24 212 15:18 23.02.2020
2429 Snow -1 985 88 0 12.24 212 14:55 23.02.2020
2430 Snow -1 985 88 0 12.24 212 14:37 23.02.2020
2431 Snow -1 986 87 0 11.94 210 14:18 23.02.2020
2432 Snow -1 986 87 0 11.94 210 13:42 23.02.2020
2433 Snow -1 986 87 0 12.04 212 13:22 23.02.2020
2434 Snow -1 986 87 0 12.04 212 12:59 23.02.2020
2435 Snow -1 986 87 0 12.04 212 12:39 23.02.2020
2436 Snow -1 986 87 0 12.04 212 12:20 23.02.2020
2437 Snow -1 986 87 0 12.04 212 11:38 23.02.2020
2438 Snow 0 987 92 0 12.21 216 11:20 23.02.2020
2439 Snow 0 987 92 0 12.21 216 11:20 23.02.2020
2440 Snow 0 987 92 0 12.21 216 10:57 23.02.2020
2441 Snow 0 987 92 0 12.21 216 10:39 23.02.2020
2442 Snow 0 987 92 0 12.21 216 10:21 23.02.2020
2443 Snow 0 987 92 0 12.21 216 09:56 23.02.2020
2444 Snow 0 987 92 0 12.21 216 09:37 23.02.2020
2445 Snow 0 987 92 0 12.21 216 09:18 23.02.2020
2446 Snow 0 987 92 0 12.21 216 08:43 23.02.2020
2447 Snow 0 987 92 0 12.21 216 08:24 23.02.2020
2448 Snow -1 988 95 0 11.2 219 07:43 23.02.2020
2449 Snow -1 988 95 0 11.2 219 07:25 23.02.2020
2450 Snow -1 988 95 0 11.2 219 06:20 23.02.2020
2451 Snow -1 989 92 0 11.32 222 04:51 23.02.2020
2452 Snow -1 989 92 0 11.32 222 03:52 23.02.2020
2453 Snow -1 989 92 0 11.32 222 02:40 23.02.2020
2454 Snow -1 989 93 0 12.3 229 01:27 23.02.2020
2455 Snow -1 989 94 0 12.45 230 00:59 23.02.2020
2456 Snow -1 989 94 0 12.45 230 00:41 23.02.2020
2457 Snow -1 989 94 0 12.45 230 00:19 23.02.2020
2458 Snow -1 989 94 0 12.45 230 23:42 22.02.2020
2459 Snow -1 989 95 0 12.5 229 23:20 22.02.2020
2460 Snow -1 989 95 0 12.5 229 22:45 22.02.2020
2461 Snow -1 989 95 0 12.5 229 22:20 22.02.2020
2462 Snow -1 989 95 0 12.5 229 21:43 22.02.2020
2463 Snow -1 989 95 0 12.5 229 21:25 22.02.2020
2464 Snow -1 989 95 0 12.5 229 20:58 22.02.2020
2465 Snow -1 989 95 0 12.5 229 20:39 22.02.2020
2466 Snow -1 990 94 0 12.21 235 20:21 22.02.2020
2467 Snow -1 990 94 0 12.21 235 19:42 22.02.2020
2468 Snow -1 990 94 0 12.21 235 19:23 22.02.2020
2469 Snow -1 990 94 0 12.21 235 18:55 22.02.2020
2470 Snow -1 990 94 0 12.21 235 18:37 22.02.2020
2471 Snow -1 990 94 0 12.21 235 18:18 22.02.2020
2472 Snow -1 990 94 0 12.21 235 17:44 22.02.2020
2473 Snow -1 990 94 0 12.21 235 17:25 22.02.2020
2474 Snow -1 991 94 0 13.85 227 16:59 22.02.2020
2475 Snow -1 991 94 0 13.85 227 16:40 22.02.2020
2476 Snow -1 991 94 0 13.85 227 16:20 22.02.2020
2477 Snow -1 991 94 0 13.85 227 15:55 22.02.2020
2478 Snow -1 991 94 0 13.85 227 15:37 22.02.2020
2479 Snow -1 991 94 0 13.85 227 15:19 22.02.2020
2480 Snow -1 991 94 0 13.85 227 14:41 22.02.2020
2481 Snow -1 991 94 0 13.85 227 14:21 22.02.2020
2482 Snow -3 993 91 0 14.78 216 13:43 22.02.2020
2483 Snow -4 993 91 0 14.59 215 13:20 22.02.2020
2484 Snow -4 993 91 0 14.59 215 12:58 22.02.2020
2485 Snow -4 993 91 0 14.59 215 12:39 22.02.2020
2486 Snow -4 993 91 0 14.59 215 12:20 22.02.2020
2487 Snow -4 993 91 0 14.59 215 11:43 22.02.2020
2488 Snow -4 993 91 0 14.59 215 11:25 22.02.2020
2489 Snow -6 996 89 0 14.91 214 10:55 22.02.2020
2490 Snow -6 996 89 0 14.91 214 10:36 22.02.2020
2491 Snow -6 996 89 0 14.91 214 10:18 22.02.2020
2492 Snow -6 996 89 0 14.91 214 10:18 22.02.2020
2493 Snow -6 996 89 0 14.91 214 09:42 22.02.2020
2494 Snow -6 996 89 0 14.91 214 09:22 22.02.2020
2495 Snow -6 996 89 0 14.91 214 08:57 22.02.2020
2496 Snow -6 996 89 0 14.91 214 08:38 22.02.2020
2497 Clouds -7 998 86 0 14.27 214 08:20 22.02.2020
2498 Clouds -7 998 86 0 14.27 214 07:39 22.02.2020
2499 Clouds -7 998 86 0 14.27 214 07:18 22.02.2020
2500 Clouds -7 998 86 0 14.27 214 06:43 22.02.2020
2501 Clouds -9 1001 88 0 14 220 04:45 22.02.2020
2502 Clouds -9 1001 88 0 14 220 04:25 22.02.2020
2503 Clouds -9 1001 88 0 14 220 02:42 22.02.2020
2504 Clouds -9 1003 78 0 14.02 216 01:49 22.02.2020
2505 Clouds -8 1003 80 0 13.72 217 01:29 22.02.2020
2506 Clouds -8 1003 80 0 13.72 217 00:49 22.02.2020
2507 Clouds -8 1003 80 0 13.72 217 00:31 22.02.2020
2508 Clouds -8 1003 80 0 13.72 217 23:53 21.02.2020
2509 Clouds -8 1003 80 0 13.72 217 23:26 21.02.2020
2510 Clouds -8 1006 84 0 12.66 220 22:59 21.02.2020
2511 Clouds -8 1006 84 0 12.66 220 22:41 21.02.2020
2512 Clouds -8 1006 84 0 12.66 220 22:23 21.02.2020
2513 Clouds -8 1006 84 0 12.66 220 21:55 21.02.2020
2514 Clouds -8 1006 84 0 12.66 220 21:37 21.02.2020
2515 Clouds -8 1006 84 0 12.66 220 21:18 21.02.2020
2516 Clouds -8 1006 84 0 12.66 220 20:41 21.02.2020
2517 Clouds -8 1006 84 0 12.66 220 20:23 21.02.2020
2518 Clouds -10 1008 87 0 12.4 219 19:39 21.02.2020
2519 Clouds -10 1008 87 0 12.4 219 19:19 21.02.2020
2520 Clouds -10 1008 87 0 12.4 219 18:43 21.02.2020
2521 Clouds -10 1008 87 0 12.4 219 18:23 21.02.2020
2522 Clouds -10 1008 87 0 12.4 219 17:57 21.02.2020
2523 Clouds -10 1008 87 0 12.4 219 17:37 21.02.2020
2524 Clouds -9 1009 94 0 10.91 222 17:19 21.02.2020
2525 Clouds -9 1009 94 0 10.91 222 16:42 21.02.2020
2526 Clouds -9 1009 94 0 10.91 222 16:22 21.02.2020
2527 Clouds -9 1009 94 0 10.91 222 15:58 21.02.2020
2528 Clouds -9 1009 94 0 10.91 222 15:38 21.02.2020
2529 Clouds -9 1009 94 0 10.91 222 15:18 21.02.2020
2530 Clouds -9 1009 94 0 10.91 222 14:42 21.02.2020
2531 Clouds -9 1009 94 0 10.91 222 14:21 21.02.2020
2532 Clouds -6 1009 91 0 10.05 228 13:58 21.02.2020
2533 Clouds -6 1009 91 0 10.05 228 13:38 21.02.2020
2534 Clouds -5 1009 90 0 10.02 232 13:20 21.02.2020
2535 Clouds -5 1009 90 0 10.02 232 12:42 21.02.2020
2536 Clouds -5 1009 90 0 10.02 232 12:24 21.02.2020
2537 Clouds -5 1009 90 0 10.02 232 11:55 21.02.2020
2538 Clouds -5 1009 90 0 10.02 232 11:55 21.02.2020
2539 Clouds -5 1009 90 0 10.02 232 11:36 21.02.2020
2540 Clouds -6 1008 95 0 9.35 228 11:18 21.02.2020
2541 Clouds -6 1008 95 0 9.35 228 10:41 21.02.2020
2542 Clouds -6 1008 95 0 9.35 228 10:20 21.02.2020
2543 Clouds -6 1008 95 0 9.35 228 09:58 21.02.2020
2544 Clouds -6 1008 95 0 9.35 228 09:38 21.02.2020
2545 Clouds -6 1008 95 0 9.35 228 09:20 21.02.2020
2546 Clouds -6 1008 95 0 9.35 228 08:45 21.02.2020
2547 Clouds -6 1008 95 0 10.37 230 08:23 21.02.2020
2548 Clouds -6 1008 87 0 9 232 07:59 21.02.2020
2549 Clouds -6 1008 87 0 9 232 07:41 21.02.2020
2550 Clouds -6 1008 87 0 9 232 07:20 21.02.2020
2551 Clouds -6 1008 87 0 9 232 06:55 21.02.2020
2552 Clouds -6 1008 87 0 9 232 06:31 21.02.2020
2553 Clouds -6 1008 87 0 9 232 05:55 21.02.2020
2554 Clouds -6 1006 88 0 7.17 240 04:39 21.02.2020
2555 Clouds -6 1006 88 0 7.17 240 04:20 21.02.2020
2556 Clouds -6 1006 88 0 7.17 240 03:44 21.02.2020
2557 Clouds -6 1006 88 0 7.17 240 02:58 21.02.2020
2558 Clouds -7 1006 91 0 9.4 244 01:28 21.02.2020
2559 Clouds -7 1006 91 0 9.4 244 00:46 21.02.2020
2560 Clouds -7 1006 91 0 9.4 244 00:24 21.02.2020
2561 Clouds -7 1006 91 0 9.4 244 00:24 21.02.2020
2562 Clouds -7 1006 91 0 9.4 244 23:46 20.02.2020
2563 Clouds -7 1006 91 0 9.4 244 23:26 20.02.2020
2564 Clear -6 1004 84 0 8.47 236 23:00 20.02.2020
2565 Clear -6 1004 84 0 8.47 236 22:39 20.02.2020
2566 Clear -6 1004 84 0 8.47 236 22:20 20.02.2020
2567 Clear -6 1004 84 0 8.47 236 21:57 20.02.2020
2568 Clear -6 1004 84 0 8.47 236 21:37 20.02.2020
2569 Clear -6 1004 84 0 8.47 236 21:19 20.02.2020
2570 Clear -6 1004 84 0 8.47 236 20:55 20.02.2020
2571 Clear -6 1004 84 0 8.47 236 20:37 20.02.2020
2572 Clouds -8 1003 72 0 5.81 235 20:19 20.02.2020
2573 Clouds -8 1003 72 0 5.81 235 19:58 20.02.2020
2574 Clouds -8 1003 72 0 5.81 235 19:39 20.02.2020
2575 Clouds -8 1003 72 0 5.81 235 19:21 20.02.2020
2576 Clouds -8 1003 72 0 5.81 235 18:39 20.02.2020
2577 Clouds -8 1003 72 0 5.81 235 18:20 20.02.2020
2578 Clouds -8 1003 72 0 5.81 235 17:55 20.02.2020
2579 Clouds -8 1003 72 0 5.81 235 17:36 20.02.2020
2580 Clouds -8 1002 67 0 4.27 242 17:18 20.02.2020
2581 Clouds -8 1002 67 0 4.27 242 16:55 20.02.2020
2582 Clouds -8 1002 67 0 4.27 242 16:37 20.02.2020
2583 Clouds -8 1002 67 0 4.27 242 16:18 20.02.2020
2584 Clouds -8 1002 67 0 4.27 242 15:41 20.02.2020
2585 Clouds -8 1002 67 0 4.27 242 15:21 20.02.2020
2586 Clouds -8 1002 67 0 4.27 242 14:56 20.02.2020
2587 Clouds -8 1002 67 0 4.27 242 14:38 20.02.2020
2588 Clouds -7 1002 60 0 3.24 255 14:20 20.02.2020
2589 Clouds -7 1002 60 0 3.24 255 13:45 20.02.2020
2590 Clouds -7 1002 62 0 3.79 258 13:20 20.02.2020
2591 Clouds -7 1002 62 0 3.79 258 12:58 20.02.2020
2592 Clouds -7 1002 62 0 3.79 258 12:40 20.02.2020
2593 Clouds -7 1002 62 0 3.79 258 12:19 20.02.2020
2594 Clouds -7 1002 62 0 3.79 258 11:54 20.02.2020
2595 Clouds -7 1002 62 0 3.79 258 11:36 20.02.2020
2596 Clouds -8 1001 68 0 4.13 246 11:18 20.02.2020
2597 Clouds -8 1001 68 0 4.13 246 10:42 20.02.2020
2598 Clouds -8 1001 68 0 4.13 246 10:42 20.02.2020
2599 Clouds -8 1001 68 0 4.13 246 10:21 20.02.2020
2600 Clouds -8 1001 68 0 4.13 246 09:55 20.02.2020
2601 Clouds -8 1001 68 0 4.13 246 09:36 20.02.2020
2602 Clouds -8 1001 68 0 4.13 246 09:18 20.02.2020
2603 Clouds -8 1001 68 0 4.13 246 08:39 20.02.2020
2604 Clouds -6 1001 72 0 2.56 265 08:21 20.02.2020
2605 Clouds -7 1000 69 0 0.28 158 07:46 20.02.2020
2606 Clouds -7 1000 69 0 0.28 158 07:26 20.02.2020
2607 Clouds -7 1000 69 0 0.28 158 06:55 20.02.2020
2608 Clouds -7 1000 69 0 0.28 158 06:27 20.02.2020
2609 Clouds -7 1000 69 0 0.28 158 05:47 20.02.2020
2610 Clouds -7 998 70 0 1.94 15 04:56 20.02.2020
2611 Clouds -7 998 70 0 1.94 15 04:23 20.02.2020
2612 Clouds -7 998 70 0 1.94 15 03:35 20.02.2020
2613 Clouds -7 998 70 0 1.94 15 02:28 20.02.2020
2614 Clouds -6 996 69 0 5.79 330 01:18 20.02.2020
2615 Clouds -6 996 69 0 5.79 330 00:34 20.02.2020
2616 Clouds -6 996 69 0 5.79 330 23:52 19.02.2020
2617 Clouds -6 996 69 0 5.79 330 23:23 19.02.2020
2618 Clouds -4 993 74 0 6.17 295 22:55 19.02.2020
2619 Clouds -4 993 74 0 6.17 295 22:37 19.02.2020
2620 Clouds -4 993 74 0 6.17 295 22:18 19.02.2020
2621 Clouds -4 993 74 0 6.17 295 21:55 19.02.2020
2622 Clouds -4 993 74 0 6.17 295 21:36 19.02.2020
2623 Clouds -4 993 74 0 6.17 295 21:18 19.02.2020
2624 Clouds -4 993 74 0 6.17 295 20:55 19.02.2020
2625 Clouds -4 993 74 0 6.17 295 20:36 19.02.2020
2626 Clouds -4 991 81 0 7.95 275 20:18 19.02.2020
2627 Clouds -4 991 81 0 7.95 275 19:54 19.02.2020
2628 Clouds -4 991 81 0 7.95 275 19:36 19.02.2020
2629 Clouds -4 991 81 0 7.95 275 19:18 19.02.2020
2630 Clouds -4 991 81 0 7.95 275 18:55 19.02.2020
2631 Clouds -4 991 81 0 7.95 275 18:37 19.02.2020
2632 Clouds -4 991 81 0 7.95 275 18:19 19.02.2020
2633 Clouds -4 991 81 0 7.95 275 17:42 19.02.2020
2634 Clouds -4 991 81 0 7.95 275 17:42 19.02.2020
2635 Clouds -4 987 81 0 9.5 266 17:19 19.02.2020
2636 Clouds -4 987 81 0 9.5 266 16:44 19.02.2020
2637 Clouds -4 987 81 0 9.5 266 16:19 19.02.2020
2638 Clouds -4 987 81 0 9.5 266 15:58 19.02.2020
2639 Clouds -4 987 81 0 9.5 266 15:39 19.02.2020
2640 Clouds -4 987 81 0 9.5 266 15:20 19.02.2020
2641 Clouds -4 987 81 0 9.5 266 14:41 19.02.2020
2642 Clouds -4 987 81 0 9.5 266 14:23 19.02.2020
2643 Clouds -3 984 78 0 10.92 273 13:59 19.02.2020
2644 Clouds -3 984 78 0 10.92 273 13:39 19.02.2020
2645 Clouds -3 984 76 0 11.07 273 13:18 19.02.2020
2646 Clouds -3 984 76 0 11.07 273 12:39 19.02.2020
2647 Clouds -3 984 76 0 11.07 273 12:19 19.02.2020
2648 Clouds -3 984 76 0 11.07 273 11:55 19.02.2020
2649 Clouds -3 984 76 0 11.07 273 11:37 19.02.2020
2650 Clouds -3 979 81 0 14.41 262 11:18 19.02.2020
2651 Clouds -3 979 81 0 14.41 262 10:56 19.02.2020
2652 Clouds -3 979 81 0 14.41 262 10:37 19.02.2020
2653 Clouds -3 979 81 0 14.41 262 10:18 19.02.2020
2654 Clouds -3 979 81 0 14.41 262 09:54 19.02.2020
2655 Clouds -3 979 81 0 14.41 262 09:36 19.02.2020
2656 Clouds -3 979 81 0 14.41 262 09:18 19.02.2020
2657 Clouds -3 979 81 0 14.41 262 08:42 19.02.2020
2658 Clouds -3 979 81 0 14.41 262 08:42 19.02.2020
2659 Clouds -3 980 80 0 12.49 264 08:23 19.02.2020
2660 Snow -2 976 83 0 14.53 252 07:41 19.02.2020
2661 Snow -2 976 83 0 14.53 252 07:41 19.02.2020
2662 Snow -2 976 83 0 14.53 252 07:20 19.02.2020
2663 Snow -2 976 83 0 14.53 252 06:46 19.02.2020
2664 Snow -2 976 83 0 14.53 252 05:40 19.02.2020
2665 Snow -1 972 91 0 14.91 243 03:59 19.02.2020
2666 Snow -1 972 91 0 14.91 243 02:49 19.02.2020
2667 Snow -2 970 94 0 15.2 236 01:54 19.02.2020
2668 Snow -2 970 94 0 15.43 233 01:23 19.02.2020
2669 Snow -2 970 94 0 15.43 233 00:43 19.02.2020
2670 Snow -2 970 94 0 15.43 233 00:24 19.02.2020
2671 Snow -2 970 94 0 15.43 233 23:41 18.02.2020
2672 Snow -2 967 90 0 16.34 233 23:20 18.02.2020
2673 Snow -2 967 90 0 16.34 233 22:56 18.02.2020
2674 Snow -2 967 90 0 16.34 233 22:56 18.02.2020
2675 Snow -2 967 90 0 16.34 233 22:37 18.02.2020
2676 Snow -2 967 90 0 16.34 233 22:19 18.02.2020
2677 Snow -2 967 90 0 16.34 233 21:55 18.02.2020
2678 Snow -2 967 90 0 16.34 233 21:36 18.02.2020
2679 Snow -2 967 90 0 16.34 233 21:18 18.02.2020
2680 Snow -2 967 90 0 16.34 233 20:55 18.02.2020
2681 Snow -2 967 90 0 16.34 233 20:37 18.02.2020
2682 Snow -2 966 92 0 15.15 222 20:18 18.02.2020
2683 Snow -2 966 92 0 15.15 222 19:42 18.02.2020
2684 Snow -2 966 92 0 15.15 222 19:20 18.02.2020
2685 Snow -2 966 92 0 15.15 222 18:58 18.02.2020
2686 Snow -2 966 92 0 15.15 222 18:40 18.02.2020
2687 Snow -2 966 92 0 15.15 222 18:19 18.02.2020
2688 Snow -2 966 92 0 15.15 222 17:42 18.02.2020
2689 Snow -1 965 93 0 13.65 224 17:20 18.02.2020
2690 Snow -1 965 93 0 13.65 224 16:41 18.02.2020
2691 Snow -1 965 93 0 13.65 224 16:22 18.02.2020
2692 Snow -1 965 93 0 13.65 224 15:59 18.02.2020
2693 Snow -1 965 93 0 13.65 224 15:40 18.02.2020
2694 Snow -1 965 93 0 13.65 224 15:19 18.02.2020
2695 Snow -1 965 93 0 13.65 224 14:56 18.02.2020
2696 Snow -1 965 93 0 13.65 224 14:38 18.02.2020
2697 Snow -1 965 93 0 11.64 217 14:19 18.02.2020
2698 Snow -1 965 93 0 11.64 217 13:41 18.02.2020
2699 Snow -1 965 93 0 11.64 217 13:22 18.02.2020
2700 Snow -1 965 93 0 11.64 217 13:22 18.02.2020
2701 Clouds -1 966 91 0 11.23 217 12:55 18.02.2020
2702 Clouds -1 966 91 0 11.23 217 12:37 18.02.2020
2703 Clouds -1 966 91 0 11.23 217 12:19 18.02.2020
2704 Clouds -1 966 91 0 11.23 217 11:43 18.02.2020
2705 Clouds -1 966 91 0 11.23 217 11:25 18.02.2020
2706 Snow -1 965 96 0 10.24 225 10:55 18.02.2020
2707 Snow -1 965 96 0 10.24 225 10:37 18.02.2020
2708 Snow -1 965 96 0 10.24 225 10:18 18.02.2020
2709 Snow -1 965 96 0 10.24 225 09:55 18.02.2020
2710 Snow -1 965 96 0 10.24 225 09:36 18.02.2020
2711 Snow -1 965 96 0 10.24 225 09:18 18.02.2020
2712 Snow -1 965 96 0 10.24 225 08:42 18.02.2020
2713 Clouds -3 967 84 0 16 189 08:20 18.02.2020
2714 Clouds -3 967 84 0 16 189 07:56 18.02.2020
2715 Clouds -3 967 84 0 16 189 07:31 18.02.2020
2716 Clouds -3 967 84 0 16 189 06:56 18.02.2020
2717 Clouds -3 967 84 0 16 189 06:37 18.02.2020
2718 Clouds -3 967 84 0 16 189 05:59 18.02.2020
2719 Clouds -3 967 84 0 16 189 05:33 18.02.2020
2720 Clouds -4 969 85 0 16.86 185 03:59 18.02.2020
2721 Clouds -4 969 85 0 16.86 185 02:59 18.02.2020
2722 Snow -4 973 82 0 15.61 185 01:59 18.02.2020
2723 Snow -4 973 83 0 15.34 185 00:54 18.02.2020
2724 Snow -4 973 83 0 15.34 185 00:22 18.02.2020
2725 Snow -4 973 83 0 15.34 185 23:55 17.02.2020
2726 Snow -4 973 83 0 15.34 185 23:37 17.02.2020
2727 Snow -5 978 85 0 16.53 180 23:18 17.02.2020
2728 Snow -5 978 85 0 16.53 180 22:41 17.02.2020
2729 Snow -5 978 85 0 16.53 180 22:21 17.02.2020
2730 Snow -5 978 85 0 16.53 180 21:58 17.02.2020
2731 Snow -5 978 85 0 16.53 180 21:38 17.02.2020
2732 Snow -5 978 85 0 16.53 180 21:18 17.02.2020
2733 Snow -5 978 85 0 16.53 180 20:41 17.02.2020
2734 Snow -5 979 85 0 16.29 178 20:21 17.02.2020
2735 Clouds -6 985 85 0 15.01 177 19:58 17.02.2020
2736 Clouds -6 985 85 0 15.01 177 19:38 17.02.2020
2737 Clouds -6 985 85 0 15.01 177 19:20 17.02.2020
2738 Clouds -6 985 85 0 15.01 177 19:20 17.02.2020
2739 Clouds -6 985 85 0 15.01 177 18:38 17.02.2020
2740 Clouds -6 985 85 0 15.01 177 18:19 17.02.2020
2741 Clouds -6 985 85 0 15.01 177 17:58 17.02.2020
2742 Clouds -6 985 85 0 15.01 177 17:37 17.02.2020
2743 Clouds -5 990 81 0 12.85 180 17:19 17.02.2020
2744 Clouds -5 990 81 0 12.85 180 17:19 17.02.2020
2745 Clouds -5 990 81 0 12.85 180 16:55 17.02.2020
2746 Clouds -5 990 81 0 12.85 180 16:36 17.02.2020
2747 Clouds -5 990 81 0 12.85 180 16:36 17.02.2020
2748 Clouds -5 990 81 0 12.85 180 16:18 17.02.2020
2749 Clouds -5 990 81 0 12.85 180 15:44 17.02.2020
2750 Clouds -5 990 81 0 12.85 180 15:26 17.02.2020
2751 Clouds -5 990 81 0 12.85 180 14:55 17.02.2020
2752 Clouds -5 990 81 0 12.85 180 14:55 17.02.2020
2753 Clouds -5 990 81 0 12.85 180 14:37 17.02.2020
2754 Clouds -5 996 84 0 12.89 176 14:19 17.02.2020
2755 Clouds -5 996 84 0 12.89 176 13:41 17.02.2020
2756 Clouds -5 996 84 0 12.89 176 13:41 17.02.2020
2757 Clouds -5 996 84 0 12.89 176 13:20 17.02.2020
2758 Clouds -5 996 84 0 12.93 176 12:57 17.02.2020
2759 Clouds -5 996 84 0 12.93 176 12:39 17.02.2020
2760 Clouds -5 996 84 0 12.93 176 12:21 17.02.2020
2761 Clouds -5 996 84 0 12.93 176 11:46 17.02.2020
2762 Clouds -5 996 84 0 12.93 176 11:27 17.02.2020
2763 Clouds -6 1000 85 0 12.67 186 10:58 17.02.2020
2764 Clouds -6 1000 85 0 12.67 186 10:39 17.02.2020
2765 Clouds -6 1000 85 0 12.67 186 10:20 17.02.2020
2766 Clouds -6 1000 85 0 12.67 186 09:57 17.02.2020
2767 Clouds -6 1000 85 0 12.67 186 09:38 17.02.2020
2768 Clouds -6 1000 85 0 12.67 186 09:19 17.02.2020
2769 Clouds -6 1000 85 0 12.67 186 08:42 17.02.2020
2770 Clouds -6 1000 85 0 12.67 186 08:23 17.02.2020
2771 Clouds -8 1005 87 0 11.82 191 07:59 17.02.2020
2772 Clouds -8 1005 87 0 11.82 191 07:38 17.02.2020
2773 Clouds -8 1005 87 0 11.82 191 07:19 17.02.2020
2774 Clouds -8 1005 87 0 11.82 191 06:42 17.02.2020
2775 Clouds -8 1005 87 0 11.82 191 06:24 17.02.2020
2776 Clouds -8 1005 87 0 11.82 191 05:40 17.02.2020
2777 Clouds -9 1008 92 0 11.21 196 04:23 17.02.2020
2778 Clouds -9 1008 92 0 11.21 196 02:44 17.02.2020
2779 Clouds -9 1011 91 0 9.55 197 01:22 17.02.2020
2780 Clouds -9 1011 91 0 9.55 197 00:37 17.02.2020
2781 Clouds -9 1011 91 0 9.55 197 00:18 17.02.2020
2782 Clouds -9 1011 91 0 9.55 197 23:41 16.02.2020
2783 Clouds -9 1011 91 0 9.55 197 23:22 16.02.2020
2784 Clouds -8 1012 91 0 9.81 207 22:55 16.02.2020
2785 Clouds -8 1012 91 0 9.81 207 22:37 16.02.2020
2786 Clouds -8 1012 91 0 9.81 207 22:18 16.02.2020
2787 Clouds -8 1012 91 0 9.81 207 21:43 16.02.2020
2788 Clouds -8 1012 91 0 9.81 207 21:24 16.02.2020
2789 Clouds -8 1012 91 0 9.81 207 20:59 16.02.2020
2790 Clouds -8 1012 91 0 9.81 207 20:40 16.02.2020
2791 Clouds -8 1013 91 0 9.45 206 20:22 16.02.2020
2792 Clouds -8 1014 91 0 9.21 210 19:59 16.02.2020
2793 Clouds -8 1014 91 0 9.21 210 19:40 16.02.2020
2794 Clouds -8 1014 91 0 9.21 210 19:19 16.02.2020
2795 Clouds -8 1014 91 0 9.21 210 18:59 16.02.2020
2796 Clouds -8 1014 91 0 9.21 210 18:40 16.02.2020
2797 Clouds -8 1014 91 0 9.21 210 18:22 16.02.2020
2798 Clouds -8 1014 91 0 9.21 210 17:44 16.02.2020
2799 Clouds -8 1014 90 0 9.28 213 17:20 16.02.2020
2800 Clouds -8 1014 90 0 9.28 213 16:56 16.02.2020
2801 Clouds -8 1014 90 0 9.28 213 16:38 16.02.2020
2802 Clouds -8 1014 90 0 9.28 213 16:20 16.02.2020
2803 Clouds -8 1014 90 0 9.28 213 15:56 16.02.2020
2804 Clouds -8 1014 90 0 9.28 213 15:37 16.02.2020
2805 Clouds -8 1014 90 0 9.28 213 15:18 16.02.2020
2806 Clouds -8 1014 90 0 9.28 213 14:38 16.02.2020
2807 Clouds -7 1015 90 0 9.28 215 14:19 16.02.2020
2808 Clouds -7 1015 90 0 9.28 215 13:45 16.02.2020
2809 Clouds -7 1015 91 0 9.32 213 13:24 16.02.2020
2810 Clouds -7 1015 91 0 9.32 213 13:24 16.02.2020
2811 Clouds -7 1015 91 0 9.32 213 12:54 16.02.2020
2812 Clouds -7 1015 91 0 9.32 213 12:36 16.02.2020
2813 Clouds -7 1015 91 0 9.32 213 12:18 16.02.2020
2814 Clouds -7 1015 91 0 9.32 213 11:38 16.02.2020
2815 Clouds -7 1014 90 0 9.5 213 11:18 16.02.2020
2816 Clouds -7 1014 90 0 9.5 213 10:56 16.02.2020
2817 Clouds -7 1014 90 0 9.5 213 10:38 16.02.2020
2818 Clouds -7 1014 90 0 9.5 213 10:19 16.02.2020
2819 Clouds -7 1014 90 0 9.5 213 09:55 16.02.2020
2820 Clouds -7 1014 90 0 9.5 213 09:36 16.02.2020
2821 Clouds -7 1014 90 0 9.5 213 09:18 16.02.2020
2822 Clouds -7 1014 90 0 9.5 213 08:44 16.02.2020
2823 Clouds -8 1015 92 0 9.66 212 08:21 16.02.2020
2824 Clouds -8 1015 92 0 9.66 212 07:51 16.02.2020
2825 Clouds -8 1015 92 0 9.66 212 07:33 16.02.2020
2826 Clouds -8 1015 92 0 9.66 212 06:33 16.02.2020
2827 Clouds -8 1014 91 0 9.31 212 04:43 16.02.2020
2828 Clouds -8 1014 91 0 9.31 212 03:29 16.02.2020
2829 Clouds -8 1014 91 0 9.31 212 02:32 16.02.2020
2830 Clouds -8 1015 92 0 9.11 213 01:43 16.02.2020
2831 Clouds -8 1015 92 0 9.11 213 01:23 16.02.2020
2832 Clouds -8 1015 92 0 9.16 213 00:53 16.02.2020
2833 Clouds -8 1015 92 0 9.16 213 00:33 16.02.2020
2834 Clouds -8 1015 92 0 9.16 213 23:58 15.02.2020
2835 Clouds -8 1015 92 0 9.16 213 23:40 15.02.2020
2836 Snow -8 1014 90 0 9.16 216 23:21 15.02.2020
2837 Snow -8 1014 90 0 9.16 216 22:41 15.02.2020
2838 Snow -8 1014 90 0 9.16 216 22:22 15.02.2020
2839 Snow -8 1014 90 0 9.16 216 21:59 15.02.2020
2840 Snow -8 1014 90 0 9.16 216 21:41 15.02.2020
2841 Snow -8 1014 90 0 9.16 216 21:21 15.02.2020
2842 Snow -8 1014 90 0 9.16 216 20:41 15.02.2020
2843 Snow -8 1014 90 0 9.17 218 20:21 15.02.2020
2844 Snow -8 1015 92 0 8.77 212 19:44 15.02.2020
2845 Snow -8 1015 92 0 8.77 212 19:24 15.02.2020
2846 Snow -8 1015 92 0 8.77 212 18:55 15.02.2020
2847 Snow -8 1015 92 0 8.77 212 18:37 15.02.2020
2848 Snow -8 1015 92 0 8.77 212 18:18 15.02.2020
2849 Snow -8 1015 92 0 8.77 212 17:43 15.02.2020
2850 Snow -8 1015 92 0 8.77 212 17:22 15.02.2020
2851 Snow -7 1014 92 0 8.74 207 16:59 15.02.2020
2852 Snow -7 1014 92 0 8.74 207 16:39 15.02.2020
2853 Snow -7 1014 92 0 8.74 207 16:19 15.02.2020
2854 Snow -7 1014 92 0 8.74 207 15:43 15.02.2020
2855 Snow -7 1014 92 0 8.74 207 15:24 15.02.2020
2856 Snow -7 1014 92 0 8.74 207 14:45 15.02.2020
2857 Snow -7 1014 92 0 8.74 207 14:23 15.02.2020
2858 Clouds -6 1015 89 0 7.78 218 13:58 15.02.2020
2859 Clouds -6 1015 89 0 7.78 218 13:39 15.02.2020
2860 Clouds -6 1015 89 0 7.71 217 13:20 15.02.2020
2861 Clouds -6 1015 89 0 7.71 217 12:44 15.02.2020
2862 Clouds -6 1015 89 0 7.71 217 12:25 15.02.2020
2863 Clouds -6 1015 89 0 7.71 217 11:55 15.02.2020
2864 Clouds -6 1015 89 0 7.71 217 11:36 15.02.2020
2865 Clouds -6 1014 91 0 8.4 219 11:18 15.02.2020
2866 Clouds -6 1014 91 0 8.4 219 10:39 15.02.2020
2867 Clouds -6 1014 91 0 8.4 219 10:20 15.02.2020
2868 Clouds -6 1014 91 0 8.4 219 09:44 15.02.2020
2869 Clouds -6 1014 91 0 8.4 219 09:25 15.02.2020
2870 Clouds -6 1014 91 0 8.4 219 08:58 15.02.2020
2871 Clouds -6 1014 91 0 8.4 219 08:39 15.02.2020
2872 Clouds -6 1014 91 0 8.33 221 08:19 15.02.2020
2873 Clouds -6 1014 91 0 8.33 221 07:40 15.02.2020
2874 Clouds -6 1014 91 0 8.33 221 07:22 15.02.2020
2875 Clouds -6 1014 91 0 8.33 221 06:38 15.02.2020
2876 Clouds -6 1014 91 0 8.33 221 06:18 15.02.2020
2877 Clouds -5 1013 93 0 7.62 235 04:50 15.02.2020
2878 Clouds -5 1013 93 0 7.62 235 04:24 15.02.2020
2879 Clouds -5 1013 93 0 7.62 235 04:24 15.02.2020
2880 Clouds -5 1013 93 0 7.62 235 02:58 15.02.2020
2881 Clouds -5 1013 93 0 7.62 235 02:26 15.02.2020
2882 Clouds -5 1014 91 0 7.9 234 01:50 15.02.2020
2883 Clouds -5 1014 91 0 7.9 234 01:31 15.02.2020
2884 Clouds -5 1014 91 0 7.7 235 00:28 15.02.2020
2885 Clouds -5 1014 91 0 7.7 235 23:47 14.02.2020
2886 Clouds -5 1014 91 0 7.7 235 23:21 14.02.2020
2887 Clouds -5 1014 91 0 7.7 235 23:21 14.02.2020
2888 Clouds -5 1012 92 0 8.21 235 22:56 14.02.2020
2889 Clouds -5 1012 92 0 8.21 235 22:56 14.02.2020
2890 Clouds -5 1012 92 0 8.21 235 22:37 14.02.2020
2891 Clouds -5 1012 92 0 8.21 235 22:19 14.02.2020
2892 Clouds -5 1012 92 0 8.21 235 21:49 14.02.2020
2893 Clouds -5 1012 92 0 8.21 235 21:30 14.02.2020
2894 Clouds -5 1012 92 0 8.21 235 20:48 14.02.2020
2895 Clouds -7 1013 92 0 8.26 234 20:21 14.02.2020
2896 Clouds -7 1013 92 0 8.26 234 19:59 14.02.2020
2897 Clouds -7 1013 92 0 8.26 234 19:41 14.02.2020
2898 Clouds -7 1013 92 0 8.26 234 19:22 14.02.2020
2899 Clouds -7 1013 92 0 8.26 234 18:56 14.02.2020
2900 Clouds -7 1013 92 0 8.26 234 18:38 14.02.2020
2901 Clouds -7 1013 92 0 8.26 234 18:19 14.02.2020
2902 Clouds -7 1013 92 0 8.26 234 17:44 14.02.2020
2903 Clouds -7 1013 92 0 8.26 234 17:21 14.02.2020
2904 Clouds -6 1012 91 0 7.83 221 16:59 14.02.2020
2905 Clouds -6 1012 91 0 7.83 221 16:40 14.02.2020
2906 Clouds -6 1012 91 0 7.83 221 16:22 14.02.2020
2907 Clouds -6 1012 91 0 7.83 221 15:56 14.02.2020
2908 Clouds -6 1012 91 0 7.83 221 15:37 14.02.2020
2909 Clouds -6 1012 91 0 7.83 221 15:19 14.02.2020
2910 Clouds -6 1012 91 0 7.83 221 14:58 14.02.2020
2911 Clouds -6 1012 91 0 7.83 221 14:40 14.02.2020
2912 Clouds -5 1012 91 0 8.43 227 14:21 14.02.2020
2913 Clouds -5 1012 91 0 8.43 227 13:54 14.02.2020
2914 Clouds -5 1012 91 0 8.43 227 13:36 14.02.2020
2915 Clouds -5 1012 92 0 8.45 225 13:18 14.02.2020
2916 Clouds -5 1012 92 0 8.45 225 12:54 14.02.2020
2917 Clouds -5 1012 92 0 8.45 225 12:36 14.02.2020
2918 Clouds -5 1012 92 0 8.45 225 12:36 14.02.2020
2919 Clouds -5 1012 92 0 8.45 225 12:18 14.02.2020
2920 Clouds -5 1012 92 0 8.45 225 11:41 14.02.2020
2921 Clouds -6 1011 92 0 8.2 224 11:21 14.02.2020
2922 Clouds -6 1011 92 0 8.2 224 10:56 14.02.2020
2923 Clouds -6 1011 92 0 8.2 224 10:38 14.02.2020
2924 Clouds -6 1011 92 0 8.2 224 10:19 14.02.2020
2925 Clouds -6 1011 92 0 8.2 224 09:43 14.02.2020
2926 Clouds -6 1011 92 0 8.2 224 09:22 14.02.2020
2927 Clouds -6 1011 92 0 8.2 224 08:55 14.02.2020
2928 Clouds -6 1011 92 0 8.2 224 08:37 14.02.2020
2929 Clouds -6 1011 93 0 6.76 227 08:18 14.02.2020
2930 Clouds -6 1011 93 0 6.76 227 07:43 14.02.2020
2931 Clouds -6 1011 93 0 6.76 227 07:24 14.02.2020
2932 Clouds -6 1011 93 0 6.76 227 06:32 14.02.2020
2933 Clouds -6 1011 93 0 6.76 227 05:59 14.02.2020
2934 Clouds -6 1011 93 0 6.76 227 05:25 14.02.2020
2935 Clouds -6 1010 94 0 7.65 227 03:30 14.02.2020
2936 Clouds -6 1010 94 0 7.65 227 02:42 14.02.2020
2937 Clouds -5 1009 92 0 7.64 218 01:50 14.02.2020
2938 Clouds -4 1009 91 0 7.52 218 00:44 14.02.2020
2939 Clouds -4 1009 91 0 7.52 218 00:24 14.02.2020
2940 Clouds -4 1009 91 0 7.52 218 23:46 13.02.2020
2941 Clouds -4 1009 91 0 7.52 218 23:23 13.02.2020
2942 Clouds -4 1008 91 0 8 217 22:56 13.02.2020
2943 Clouds -4 1008 91 0 8 217 22:37 13.02.2020
2944 Clouds -4 1008 91 0 8 217 22:18 13.02.2020
2945 Clouds -4 1008 91 0 8 217 21:41 13.02.2020
2946 Clouds -4 1008 91 0 8 217 21:23 13.02.2020
2947 Clouds -4 1008 91 0 8 217 20:58 13.02.2020
2948 Clouds -4 1008 91 0 8 217 20:39 13.02.2020
2949 Clouds -4 1008 91 0 8 217 20:39 13.02.2020
2950 Snow -4 1007 90 0 8.18 213 20:21 13.02.2020
2951 Snow -4 1007 90 0 8.18 213 19:56 13.02.2020
2952 Snow -4 1007 90 0 8.18 213 19:37 13.02.2020
2953 Snow -4 1007 90 0 8.18 213 19:37 13.02.2020
2954 Snow -4 1007 90 0 8.18 213 19:19 13.02.2020
2955 Snow -4 1007 90 0 8.18 213 18:44 13.02.2020
2956 Snow -4 1007 90 0 8.18 213 18:24 13.02.2020
2957 Snow -4 1007 90 0 8.18 213 18:24 13.02.2020
2958 Snow -4 1007 90 0 8.18 213 17:59 13.02.2020
2959 Snow -4 1007 90 0 8.18 213 17:40 13.02.2020
2960 Snow -4 1007 90 0 8.18 213 17:21 13.02.2020
2961 Clouds -2 1006 92 0 8.34 211 16:58 13.02.2020
2962 Clouds -2 1006 92 0 8.34 211 16:38 13.02.2020
2963 Clouds -2 1006 92 0 8.34 211 16:38 13.02.2020
2964 Clouds -2 1006 92 0 8.34 211 16:19 13.02.2020
2965 Clouds -2 1006 92 0 8.34 211 16:19 13.02.2020
2966 Clouds -2 1006 92 0 8.34 211 15:56 13.02.2020
2967 Clouds -2 1006 92 0 8.34 211 15:38 13.02.2020
2968 Clouds -2 1006 92 0 8.34 211 15:19 13.02.2020
2969 Clouds -2 1006 92 0 8.34 211 14:57 13.02.2020
2970 Clouds -2 1006 92 0 8.34 211 14:38 13.02.2020
2971 Snow -2 1005 92 0 7.99 217 14:20 13.02.2020
2972 Snow -2 1005 92 0 7.99 217 13:47 13.02.2020
2973 Snow -2 1005 92 0 7.99 217 13:18 13.02.2020
2974 Clouds -2 1006 92 0 8.36 218 12:56 13.02.2020
2975 Clouds -2 1006 92 0 8.36 218 12:37 13.02.2020
2976 Clouds -2 1006 92 0 8.36 218 12:19 13.02.2020
2977 Clouds -2 1006 92 0 8.36 218 11:43 13.02.2020
2978 Clouds -1 1004 88 0 9.47 225 11:20 13.02.2020
2979 Clouds -1 1004 88 0 9.47 225 10:48 13.02.2020
2980 Clouds -1 1004 88 0 9.47 225 10:28 13.02.2020
2981 Clouds -1 1004 88 0 9.47 225 09:55 13.02.2020
2982 Clouds -1 1004 88 0 9.47 225 09:55 13.02.2020
2983 Clouds -1 1004 88 0 9.47 225 09:36 13.02.2020
2984 Clouds -1 1004 88 0 9.47 225 09:18 13.02.2020
2985 Clouds -1 1004 88 0 9.47 225 09:18 13.02.2020
2986 Clouds -1 1004 88 0 9.47 225 08:37 13.02.2020
2987 Clouds -2 1002 88 0 10.55 224 08:19 13.02.2020
2988 Clouds -2 1002 88 0 10.55 224 07:40 13.02.2020
2989 Clouds -2 1002 88 0 10.55 224 07:21 13.02.2020
2990 Clouds -2 1002 88 0 10.55 224 06:44 13.02.2020
2991 Clouds -2 1002 88 0 10.55 224 06:20 13.02.2020
2992 Clouds -2 1002 88 0 10.55 224 05:33 13.02.2020
2993 Clouds -2 1001 88 0 11.64 225 04:26 13.02.2020
2994 Clouds -2 1001 88 0 11.64 225 03:52 13.02.2020
2995 Clouds -2 1001 88 0 11.64 225 03:26 13.02.2020
2996 Clouds -2 1001 88 0 11.64 225 02:52 13.02.2020
2997 Clouds -3 999 89 0 11.29 226 02:19 13.02.2020
2998 Clouds -3 999 89 0 11.29 226 01:35 13.02.2020
2999 Clouds -2 999 89 0 11.41 225 00:39 13.02.2020
3000 Clouds -2 999 89 0 11.41 225 00:21 13.02.2020
3001 Clouds -2 999 89 0 11.41 225 23:40 12.02.2020
3002 Snow -3 997 90 0 10.51 220 23:21 12.02.2020
3003 Snow -3 997 90 0 10.51 220 22:45 12.02.2020
3004 Snow -3 997 90 0 10.51 220 22:26 12.02.2020
3005 Snow -3 997 90 0 10.51 220 21:58 12.02.2020
3006 Snow -3 997 90 0 10.51 220 21:40 12.02.2020
3007 Snow -3 997 90 0 10.51 220 21:19 12.02.2020
3008 Snow -3 997 90 0 10.51 220 20:57 12.02.2020
3009 Snow -3 997 90 0 10.51 220 20:39 12.02.2020
3010 Clouds -5 996 91 0 9.53 212 20:20 12.02.2020
3011 Clouds -5 996 91 0 9.53 212 19:55 12.02.2020
3012 Clouds -5 996 91 0 9.53 212 19:36 12.02.2020
3013 Clouds -5 996 91 0 9.16 212 19:36 12.02.2020
3014 Clouds -5 996 91 0 9.16 212 19:18 12.02.2020
3015 Clouds -5 996 91 0 9.53 212 18:45 12.02.2020
3016 Clouds -5 996 91 0 9.16 212 18:18 12.02.2020
3017 Clouds -5 996 91 0 9.53 212 17:43 12.02.2020
3018 Clouds -5 995 88 0 10.48 215 17:21 12.02.2020
3019 Clouds -5 995 88 0 10.48 215 16:59 12.02.2020
3020 Clouds -5 995 88 0 10.48 215 16:39 12.02.2020
3021 Clouds -5 995 88 0 10.48 215 16:19 12.02.2020
3022 Clouds -5 995 88 0 10.26 214 15:43 12.02.2020
3023 Clouds -5 995 88 0 10.26 214 15:23 12.02.2020
3024 Clouds -5 995 88 0 10.26 214 14:57 12.02.2020
3025 Clouds -5 995 88 0 10.48 215 14:39 12.02.2020
3026 Clouds -5 994 88 0 9.92 211 14:19 12.02.2020
3027 Clouds -5 994 88 0 9.92 211 13:56 12.02.2020
3028 Clouds -5 994 88 0 9.92 211 13:38 12.02.2020
3029 Clouds -5 994 88 0 10.15 212 13:19 12.02.2020
3030 Clouds -5 994 88 0 10.15 212 12:57 12.02.2020
3031 Clouds -5 994 88 0 10.15 212 12:37 12.02.2020
3032 Clouds -5 994 88 0 10.15 212 12:18 12.02.2020
3033 Clouds -5 994 88 0 10.15 212 11:55 12.02.2020
3034 Clouds -5 994 88 0 10.15 212 11:37 12.02.2020
3035 Clouds -4 992 88 0 10.47 212 11:19 12.02.2020
3036 Clouds -4 992 88 0 10.47 212 10:54 12.02.2020
3037 Clouds -4 992 88 0 10.47 212 10:36 12.02.2020
3038 Clouds -4 992 88 0 10.47 212 10:18 12.02.2020
3039 Clouds -4 992 88 0 10.47 212 10:18 12.02.2020
3040 Clouds -4 992 88 0 10.47 212 09:40 12.02.2020
3041 Clouds -4 992 88 0 10.47 212 09:20 12.02.2020
3042 Clouds -4 992 88 0 10.47 212 08:57 12.02.2020
3043 Clouds -4 992 88 0 10.47 212 08:37 12.02.2020
3044 Clouds -5 990 89 0 8.89 212 08:19 12.02.2020
3045 Clouds -5 990 89 0 8.89 212 07:43 12.02.2020
3046 Clouds -5 990 89 0 8.89 212 07:43 12.02.2020
3047 Clouds -5 990 89 0 8.89 212 07:23 12.02.2020
3048 Clouds -5 990 89 0 8.89 212 06:53 12.02.2020
3049 Clouds -5 990 89 0 8.89 212 06:20 12.02.2020
3050 Clouds -5 990 89 0 8.89 212 05:36 12.02.2020
3051 Clouds -5 988 88 0 10.54 216 04:57 12.02.2020
3052 Clouds -5 988 88 0 10.54 216 04:39 12.02.2020
3053 Clouds -5 988 88 0 10.54 216 03:32 12.02.2020
3054 Clouds -5 988 88 0 10.54 216 02:58 12.02.2020
3055 Clouds -5 988 88 0 10.54 216 02:28 12.02.2020
3056 Clouds -5 988 88 0 10.54 216 02:28 12.02.2020
3057 Clouds -4 987 88 0 10.07 213 01:49 12.02.2020
3058 Clouds -4 987 88 0 9.97 214 00:45 12.02.2020
3059 Clouds -4 987 88 0 9.97 214 00:26 12.02.2020
3060 Clouds -4 987 88 0 9.97 214 23:55 11.02.2020
3061 Clouds -4 987 88 0 9.97 214 23:37 11.02.2020
3062 Clouds -3 985 88 0 10.1 221 23:18 11.02.2020
3063 Clouds -3 985 88 0 10.1 221 22:55 11.02.2020
3064 Clouds -3 985 88 0 10.1 221 22:36 11.02.2020
3065 Clouds -3 985 88 0 10.1 221 22:18 11.02.2020
3066 Clouds -3 985 88 0 10.1 221 21:55 11.02.2020
3067 Clouds -3 985 88 0 10.1 221 21:36 11.02.2020
3068 Clouds -3 985 88 0 10.1 221 21:18 11.02.2020
3069 Clouds -3 985 88 0 10.1 221 21:18 11.02.2020
3070 Clouds -3 985 88 0 10.1 221 20:39 11.02.2020
3071 Clouds -3 985 88 0 10.1 221 20:39 11.02.2020
3072 Snow -1 983 91 0 11.24 227 20:20 11.02.2020
3073 Snow -1 983 91 0 11.24 227 19:59 11.02.2020
3074 Snow -1 983 91 0 11.24 227 19:41 11.02.2020
3075 Snow -1 983 91 0 11.24 227 19:23 11.02.2020
3076 Snow -1 983 91 0 11.24 227 18:55 11.02.2020
3077 Snow -1 983 91 0 11.24 227 18:37 11.02.2020
3078 Snow -1 983 91 0 11.24 227 18:19 11.02.2020
3079 Snow -1 983 91 0 11.24 227 17:54 11.02.2020
3080 Snow -1 983 91 0 11.24 227 17:36 11.02.2020
3081 Snow -2 980 95 0 9.86 211 17:18 11.02.2020
3082 Snow -2 980 95 0 9.86 211 17:18 11.02.2020
3083 Snow -2 980 95 0 9.86 211 16:55 11.02.2020
3084 Snow -2 980 95 0 9.86 211 16:36 11.02.2020
3085 Snow -2 980 95 0 9.86 211 16:18 11.02.2020
3086 Snow -2 980 95 0 9.86 211 15:42 11.02.2020
3087 Snow -2 980 95 0 9.86 211 15:23 11.02.2020
3088 Snow -2 980 95 0 9.86 211 14:43 11.02.2020
3089 Snow -2 979 93 0 9.1 206 14:20 11.02.2020
3090 Snow -2 979 93 0 9.1 206 13:58 11.02.2020
3091 Snow -2 979 93 0 9.1 206 13:39 11.02.2020
3092 Snow -2 979 93 0 9.1 206 13:20 11.02.2020
3093 Snow -2 980 92 0 8.62 206 12:57 11.02.2020
3094 Snow -2 980 92 0 8.62 206 12:38 11.02.2020
3095 Snow -2 980 92 0 8.62 206 12:19 11.02.2020
3096 Snow -2 980 92 0 8.62 206 11:41 11.02.2020
3097 Snow -1 978 92 0 8.25 209 11:20 11.02.2020
3098 Snow -1 978 92 0 8.25 209 11:20 11.02.2020
3099 Snow -1 978 92 0 8.25 209 10:55 11.02.2020
3100 Snow -1 978 92 0 8.25 209 10:37 11.02.2020
3101 Snow -1 978 92 0 8.25 209 10:19 11.02.2020
3102 Snow -1 978 92 0 8.25 209 09:55 11.02.2020
3103 Snow -1 978 92 0 8.25 209 09:37 11.02.2020
3104 Snow -1 978 92 0 8.25 209 09:18 11.02.2020
3105 Snow -1 978 92 0 8.25 209 08:41 11.02.2020
3106 Snow -1 978 92 0 8.25 209 08:41 11.02.2020
3107 Snow -1 979 92 0 7.47 211 08:23 11.02.2020
3108 Snow 0 978 97 0 6.89 216 07:48 11.02.2020
3109 Snow 0 978 97 0 6.89 216 07:25 11.02.2020
3110 Snow 0 978 97 0 6.89 216 06:43 11.02.2020
3111 Snow 0 978 97 0 6.89 216 06:22 11.02.2020
3112 Snow 0 978 97 0 6.89 216 05:47 11.02.2020
3113 Snow 0 978 97 0 6.89 216 05:23 11.02.2020
3114 Snow -2 977 93 0 10.04 191 04:39 11.02.2020
3115 Snow -2 977 93 0 10.04 191 02:53 11.02.2020
3116 Snow -2 977 93 0 10.04 191 02:27 11.02.2020
3117 Snow -4 979 95 0 7.98 166 01:36 11.02.2020
3118 Snow -4 979 95 0 8.28 169 00:40 11.02.2020
3119 Snow -4 979 95 0 8.28 169 23:57 10.02.2020
3120 Snow -4 979 95 0 8.28 169 23:38 10.02.2020
3121 Snow -5 980 94 0 6.55 168 23:19 10.02.2020
3122 Snow -5 980 94 0 6.55 168 22:40 10.02.2020
3123 Snow -5 980 94 0 6.55 168 22:20 10.02.2020
3124 Snow -5 980 94 0 6.55 168 21:45 10.02.2020
3125 Snow -5 980 94 0 6.55 168 21:25 10.02.2020
3126 Snow -5 980 94 0 6.55 168 20:58 10.02.2020
3127 Snow -5 980 94 0 6.55 168 20:58 10.02.2020
3128 Snow -5 980 94 0 6.55 168 20:39 10.02.2020
3129 Snow -5 981 94 0 6.5 185 20:20 10.02.2020
3130 Snow -5 982 95 0 6.63 187 19:58 10.02.2020
3131 Snow -5 982 95 0 6.63 187 19:38 10.02.2020
3132 Snow -5 982 95 0 6.63 187 19:19 10.02.2020
3133 Snow -5 982 95 0 6.63 187 19:19 10.02.2020
3134 Snow -5 982 95 0 6.63 187 18:59 10.02.2020
3135 Snow -5 982 95 0 6.63 187 18:40 10.02.2020
3136 Snow -5 982 95 0 6.63 187 18:21 10.02.2020
3137 Snow -5 982 95 0 6.63 187 17:58 10.02.2020
3138 Snow -5 982 95 0 6.63 187 17:37 10.02.2020
3139 Snow -5 982 95 0 6.63 187 17:37 10.02.2020
3140 Snow -6 983 95 0 5.15 184 17:19 10.02.2020
3141 Snow -6 983 95 0 5.15 184 16:58 10.02.2020
3142 Snow -6 983 95 0 5.15 184 16:40 10.02.2020
3143 Snow -6 983 95 0 5.15 184 16:19 10.02.2020
3144 Snow -6 983 95 0 5.15 184 15:56 10.02.2020
3145 Snow -6 983 95 0 5.15 184 15:38 10.02.2020
3146 Snow -6 983 95 0 5.15 184 15:20 10.02.2020
3147 Snow -6 983 95 0 5.15 184 14:56 10.02.2020
3148 Snow -6 983 95 0 5.15 184 14:36 10.02.2020
3149 Snow -8 984 95 0 3.87 117 14:18 10.02.2020
3150 Snow -8 984 95 0 3.87 117 13:42 10.02.2020
3151 Snow -8 984 95 0 3.87 117 13:24 10.02.2020
3152 Snow -9 983 95 0 4.18 113 12:50 10.02.2020
3153 Snow -9 983 95 0 4.18 113 12:26 10.02.2020
3154 Snow -9 983 95 0 4.18 113 11:56 10.02.2020
3155 Snow -9 983 95 0 4.18 113 11:38 10.02.2020
3156 Snow -12 983 94 0 5.2 114 11:19 10.02.2020
3157 Snow -12 983 94 0 5.2 114 10:46 10.02.2020
3158 Snow -12 983 94 0 5.2 114 10:27 10.02.2020
3159 Snow -12 983 94 0 5.2 114 09:47 10.02.2020
3160 Snow -12 983 94 0 5.2 114 09:26 10.02.2020
3161 Snow -12 983 94 0 5.2 114 09:26 10.02.2020
3162 Snow -12 983 94 0 5.2 114 08:57 10.02.2020
3163 Snow -12 983 94 0 5.2 114 08:37 10.02.2020
3164 Clouds -15 983 91 0 5.32 114 08:18 10.02.2020
3165 Clouds -15 984 91 0 5.6 114 07:49 10.02.2020
3166 Clouds -15 984 91 0 5.6 114 07:27 10.02.2020
3167 Clouds -15 984 91 0 5.6 114 06:20 10.02.2020
3168 Clouds -17 985 91 0 4.59 108 04:28 10.02.2020
3169 Clouds -17 985 91 0 4.59 108 03:34 10.02.2020
3170 Clouds -17 985 91 0 4.59 108 02:54 10.02.2020
3171 Clouds -20 986 93 0 4.1 114 01:57 10.02.2020
3172 Clear -20 986 93 0 4.49 112 00:51 10.02.2020
3173 Clear -20 986 93 0 4.49 112 00:31 10.02.2020
3174 Clear -20 986 93 0 4.49 112 23:57 09.02.2020
3175 Clear -20 986 93 0 4.49 112 23:39 09.02.2020
3176 Clear -20 987 91 0 4.24 111 23:19 09.02.2020
3177 Clear -20 987 91 0 4.24 111 22:40 09.02.2020
3178 Clear -20 987 91 0 4.24 111 22:21 09.02.2020
3179 Clear -20 987 91 0 4.24 111 21:43 09.02.2020
3180 Clear -20 987 91 0 4.24 111 21:24 09.02.2020
3181 Clear -20 987 91 0 4.24 111 20:56 09.02.2020
3182 Clear -20 987 91 0 4.24 111 20:38 09.02.2020
3183 Clouds -21 988 92 0 4.2 131 20:18 09.02.2020
3184 Clouds -21 988 92 0 4.2 131 19:40 09.02.2020
3185 Clouds -21 988 92 0 4.2 131 19:21 09.02.2020
3186 Clouds -21 988 92 0 4.2 131 18:57 09.02.2020
3187 Clouds -21 988 92 0 4.2 131 18:38 09.02.2020
3188 Clouds -21 988 92 0 4.2 131 18:20 09.02.2020
3189 Clouds -21 988 92 0 4.2 131 17:42 09.02.2020
3190 Clouds -21 988 92 0 4.2 131 17:22 09.02.2020
3191 Clouds -20 989 92 0 4.11 163 16:56 09.02.2020
3192 Clouds -20 989 92 0 4.11 163 16:37 09.02.2020
3193 Clouds -20 989 92 0 4.11 163 16:18 09.02.2020
3194 Clouds -20 989 92 0 4.11 163 15:54 09.02.2020
3195 Clouds -20 989 92 0 4.11 163 15:36 09.02.2020
3196 Clouds -20 989 92 0 4.11 163 15:18 09.02.2020
3197 Clouds -20 989 92 0 4.11 163 14:41 09.02.2020
3198 Clouds -20 989 92 0 4.11 163 14:22 09.02.2020
3199 Clouds -19 991 94 0 4.7 194 13:47 09.02.2020
3200 Clouds -19 991 94 0 4.7 194 13:28 09.02.2020
3201 Clouds -19 991 94 0 4.92 198 12:57 09.02.2020
3202 Clouds -19 991 94 0 4.92 198 12:38 09.02.2020
3203 Clouds -19 991 94 0 4.92 198 12:19 09.02.2020
3204 Clouds -19 991 94 0 4.92 198 12:19 09.02.2020
3205 Clouds -19 991 94 0 4.92 198 12:19 09.02.2020
3206 Clouds -19 991 94 0 4.92 198 11:41 09.02.2020
3207 Clouds -19 991 94 0 4.92 198 11:22 09.02.2020
3208 Clouds -18 992 94 0 4.32 214 10:59 09.02.2020
3209 Clouds -18 992 94 0 4.32 214 10:41 09.02.2020
3210 Clouds -18 992 94 0 4.32 214 10:21 09.02.2020
3211 Clouds -18 992 94 0 4.32 214 09:46 09.02.2020
3212 Clouds -18 992 94 0 4.32 214 09:27 09.02.2020
3213 Clouds -18 992 94 0 4.32 214 08:46 09.02.2020
3214 Clouds -18 992 94 0 4.32 214 08:27 09.02.2020
3215 Snow -16 995 97 0 6.26 235 07:59 09.02.2020
3216 Snow -16 995 97 0 6.26 235 07:39 09.02.2020
3217 Snow -16 995 97 0 6.26 235 06:48 09.02.2020
3218 Snow -16 995 97 0 6.26 235 06:28 09.02.2020
3219 Snow -16 995 97 0 6.26 235 05:43 09.02.2020
3220 Snow -13 996 96 0 4.35 257 05:18 09.02.2020
3221 Snow -13 996 96 0 4.35 257 03:52 09.02.2020
3222 Snow -13 996 96 0 4.35 257 02:45 09.02.2020
3223 Snow -13 996 96 0 4.35 257 02:26 09.02.2020
3224 Clouds -15 997 95 0 4.39 271 01:35 09.02.2020
3225 Clouds -15 997 94 0 4.36 270 00:44 09.02.2020
3226 Clouds -15 997 94 0 4.36 270 00:24 09.02.2020
3227 Clouds -15 997 94 0 4.36 270 23:43 08.02.2020
3228 Clouds -16 997 94 0 4.2 270 23:20 08.02.2020
3229 Clouds -16 997 94 0 4.2 270 22:43 08.02.2020
3230 Clouds -16 997 94 0 4.2 270 22:22 08.02.2020
3231 Clouds -16 997 94 0 4.2 270 21:59 08.02.2020
3232 Clouds -16 997 94 0 4.2 270 21:40 08.02.2020
3233 Clouds -16 997 94 0 4.2 270 21:21 08.02.2020
3234 Clouds -16 997 94 0 4.2 270 20:56 08.02.2020
3235 Clouds -16 997 94 0 4.2 270 20:38 08.02.2020
3236 Clouds -16 998 88 0 3.87 277 20:19 08.02.2020
3237 Clouds -16 998 88 0 3.87 277 19:55 08.02.2020
3238 Clouds -16 998 88 0 3.87 277 19:36 08.02.2020
3239 Clouds -16 998 88 0 3.87 277 19:18 08.02.2020
3240 Clouds -16 998 88 0 3.87 277 18:42 08.02.2020
3241 Clouds -16 998 88 0 3.87 277 18:23 08.02.2020
3242 Clouds -16 998 88 0 3.87 277 17:43 08.02.2020
3243 Clouds -16 998 88 0 3.87 277 17:21 08.02.2020
3244 -273 0 0 0 0 0 17:21 08.02.2020
3245 Clouds -16 998 88 0 4.36 280 16:59 08.02.2020
3246 Clouds -16 998 88 0 4.36 280 16:39 08.02.2020
3247 Clouds -16 998 88 0 4.36 280 16:20 08.02.2020
3248 Clouds -16 998 88 0 4.36 280 15:42 08.02.2020
3249 Clouds -16 998 88 0 4.36 280 15:19 08.02.2020
3250 Clouds -16 998 88 0 4.36 280 14:59 08.02.2020
3251 Clouds -16 998 88 0 4.36 280 14:59 08.02.2020
3252 Clouds -16 998 88 0 4.36 280 14:39 08.02.2020
3253 Clouds -17 999 93 0 4.31 286 14:19 08.02.2020
3254 Clouds -17 999 93 0 4.31 286 13:43 08.02.2020
3255 Clouds -17 999 92 0 4.49 285 13:23 08.02.2020
3256 Clouds -17 999 92 0 4.49 285 12:57 08.02.2020
3257 Clouds -17 999 92 0 4.49 285 12:37 08.02.2020
3258 Clouds -17 999 92 0 4.49 285 12:19 08.02.2020
3259 Clouds -17 999 92 0 4.49 285 12:19 08.02.2020
3260 Clouds -17 999 92 0 4.49 285 11:43 08.02.2020
3261 Clouds -15 998 93 0 5.68 277 11:21 08.02.2020
3262 Clouds -15 998 93 0 5.68 277 10:55 08.02.2020
3263 Clouds -15 998 93 0 5.68 277 10:37 08.02.2020
3264 Clouds -15 998 93 0 5.68 277 10:19 08.02.2020
3265 Clouds -15 998 93 0 5.68 277 09:46 08.02.2020
3266 Clouds -15 998 93 0 5.68 277 09:23 08.02.2020
3267 Clouds -15 998 93 0 5.68 277 08:41 08.02.2020
3268 Clouds -15 998 93 0 5.68 277 08:22 08.02.2020
3269 Clouds -16 1000 92 0 4.68 262 07:51 08.02.2020
3270 Clouds -16 1000 92 0 4.68 262 07:33 08.02.2020
3271 Clouds -16 1000 92 0 4.68 262 06:49 08.02.2020
3272 Clouds -16 1000 92 0 4.68 262 06:21 08.02.2020
3273 Clouds -16 1000 92 0 4.68 262 05:33 08.02.2020
3274 Clouds -17 1000 92 0 4.93 267 04:53 08.02.2020
3275 Clouds -17 1000 92 0 4.93 267 04:24 08.02.2020
3276 Clouds -17 1000 92 0 4.93 267 03:35 08.02.2020
3277 Clouds -17 1000 92 0 4.93 267 02:28 08.02.2020
3278 Clouds -17 1000 92 0 5.19 266 01:31 08.02.2020
3279 Clouds -17 1000 92 0 5.22 268 00:46 08.02.2020
3280 Clouds -17 1000 92 0 5.22 268 00:25 08.02.2020
3281 Clouds -17 1000 92 0 5.22 268 23:57 07.02.2020
3282 Clouds -17 1000 92 0 5.22 268 23:39 07.02.2020
3283 Clouds -19 1000 92 0 4.97 275 23:19 07.02.2020
3284 Clouds -19 1000 92 0 4.97 275 22:41 07.02.2020
3285 Clouds -19 1000 92 0 4.97 275 22:19 07.02.2020
3286 Clouds -19 1000 92 0 4.97 275 22:19 07.02.2020
3287 Clouds -19 1000 92 0 4.97 275 21:57 07.02.2020
3288 Clouds -19 1000 92 0 4.97 275 21:39 07.02.2020
3289 Clouds -19 1000 92 0 4.97 275 21:19 07.02.2020
3290 Clouds -19 1000 92 0 4.97 275 20:39 07.02.2020
3291 Clouds -19 999 93 0 5.35 280 20:19 07.02.2020
3292 Clouds -19 999 93 0 5.35 280 19:54 07.02.2020
3293 Clouds -19 999 93 0 5.35 280 19:36 07.02.2020
3294 Clouds -19 999 93 0 5.35 280 19:18 07.02.2020
3295 Clouds -19 999 93 0 5.35 280 18:43 07.02.2020
3296 Clouds -19 999 93 0 5.35 280 18:24 07.02.2020
3297 Clouds -19 999 93 0 5.35 280 17:45 07.02.2020
3298 Clouds -19 999 93 0 5.35 280 17:22 07.02.2020
3299 Clouds -19 998 95 0 5.34 283 16:59 07.02.2020
3300 Clouds -19 998 95 0 5.34 283 16:41 07.02.2020
3301 Clouds -19 998 95 0 5.34 283 16:22 07.02.2020
3302 Clouds -19 998 95 0 5.34 283 15:53 07.02.2020
3303 Clouds -19 998 95 0 5.34 283 15:28 07.02.2020
3304 Clouds -19 998 95 0 5.34 283 14:55 07.02.2020
3305 Clouds -19 998 95 0 5.34 283 14:37 07.02.2020
3306 Clouds -19 998 97 0 5.19 281 14:19 07.02.2020
3307 Clouds -19 998 97 0 5.19 281 13:56 07.02.2020
3308 Clouds -19 998 97 0 5.19 281 13:38 07.02.2020
3309 Clouds -19 998 97 0 5.19 281 13:18 07.02.2020
3310 Clouds -19 998 97 0 5.31 278 12:41 07.02.2020
3311 Clouds -19 998 97 0 5.31 278 12:23 07.02.2020
3312 Clouds -19 998 97 0 5.31 278 11:45 07.02.2020
3313 Clouds -19 998 97 0 5.31 278 11:22 07.02.2020
3314 Clouds -18 997 97 0 4.87 270 10:58 07.02.2020
3315 Clouds -18 997 97 0 4.87 270 10:38 07.02.2020
3316 Clouds -18 997 97 0 4.87 270 10:19 07.02.2020
3317 Clouds -18 997 97 0 4.87 270 09:41 07.02.2020
3318 Clouds -18 997 97 0 4.87 270 09:22 07.02.2020
3319 Clouds -18 997 97 0 4.87 270 08:47 07.02.2020
3320 Clouds -18 997 97 0 4.67 273 08:22 07.02.2020
3321 Clouds -19 997 95 0 4.53 282 07:54 07.02.2020
3322 Clouds -19 997 95 0 4.53 282 07:33 07.02.2020
3323 Clouds -19 997 95 0 4.53 282 06:59 07.02.2020
3324 Clouds -19 997 95 0 4.53 282 06:39 07.02.2020
3325 Clouds -19 997 95 0 4.53 282 06:19 07.02.2020
3326 Clouds -19 997 95 0 4.53 282 05:37 07.02.2020
3327 Clouds -20 997 94 0 4.98 297 03:43 07.02.2020
3328 Clouds -21 997 91 0 5.5 304 01:57 07.02.2020
3329 Clouds -20 996 87 0 6.15 312 00:59 07.02.2020
3330 Clouds -20 996 87 0 6.15 312 00:27 07.02.2020
3331 Clouds -20 996 87 0 6.15 312 23:38 06.02.2020
3332 Clouds -21 996 91 0 5.05 313 23:19 06.02.2020
3333 Clouds -21 996 91 0 5.05 313 22:48 06.02.2020
3334 Clouds -21 996 91 0 5.05 313 22:27 06.02.2020
3335 Clouds -21 996 91 0 5.05 313 21:58 06.02.2020
3336 Clouds -21 996 91 0 5.05 313 21:36 06.02.2020
3337 Clouds -21 996 91 0 5.05 313 21:18 06.02.2020
3338 Clouds -21 996 91 0 5.05 313 20:55 06.02.2020
3339 Clouds -21 996 91 0 5.05 313 20:36 06.02.2020
3340 Clouds -21 995 92 0 4.82 324 20:18 06.02.2020
3341 Clouds -21 995 92 0 4.82 324 19:56 06.02.2020
3342 Clouds -21 995 92 0 4.82 324 19:37 06.02.2020
3343 Clouds -21 995 92 0 4.82 324 19:19 06.02.2020
3344 Clouds -21 995 92 0 4.82 324 18:42 06.02.2020
3345 Clouds -21 995 92 0 4.82 324 18:24 06.02.2020
3346 Clouds -21 995 92 0 4.82 324 17:57 06.02.2020
3347 Clouds -21 995 92 0 4.82 324 17:57 06.02.2020
3348 Clouds -21 995 92 0 4.82 324 17:39 06.02.2020
3349 Clouds -22 995 92 0 5.07 328 17:20 06.02.2020
3350 Clouds -22 995 92 0 5.07 328 16:42 06.02.2020
3351 Clouds -22 995 92 0 5.07 328 16:24 06.02.2020
3352 Clouds -22 995 92 0 5.07 328 15:43 06.02.2020
3353 Clouds -22 995 92 0 5.07 328 15:23 06.02.2020
3354 Clouds -22 995 92 0 5.07 328 14:57 06.02.2020
3355 Clouds -22 995 92 0 5.07 328 14:39 06.02.2020
3356 Clouds -22 995 91 0 4.07 341 14:20 06.02.2020
3357 Clouds -22 995 91 0 4.07 341 13:42 06.02.2020
3358 Clouds -22 995 91 0 4.07 341 13:24 06.02.2020
3359 Clouds -22 995 90 0 4.25 344 12:44 06.02.2020
3360 Clouds -22 995 90 0 4.25 344 12:19 06.02.2020
3361 Clouds -22 995 90 0 4.25 344 11:57 06.02.2020
3362 Clouds -22 995 90 0 4.25 344 11:39 06.02.2020
3363 Clouds -22 994 89 0 4.2 355 11:19 06.02.2020
3364 Clouds -22 994 89 0 4.2 355 10:56 06.02.2020
3365 Clouds -22 994 89 0 4.2 355 10:38 06.02.2020
3366 Clouds -22 994 89 0 4.2 355 10:38 06.02.2020
3367 Clouds -22 994 89 0 4.2 355 10:20 06.02.2020
3368 Clouds -22 994 89 0 4.2 355 09:56 06.02.2020
3369 Clouds -22 994 89 0 4.2 355 09:56 06.02.2020
3370 Clouds -22 994 89 0 4.2 355 09:36 06.02.2020
3371 Clouds -22 994 89 0 4.2 355 09:18 06.02.2020
3372 Clouds -22 994 89 0 4.2 355 08:41 06.02.2020
3373 Clouds -21 993 87 0 4.96 359 08:22 06.02.2020
3374 Clouds -22 993 91 0 3.79 9 07:47 06.02.2020
3375 Clouds -22 993 91 0 3.79 9 07:25 06.02.2020
3376 Clouds -22 993 91 0 3.79 9 06:37 06.02.2020
3377 Clouds -22 993 91 0 3.79 9 06:18 06.02.2020
3378 Clouds -22 993 92 0 3.86 8 04:43 06.02.2020
3379 Clouds -22 993 92 0 3.86 8 03:20 06.02.2020
3380 Clouds -22 993 92 0 3.86 8 02:29 06.02.2020
3381 Clouds -22 993 93 0 3.54 7 01:35 06.02.2020
3382 Clouds -22 993 92 0 3.63 360 00:58 06.02.2020
3383 Clouds -22 993 92 0 3.63 360 00:26 06.02.2020
3384 Clouds -22 993 92 0 3.63 360 23:46 05.02.2020
3385 Clouds -22 993 92 0 3.63 360 23:28 05.02.2020
3386 Clouds -21 993 93 0 3.13 351 22:58 05.02.2020
3387 Clouds -21 993 93 0 3.13 351 22:40 05.02.2020
3388 Clouds -21 993 93 0 3.13 351 22:21 05.02.2020
3389 Clouds -21 993 93 0 3.13 351 22:21 05.02.2020
3390 Clouds -21 993 93 0 3.13 351 21:43 05.02.2020
3391 Clouds -21 993 93 0 3.13 351 21:24 05.02.2020
3392 Clouds -21 993 93 0 3.13 351 20:59 05.02.2020
3393 Clouds -21 993 93 0 3.13 351 20:38 05.02.2020
3394 Clouds -22 993 94 0 2.83 331 20:19 05.02.2020
3395 Clouds -22 993 94 0 2.83 331 19:56 05.02.2020
3396 Clouds -22 993 94 0 2.83 331 19:38 05.02.2020
3397 Clouds -22 993 94 0 2.83 331 19:19 05.02.2020
3398 Clouds -22 993 94 0 2.83 331 18:45 05.02.2020
3399 Clouds -22 993 94 0 2.83 331 18:21 05.02.2020
3400 Clouds -22 993 94 0 2.83 331 18:21 05.02.2020
3401 Clouds -22 993 94 0 2.83 331 17:58 05.02.2020
3402 Clouds -22 993 94 0 2.83 331 17:37 05.02.2020
3403 Clouds -20 993 97 0 3.42 326 17:18 05.02.2020
3404 Clouds -20 993 97 0 3.42 326 16:44 05.02.2020
3405 Clouds -20 993 97 0 3.42 326 16:25 05.02.2020
3406 Clouds -20 993 97 0 3.42 326 15:59 05.02.2020
3407 Clouds -20 993 97 0 3.42 326 15:41 05.02.2020
3408 Clouds -20 993 97 0 3.42 326 15:19 05.02.2020
3409 Clouds -20 993 97 0 3.42 326 14:55 05.02.2020
3410 Clouds -20 993 97 0 3.42 326 14:37 05.02.2020
3411 Clouds -20 992 97 0 3.78 329 14:19 05.02.2020
3412 Clouds -20 992 97 0 3.78 329 13:40 05.02.2020
3413 Clouds -21 992 97 0 3.77 319 13:22 05.02.2020
3414 Clouds -21 992 97 0 3.77 319 12:44 05.02.2020
3415 Clouds -21 992 97 0 3.77 319 12:24 05.02.2020
3416 Clouds -21 992 97 0 3.77 319 11:57 05.02.2020
3417 Clouds -21 992 97 0 3.77 319 11:38 05.02.2020
3418 Clouds -19 990 95 0 4.83 333 11:20 05.02.2020
3419 Clouds -19 990 95 0 4.83 333 10:42 05.02.2020
3420 Clouds -19 990 95 0 4.83 333 10:24 05.02.2020
3421 Clouds -19 990 95 0 4.83 333 09:58 05.02.2020
3422 Clouds -19 990 95 0 4.83 333 09:37 05.02.2020
3423 Clouds -19 990 95 0 4.83 333 09:19 05.02.2020
3424 Clouds -19 990 95 0 4.83 333 08:44 05.02.2020
3425 Clouds -19 990 95 0 4.83 333 08:24 05.02.2020
3426 Snow -18 988 94 0 5.36 343 07:55 05.02.2020
3427 Snow -18 988 94 0 5.36 343 07:33 05.02.2020
3428 Snow -18 988 94 0 5.36 343 06:50 05.02.2020
3429 Snow -18 988 94 0 5.36 343 06:23 05.02.2020
3430 Snow -18 988 94 0 5.36 343 05:52 05.02.2020
3431 Snow -17 986 95 0 5.7 352 05:18 05.02.2020
3432 Snow -17 986 95 0 5.7 352 04:45 05.02.2020
3433 Snow -17 986 95 0 5.7 352 03:50 05.02.2020
3434 Snow -17 986 95 0 5.7 352 02:25 05.02.2020
3435 Snow -16 985 95 0 5.46 360 01:37 05.02.2020
3436 Snow -16 985 95 0 5.46 360 01:37 05.02.2020
3437 Snow -16 985 95 0 5.06 6 00:42 05.02.2020
3438 Snow -16 985 95 0 5.06 6 23:57 04.02.2020
3439 Snow -16 985 95 0 5.06 6 23:37 04.02.2020
3440 Snow -15 984 95 0 5.04 19 23:18 04.02.2020
3441 Snow -15 984 95 0 5.04 19 22:42 04.02.2020
3442 Snow -15 984 95 0 5.04 19 22:21 04.02.2020
3443 Snow -15 984 95 0 5.04 19 21:59 04.02.2020
3444 Snow -15 984 95 0 5.04 19 21:41 04.02.2020
3445 Snow -15 984 95 0 5.04 19 21:19 04.02.2020
3446 Snow -15 984 95 0 5.04 19 20:59 04.02.2020
3447 Snow -15 984 95 0 5.04 19 20:38 04.02.2020
3448 Snow -14 984 95 0 5.23 36 20:20 04.02.2020
3449 Snow -14 984 95 0 5.23 36 20:20 04.02.2020
3450 Snow -14 984 95 0 5.23 36 19:56 04.02.2020
3451 Snow -14 984 95 0 5.23 36 19:56 04.02.2020
3452 Snow -14 984 95 0 5.23 36 19:38 04.02.2020
3453 Snow -14 984 95 0 5.23 36 19:20 04.02.2020
3454 Snow -14 984 95 0 5.23 36 18:54 04.02.2020
3455 Snow -14 984 95 0 5.23 36 18:36 04.02.2020
3456 Snow -14 984 95 0 5.23 36 18:18 04.02.2020
3457 Snow -14 984 95 0 5.23 36 17:41 04.02.2020
3458 Snow -14 984 95 0 5.18 43 17:20 04.02.2020
3459 Snow -14 984 95 0 5.18 43 16:40 04.02.2020
3460 Snow -14 984 95 0 5.18 43 16:21 04.02.2020
3461 Snow -14 984 95 0 5.18 43 15:59 04.02.2020
3462 Snow -14 984 95 0 5.18 43 15:41 04.02.2020
3463 Snow -14 984 95 0 5.18 43 15:21 04.02.2020
3464 Snow -14 984 95 0 5.18 43 14:58 04.02.2020
3465 Snow -14 984 95 0 5.18 43 14:40 04.02.2020
3466 Snow -15 985 95 0 5.71 59 14:20 04.02.2020
3467 Snow -15 985 95 0 5.71 59 13:42 04.02.2020
3468 Snow -16 985 96 0 5.92 54 13:23 04.02.2020
3469 Snow -16 985 96 0 5.92 54 12:59 04.02.2020
3470 Snow -16 985 96 0 5.92 54 12:59 04.02.2020
3471 Snow -16 985 96 0 5.92 54 12:59 04.02.2020
3472 Snow -16 985 96 0 5.92 54 12:41 04.02.2020
3473 Snow -16 985 96 0 5.92 54 12:41 04.02.2020
3474 Snow -16 985 96 0 5.92 54 12:22 04.02.2020
3475 Snow -16 985 96 0 5.92 54 11:56 04.02.2020
3476 Snow -16 985 96 0 5.92 54 11:37 04.02.2020
3477 Snow -16 985 96 0 5.92 54 11:37 04.02.2020
3478 Snow -17 985 96 0 6.23 62 11:19 04.02.2020
3479 Snow -17 985 96 0 6.23 62 10:46 04.02.2020
3480 Snow -17 985 96 0 6.23 62 10:26 04.02.2020
3481 Snow -17 985 96 0 6.23 62 09:57 04.02.2020
3482 Snow -17 985 96 0 6.23 62 09:39 04.02.2020
3483 Snow -17 985 96 0 6.23 62 09:20 04.02.2020
3484 Snow -17 985 96 0 6.23 62 08:46 04.02.2020
3485 Snow -17 985 96 0 6.23 62 08:27 04.02.2020
3486 Snow -18 986 98 0 6.68 72 07:52 04.02.2020
3487 Snow -18 986 98 0 6.68 72 07:25 04.02.2020
3488 Snow -18 986 98 0 6.68 72 07:25 04.02.2020
3489 Snow -18 986 98 0 6.68 72 06:54 04.02.2020
3490 Snow -18 986 98 0 6.68 72 06:36 04.02.2020
3491 Snow -18 986 98 0 6.68 72 05:34 04.02.2020
3492 Snow -19 986 99 0 7.09 81 04:27 04.02.2020
3493 Snow -19 986 99 0 7.09 81 03:47 04.02.2020
3494 Snow -19 986 99 0 7.09 81 03:29 04.02.2020
3495 Snow -19 986 99 0 7.09 81 02:38 04.02.2020
3496 Snow -19 988 99 0 7.9 84 02:18 04.02.2020
3497 Snow -19 988 99 0 7.9 84 01:44 04.02.2020
3498 Snow -20 988 99 0 8.07 84 00:55 04.02.2020
3499 Snow -20 988 99 0 8.07 84 00:23 04.02.2020
3500 Snow -20 988 99 0 8.07 84 23:48 03.02.2020
3501 Snow -20 988 99 0 8.07 84 23:28 03.02.2020
3502 Snow -19 990 99 0 7.98 87 22:58 03.02.2020
3503 Snow -19 990 99 0 7.98 87 22:38 03.02.2020
3504 Snow -19 990 99 0 7.98 87 22:19 03.02.2020
3505 Snow -19 990 99 0 7.98 87 21:41 03.02.2020
3506 Snow -19 990 99 0 7.98 87 21:19 03.02.2020
3507 Snow -19 990 99 0 7.98 87 20:43 03.02.2020
3508 Snow -20 992 99 0 7.86 93 20:21 03.02.2020
3509 Snow -20 992 99 0 7.86 93 19:59 03.02.2020
3510 Snow -20 992 99 0 7.86 93 19:41 03.02.2020
3511 Snow -20 992 99 0 7.86 93 19:22 03.02.2020
3512 Snow -20 992 99 0 7.86 93 18:57 03.02.2020
3513 Snow -20 992 99 0 7.86 93 18:38 03.02.2020
3514 Snow -20 992 99 0 7.86 93 18:20 03.02.2020
3515 Snow -20 992 99 0 7.86 93 17:55 03.02.2020
3516 Snow -20 992 99 0 7.86 93 17:36 03.02.2020
3517 Clouds -21 993 100 0 7.56 98 17:18 03.02.2020
3518 Clouds -21 993 100 0 7.56 98 16:40 03.02.2020
3519 Clouds -21 993 100 0 7.56 98 16:21 03.02.2020
3520 Clouds -21 993 100 0 7.56 98 15:56 03.02.2020
3521 Clouds -21 993 100 0 7.56 98 15:38 03.02.2020
3522 Clouds -21 993 100 0 7.56 98 15:19 03.02.2020
3523 Clouds -21 993 100 0 7.56 98 14:45 03.02.2020
3524 Clouds -21 993 100 0 7.56 98 14:27 03.02.2020
3525 Clouds -22 995 100 0 6.79 101 13:58 03.02.2020
3526 Clouds -22 995 100 0 6.79 101 13:40 03.02.2020
3527 Clouds -22 995 100 0 6.79 101 13:19 03.02.2020
3528 Clouds -22 995 100 0 7.01 101 12:56 03.02.2020
3529 Clouds -22 995 100 0 7.01 101 12:37 03.02.2020
3530 Clouds -22 995 100 0 7.01 101 12:37 03.02.2020
3531 Clouds -22 995 100 0 7.01 101 12:19 03.02.2020
3532 Clouds -22 995 100 0 7.01 101 11:39 03.02.2020
3533 Clouds -22 997 99 0 5.83 102 11:19 03.02.2020
3534 Clouds -22 997 99 0 5.83 102 10:58 03.02.2020
3535 Clouds -22 997 99 0 5.83 102 10:39 03.02.2020
3536 Clouds -22 997 99 0 5.83 102 10:20 03.02.2020
3537 Clouds -22 997 99 0 5.83 102 09:41 03.02.2020
3538 Clouds -22 997 99 0 5.83 102 09:20 03.02.2020
3539 Clouds -22 997 99 0 5.83 102 08:41 03.02.2020
3540 Clouds -22 997 100 0 5.88 102 08:23 03.02.2020
3541 Clouds -21 999 99 0 4.14 110 07:58 03.02.2020
3542 Clouds -21 999 99 0 4.14 110 07:39 03.02.2020
3543 Clouds -21 999 99 0 4.14 110 07:20 03.02.2020
3544 Clouds -21 999 99 0 4.14 110 06:43 03.02.2020
3545 Clouds -21 999 99 0 4.14 110 06:24 03.02.2020
3546 Clouds -21 999 99 0 4.14 110 05:36 03.02.2020
3547 Clouds -21 1000 99 0 3.89 121 04:50 03.02.2020
3548 Clouds -21 1000 99 0 3.89 121 02:58 03.02.2020
3549 Clouds -21 1000 99 0 3.89 121 02:33 03.02.2020
3550 Clouds -21 1002 99 0 2.85 141 01:24 03.02.2020
3551 Clouds -21 1002 99 0 2.85 141 00:37 03.02.2020
3552 Clouds -21 1002 99 0 2.85 141 00:19 03.02.2020
3553 Clouds -21 1002 99 0 2.85 141 23:37 02.02.2020
3554 Clouds -20 1003 98 0 2.96 151 23:19 02.02.2020
3555 Clouds -20 1003 98 0 2.96 151 22:55 02.02.2020
3556 Clouds -20 1003 98 0 2.96 151 22:36 02.02.2020
3557 Clouds -20 1003 98 0 2.96 151 22:36 02.02.2020
3558 Clouds -20 1003 98 0 2.96 151 22:36 02.02.2020
3559 Clouds -20 1003 98 0 2.96 151 22:18 02.02.2020
3560 Clouds -20 1003 98 0 2.96 151 21:41 02.02.2020
3561 Clouds -20 1003 98 0 2.96 151 21:22 02.02.2020
3562 Clouds -20 1003 98 0 2.96 151 20:58 02.02.2020
3563 Clouds -20 1003 98 0 2.96 151 20:39 02.02.2020
3564 Clouds -20 1003 98 0 2.96 151 20:39 02.02.2020
3565 Snow -19 1004 96 0 3.55 156 20:21 02.02.2020
3566 Clouds -19 1004 95 0 3.51 143 19:59 02.02.2020
3567 Clouds -19 1004 95 0 3.51 143 19:41 02.02.2020
3568 Clouds -19 1004 95 0 3.51 143 19:23 02.02.2020
3569 Clouds -19 1004 95 0 3.51 143 18:57 02.02.2020
3570 Clouds -19 1004 95 0 3.51 143 18:38 02.02.2020
3571 Clouds -19 1004 95 0 3.51 143 18:38 02.02.2020
3572 Clouds -19 1004 95 0 3.51 143 18:20 02.02.2020
3573 Clouds -19 1004 95 0 3.51 143 17:57 02.02.2020
3574 Clouds -19 1004 95 0 3.51 143 17:38 02.02.2020
3575 Snow -19 1005 96 0 3.83 146 17:18 02.02.2020
3576 Snow -19 1005 96 0 3.83 146 16:58 02.02.2020
3577 Snow -19 1005 96 0 3.83 146 16:38 02.02.2020
3578 Snow -19 1005 96 0 3.83 146 16:19 02.02.2020
3579 Snow -19 1005 96 0 3.83 146 16:19 02.02.2020
3580 Snow -19 1005 96 0 3.83 146 15:57 02.02.2020
3581 Snow -19 1005 96 0 3.83 146 15:37 02.02.2020
3582 Snow -19 1005 96 0 3.83 146 15:19 02.02.2020
3583 Snow -19 1005 96 0 3.83 146 14:44 02.02.2020
3584 Snow -19 1006 95 0 4.51 146 14:19 02.02.2020
3585 Snow -19 1006 95 0 4.51 146 13:59 02.02.2020
3586 Snow -19 1006 95 0 4.51 146 13:41 02.02.2020
3587 Snow -19 1006 96 0 4.59 141 13:21 02.02.2020
3588 Snow -19 1006 95 0 4.37 139 12:57 02.02.2020
3589 Snow -19 1006 96 0 4.59 141 12:57 02.02.2020
3590 Snow -19 1006 96 0 4.59 141 12:38 02.02.2020
3591 Snow -19 1006 96 0 4.59 141 12:20 02.02.2020
3592 Snow -19 1006 96 0 4.59 141 11:43 02.02.2020
3593 Snow -19 1006 93 0 5.61 143 11:20 02.02.2020
3594 Clouds -20 1006 93 0 5.14 138 10:58 02.02.2020
3595 Snow -19 1006 93 0 5.61 143 10:39 02.02.2020
3596 Clouds -20 1006 93 0 5.14 138 10:21 02.02.2020
3597 Snow -19 1006 93 0 5.61 143 09:59 02.02.2020
3598 Clouds -20 1006 93 0 5.14 138 09:39 02.02.2020
3599 Clouds -20 1006 93 0 5.14 138 09:20 02.02.2020
3600 Snow -19 1006 93 0 5.61 143 08:46 02.02.2020
3601 Snow -19 1006 93 0 5.61 143 08:26 02.02.2020
3602 Snow -19 1006 94 0 5.95 148 07:49 02.02.2020
3603 Snow -19 1006 94 0 5.95 148 07:30 02.02.2020
3604 Snow -19 1006 94 0 5.95 148 06:56 02.02.2020
3605 Snow -19 1006 94 0 5.95 148 06:37 02.02.2020
3606 Snow -19 1006 94 0 5.95 148 06:18 02.02.2020
3607 Snow -17 1007 95 0 4.71 157 05:19 02.02.2020
3608 Snow -17 1007 95 0 4.71 157 03:42 02.02.2020
3609 Snow -17 1007 95 0 4.71 157 03:22 02.02.2020
3610 Snow -16 1008 94 0 7.25 127 02:19 02.02.2020
3611 Snow -16 1008 94 0 7.25 127 01:49 02.02.2020
3612 Snow -15 1009 94 0 6.6 123 00:50 02.02.2020
3613 Snow -15 1009 94 0 6.6 123 00:24 02.02.2020
3614 Snow -15 1009 94 0 6.6 123 23:55 01.02.2020
3615 Snow -15 1009 94 0 6.6 123 23:37 01.02.2020
3616 Snow -14 1009 93 0 8.25 127 23:18 01.02.2020
3617 Snow -14 1009 93 0 8.25 127 22:43 01.02.2020
3618 Snow -14 1009 93 0 8.25 127 22:18 01.02.2020
3619 Snow -14 1009 93 0 8.25 127 22:18 01.02.2020
3620 Snow -14 1009 93 0 8.25 127 21:40 01.02.2020
3621 Snow -14 1009 93 0 8.25 127 21:19 01.02.2020
3622 Snow -14 1009 93 0 8.25 127 20:55 01.02.2020
3623 Snow -14 1009 93 0 8.25 127 20:36 01.02.2020
3624 Clouds -15 1012 86 0 10 121 20:18 01.02.2020
3625 Clouds -15 1012 86 0 10 121 19:54 01.02.2020
3626 Clouds -15 1012 86 0 10 121 19:36 01.02.2020
3627 Clouds -15 1012 86 0 10 121 19:18 01.02.2020
3628 Clouds -15 1012 86 0 10 121 18:42 01.02.2020
3629 Clouds -15 1012 86 0 10 121 18:23 01.02.2020
3630 Clouds -15 1012 86 0 10 121 17:59 01.02.2020
3631 Clouds -15 1012 86 0 10 121 17:40 01.02.2020
3632 Clouds -17 1014 82 0 9.38 115 17:20 01.02.2020
3633 Clouds -17 1014 82 0 9.38 115 16:58 01.02.2020
3634 Clouds -17 1014 82 0 9.38 115 16:38 01.02.2020
3635 Clouds -17 1014 82 0 9.38 115 16:20 01.02.2020
3636 Clouds -17 1014 82 0 9.38 115 15:42 01.02.2020
3637 Clouds -17 1014 82 0 9.38 115 15:24 01.02.2020
3638 Clouds -17 1014 82 0 9.38 115 14:58 01.02.2020
3639 Clouds -17 1014 82 0 9.38 115 14:39 01.02.2020
3640 Clouds -20 1016 79 0 9.44 110 14:20 01.02.2020
3641 Clouds -20 1016 79 0 9.44 110 13:43 01.02.2020
3642 Clouds -21 1016 80 0 9.72 111 13:21 01.02.2020
3643 Clouds -21 1016 80 0 9.72 111 12:44 01.02.2020
3644 Clouds -21 1016 80 0 9.72 111 12:26 01.02.2020
3645 Clouds -21 1016 80 0 9.72 111 11:56 01.02.2020
3646 Clouds -21 1016 80 0 9.72 111 11:37 01.02.2020
3647 Clouds -22 1019 82 0 7.82 107 11:18 01.02.2020
3648 Clouds -22 1019 82 0 7.82 107 10:55 01.02.2020
3649 Clouds -22 1019 82 0 7.82 107 10:37 01.02.2020
3650 Clouds -22 1019 82 0 7.82 107 10:18 01.02.2020
3651 Clouds -22 1019 82 0 7.82 107 09:41 01.02.2020
3652 Clouds -22 1019 82 0 7.82 107 09:41 01.02.2020
3653 Clouds -22 1019 82 0 7.82 107 09:23 01.02.2020
3654 Clouds -22 1019 82 0 7.82 107 08:59 01.02.2020
3655 Clouds -22 1019 82 0 7.82 107 08:36 01.02.2020
3656 Clear -24 1021 81 0 6.13 100 07:46 01.02.2020
3657 Clear -24 1021 81 0 6.13 100 07:25 01.02.2020
3658 Clear -24 1021 81 0 6.13 100 06:50 01.02.2020
3659 Clear -24 1021 81 0 6.13 100 05:55 01.02.2020
3660 Clear -24 1021 81 0 6.13 100 05:37 01.02.2020
3661 Clear -24 1024 89 0 5.85 97 03:39 01.02.2020
3662 Clear -24 1024 89 0 5.85 97 03:18 01.02.2020
3663 Clear -24 1024 89 0 5.85 97 02:41 01.02.2020
3664 Clear -22 1027 81 0 5.34 103 02:21 01.02.2020
3665 Clear -22 1027 81 0 5.34 103 01:47 01.02.2020
3666 Clear -22 1027 81 0 5.34 103 01:28 01.02.2020
3667 Clear -22 1027 82 0 5.34 102 00:24 01.02.2020
3668 Clear -22 1027 82 0 5.34 102 23:42 31.01.2020
3669 Clear -23 1028 80 0 3.61 101 23:19 31.01.2020
3670 Clear -23 1028 80 0 3.61 101 23:19 31.01.2020
3671 Clear -23 1028 80 0 3.61 101 22:57 31.01.2020
3672 Clear -23 1028 80 0 3.61 101 22:39 31.01.2020
3673 Clear -23 1028 80 0 3.61 101 22:21 31.01.2020
3674 Clear -23 1028 80 0 3.61 101 21:55 31.01.2020
3675 Clear -23 1028 80 0 3.61 101 21:37 31.01.2020
3676 Clear -23 1028 80 0 3.61 101 21:18 31.01.2020
3677 Clear -23 1028 80 0 3.61 101 20:55 31.01.2020
3678 Clear -23 1028 80 0 3.61 101 20:37 31.01.2020
3679 Clouds -24 1030 83 0 3.03 111 20:18 31.01.2020
3680 Clear -24 1030 82 0 3.12 111 19:54 31.01.2020
3681 Clear -24 1030 82 0 3.12 111 19:36 31.01.2020
3682 Clear -24 1030 82 0 3.12 111 19:18 31.01.2020
3683 Clear -24 1030 82 0 3.12 111 18:38 31.01.2020
3684 Clear -24 1030 82 0 3.12 111 18:20 31.01.2020
3685 Clear -24 1030 82 0 3.12 111 17:44 31.01.2020
3686 Clear -24 1030 82 0 3.12 111 17:26 31.01.2020
3687 Clear -26 1031 87 0 2.94 118 16:57 31.01.2020
3688 Clear -26 1031 87 0 2.94 118 16:38 31.01.2020
3689 Clear -26 1031 87 0 2.94 118 16:19 31.01.2020
3690 Clear -26 1031 87 0 2.94 118 16:19 31.01.2020
3691 Clear -26 1031 87 0 2.94 118 15:57 31.01.2020
3692 Clear -26 1031 87 0 2.94 118 15:39 31.01.2020
3693 Clear -26 1031 87 0 2.94 118 15:20 31.01.2020
3694 Clear -26 1031 87 0 2.94 118 14:43 31.01.2020
3695 Clear -26 1031 87 0 2.94 118 14:24 31.01.2020
3696 Clouds -26 1032 92 0 4.42 118 13:54 31.01.2020
3697 Clouds -26 1032 92 0 4.42 118 13:34 31.01.2020
3698 Clear -26 1032 92 0 4.76 110 12:59 31.01.2020
3699 Clear -26 1032 92 0 4.76 110 12:41 31.01.2020
3700 Clear -26 1032 92 0 4.76 110 12:22 31.01.2020
3701 Clear -26 1032 92 0 4.76 110 12:22 31.01.2020
3702 Clear -26 1032 92 0 4.76 110 11:45 31.01.2020
3703 Clear -26 1032 92 0 4.76 110 11:26 31.01.2020
3704 Clear -26 1031 93 0 4.26 107 10:59 31.01.2020
3705 Clear -26 1031 93 0 4.49 110 10:41 31.01.2020
3706 Clear -26 1031 93 0 4.26 107 10:21 31.01.2020
3707 Clear -26 1031 93 0 4.26 107 09:57 31.01.2020
3708 Clear -26 1031 93 0 4.49 110 09:38 31.01.2020
3709 Clear -26 1031 93 0 4.26 107 09:19 31.01.2020
3710 Clear -26 1031 93 0 4.26 107 08:50 31.01.2020
3711 Clear -26 1031 93 0 4.26 107 08:25 31.01.2020
3712 Clear -26 1032 94 0 4.34 110 07:53 31.01.2020
3713 Clear -26 1032 94 0 4.34 110 07:25 31.01.2020
3714 Clear -26 1032 94 0 4.34 110 06:48 31.01.2020
3715 Clear -26 1032 94 0 4.34 110 06:18 31.01.2020
3716 Clear -26 1032 94 0 4.34 110 05:46 31.01.2020
3717 Clear -26 1032 95 0 3.95 108 04:55 31.01.2020
3718 Clear -26 1032 95 0 3.95 108 02:58 31.01.2020
3719 Clear -26 1033 95 0 2.97 104 01:38 31.01.2020
3720 Clear -26 1033 95 0 2.85 104 00:45 31.01.2020
3721 Clear -26 1033 95 0 2.85 104 00:26 31.01.2020
3722 Clear -26 1033 95 0 2.85 104 23:57 30.01.2020
3723 Clear -26 1033 95 0 2.85 104 23:24 30.01.2020
3724 Clear -27 1032 95 0 2.14 106 22:57 30.01.2020
3725 Clear -27 1032 95 0 2.14 106 22:36 30.01.2020
3726 Clear -27 1032 95 0 2.14 106 22:18 30.01.2020
3727 Clear -27 1032 95 0 2.14 106 21:55 30.01.2020
3728 Clear -27 1032 95 0 2.14 106 21:36 30.01.2020
3729 Clear -27 1032 95 0 2.14 106 21:18 30.01.2020
3730 Clear -27 1032 95 0 2.14 106 20:40 30.01.2020
3731 Clear -28 1033 94 0 1.34 119 20:21 30.01.2020
3732 Clear -28 1033 94 0 1.34 119 19:56 30.01.2020
3733 Clear -28 1033 94 0 1.34 119 19:38 30.01.2020
3734 Clear -28 1033 94 0 1.34 119 19:18 30.01.2020
3735 Clear -28 1033 94 0 1.34 119 18:41 30.01.2020
3736 Clear -28 1033 94 0 1.34 119 18:21 30.01.2020
3737 Clear -28 1033 94 0 1.34 119 17:56 30.01.2020
3738 Clear -28 1033 94 0 1.34 119 17:37 30.01.2020
3739 Clear -28 1032 94 0 0.62 255 17:18 30.01.2020
3740 Clear -28 1032 94 0 0.62 255 16:56 30.01.2020
3741 Clear -28 1032 94 0 0.62 255 16:56 30.01.2020
3742 Clear -28 1032 94 0 0.62 255 16:37 30.01.2020
3743 Clear -28 1032 94 0 0.62 255 16:19 30.01.2020
3744 Clear -28 1032 94 0 0.62 255 15:43 30.01.2020
3745 Clear -28 1032 94 0 0.62 255 15:19 30.01.2020
3746 Clear -28 1032 94 0 0.62 255 14:46 30.01.2020
3747 Clear -28 1032 94 0 0.62 255 14:26 30.01.2020
3748 Clear -28 1032 94 0 0.62 255 14:26 30.01.2020
3749 Clear -28 1032 94 0 1.7 264 13:54 30.01.2020
3750 Clear -28 1032 94 0 1.7 264 13:36 30.01.2020
3751 Clear -28 1032 94 0 1.54 266 13:18 30.01.2020
3752 Clear -28 1032 94 0 1.54 266 12:41 30.01.2020
3753 Clear -28 1032 94 0 1.54 266 12:22 30.01.2020
3754 Clear -28 1032 94 0 1.54 266 11:56 30.01.2020
3755 Clear -28 1032 94 0 1.54 266 11:38 30.01.2020
3756 Clear -28 1032 94 0 1.54 266 11:38 30.01.2020
3757 Clear -28 1032 94 0 2.24 249 11:19 30.01.2020
3758 Clear -28 1032 94 0 2.24 249 10:42 30.01.2020
3759 Clear -28 1032 94 0 2.24 249 10:22 30.01.2020
3760 Clear -28 1032 94 0 2.24 249 09:48 30.01.2020
3761 Clear -28 1032 94 0 2.24 249 09:30 30.01.2020
3762 Clear -28 1032 94 0 2.24 249 08:59 30.01.2020
3763 Clear -28 1032 94 0 2.24 249 08:39 30.01.2020
3764 Clouds -28 1031 95 0 2.97 249 08:20 30.01.2020
3765 Clouds -28 1031 95 0 2.65 253 07:49 30.01.2020
3766 Clouds -28 1031 95 0 2.65 253 07:22 30.01.2020
3767 Clouds -28 1031 95 0 2.65 253 06:47 30.01.2020
3768 Clouds -28 1031 95 0 2.65 253 06:47 30.01.2020
3769 Clouds -28 1031 95 0 2.65 253 06:28 30.01.2020
3770 Clouds -28 1031 95 0 2.65 253 05:44 30.01.2020
3771 Clouds -27 1030 96 0 3.08 253 05:20 30.01.2020
3772 Clouds -27 1030 96 0 3.08 253 03:53 30.01.2020
3773 Clouds -27 1030 96 0 3.08 253 03:35 30.01.2020
3774 Clouds -27 1030 96 0 3.08 253 02:22 30.01.2020
3775 Clouds -27 1030 96 0 3.46 251 00:42 30.01.2020
3776 Clouds -27 1030 96 0 3.46 251 00:20 30.01.2020
3777 Clouds -27 1030 96 0 3.46 251 23:46 29.01.2020
3778 Clouds -26 1028 96 0 3.87 247 23:21 29.01.2020
3779 Clouds -26 1028 96 0 3.87 247 22:56 29.01.2020
3780 Clouds -26 1028 96 0 3.87 247 22:38 29.01.2020
3781 Clouds -26 1028 96 0 3.87 247 22:19 29.01.2020
3782 Clouds -26 1028 96 0 3.87 247 22:19 29.01.2020
3783 Clouds -26 1028 96 0 3.87 247 21:57 29.01.2020
3784 Clouds -26 1028 96 0 3.87 247 21:38 29.01.2020
3785 Clouds -26 1028 96 0 3.87 247 21:19 29.01.2020
3786 Clouds -26 1028 96 0 3.87 247 20:57 29.01.2020
3787 Clouds -26 1028 96 0 3.87 247 20:38 29.01.2020
3788 Clouds -24 1027 97 0 2.69 270 20:19 29.01.2020
3789 Clouds -24 1027 97 0 2.69 270 19:55 29.01.2020
3790 Clouds -24 1027 97 0 2.69 270 19:37 29.01.2020
3791 Clouds -24 1027 97 0 2.69 270 19:37 29.01.2020
3792 Clouds -24 1027 97 0 2.69 270 19:18 29.01.2020
3793 Clouds -24 1027 97 0 2.69 270 18:42 29.01.2020
3794 Clouds -24 1027 97 0 2.69 270 18:19 29.01.2020
3795 Clouds -24 1027 97 0 2.69 270 17:55 29.01.2020
3796 Clouds -24 1027 97 0 2.69 270 17:37 29.01.2020
3797 Clouds -23 1026 97 0 1.92 294 17:18 29.01.2020
3798 Clouds -23 1026 97 0 1.92 294 16:40 29.01.2020
3799 Clouds -23 1026 97 0 1.92 294 16:22 29.01.2020
3800 Clouds -23 1026 97 0 1.92 294 15:41 29.01.2020
3801 Clouds -23 1026 97 0 1.92 294 15:22 29.01.2020
3802 Clouds -23 1026 97 0 1.92 294 15:22 29.01.2020
3803 Clouds -23 1026 97 0 1.92 294 14:58 29.01.2020
3804 Clouds -23 1026 97 0 1.92 294 14:58 29.01.2020
3805 Clouds -23 1026 97 0 1.92 294 14:40 29.01.2020
3806 Clouds -23 1025 97 0 2.37 305 14:18 29.01.2020
3807 Clouds -23 1025 97 0 2.37 305 13:41 29.01.2020
3808 Clouds -23 1024 97 0 2.55 299 13:22 29.01.2020
3809 Clouds -23 1024 97 0 2.55 299 12:57 29.01.2020
3810 Clouds -23 1024 97 0 2.55 299 12:39 29.01.2020
3811 Clouds -23 1024 97 0 2.55 299 12:21 29.01.2020
3812 Clouds -23 1024 97 0 2.55 299 11:56 29.01.2020
3813 Clouds -23 1024 97 0 2.55 299 11:37 29.01.2020
3814 Clouds -22 1023 96 0 2.42 310 11:19 29.01.2020
3815 Clouds -22 1023 96 0 2.42 310 10:45 29.01.2020
3816 Clouds -22 1023 96 0 2.42 310 10:22 29.01.2020
3817 Clouds -22 1023 96 0 2.42 310 09:40 29.01.2020
3818 Clouds -22 1023 96 0 2.42 310 09:40 29.01.2020
3819 Clouds -22 1023 96 0 2.42 310 09:40 29.01.2020
3820 Clouds -22 1023 96 0 2.42 310 09:22 29.01.2020
3821 Clouds -22 1023 96 0 2.42 310 08:58 29.01.2020
3822 Clouds -22 1023 96 0 2.42 310 08:39 29.01.2020
3823 Clouds -23 1021 98 0 2.97 328 08:20 29.01.2020
3824 Clouds -23 1021 98 0 2.97 328 07:45 29.01.2020
3825 Clouds -23 1021 98 0 2.97 328 07:25 29.01.2020
3826 Clouds -23 1021 98 0 2.97 328 06:55 29.01.2020
3827 Clouds -23 1021 98 0 2.97 328 06:37 29.01.2020
3828 Clouds -23 1021 98 0 2.97 328 06:18 29.01.2020
3829 Clouds -23 1021 98 0 2.97 328 05:45 29.01.2020
3830 Clouds -23 1021 98 0 2.97 328 05:26 29.01.2020
3831 Clouds -21 1020 97 0 2.86 318 04:38 29.01.2020
3832 Clouds -21 1020 97 0 2.86 318 03:49 29.01.2020
3833 Clouds -21 1020 97 0 2.86 318 02:33 29.01.2020
3834 Clouds -21 1019 96 0 3.46 327 00:43 29.01.2020
3835 Clouds -21 1019 96 0 3.46 327 00:25 29.01.2020
3836 Clouds -21 1019 96 0 3.46 327 23:58 28.01.2020
3837 Clouds -21 1019 96 0 3.46 327 23:37 28.01.2020
3838 Clouds -21 1017 97 0 3.66 315 23:18 28.01.2020
3839 Clouds -21 1017 97 0 3.66 315 22:40 28.01.2020
3840 Clouds -21 1017 97 0 3.66 315 22:21 28.01.2020
3841 Clouds -21 1017 97 0 3.66 315 21:42 28.01.2020
3842 Clouds -21 1017 97 0 3.66 315 21:23 28.01.2020
3843 Clouds -21 1017 97 0 3.66 315 21:23 28.01.2020
3844 Clouds -21 1017 97 0 3.66 315 20:58 28.01.2020
3845 Clouds -21 1017 97 0 3.66 315 20:40 28.01.2020
3846 Clouds -20 1017 95 0 3.67 328 20:21 28.01.2020
3847 Clouds -20 1017 95 0 3.77 333 19:39 28.01.2020
3848 Clouds -20 1017 95 0 3.77 333 19:21 28.01.2020
3849 Clouds -20 1017 95 0 3.77 333 19:21 28.01.2020
3850 Clouds -20 1017 95 0 3.77 333 18:58 28.01.2020
3851 Clouds -20 1017 95 0 3.77 333 18:40 28.01.2020
3852 Clouds -20 1017 95 0 3.77 333 18:21 28.01.2020
3853 Clouds -20 1017 95 0 3.77 333 17:57 28.01.2020
3854 Clouds -20 1017 95 0 3.77 333 17:37 28.01.2020
3855 Clouds -20 1016 95 0 3.87 334 17:19 28.01.2020
3856 Clouds -20 1016 95 0 3.87 334 16:55 28.01.2020
3857 Clouds -20 1016 95 0 3.87 334 16:36 28.01.2020
3858 Clouds -20 1016 95 0 3.87 334 16:18 28.01.2020
3859 Clouds -20 1016 95 0 3.87 334 15:42 28.01.2020
3860 Clouds -20 1016 95 0 3.87 334 15:19 28.01.2020
3861 Clouds -20 1016 95 0 3.87 334 14:54 28.01.2020
3862 Clouds -20 1016 95 0 3.87 334 14:36 28.01.2020
3863 Clouds -20 1015 96 0 3.53 333 14:18 28.01.2020
3864 Clouds -20 1015 96 0 3.53 333 13:39 28.01.2020
3865 Clouds -20 1015 97 0 3.52 320 13:21 28.01.2020
3866 Clouds -20 1015 97 0 3.52 320 12:42 28.01.2020
3867 Clouds -20 1015 97 0 3.52 320 12:23 28.01.2020
3868 Clouds -20 1015 97 0 3.52 320 12:23 28.01.2020
3869 Clouds -20 1015 97 0 3.52 320 11:48 28.01.2020
3870 Clouds -20 1015 97 0 3.52 320 11:23 28.01.2020
3871 Clouds -20 1014 94 0 3.95 327 10:59 28.01.2020
3872 Clouds -20 1014 94 0 3.95 327 10:40 28.01.2020
3873 Clouds -20 1014 94 0 3.95 327 10:20 28.01.2020
3874 Clouds -20 1014 94 0 3.95 327 09:55 28.01.2020
3875 Clouds -20 1014 94 0 3.95 327 09:36 28.01.2020
3876 Clouds -20 1014 94 0 3.95 327 09:18 28.01.2020
3877 Clouds -20 1014 94 0 3.95 327 08:39 28.01.2020
3878 Clouds -22 1013 97 0 4.29 315 08:19 28.01.2020
3879 Clouds -22 1013 97 0 4.29 315 08:19 28.01.2020
3880 Clouds -22 1013 97 0 4.29 315 07:37 28.01.2020
3881 Clouds -22 1013 97 0 4.29 315 06:50 28.01.2020
3882 Clouds -22 1013 97 0 4.29 315 06:26 28.01.2020
3883 Clouds -22 1013 97 0 4.29 315 05:54 28.01.2020
3884 Clouds -22 1013 97 0 4.29 315 05:26 28.01.2020
3885 Clouds -22 1012 95 0 4.12 330 04:28 28.01.2020
3886 Clouds -22 1012 95 0 4.12 330 02:58 28.01.2020
3887 Clouds -22 1012 95 0 4.12 330 02:25 28.01.2020
3888 Clouds -22 1012 95 0 4.12 330 02:25 28.01.2020
3889 Clouds -23 1012 97 0 4.14 333 01:57 28.01.2020
3890 Clouds -23 1012 97 0 4.14 333 01:57 28.01.2020
3891 Clouds -23 1012 97 0 4.14 333 01:26 28.01.2020
3892 Clouds -23 1012 96 0 4.45 331 00:51 28.01.2020
3893 Clouds -23 1012 96 0 4.45 331 00:29 28.01.2020
3894 Clouds -23 1012 96 0 4.45 331 23:51 27.01.2020
3895 Clouds -23 1012 96 0 4.45 331 23:30 27.01.2020
3896 Clouds -23 1011 96 0 4.09 339 22:56 27.01.2020
3897 Clouds -23 1011 96 0 4.09 339 22:38 27.01.2020
3898 Clouds -23 1011 96 0 4.09 339 22:18 27.01.2020
3899 Clouds -23 1011 96 0 4.09 339 21:54 27.01.2020
3900 Clouds -23 1011 96 0 4.09 339 21:36 27.01.2020
3901 Clouds -23 1011 96 0 4.09 339 21:18 27.01.2020
3902 Clouds -23 1011 96 0 4.09 339 20:43 27.01.2020
3903 Clouds -23 1011 96 0 4.09 339 20:22 27.01.2020
3904 Clouds -22 1011 95 0 3.97 356 19:59 27.01.2020
3905 Clouds -22 1011 95 0 3.97 356 19:40 27.01.2020
3906 Clouds -22 1011 95 0 3.97 356 19:22 27.01.2020
3907 Clouds -22 1011 95 0 3.97 356 18:56 27.01.2020
3908 Clouds -22 1011 95 0 3.97 356 18:37 27.01.2020
3909 Clouds -22 1011 95 0 3.97 356 18:37 27.01.2020
3910 Clouds -22 1011 95 0 3.97 356 18:19 27.01.2020
3911 Clouds -22 1011 95 0 3.97 356 17:39 27.01.2020
3912 Clouds -23 1010 96 0 3.91 8 17:20 27.01.2020
3913 Clouds -23 1010 96 0 3.91 8 16:58 27.01.2020
3914 Clouds -23 1010 96 0 3.91 8 16:58 27.01.2020
3915 Clouds -23 1010 96 0 3.91 8 16:40 27.01.2020
3916 Clouds -23 1010 96 0 3.91 8 16:22 27.01.2020
3917 Clouds -23 1010 96 0 3.91 8 16:22 27.01.2020
3918 Clouds -23 1010 96 0 3.91 8 15:55 27.01.2020
3919 Clouds -23 1010 96 0 3.91 8 15:36 27.01.2020
3920 Clouds -23 1010 96 0 3.91 8 15:18 27.01.2020
3921 Clouds -23 1010 96 0 3.91 8 14:41 27.01.2020
3922 Clouds -23 1010 96 0 3.91 8 14:22 27.01.2020
3923 Clouds -23 1009 96 0 4.1 9 13:55 27.01.2020
3924 Clouds -23 1009 96 0 4.1 9 13:37 27.01.2020
3925 Clouds -24 1009 97 0 4.12 8 13:18 27.01.2020
3926 Clouds -24 1009 97 0 4.12 8 12:43 27.01.2020
3927 Clouds -24 1009 97 0 4.12 8 12:23 27.01.2020
3928 Clouds -24 1009 97 0 4.12 8 11:58 27.01.2020
3929 Clouds -24 1009 97 0 4.12 8 11:40 27.01.2020
3930 Clouds -23 1008 96 0 4.25 17 11:19 27.01.2020
3931 Clouds -23 1008 96 0 4.25 17 10:42 27.01.2020
3932 Clouds -23 1008 96 0 4.25 17 10:24 27.01.2020
3933 Clouds -23 1008 96 0 4.25 17 09:40 27.01.2020
3934 Clouds -23 1008 96 0 4.25 17 09:19 27.01.2020
3935 Clouds -23 1008 96 0 4.25 17 08:59 27.01.2020
3936 Clouds -23 1008 96 0 4.25 17 08:40 27.01.2020
3937 Clouds -23 1007 96 0 4.22 14 08:19 27.01.2020
3938 -273 0 0 0 0 0 07:52 27.01.2020
3939 Clouds -23 1007 96 0 4.22 14 07:33 27.01.2020
3940 Clouds -23 1007 96 0 4.22 14 06:49 27.01.2020
3941 Clouds -23 1007 96 0 4.22 14 05:53 27.01.2020
3942 Clouds -21 1006 95 0 5.02 31 05:18 27.01.2020
3943 Clouds -21 1006 95 0 5.02 31 03:37 27.01.2020
3944 Clouds -21 1006 95 0 5.02 31 02:27 27.01.2020
3945 Clouds -21 1005 96 0 4.71 22 01:28 27.01.2020
3946 Clouds -21 1005 96 0 4.71 22 00:42 27.01.2020
3947 Clouds -21 1005 96 0 4.71 22 00:22 27.01.2020
3948 Clouds -21 1005 96 0 4.71 22 23:58 26.01.2020
3949 Clouds -21 1005 96 0 4.71 22 23:39 26.01.2020
3950 Clouds -20 1004 96 0 4 32 23:18 26.01.2020
3951 Clouds -20 1004 96 0 4 32 22:39 26.01.2020
3952 Clouds -20 1004 96 0 4 32 22:20 26.01.2020
3953 Clouds -20 1004 96 0 4 32 21:59 26.01.2020
3954 Clouds -20 1004 96 0 4 32 21:40 26.01.2020
3955 Clouds -20 1004 96 0 4 32 21:22 26.01.2020
3956 Clouds -20 1004 96 0 4 32 21:22 26.01.2020
3957 Clouds -20 1004 96 0 4 32 20:58 26.01.2020
3958 Clouds -20 1004 96 0 4 32 20:40 26.01.2020
3959 Clouds -19 1003 95 0 4.43 40 20:20 26.01.2020
3960 Clouds -20 1004 95 0 4.48 32 19:59 26.01.2020
3961 Clouds -20 1004 95 0 4.48 32 19:39 26.01.2020
3962 Clouds -20 1004 95 0 4.48 32 19:21 26.01.2020
3963 Clouds -20 1004 95 0 4.48 32 18:58 26.01.2020
3964 Clouds -20 1004 95 0 4.48 32 18:39 26.01.2020
3965 Clouds -20 1004 95 0 4.48 32 18:39 26.01.2020
3966 Clouds -20 1004 95 0 4.48 32 18:21 26.01.2020
3967 Clouds -20 1004 95 0 4.48 32 17:57 26.01.2020
3968 Clouds -20 1004 95 0 4.48 32 17:38 26.01.2020
3969 Clouds -20 1003 95 0 4.59 28 17:18 26.01.2020
3970 Clouds -20 1003 95 0 4.59 28 16:56 26.01.2020
3971 Clouds -20 1003 95 0 4.59 28 16:38 26.01.2020
3972 Clouds -20 1003 95 0 4.59 28 16:19 26.01.2020
3973 Clouds -20 1003 95 0 4.59 28 15:45 26.01.2020
3974 Clouds -20 1003 95 0 4.59 28 15:22 26.01.2020
3975 Clouds -20 1003 95 0 4.59 28 14:58 26.01.2020
3976 Clouds -20 1003 95 0 4.59 28 14:39 26.01.2020
3977 Clouds -19 1002 96 0 4.15 33 14:19 26.01.2020
3978 Clouds -19 1002 96 0 4.15 33 13:40 26.01.2020
3979 Clouds -19 1002 96 0 4.15 33 13:20 26.01.2020
3980 Clouds -19 1002 96 0 3.89 33 12:56 26.01.2020
3981 Clouds -19 1002 96 0 3.89 33 12:37 26.01.2020
3982 Clouds -19 1002 96 0 3.89 33 12:19 26.01.2020
3983 Clouds -19 1002 96 0 3.89 33 11:57 26.01.2020
3984 Clouds -19 1002 96 0 3.89 33 11:37 26.01.2020
3985 Snow -19 1000 95 0 3.93 33 11:18 26.01.2020
3986 Snow -19 1000 95 0 3.93 33 10:55 26.01.2020
3987 Snow -19 1000 95 0 3.93 33 10:37 26.01.2020
3988 Snow -19 1000 95 0 3.93 33 10:19 26.01.2020
3989 Snow -19 1000 95 0 3.93 33 10:19 26.01.2020
3990 Snow -19 1000 95 0 3.93 33 09:42 26.01.2020
3991 Snow -19 1000 95 0 3.93 33 09:23 26.01.2020
3992 Snow -19 1000 95 0 3.93 33 08:59 26.01.2020
3993 Snow -19 1000 95 0 3.93 33 08:41 26.01.2020
3994 Clouds -21 999 96 0 4.41 34 08:22 26.01.2020
3995 Clouds -21 999 96 0 4.41 34 07:50 26.01.2020
3996 Clouds -21 999 96 0 4.41 34 07:27 26.01.2020
3997 Clouds -21 999 96 0 4.41 34 06:51 26.01.2020
3998 Clouds -21 999 96 0 4.41 34 06:23 26.01.2020
3999 Snow -20 997 96 0 4.5 33 05:28 26.01.2020
4000 Snow -20 997 96 0 4.5 33 03:31 26.01.2020
4001 Snow -20 997 96 0 4.5 33 02:38 26.01.2020
4002 Snow -20 997 96 0 5.03 35 01:45 26.01.2020
4003 Snow -20 997 96 0 5.03 35 01:22 26.01.2020
4004 Snow -20 997 96 0 4.77 35 00:42 26.01.2020
4005 Snow -20 997 96 0 4.77 35 00:24 26.01.2020
4006 Snow -20 997 96 0 4.77 35 23:39 25.01.2020
4007 Clouds -20 996 96 0 4.89 37 23:21 25.01.2020
4008 Clouds -20 996 96 0 4.89 37 22:56 25.01.2020
4009 Clouds -20 996 96 0 4.89 37 22:36 25.01.2020
4010 Clouds -20 996 96 0 4.89 37 22:18 25.01.2020
4011 Clouds -20 996 96 0 4.89 37 21:41 25.01.2020
4012 Clouds -20 996 96 0 4.89 37 21:23 25.01.2020
4013 Clouds -20 996 96 0 4.89 37 20:56 25.01.2020
4014 Clouds -20 996 96 0 4.89 37 20:38 25.01.2020
4015 Snow -19 994 95 0 5.54 43 20:20 25.01.2020
4016 Snow -19 994 95 0 5.54 43 19:44 25.01.2020
4017 Snow -19 994 95 0 5.54 43 19:20 25.01.2020
4018 Snow -20 994 96 0 5.5 41 18:57 25.01.2020
4019 Snow -20 994 96 0 5.5 41 18:39 25.01.2020
4020 Snow -20 994 96 0 5.5 41 18:20 25.01.2020
4021 Snow -20 994 96 0 5.5 41 17:42 25.01.2020
4022 Snow -20 994 96 0 5.5 41 17:23 25.01.2020
4023 Snow -19 994 95 0 5.57 43 16:58 25.01.2020
4024 Snow -19 994 95 0 5.57 43 16:40 25.01.2020
4025 Snow -19 994 95 0 5.57 43 16:21 25.01.2020
4026 Snow -19 994 95 0 5.57 43 15:47 25.01.2020
4027 Snow -19 994 95 0 5.57 43 15:25 25.01.2020
4028 Snow -19 994 95 0 5.57 43 14:59 25.01.2020
4029 Snow -19 994 95 0 5.57 43 14:41 25.01.2020
4030 Snow -18 993 95 0 5.7 52 14:18 25.01.2020
4031 Snow -18 993 95 0 5.7 52 13:43 25.01.2020
4032 Snow -18 993 95 0 5.7 52 13:23 25.01.2020
4033 Clouds -19 993 95 0 5.46 46 12:46 25.01.2020
4034 Clouds -19 993 95 0 5.46 46 12:26 25.01.2020
4035 Clouds -19 993 95 0 5.46 46 11:46 25.01.2020
4036 Clouds -19 993 95 0 5.46 46 11:22 25.01.2020
4037 Snow -19 991 95 0 5.86 44 10:59 25.01.2020
4038 Snow -19 991 95 0 5.86 44 10:40 25.01.2020
4039 Snow -19 991 95 0 5.86 44 10:20 25.01.2020
4040 Snow -19 991 95 0 5.86 44 09:54 25.01.2020
4041 Snow -19 991 95 0 5.86 44 09:36 25.01.2020
4042 Snow -19 991 95 0 5.86 44 09:18 25.01.2020
4043 Snow -19 991 95 0 5.86 44 08:42 25.01.2020
4044 Snow -19 990 95 0 5.99 39 07:51 25.01.2020
4045 Snow -19 990 95 0 5.99 39 06:57 25.01.2020
4046 Snow -19 990 95 0 5.99 39 06:29 25.01.2020
4047 Snow -19 990 95 0 5.99 39 05:48 25.01.2020
4048 Snow -19 990 95 0 5.99 39 05:23 25.01.2020
4049 Snow -19 989 96 0 6.08 39 03:54 25.01.2020
4050 Snow -19 989 96 0 6.08 39 03:23 25.01.2020
4051 Snow -19 989 96 0 6.08 39 02:23 25.01.2020
4052 Snow -18 989 95 0 6.23 42 01:53 25.01.2020
4053 Clouds -19 990 96 0 6.03 43 00:52 25.01.2020
4054 Clouds -19 990 96 0 6.03 43 00:26 25.01.2020
4055 Clouds -19 990 96 0 6.03 43 00:26 25.01.2020
4056 Clouds -19 990 96 0 6.03 43 23:59 24.01.2020
4057 Clouds -19 990 96 0 6.03 43 23:59 24.01.2020
4058 Clouds -19 990 96 0 6.03 43 23:40 24.01.2020
4059 Clouds -19 990 96 0 6.03 43 23:40 24.01.2020
4060 Clouds -19 990 96 0 6.03 43 23:22 24.01.2020
4061 Snow -19 989 95 0 6.73 42 22:45 24.01.2020
4062 Snow -19 989 95 0 6.73 42 22:25 24.01.2020
4063 Snow -19 989 95 0 6.73 42 21:56 24.01.2020
4064 Snow -19 989 95 0 6.73 42 21:37 24.01.2020
4065 Snow -19 989 95 0 6.73 42 21:18 24.01.2020
4066 Snow -19 989 95 0 6.73 42 20:42 24.01.2020
4067 Snow -20 989 100 0 6.49 35 20:21 24.01.2020
4068 Snow -20 989 100 0 6.49 35 19:57 24.01.2020
4069 Snow -20 989 100 0 6.49 35 19:39 24.01.2020
4070 Snow -20 989 100 0 6.49 35 19:21 24.01.2020
4071 Snow -20 989 100 0 6.49 35 18:43 24.01.2020
4072 Snow -20 989 100 0 6.49 35 18:43 24.01.2020
4073 Snow -20 989 100 0 6.49 35 18:24 24.01.2020
4074 Snow -20 989 100 0 6.49 35 17:56 24.01.2020
4075 Snow -20 989 100 0 6.49 35 17:38 24.01.2020
4076 Snow -19 989 98 0 6.93 41 17:18 24.01.2020
4077 Snow -19 989 98 0 6.93 41 16:39 24.01.2020
4078 Snow -19 989 98 0 6.93 41 16:39 24.01.2020
4079 Snow -19 989 98 0 6.93 41 16:21 24.01.2020
4080 Snow -19 989 98 0 6.93 41 15:43 24.01.2020
4081 Snow -19 989 98 0 6.93 41 15:23 24.01.2020
4082 Snow -19 989 98 0 6.93 41 14:59 24.01.2020
4083 Snow -19 989 98 0 6.93 41 14:40 24.01.2020
4084 Snow -18 989 97 0 7.73 40 14:22 24.01.2020
4085 Snow -18 989 97 0 7.73 40 13:43 24.01.2020
4086 Snow -18 989 97 0 7.73 40 13:23 24.01.2020
4087 Snow -18 989 98 0 7.33 38 12:45 24.01.2020
4088 Snow -18 989 98 0 7.33 38 12:23 24.01.2020
4089 Snow -18 989 98 0 7.33 38 11:58 24.01.2020
4090 Snow -18 989 98 0 7.33 38 11:39 24.01.2020
4091 Snow -17 989 96 0 7.75 42 11:18 24.01.2020
4092 Snow -17 989 96 0 7.75 42 10:42 24.01.2020
4093 Snow -17 989 96 0 7.75 42 10:42 24.01.2020
4094 Snow -17 989 96 0 7.75 42 10:42 24.01.2020
4095 Snow -17 989 96 0 7.75 42 10:21 24.01.2020
4096 Snow -17 989 96 0 7.75 42 09:55 24.01.2020
4097 Snow -17 989 96 0 7.75 42 09:37 24.01.2020
4098 Snow -17 989 96 0 7.75 42 09:18 24.01.2020
4099 Snow -17 989 96 0 7.75 42 08:39 24.01.2020
4100 Snow -17 989 95 0 8.25 38 08:19 24.01.2020
4101 Snow -17 989 95 0 8.25 38 07:48 24.01.2020
4102 Snow -17 989 95 0 8.25 38 07:24 24.01.2020
4103 Snow -17 989 95 0 8.25 38 06:45 24.01.2020
4104 Snow -17 989 95 0 8.25 38 06:24 24.01.2020
4105 Snow -17 989 95 0 8.25 38 05:37 24.01.2020
4106 Snow -16 989 95 0 8.38 42 03:47 24.01.2020
4107 Snow -16 989 95 0 8.38 42 02:41 24.01.2020
4108 Snow -16 989 95 0 8.38 42 02:22 24.01.2020
4109 Snow -15 989 94 0 8.71 40 01:39 24.01.2020
4110 Snow -16 990 94 0 8.39 38 00:52 24.01.2020
4111 Snow -16 990 94 0 8.39 38 00:19 24.01.2020
4112 Snow -16 990 94 0 8.39 38 23:45 23.01.2020
4113 Snow -16 990 94 0 8.39 38 23:26 23.01.2020
4114 Snow -15 989 94 0 8.55 40 22:59 23.01.2020
4115 Snow -15 989 94 0 8.55 40 22:37 23.01.2020
4116 Snow -15 989 94 0 8.55 40 22:18 23.01.2020
4117 Snow -15 989 94 0 8.55 40 21:55 23.01.2020
4118 Snow -15 989 94 0 8.55 40 21:37 23.01.2020
4119 Snow -15 989 94 0 8.55 40 21:19 23.01.2020
4120 Snow -15 989 94 0 8.55 40 20:55 23.01.2020
4121 Snow -15 989 94 0 8.55 40 20:37 23.01.2020
4122 Snow -14 989 94 0 7.99 43 20:18 23.01.2020
4123 Snow -14 989 94 0 7.99 43 19:44 23.01.2020
4124 Snow -14 989 94 0 7.99 43 19:23 23.01.2020
4125 Snow -14 989 94 0 7.99 43 18:58 23.01.2020
4126 Snow -14 989 94 0 7.99 43 18:39 23.01.2020
4127 Snow -14 989 94 0 7.99 43 18:20 23.01.2020
4128 Snow -14 989 94 0 7.99 43 17:56 23.01.2020
4129 Snow -14 989 94 0 7.99 43 17:37 23.01.2020
4130 Snow -14 988 93 0 7.68 49 17:18 23.01.2020
4131 Snow -14 988 93 0 7.68 49 16:39 23.01.2020
4132 Snow -14 988 93 0 7.68 49 16:20 23.01.2020
4133 Snow -14 988 93 0 7.68 49 15:58 23.01.2020
4134 Snow -14 988 93 0 7.68 49 15:40 23.01.2020
4135 Snow -14 988 93 0 7.68 49 15:19 23.01.2020
4136 Snow -14 988 93 0 7.68 49 14:59 23.01.2020
4137 Snow -14 988 93 0 7.68 49 14:41 23.01.2020
4138 Snow -14 988 93 0 7.68 49 14:22 23.01.2020
4139 Snow -15 987 94 0 7.61 55 13:56 23.01.2020
4140 Snow -15 987 94 0 7.61 55 13:37 23.01.2020
4141 Snow -15 987 94 0 6.91 50 13:18 23.01.2020
4142 Snow -15 987 94 0 6.91 50 12:43 23.01.2020
4143 Snow -15 987 94 0 6.91 50 12:24 23.01.2020
4144 Snow -15 987 94 0 6.91 50 11:56 23.01.2020
4145 Snow -15 987 94 0 6.91 50 11:37 23.01.2020
4146 Snow -14 986 93 0 6.58 49 11:18 23.01.2020
4147 Snow -14 985 93 0 7.01 52 10:43 23.01.2020
4148 Snow -14 985 93 0 7.01 52 10:19 23.01.2020
4149 Snow -14 985 93 0 7.01 52 09:43 23.01.2020
4150 Snow -14 985 93 0 7.01 52 09:25 23.01.2020
4151 Snow -14 986 93 0 6.58 49 08:58 23.01.2020
4152 Snow -14 986 93 0 6.58 49 08:40 23.01.2020
4153 Snow -12 984 93 0 7.4 37 08:21 23.01.2020
4154 Snow -12 984 93 0 7.4 37 07:44 23.01.2020
4155 Snow -12 984 93 0 7.4 37 07:24 23.01.2020
4156 Snow -12 984 93 0 7.4 37 06:51 23.01.2020
4157 Snow -12 984 93 0 7.4 37 06:22 23.01.2020
4158 Snow -12 984 93 0 7.4 37 05:44 23.01.2020
4159 Snow -11 982 94 0 7.05 41 04:24 23.01.2020
4160 Snow -11 982 94 0 7.05 41 02:34 23.01.2020
4161 Snow -12 982 94 0 6.66 57 01:19 23.01.2020
4162 Snow -12 982 94 0 6.66 57 00:27 23.01.2020
4163 Snow -12 982 94 0 6.66 57 23:48 22.01.2020
4164 Snow -12 982 94 0 6.66 57 23:29 22.01.2020
4165 Snow -10 980 93 0 6.1 96 22:59 22.01.2020
4166 Snow -10 980 93 0 6.1 96 22:40 22.01.2020
4167 Snow -10 980 93 0 6.1 96 22:22 22.01.2020
4168 Snow -10 980 93 0 6.1 96 21:40 22.01.2020
4169 Snow -10 980 93 0 6.1 96 21:22 22.01.2020
4170 Snow -10 980 93 0 6.1 96 20:57 22.01.2020
4171 Snow -10 980 93 0 6.1 96 20:37 22.01.2020
4172 Snow -10 979 94 0 5.24 105 20:19 22.01.2020
4173 Snow -11 979 94 0 4.64 101 19:56 22.01.2020
4174 Snow -11 979 94 0 4.64 101 19:37 22.01.2020
4175 Snow -11 979 94 0 4.64 101 19:18 22.01.2020
4176 Snow -11 979 94 0 4.64 101 18:56 22.01.2020
4177 Snow -11 979 94 0 4.64 101 18:37 22.01.2020
4178 Snow -11 979 94 0 4.64 101 18:19 22.01.2020
4179 Snow -11 979 94 0 4.64 101 17:40 22.01.2020
4180 Snow -11 978 94 0 3.71 107 17:21 22.01.2020
4181 Snow -11 978 94 0 3.71 107 16:58 22.01.2020
4182 Snow -11 978 94 0 3.71 107 16:39 22.01.2020
4183 Snow -11 978 94 0 3.71 107 16:21 22.01.2020
4184 Snow -11 978 94 0 3.71 107 15:56 22.01.2020
4185 Snow -11 978 94 0 3.71 107 15:38 22.01.2020
4186 Snow -11 978 94 0 3.71 107 15:19 22.01.2020
4187 Snow -11 978 94 0 3.71 107 14:39 22.01.2020
4188 Snow -11 977 95 0 4.01 114 14:20 22.01.2020
4189 Snow -11 977 95 0 4.01 114 13:59 22.01.2020
4190 Snow -11 977 95 0 4.01 114 13:38 22.01.2020
4191 Snow -11 977 95 0 3.97 116 13:19 22.01.2020
4192 Snow -11 977 95 0 3.97 116 12:57 22.01.2020
4193 Snow -11 977 95 0 3.97 116 12:39 22.01.2020
4194 Snow -11 977 95 0 3.97 116 12:19 22.01.2020
4195 Snow -11 977 95 0 3.97 116 11:58 22.01.2020
4196 Snow -11 977 95 0 3.97 116 11:39 22.01.2020
4197 Snow -10 976 95 0 4.24 141 11:19 22.01.2020
4198 Snow -10 976 95 0 4.24 141 10:46 22.01.2020
4199 Snow -10 976 95 0 4.24 141 10:21 22.01.2020
4200 Snow -10 976 95 0 4.24 141 09:59 22.01.2020
4201 Snow -10 976 95 0 4.24 141 09:40 22.01.2020
4202 Snow -10 976 95 0 4.24 141 09:22 22.01.2020
4203 Snow -10 976 95 0 4.24 141 08:56 22.01.2020
4204 Snow -10 976 95 0 4.24 141 08:37 22.01.2020
4205 Snow -9 976 94 0 5.08 141 08:19 22.01.2020
4206 Snow -9 976 94 0 5.08 141 07:44 22.01.2020
4207 Snow -9 976 94 0 5.08 141 07:26 22.01.2020
4208 Snow -9 976 94 0 5.08 141 06:37 22.01.2020
4209 Snow -9 976 94 0 5.08 141 06:18 22.01.2020
4210 Snow -9 976 94 0 4.75 155 04:27 22.01.2020
4211 Snow -9 976 94 0 4.75 155 03:27 22.01.2020
4212 Snow -9 976 94 0 4.75 155 02:48 22.01.2020
4213 Snow -9 977 94 0 4.81 172 00:47 22.01.2020
4214 Snow -9 977 94 0 4.81 172 00:28 22.01.2020
4215 Snow -9 977 94 0 4.81 172 23:59 21.01.2020
4216 Snow -9 977 94 0 4.81 172 23:37 21.01.2020
4217 Snow -11 977 93 0 5.57 180 23:19 21.01.2020
4218 Snow -11 977 93 0 5.57 180 22:42 21.01.2020
4219 Snow -11 977 93 0 5.57 180 22:23 21.01.2020
4220 Snow -11 977 93 0 5.57 180 21:58 21.01.2020
4221 Snow -11 977 93 0 5.57 180 21:39 21.01.2020
4222 Snow -11 977 93 0 5.57 180 21:20 21.01.2020
4223 Snow -11 977 93 0 5.57 180 20:57 21.01.2020
4224 Snow -11 977 93 0 5.57 180 20:39 21.01.2020
4225 Snow -12 979 92 0 5.74 188 20:20 21.01.2020
4226 Snow -12 979 92 0 5.74 188 19:58 21.01.2020
4227 Snow -12 979 92 0 5.74 188 19:39 21.01.2020
4228 Snow -12 979 92 0 5.74 188 19:20 21.01.2020
4229 Snow -12 979 92 0 5.74 188 18:56 21.01.2020
4230 Snow -12 979 92 0 5.74 188 18:38 21.01.2020
4231 Snow -12 979 92 0 5.74 188 18:20 21.01.2020
4232 Snow -12 979 92 0 5.74 188 17:45 21.01.2020
4233 Clouds -13 981 88 0 6.56 198 17:21 21.01.2020
4234 Clouds -13 981 88 0 6.56 198 16:59 21.01.2020
4235 Clouds -13 981 88 0 6.56 198 16:37 21.01.2020
4236 Clouds -13 981 88 0 6.56 198 16:19 21.01.2020
4237 Clouds -13 981 88 0 6.56 198 15:57 21.01.2020
4238 Clouds -13 981 88 0 6.56 198 15:37 21.01.2020
4239 Clouds -13 981 88 0 6.56 198 15:19 21.01.2020
4240 Clouds -13 981 88 0 6.56 198 14:39 21.01.2020
4241 Clouds -14 984 88 0 6.52 201 14:20 21.01.2020
4242 Clouds -14 984 88 0 6.52 201 13:42 21.01.2020
4243 Clouds -14 984 88 0 6.52 201 13:20 21.01.2020
4244 Clouds -14 984 88 0 6.34 197 12:57 21.01.2020
4245 Clouds -14 984 88 0 6.34 197 12:39 21.01.2020
4246 Clouds -14 984 88 0 6.34 197 12:21 21.01.2020
4247 Clouds -14 984 88 0 6.34 197 11:41 21.01.2020
4248 Clouds -15 986 87 0 8.43 207 11:22 21.01.2020
4249 Clouds -15 986 87 0 8.43 207 11:00 21.01.2020
4250 Clouds -15 986 87 0 8.43 207 10:41 21.01.2020
4251 Clouds -15 986 87 0 8.43 207 10:22 21.01.2020
4252 Clouds -15 986 87 0 8.43 207 09:43 21.01.2020
4253 Clouds -15 986 87 0 8.43 207 09:23 21.01.2020
4254 Clouds -15 986 87 0 8.43 207 08:56 21.01.2020
4255 Clouds -15 986 87 0 8.43 207 08:38 21.01.2020
4256 Clouds -15 989 88 0 9.22 209 08:19 21.01.2020
4257 Clouds -16 989 88 0 9.33 209 07:41 21.01.2020
4258 Clouds -16 989 88 0 9.33 209 07:22 21.01.2020
4259 Clouds -16 989 88 0 9.33 209 06:55 21.01.2020
4260 Clouds -16 989 88 0 9.33 209 06:37 21.01.2020
4261 Clouds -16 989 88 0 9.33 209 05:50 21.01.2020
4262 Clouds -15 992 88 0 10.29 213 04:41 21.01.2020
4263 Clouds -15 992 88 0 10.29 213 03:40 21.01.2020
4264 Clouds -15 992 88 0 10.29 213 02:26 21.01.2020
4265 Clouds -14 996 86 0 9.79 222 01:28 21.01.2020
4266 Clouds -14 996 86 0 9.79 222 00:40 21.01.2020
4267 Clouds -14 996 86 0 9.79 222 23:59 20.01.2020
4268 Clouds -14 996 86 0 9.79 222 23:41 20.01.2020
4269 Clouds -14 998 89 0 10.32 226 23:19 20.01.2020
4270 Clouds -14 998 89 0 10.32 226 22:58 20.01.2020
4271 Clouds -14 998 89 0 10.32 226 22:38 20.01.2020
4272 Clouds -14 998 89 0 10.32 226 22:20 20.01.2020
4273 Clouds -14 998 89 0 10.32 226 22:20 20.01.2020
4274 Clouds -14 998 89 0 10.32 226 21:58 20.01.2020
4275 Clouds -14 998 89 0 10.32 226 21:37 20.01.2020
4276 Clouds -14 998 89 0 10.32 226 21:19 20.01.2020
4277 Clouds -14 998 89 0 10.32 226 20:57 20.01.2020
4278 Clouds -14 998 89 0 10.32 226 20:38 20.01.2020
4279 Clouds -16 1000 86 0 9.6 223 20:18 20.01.2020
4280 Clouds -16 1000 86 0 9.6 223 19:56 20.01.2020
4281 Clouds -16 1000 86 0 9.6 223 19:38 20.01.2020
4282 Clouds -16 1000 86 0 9.6 223 19:18 20.01.2020
4283 Clouds -16 1000 86 0 9.6 223 18:44 20.01.2020
4284 Clouds -16 1000 86 0 9.6 223 18:23 20.01.2020
4285 Clouds -16 1000 86 0 9.6 223 17:58 20.01.2020
4286 Clouds -16 1000 86 0 9.6 223 17:36 20.01.2020
4287 Clouds -14 1004 89 0 9.04 231 17:18 20.01.2020
4288 Clouds -14 1004 89 0 9.04 231 16:43 20.01.2020
4289 Clouds -14 1004 89 0 9.04 231 16:25 20.01.2020
4290 Clouds -14 1004 89 0 9.04 231 15:58 20.01.2020
4291 Clouds -14 1004 89 0 9.04 231 15:39 20.01.2020
4292 Clouds -14 1004 89 0 9.04 231 15:21 20.01.2020
4293 Clouds -14 1004 89 0 9.04 231 14:42 20.01.2020
4294 Clouds -14 1004 89 0 9.04 231 14:24 20.01.2020
4295 Snow -7 1006 93 0 7.57 251 13:59 20.01.2020
4296 Snow -7 1006 93 0 7.57 251 13:40 20.01.2020
4297 Snow -7 1005 93 0 7.21 250 13:22 20.01.2020
4298 Snow -7 1005 93 0 7.21 250 12:47 20.01.2020
4299 Snow -7 1005 93 0 7.21 250 12:29 20.01.2020
4300 Snow -7 1005 93 0 7.21 250 11:59 20.01.2020
4301 Snow -7 1005 93 0 7.21 250 11:40 20.01.2020
4302 Snow -8 1007 92 0 5.28 291 11:21 20.01.2020
4303 Snow -8 1007 92 0 5.28 291 10:55 20.01.2020
4304 Snow -8 1007 92 0 5.28 291 10:37 20.01.2020
4305 Snow -8 1007 92 0 5.28 291 10:37 20.01.2020
4306 Snow -8 1007 92 0 5.28 291 10:18 20.01.2020
4307 Snow -8 1007 92 0 5.28 291 09:40 20.01.2020
4308 Snow -8 1007 92 0 5.28 291 09:40 20.01.2020
4309 Snow -8 1007 92 0 5.28 291 09:20 20.01.2020
4310 Snow -8 1007 92 0 5.28 291 08:46 20.01.2020
4311 Snow -8 1007 92 0 5.28 291 08:28 20.01.2020
4312 Snow -7 1007 90 0 8.28 300 07:46 20.01.2020
4313 Snow -7 1007 90 0 8.28 300 07:26 20.01.2020
4314 Snow -7 1007 90 0 8.28 300 06:54 20.01.2020
4315 Snow -7 1007 90 0 8.28 300 06:28 20.01.2020
4316 Snow -7 1007 90 0 8.28 300 05:43 20.01.2020
4317 Snow -7 1007 90 0 8.28 300 05:43 20.01.2020
4318 Snow -7 1007 90 0 8.28 300 05:43 20.01.2020
4319 Snow -7 1007 90 0 8.28 300 05:22 20.01.2020
4320 Snow -6 1007 85 0 11.62 297 04:47 20.01.2020
4321 Snow -6 1007 85 0 11.62 297 02:58 20.01.2020
4322 Snow -6 1007 85 0 11.62 297 02:58 20.01.2020
4323 Snow -5 1007 92 0 12.54 299 01:55 20.01.2020
4324 Snow -5 1007 92 0 12.54 299 01:37 20.01.2020
4325 Snow -5 1007 91 0 12.27 299 00:45 20.01.2020
4326 Snow -5 1007 91 0 12.27 299 00:24 20.01.2020
4327 Snow -5 1007 91 0 12.27 299 23:39 19.01.2020
4328 Snow -4 1006 86 0 12.71 301 23:20 19.01.2020
4329 Snow -4 1006 86 0 12.71 301 23:20 19.01.2020
4330 Snow -4 1006 86 0 12.71 301 22:57 19.01.2020
4331 Snow -4 1006 86 0 12.71 301 22:39 19.01.2020
4332 Snow -4 1006 86 0 12.71 301 22:39 19.01.2020
4333 Snow -4 1006 86 0 12.71 301 22:20 19.01.2020
4334 Snow -4 1006 86 0 12.71 301 22:20 19.01.2020
4335 Snow -4 1006 86 0 12.71 301 21:57 19.01.2020
4336 Snow -4 1006 86 0 12.71 301 21:38 19.01.2020
4337 Snow -4 1006 86 0 12.71 301 21:20 19.01.2020
4338 Snow -4 1006 86 0 12.71 301 20:57 19.01.2020
4339 Snow -4 1006 86 0 12.71 301 20:39 19.01.2020
4340 Clouds -5 1008 85 0 11.1 294 20:20 19.01.2020
4341 Clouds -5 1008 85 0 11.1 294 19:57 19.01.2020
4342 Clouds -5 1008 85 0 11.1 294 19:39 19.01.2020
4343 Clouds -5 1008 85 0 11.1 294 19:20 19.01.2020
4344 Clouds -5 1008 85 0 11.1 294 19:20 19.01.2020
4345 Clouds -5 1008 85 0 11.1 294 18:57 19.01.2020
4346 Clouds -5 1008 85 0 11.1 294 18:38 19.01.2020
4347 Clouds -5 1008 85 0 11.1 294 18:20 19.01.2020
4348 Clouds -5 1008 85 0 11.1 294 17:58 19.01.2020
4349 Clouds -5 1008 85 0 11.1 294 17:58 19.01.2020
4350 Clouds -5 1008 85 0 11.1 294 17:40 19.01.2020
4351 Clouds -8 1010 91 0 6.35 279 17:21 19.01.2020
4352 Clouds -8 1010 91 0 6.35 279 16:59 19.01.2020
4353 Clouds -8 1010 91 0 6.35 279 16:39 19.01.2020
4354 Clouds -8 1010 91 0 6.35 279 16:21 19.01.2020
4355 Clouds -8 1010 91 0 6.35 279 15:58 19.01.2020
4356 Clouds -8 1010 91 0 6.35 279 15:39 19.01.2020
4357 Clouds -8 1010 91 0 6.35 279 15:20 19.01.2020
4358 Clouds -8 1010 91 0 6.35 279 14:58 19.01.2020
4359 Clouds -8 1010 91 0 6.35 279 14:39 19.01.2020
4360 Snow -9 1011 92 0 6.47 315 14:18 19.01.2020
4361 Snow -9 1011 92 0 6.47 315 13:57 19.01.2020
4362 Snow -9 1011 92 0 6.47 315 13:38 19.01.2020
4363 Snow -10 1011 93 0 6.38 323 13:19 19.01.2020
4364 Snow -10 1011 93 0 6.38 323 12:55 19.01.2020
4365 Snow -10 1011 93 0 6.38 323 12:37 19.01.2020
4366 Snow -10 1011 93 0 6.38 323 12:19 19.01.2020
4367 Snow -10 1011 93 0 6.38 323 11:42 19.01.2020
4368 Snow -11 1011 94 0 6.11 287 11:20 19.01.2020
4369 Snow -11 1011 94 0 6.11 287 10:56 19.01.2020
4370 Snow -11 1011 94 0 6.11 287 10:38 19.01.2020
4371 Snow -11 1011 94 0 6.11 287 10:19 19.01.2020
4372 Snow -11 1011 94 0 6.11 287 09:55 19.01.2020
4373 Snow -11 1011 94 0 6.11 287 09:55 19.01.2020
4374 Snow -11 1011 94 0 6.11 287 09:55 19.01.2020
4375 Snow -11 1011 94 0 6.11 287 09:55 19.01.2020
4376 Snow -11 1011 94 0 6.11 287 09:36 19.01.2020
4377 Snow -11 1011 94 0 6.11 287 09:18 19.01.2020
4378 Snow -11 1011 94 0 6.11 287 08:44 19.01.2020
4379 Snow -10 1011 91 0 8.47 288 08:26 19.01.2020
4380 Clear -16 1011 87 0 5.55 281 07:42 19.01.2020
4381 Clear -16 1011 87 0 5.55 281 07:22 19.01.2020
4382 Clear -16 1011 87 0 5.55 281 06:53 19.01.2020
4383 Clear -16 1011 87 0 5.55 281 06:21 19.01.2020
4384 Clear -18 1011 92 0 4.55 300 02:44 19.01.2020
4385 Clouds -18 1011 95 0 4.64 288 02:21 19.01.2020
4386 Clouds -18 1011 94 0 5 276 01:25 19.01.2020
4387 Clouds -18 1011 94 0 5 276 00:50 19.01.2020
4388 Clouds -18 1011 94 0 5 276 00:29 19.01.2020
4389 Clouds -18 1011 94 0 5 276 23:58 18.01.2020
4390 Clouds -18 1011 94 0 5 276 23:40 18.01.2020
4391 Clear -20 1010 92 0 5.4 261 23:21 18.01.2020
4392 Clear -20 1010 92 0 5.4 261 22:55 18.01.2020
4393 Clear -20 1010 92 0 5.4 261 22:37 18.01.2020
4394 Clear -20 1010 92 0 5.4 261 22:37 18.01.2020
4395 Clear -20 1010 92 0 5.4 261 22:19 18.01.2020
4396 Clear -20 1010 92 0 5.4 261 22:19 18.01.2020
4397 Clear -20 1010 92 0 5.4 261 21:57 18.01.2020
4398 Clear -20 1010 92 0 5.4 261 21:37 18.01.2020
4399 Clear -20 1010 92 0 5.4 261 21:19 18.01.2020
4400 Clear -20 1010 92 0 5.4 261 20:42 18.01.2020
4401 Clear -21 1010 92 0 5.39 257 20:21 18.01.2020
4402 Clear -22 1010 94 0 5.29 258 19:57 18.01.2020
4403 Clear -22 1010 94 0 5.29 258 19:39 18.01.2020
4404 Clear -22 1010 94 0 5.29 258 19:21 18.01.2020
4405 Clear -22 1010 94 0 5.29 258 18:42 18.01.2020
4406 Clear -22 1010 94 0 5.29 258 18:21 18.01.2020
4407 Clear -22 1010 94 0 5.29 258 17:55 18.01.2020
4408 Clear -22 1010 94 0 5.29 258 17:37 18.01.2020
4409 Clear -22 1008 91 0 4.5 283 17:18 18.01.2020
4410 Clear -22 1008 91 0 4.5 283 16:41 18.01.2020
4411 Clear -22 1008 91 0 4.5 283 16:23 18.01.2020
4412 Clear -22 1008 91 0 4.5 283 15:59 18.01.2020
4413 Clear -22 1008 91 0 4.5 283 15:40 18.01.2020
4414 Clear -22 1008 91 0 4.5 283 15:22 18.01.2020
4415 Clear -22 1008 91 0 4.5 283 14:44 18.01.2020
4416 Clear -22 1008 91 0 4.5 283 14:24 18.01.2020
4417 Clear -21 1007 90 0 4.4 309 13:59 18.01.2020
4418 Clear -21 1007 90 0 4.4 309 13:41 18.01.2020
4419 Clear -22 1007 88 0 4.25 316 13:21 18.01.2020
4420 Clear -22 1007 88 0 4.25 316 12:55 18.01.2020
4421 Clear -22 1007 88 0 4.25 316 12:55 18.01.2020
4422 Clear -22 1007 88 0 4.25 316 12:37 18.01.2020
4423 Clear -22 1007 88 0 4.25 316 12:19 18.01.2020
4424 Clear -22 1007 88 0 4.25 316 11:44 18.01.2020
4425 Clear -21 1004 88 0 4.46 341 11:21 18.01.2020
4426 Clear -21 1004 88 0 4.46 341 10:54 18.01.2020
4427 Clear -21 1004 88 0 4.46 341 10:36 18.01.2020
4428 Clear -21 1004 88 0 4.46 341 10:18 18.01.2020
4429 Clear -21 1004 88 0 4.46 341 09:42 18.01.2020
4430 Clear -21 1004 88 0 4.46 341 09:20 18.01.2020
4431 Clear -21 1004 88 0 4.46 341 08:42 18.01.2020
4432 Clouds -20 1001 94 0 3.44 344 08:20 18.01.2020
4433 Clouds -20 1001 94 0 3.44 344 07:59 18.01.2020
4434 Clouds -20 1001 94 0 3.44 344 07:40 18.01.2020
4435 Clouds -20 1001 94 0 3.44 344 07:18 18.01.2020
4436 Clouds -20 1001 94 0 3.44 344 06:44 18.01.2020
4437 Clouds -20 1001 94 0 3.44 344 05:52 18.01.2020
4438 Snow -17 999 96 0 3.88 304 04:25 18.01.2020
4439 Snow -17 999 96 0 3.88 304 02:49 18.01.2020
4440 Clouds -18 998 94 0 3.26 287 01:40 18.01.2020
4441 Clear -20 999 93 0 3.82 291 00:39 18.01.2020
4442 Clear -20 999 93 0 3.82 291 00:20 18.01.2020
4443 Clear -20 999 93 0 3.82 291 23:58 17.01.2020
4444 Clear -20 999 93 0 3.82 291 23:39 17.01.2020
4445 Clouds -19 997 95 0 3.96 305 23:18 17.01.2020
4446 Clouds -19 997 95 0 3.96 305 22:42 17.01.2020
4447 Clouds -19 997 95 0 3.96 305 22:20 17.01.2020
4448 Clouds -19 997 95 0 3.96 305 21:56 17.01.2020
4449 Clouds -19 997 95 0 3.96 305 21:38 17.01.2020
4450 Clouds -19 997 95 0 3.96 305 21:19 17.01.2020
4451 Clouds -19 997 95 0 3.96 305 20:43 17.01.2020
4452 Clouds -17 995 99 0 4.32 303 20:21 17.01.2020
4453 Clouds -17 995 99 0 4.32 303 19:58 17.01.2020
4454 Clouds -17 995 99 0 4.32 303 19:39 17.01.2020
4455 Clouds -17 995 99 0 4.32 303 19:21 17.01.2020
4456 Clouds -17 995 99 0 4.32 303 19:21 17.01.2020
4457 Clouds -17 995 99 0 4.32 303 18:59 17.01.2020
4458 Clouds -17 995 99 0 4.32 303 18:41 17.01.2020
4459 Clouds -17 995 99 0 4.32 303 18:23 17.01.2020
4460 Clouds -17 995 99 0 4.32 303 17:54 17.01.2020
4461 Clouds -17 995 99 0 4.32 303 17:36 17.01.2020
4462 Clouds -16 993 94 0 3.71 300 17:18 17.01.2020
4463 Clouds -16 993 94 0 3.71 300 16:41 17.01.2020
4464 Clouds -16 993 94 0 3.71 300 16:19 17.01.2020
4465 Clouds -16 993 94 0 3.71 300 15:48 17.01.2020
4466 Clouds -16 993 94 0 3.71 300 15:26 17.01.2020
4467 Clouds -16 993 94 0 3.71 300 14:54 17.01.2020
4468 Clouds -16 993 94 0 3.71 300 14:36 17.01.2020
4469 Clouds -15 993 93 0 4.93 298 14:18 17.01.2020
4470 Clouds -15 993 93 0 4.93 298 13:38 17.01.2020
4471 Clouds -15 993 92 0 5.84 298 13:19 17.01.2020
4472 Clouds -15 993 92 0 5.84 298 12:44 17.01.2020
4473 Clouds -15 993 92 0 5.84 298 12:22 17.01.2020
4474 Clouds -15 993 92 0 5.84 298 11:40 17.01.2020
4475 Clouds -13 992 90 0 6.99 296 11:19 17.01.2020
4476 Clouds -13 992 90 0 6.99 296 10:44 17.01.2020
4477 Clouds -13 992 90 0 6.99 296 10:23 17.01.2020
4478 Clouds -13 992 90 0 6.99 296 09:59 17.01.2020
4479 Clouds -13 992 90 0 6.99 296 09:59 17.01.2020
4480 Clouds -13 992 90 0 6.99 296 09:41 17.01.2020
4481 Clouds -13 992 90 0 6.99 296 09:20 17.01.2020
4482 Clouds -13 992 90 0 6.99 296 09:20 17.01.2020
4483 Clouds -13 992 90 0 6.99 296 08:46 17.01.2020
4484 Clouds -13 992 90 0 6.99 296 08:25 17.01.2020
4485 Clear -15 994 91 0 5.06 286 08:25 17.01.2020
4486 Clear -15 993 93 0 5.78 276 07:56 17.01.2020
4487 Clear -15 993 93 0 5.78 276 07:56 17.01.2020
4488 Clear -15 993 93 0 5.78 276 07:34 17.01.2020
4489 Clear -15 993 93 0 5.78 276 06:59 17.01.2020
4490 Clear -15 993 93 0 5.78 276 06:41 17.01.2020
4491 Clear -15 993 93 0 5.78 276 05:57 17.01.2020
4492 Clear -18 993 95 0 6.08 248 03:39 17.01.2020
4493 Clear -18 993 95 0 6.08 248 02:55 17.01.2020
4494 Clouds -19 994 99 0 4.72 264 01:48 17.01.2020
4495 Clouds -19 994 99 0 4.58 269 01:29 17.01.2020
4496 Clouds -19 994 99 0 4.58 269 00:55 17.01.2020
4497 Clouds -19 994 99 0 4.58 269 00:28 17.01.2020
4498 Clouds -19 994 99 0 4.58 269 23:46 16.01.2020
4499 Clouds -19 994 99 0 4.58 269 23:26 16.01.2020
4500 Clear -20 993 100 0 4.96 301 22:58 16.01.2020
4501 Clear -20 993 100 0 4.96 301 22:40 16.01.2020
4502 Clear -20 993 100 0 4.96 301 22:21 16.01.2020
4503 Clear -20 993 100 0 4.96 301 21:55 16.01.2020
4504 Clear -20 993 100 0 4.96 301 21:37 16.01.2020
4505 Clear -20 993 100 0 4.96 301 21:18 16.01.2020
4506 Clear -20 993 100 0 4.96 301 21:18 16.01.2020
4507 Clear -20 993 100 0 4.96 301 20:56 16.01.2020
4508 Clear -20 993 100 0 4.96 301 20:36 16.01.2020
4509 Clouds -19 991 99 0 6.62 326 20:18 16.01.2020
4510 Clouds -18 991 98 0 6.8 330 20:18 16.01.2020
4511 Clouds -18 991 98 0 6.8 330 19:41 16.01.2020
4512 Clouds -18 991 98 0 6.8 330 19:23 16.01.2020
4513 Clouds -18 991 98 0 6.8 330 18:58 16.01.2020
4514 Clouds -18 991 98 0 6.8 330 18:39 16.01.2020
4515 Clouds -18 991 98 0 6.8 330 18:21 16.01.2020
4516 Clouds -18 991 98 0 6.8 330 17:59 16.01.2020
4517 Clouds -18 991 98 0 6.8 330 17:41 16.01.2020
4518 Clouds -18 991 98 0 6.8 330 17:41 16.01.2020
4519 Clouds -17 988 99 0 7.26 332 17:21 16.01.2020
4520 Clouds -17 988 99 0 7.26 332 16:56 16.01.2020
4521 Clouds -17 988 99 0 7.26 332 16:36 16.01.2020
4522 Clouds -17 988 99 0 7.26 332 16:18 16.01.2020
4523 Clouds -17 988 99 0 7.26 332 15:42 16.01.2020
4524 Clouds -17 988 99 0 7.26 332 15:21 16.01.2020
4525 Clouds -17 988 99 0 7.26 332 14:45 16.01.2020
4526 Clouds -17 988 99 0 7.26 332 14:24 16.01.2020
4527 Clouds -15 985 97 0 7.25 341 13:57 16.01.2020
4528 Clouds -15 985 97 0 7.25 341 13:39 16.01.2020
4529 Clouds -15 985 97 0 7.25 341 13:21 16.01.2020
4530 Clouds -15 985 97 0 7.28 341 12:45 16.01.2020
4531 Clouds -15 985 97 0 7.28 341 12:27 16.01.2020
4532 Clouds -15 985 97 0 7.28 341 11:55 16.01.2020
4533 Clouds -15 985 97 0 7.28 341 11:37 16.01.2020
4534 Snow -13 982 94 0 7.83 359 11:19 16.01.2020
4535 Snow -13 982 94 0 7.83 359 10:39 16.01.2020
4536 Snow -13 982 94 0 7.83 359 10:20 16.01.2020
4537 Snow -13 982 94 0 7.83 359 09:57 16.01.2020
4538 Snow -13 982 94 0 7.83 359 09:38 16.01.2020
4539 Snow -13 982 94 0 7.83 359 09:19 16.01.2020
4540 Snow -13 982 94 0 7.83 359 08:51 16.01.2020
4541 Snow -13 982 94 0 7.83 359 08:30 16.01.2020
4542 Snow -10 980 93 0 8.13 12 07:58 16.01.2020
4543 Snow -10 980 93 0 8.13 12 07:38 16.01.2020
4544 Snow -10 980 93 0 8.13 12 07:19 16.01.2020
4545 Snow -10 980 93 0 8.13 12 06:42 16.01.2020
4546 Snow -10 980 93 0 8.13 12 05:59 16.01.2020
4547 Snow -10 980 93 0 8.13 12 05:40 16.01.2020
4548 Snow -7 980 95 0 3.91 30 04:37 16.01.2020
4549 Snow -7 980 95 0 3.91 30 04:37 16.01.2020
4550 Snow -7 980 95 0 3.91 30 03:28 16.01.2020
4551 Snow -7 980 95 0 3.91 30 02:42 16.01.2020
4552 Snow -8 982 94 0 5.84 97 00:53 16.01.2020
4553 Snow -8 982 94 0 5.84 97 00:24 16.01.2020
4554 Snow -8 982 94 0 5.84 97 23:50 15.01.2020
4555 Snow -8 982 94 0 5.84 97 23:50 15.01.2020
4556 Snow -8 982 94 0 5.84 97 23:23 15.01.2020
4557 Snow -11 985 94 0 5.18 122 22:58 15.01.2020
4558 Snow -11 985 94 0 5.18 122 22:40 15.01.2020
4559 Snow -11 985 94 0 5.18 122 22:19 15.01.2020
4560 Snow -11 985 94 0 5.18 122 21:58 15.01.2020
4561 Snow -11 985 94 0 5.18 122 21:39 15.01.2020
4562 Snow -11 985 94 0 5.18 122 21:20 15.01.2020
4563 Snow -11 985 94 0 5.18 122 20:58 15.01.2020
4564 Snow -11 985 94 0 5.18 122 20:40 15.01.2020
4565 Snow -12 989 94 0 5.56 153 20:21 15.01.2020
4566 Snow -12 990 95 0 5.42 150 19:55 15.01.2020
4567 Snow -12 990 95 0 5.42 150 19:37 15.01.2020
4568 Snow -12 990 95 0 5.42 150 19:19 15.01.2020
4569 Snow -12 990 95 0 5.42 150 18:57 15.01.2020
4570 Snow -12 990 95 0 5.42 150 18:57 15.01.2020
4571 Snow -12 990 95 0 5.42 150 18:38 15.01.2020
4572 Snow -12 990 95 0 5.42 150 18:20 15.01.2020
4573 Snow -12 990 95 0 5.42 150 17:58 15.01.2020
4574 Snow -12 990 95 0 5.42 150 17:39 15.01.2020
4575 Clouds -13 994 82 0 5.35 183 17:20 15.01.2020
4576 Clouds -13 994 82 0 5.35 183 16:42 15.01.2020
4577 Clouds -13 994 82 0 5.35 183 16:23 15.01.2020
4578 Clouds -13 994 82 0 5.35 183 15:59 15.01.2020
4579 Clouds -13 994 82 0 5.35 183 15:41 15.01.2020
4580 Clouds -13 994 82 0 5.35 183 15:20 15.01.2020
4581 Clouds -13 994 82 0 5.35 183 14:44 15.01.2020
4582 Clouds -13 996 94 0 7.65 210 14:21 15.01.2020
4583 Clouds -13 996 94 0 7.65 210 13:56 15.01.2020
4584 Clouds -13 996 94 0 7.65 210 13:38 15.01.2020
4585 Snow -14 996 94 0 7.58 210 13:19 15.01.2020
4586 Snow -14 996 94 0 7.58 210 12:54 15.01.2020
4587 Snow -14 996 94 0 7.58 210 12:36 15.01.2020
4588 Snow -14 996 94 0 7.58 210 12:18 15.01.2020
4589 Snow -14 996 94 0 7.58 210 11:38 15.01.2020
4590 Clouds -11 998 94 0 5.91 219 11:19 15.01.2020
4591 Clouds -11 998 94 0 5.91 219 10:47 15.01.2020
4592 Clouds -11 998 94 0 5.91 219 10:28 15.01.2020
4593 Clouds -11 998 94 0 5.91 219 09:57 15.01.2020
4594 Clouds -11 998 94 0 5.91 219 09:57 15.01.2020
4595 Clouds -11 998 94 0 5.91 219 09:38 15.01.2020
4596 Clouds -11 998 94 0 5.91 219 09:19 15.01.2020
4597 Clouds -11 998 94 0 5.91 219 08:44 15.01.2020
4598 Clouds -11 998 94 0 5.91 219 08:24 15.01.2020
4599 Clear -15 997 87 0 4.84 234 07:54 15.01.2020
4600 Clear -15 997 87 0 4.84 234 07:33 15.01.2020
4601 Clear -15 997 87 0 4.84 234 06:49 15.01.2020
4602 Clear -15 997 87 0 4.84 234 06:28 15.01.2020
4603 Clear -15 996 89 0 4.05 265 04:56 15.01.2020
4604 Clear -15 996 89 0 4.05 265 02:48 15.01.2020
4605 Clouds -15 994 93 0 4.14 300 01:48 15.01.2020
4606 Clouds -15 994 93 0 4.14 300 01:20 15.01.2020
4607 Snow -14 994 91 0 4.08 321 00:37 15.01.2020
4608 Snow -14 994 91 0 4.08 321 00:19 15.01.2020
4609 Snow -14 994 91 0 4.08 321 23:46 14.01.2020
4610 Snow -14 994 91 0 4.08 321 23:24 14.01.2020
4611 Snow -11 992 95 0 4.08 260 22:56 14.01.2020
4612 Snow -11 992 95 0 4.08 260 22:38 14.01.2020
4613 Snow -11 992 95 0 4.08 260 22:18 14.01.2020
4614 Snow -11 992 95 0 4.08 260 21:55 14.01.2020
4615 Snow -11 992 95 0 4.08 260 21:37 14.01.2020
4616 Snow -11 992 95 0 4.08 260 21:19 14.01.2020
4617 Snow -11 992 95 0 4.08 260 20:42 14.01.2020
4618 Snow -11 992 95 0 4.08 260 20:42 14.01.2020
4619 Snow -11 992 95 0 4.08 260 20:22 14.01.2020
4620 Clouds -12 992 93 0 6.15 217 19:57 14.01.2020
4621 Clouds -12 992 93 0 6.15 217 19:38 14.01.2020
4622 Clouds -12 992 93 0 6.15 217 19:20 14.01.2020
4623 Clouds -12 992 93 0 6.15 217 19:20 14.01.2020
4624 Clouds -12 992 93 0 6.15 217 18:58 14.01.2020
4625 Clouds -12 992 93 0 6.15 217 18:39 14.01.2020
4626 Clouds -12 992 93 0 6.15 217 18:19 14.01.2020
4627 Clouds -12 992 93 0 6.15 217 17:39 14.01.2020
4628 Clouds -12 992 90 0 7.61 211 17:19 14.01.2020
4629 Clouds -12 992 90 0 7.61 211 16:59 14.01.2020
4630 Clouds -12 992 90 0 7.61 211 16:40 14.01.2020
4631 Clouds -12 992 90 0 7.61 211 16:21 14.01.2020
4632 Clouds -12 992 90 0 7.61 211 15:55 14.01.2020
4633 Clouds -12 992 90 0 7.61 211 15:37 14.01.2020
4634 Clouds -12 992 90 0 7.61 211 15:18 14.01.2020
4635 Clouds -12 992 90 0 7.61 211 14:43 14.01.2020
4636 Snow -11 992 91 0 9.52 214 14:20 14.01.2020
4637 Snow -11 992 91 0 9.52 214 13:43 14.01.2020
4638 Snow -11 992 91 0 9.52 214 13:20 14.01.2020
4639 Snow -11 993 93 0 7.46 211 12:59 14.01.2020
4640 Snow -11 993 93 0 7.46 211 12:40 14.01.2020
4641 Snow -11 993 93 0 7.46 211 12:20 14.01.2020
4642 Snow -11 993 93 0 7.46 211 11:42 14.01.2020
4643 Snow -11 993 93 0 7.46 211 11:23 14.01.2020
4644 Clouds -14 993 98 0 5.66 217 10:58 14.01.2020
4645 Clouds -14 993 98 0 5.66 217 10:39 14.01.2020
4646 Clouds -14 993 98 0 5.66 217 10:19 14.01.2020
4647 Clouds -14 993 98 0 5.66 217 09:56 14.01.2020
4648 Clouds -14 993 98 0 5.66 217 09:38 14.01.2020
4649 Clouds -14 993 98 0 5.66 217 09:20 14.01.2020
4650 Clouds -14 993 98 0 5.66 217 08:42 14.01.2020
4651 Clouds -15 995 100 0 4.74 225 08:23 14.01.2020
4652 Clouds -18 993 100 0 5.45 236 07:53 14.01.2020
4653 Clouds -18 993 100 0 5.45 236 07:31 14.01.2020
4654 Clouds -18 993 100 0 5.45 236 06:50 14.01.2020
4655 Clouds -18 993 100 0 5.45 236 06:23 14.01.2020
4656 Clouds -16 993 98 0 4.44 266 05:21 14.01.2020
4657 Clouds -16 993 98 0 4.44 266 03:51 14.01.2020
4658 Clouds -16 993 98 0 4.44 266 02:42 14.01.2020
4659 Clouds -16 991 96 0 5.96 314 01:35 14.01.2020
4660 Clouds -16 991 96 0 5.96 317 00:49 14.01.2020
4661 Clouds -16 991 96 0 5.96 317 00:28 14.01.2020
4662 Clouds -16 991 96 0 5.96 317 23:48 13.01.2020
4663 Clear -17 989 94 0 7.62 330 23:20 13.01.2020
4664 Clear -17 989 94 0 7.62 330 23:00 13.01.2020
4665 Clear -17 989 94 0 7.62 330 22:40 13.01.2020
4666 Clear -17 989 94 0 7.62 330 22:20 13.01.2020
4667 Clear -17 989 94 0 7.62 330 21:56 13.01.2020
4668 Clear -17 989 94 0 7.62 330 21:37 13.01.2020
4669 Clear -17 989 94 0 7.62 330 21:18 13.01.2020
4670 Clear -17 989 94 0 7.62 330 20:57 13.01.2020
4671 Clear -17 989 94 0 7.62 330 20:57 13.01.2020
4672 Clear -17 989 94 0 7.62 330 20:38 13.01.2020
4673 Snow -16 985 97 0 9.13 345 20:20 13.01.2020
4674 Snow -16 985 97 0 9.13 345 19:56 13.01.2020
4675 Snow -16 985 97 0 9.13 345 19:38 13.01.2020
4676 Snow -16 985 97 0 9.13 345 19:18 13.01.2020
4677 Snow -16 985 97 0 9.13 345 18:56 13.01.2020
4678 Snow -16 985 97 0 9.13 345 18:37 13.01.2020
4679 Snow -16 985 97 0 9.13 345 18:18 13.01.2020
4680 Snow -16 985 97 0 9.13 345 17:40 13.01.2020
4681 Snow -16 985 97 0 9.13 345 17:40 13.01.2020
4682 Snow -14 982 96 0 9.42 348 17:22 13.01.2020
4683 Snow -14 982 96 0 9.42 348 16:56 13.01.2020
4684 Snow -14 982 96 0 9.42 348 16:37 13.01.2020
4685 Snow -14 982 96 0 9.42 348 16:19 13.01.2020
4686 Snow -14 982 96 0 9.42 348 15:43 13.01.2020
4687 Snow -14 982 96 0 9.42 348 15:22 13.01.2020
4688 Snow -14 982 96 0 9.42 348 15:22 13.01.2020
4689 Snow -14 982 96 0 9.42 348 14:57 13.01.2020
4690 Snow -14 982 96 0 9.42 348 14:37 13.01.2020
4691 Snow -14 982 96 0 9.42 348 14:37 13.01.2020
4692 Snow -12 979 96 0 9.61 1 14:18 13.01.2020
4693 Snow -12 979 96 0 9.61 1 13:41 13.01.2020
4694 Snow -12 979 95 0 9.7 0 13:23 13.01.2020
4695 Snow -12 979 95 0 9.7 0 12:58 13.01.2020
4696 Snow -12 979 95 0 9.7 0 12:40 13.01.2020
4697 Snow -12 979 95 0 9.7 0 12:22 13.01.2020
4698 Snow -12 979 95 0 9.7 0 11:56 13.01.2020
4699 Snow -12 979 95 0 9.7 0 11:37 13.01.2020
4700 Snow -9 976 93 0 3.46 234 11:18 13.01.2020
4701 Snow -9 976 93 0 3.46 234 10:55 13.01.2020
4702 Snow -9 976 93 0 3.46 234 10:36 13.01.2020
4703 Snow -9 976 93 0 3.46 234 10:18 13.01.2020
4704 Snow -9 976 93 0 3.46 234 10:18 13.01.2020
4705 Snow -9 976 93 0 3.46 234 09:42 13.01.2020
4706 Snow -9 976 93 0 3.46 234 09:23 13.01.2020
4707 Snow -9 976 93 0 3.46 234 08:44 13.01.2020
4708 Snow -9 977 94 0 3.68 181 08:22 13.01.2020
4709 Snow -9 977 94 0 3.68 181 07:59 13.01.2020
4710 Snow -9 977 94 0 3.68 181 07:59 13.01.2020
4711 Snow -9 977 94 0 3.68 181 07:40 13.01.2020
4712 Snow -9 977 94 0 3.68 181 07:18 13.01.2020
4713 Snow -9 977 94 0 3.68 181 06:37 13.01.2020
4714 Snow -9 977 94 0 3.68 181 05:36 13.01.2020
4715 Snow -8 977 93 0 4.93 176 04:25 13.01.2020
4716 Snow -8 977 93 0 4.93 176 03:34 13.01.2020
4717 Snow -8 977 93 0 4.93 176 02:49 13.01.2020
4718 Snow -8 977 93 0 4.93 176 02:29 13.01.2020
4719 Snow -8 977 93 0 4.93 176 02:29 13.01.2020
4720 Snow -8 978 94 0 5.08 173 01:32 13.01.2020
4721 Snow -8 978 94 0 4.88 172 00:43 13.01.2020
4722 Snow -8 978 94 0 4.88 172 00:24 13.01.2020
4723 Snow -8 978 94 0 4.88 172 23:57 12.01.2020
4724 Snow -8 978 94 0 4.88 172 23:37 12.01.2020
4725 Snow -8 979 93 0 4.89 178 23:19 12.01.2020
4726 Snow -8 979 93 0 4.89 178 22:42 12.01.2020
4727 Snow -8 979 93 0 4.89 178 22:24 12.01.2020
4728 Snow -8 979 93 0 4.89 178 21:59 12.01.2020
4729 Snow -8 979 93 0 4.89 178 21:40 12.01.2020
4730 Snow -8 979 93 0 4.89 178 21:20 12.01.2020
4731 Snow -8 979 93 0 4.89 178 20:57 12.01.2020
4732 Snow -8 979 93 0 4.89 178 20:39 12.01.2020
4733 Snow -9 982 93 0 6.52 204 20:20 12.01.2020
4734 Snow -9 982 93 0 6.52 204 19:56 12.01.2020
4735 Snow -9 982 93 0 6.52 204 19:38 12.01.2020
4736 Snow -9 982 93 0 6.52 204 19:19 12.01.2020
4737 Snow -9 982 93 0 6.52 204 18:58 12.01.2020
4738 Snow -9 982 93 0 6.52 204 18:40 12.01.2020
4739 Snow -9 982 93 0 6.52 204 18:21 12.01.2020
4740 Snow -9 982 93 0 6.52 204 17:57 12.01.2020
4741 Snow -9 982 93 0 6.52 204 17:38 12.01.2020
4742 Snow -9 984 92 0 7.07 207 17:19 12.01.2020
4743 Snow -9 984 92 0 7.07 207 16:55 12.01.2020
4744 Snow -9 984 92 0 7.07 207 16:37 12.01.2020
4745 Snow -9 984 92 0 7.07 207 16:18 12.01.2020
4746 Snow -9 984 92 0 7.07 207 15:42 12.01.2020
4747 Snow -9 984 92 0 7.07 207 15:24 12.01.2020
4748 Snow -9 984 92 0 7.07 207 14:57 12.01.2020
4749 Snow -9 984 92 0 7.07 207 14:38 12.01.2020
4750 Snow -9 987 92 0 7.08 200 14:19 12.01.2020
4751 Snow -9 987 92 0 7.08 200 13:44 12.01.2020
4752 Snow -9 987 92 0 7.08 200 13:25 12.01.2020
4753 Snow -9 987 89 0 9 206 12:58 12.01.2020
4754 Snow -9 987 89 0 9 206 12:39 12.01.2020
4755 Snow -9 987 89 0 9 206 12:20 12.01.2020
4756 Snow -9 987 89 0 9 206 11:58 12.01.2020
4757 Snow -9 987 89 0 9 206 11:38 12.01.2020
4758 Snow -10 989 93 0 7.98 198 11:19 12.01.2020
4759 Snow -10 989 93 0 7.98 198 10:41 12.01.2020
4760 Snow -10 989 93 0 7.98 198 10:41 12.01.2020
4761 Snow -10 989 93 0 7.98 198 10:22 12.01.2020
4762 Snow -10 989 93 0 7.98 198 09:57 12.01.2020
4763 Snow -10 989 93 0 7.98 198 09:38 12.01.2020
4764 Snow -10 989 93 0 7.98 198 09:18 12.01.2020
4765 Snow -10 989 93 0 7.98 198 08:44 12.01.2020
4766 Snow -10 993 95 0 7.26 217 08:20 12.01.2020
4767 Snow -10 993 95 0 7.26 217 07:40 12.01.2020
4768 Snow -10 993 95 0 7.26 217 07:22 12.01.2020
4769 Snow -10 993 95 0 7.26 217 06:48 12.01.2020
4770 Snow -10 993 95 0 7.26 217 06:29 12.01.2020
4771 Snow -10 993 95 0 7.26 217 05:32 12.01.2020
4772 Snow -11 994 96 0 6.79 207 04:27 12.01.2020
4773 Snow -11 994 96 0 6.79 207 03:23 12.01.2020
4774 Snow -11 994 96 0 6.79 207 02:33 12.01.2020
4775 Clouds -12 997 97 0 5.43 213 01:43 12.01.2020
4776 Clouds -12 997 97 0 5.43 213 01:22 12.01.2020
4777 Clouds -12 997 97 0 6.02 210 00:41 12.01.2020
4778 Clouds -12 997 97 0 6.02 210 00:20 12.01.2020
4779 Clouds -12 997 97 0 6.02 210 23:42 11.01.2020
4780 Clouds -14 997 99 0 5.48 221 23:19 11.01.2020
4781 Clouds -14 997 99 0 5.48 221 22:58 11.01.2020
4782 Clouds -14 997 99 0 5.48 221 22:39 11.01.2020
4783 Clouds -14 997 99 0 5.48 221 22:20 11.01.2020
4784 Clouds -14 997 99 0 5.48 221 21:58 11.01.2020
4785 Clouds -14 997 99 0 5.48 221 21:39 11.01.2020
4786 Clouds -14 997 99 0 5.48 221 21:18 11.01.2020
4787 Clouds -14 997 99 0 5.48 221 20:40 11.01.2020
4788 Clouds -13 997 98 0 5.65 233 20:22 11.01.2020
4789 Clouds -12 998 85 0 5.52 255 19:58 11.01.2020
4790 Clouds -12 998 85 0 5.52 255 19:39 11.01.2020
4791 Clouds -12 998 85 0 5.52 255 19:21 11.01.2020
4792 Clouds -12 998 85 0 5.52 255 18:58 11.01.2020
4793 Clouds -12 998 85 0 5.52 255 18:38 11.01.2020
4794 Clouds -12 998 85 0 5.52 255 18:19 11.01.2020
4795 Clouds -12 998 85 0 5.52 255 17:57 11.01.2020
4796 Clouds -12 998 85 0 5.52 255 17:39 11.01.2020
4797 Clouds -12 997 85 0 6.16 319 17:19 11.01.2020
4798 Clouds -12 997 85 0 6.16 319 16:45 11.01.2020
4799 Clouds -12 997 85 0 6.16 319 16:27 11.01.2020
4800 Clouds -12 997 85 0 6.16 319 15:58 11.01.2020
4801 Clouds -12 997 85 0 6.16 319 15:40 11.01.2020
4802 Clouds -12 997 85 0 6.16 319 15:22 11.01.2020
4803 Clouds -12 997 85 0 6.16 319 14:56 11.01.2020
4804 Clouds -12 997 85 0 6.16 319 14:38 11.01.2020
4805 Snow -13 995 90 0 7.92 329 14:19 11.01.2020
4806 Snow -13 995 90 0 7.92 329 13:39 11.01.2020
4807 Snow -13 995 91 0 7.74 331 13:20 11.01.2020
4808 Snow -13 995 90 0 7.92 329 13:20 11.01.2020
4809 Snow -13 995 91 0 7.74 331 12:57 11.01.2020
4810 Snow -13 995 91 0 7.74 331 12:38 11.01.2020
4811 Snow -13 995 91 0 7.74 331 12:20 11.01.2020
4812 Snow -13 995 91 0 7.74 331 11:46 11.01.2020
4813 Snow -13 995 91 0 7.74 331 11:25 11.01.2020
4814 Snow -12 991 92 0 8.71 335 10:50 11.01.2020
4815 Snow -12 991 92 0 8.71 335 10:30 11.01.2020
4816 Snow -12 991 92 0 8.71 335 09:55 11.01.2020
4817 Snow -12 991 92 0 8.71 335 09:37 11.01.2020
4818 Snow -12 991 92 0 8.71 335 09:18 11.01.2020
4819 Snow -12 991 92 0 8.71 335 08:41 11.01.2020
4820 Snow -10 987 92 0 8.22 332 08:21 11.01.2020
4821 Snow -10 988 93 0 7.46 342 07:43 11.01.2020
4822 Snow -10 988 93 0 7.46 342 07:25 11.01.2020
4823 Snow -10 988 93 0 7.46 342 06:45 11.01.2020
4824 Snow -10 988 93 0 7.46 342 05:33 11.01.2020
4825 Snow -7 985 93 0 5.35 336 04:45 11.01.2020
4826 Snow -7 985 93 0 5.35 336 04:27 11.01.2020
4827 Snow -7 985 93 0 5.35 336 02:48 11.01.2020
4828 Snow -4 983 95 0 5.54 292 01:51 11.01.2020
4829 Snow -4 983 95 0 5.54 292 01:32 11.01.2020
4830 Snow -4 982 95 0 5 277 00:58 11.01.2020
4831 Snow -4 982 95 0 5 277 00:32 11.01.2020
4832 Snow -4 982 95 0 5 277 23:59 10.01.2020
4833 Snow -4 982 95 0 5 277 23:39 10.01.2020
4834 Snow -4 982 95 0 5 277 23:39 10.01.2020
4835 Snow -3 981 94 0 8.28 244 23:21 10.01.2020
4836 Snow -3 981 94 0 8.28 244 22:55 10.01.2020
4837 Snow -3 981 94 0 8.28 244 22:37 10.01.2020
4838 Snow -3 981 94 0 8.28 244 22:18 10.01.2020
4839 Snow -3 981 94 0 8.28 244 21:54 10.01.2020
4840 Snow -3 981 94 0 8.28 244 21:36 10.01.2020
4841 Snow -3 981 94 0 8.28 244 21:18 10.01.2020
4842 Snow -3 981 94 0 8.28 244 20:42 10.01.2020
4843 Snow -3 981 94 0 8.28 244 20:24 10.01.2020
4844 Snow -2 981 93 0 9.25 227 19:54 10.01.2020
4845 Snow -2 981 93 0 9.25 227 19:36 10.01.2020
4846 Snow -2 981 93 0 9.25 227 19:18 10.01.2020
4847 Snow -2 981 93 0 9.25 227 18:41 10.01.2020
4848 Snow -2 981 93 0 9.25 227 18:19 10.01.2020
4849 Snow -2 981 93 0 9.25 227 17:57 10.01.2020
4850 Snow -2 981 93 0 9.25 227 17:38 10.01.2020
4851 Clouds -3 980 92 0 7.21 197 17:20 10.01.2020
4852 Clouds -3 980 92 0 7.21 197 16:55 10.01.2020
4853 Clouds -3 980 92 0 7.21 197 16:36 10.01.2020
4854 Clouds -3 980 92 0 7.21 197 16:18 10.01.2020
4855 Clouds -3 980 92 0 7.21 197 15:55 10.01.2020
4856 Clouds -3 980 92 0 7.21 197 15:36 10.01.2020
4857 Clouds -3 980 92 0 7.21 197 15:18 10.01.2020
4858 Clouds -3 980 92 0 7.21 197 14:42 10.01.2020
4859 Clouds -4 981 90 0 7.16 208 14:20 10.01.2020
4860 Clouds -4 981 90 0 7.16 208 13:58 10.01.2020
4861 Clouds -4 981 90 0 7.16 208 13:58 10.01.2020
4862 Clouds -4 981 90 0 7.16 208 13:40 10.01.2020
4863 Clouds -4 981 90 0 7.18 208 13:22 10.01.2020
4864 Clouds -4 981 90 0 7.18 208 12:57 10.01.2020
4865 Clouds -4 981 90 0 7.18 208 12:38 10.01.2020
4866 Clouds -4 981 90 0 7.18 208 12:18 10.01.2020
4867 Clouds -4 981 90 0 7.18 208 11:54 10.01.2020
4868 Clouds -4 981 90 0 7.18 208 11:36 10.01.2020
4869 Snow -3 982 93 0 7.44 226 11:18 10.01.2020
4870 Snow -3 982 93 0 7.44 226 10:42 10.01.2020
4871 Snow -3 982 93 0 7.44 226 10:24 10.01.2020
4872 Snow -3 982 93 0 7.44 226 09:56 10.01.2020
4873 Snow -3 982 93 0 7.44 226 09:37 10.01.2020
4874 Snow -3 982 93 0 7.44 226 09:19 10.01.2020
4875 Snow -3 982 93 0 7.44 226 08:41 10.01.2020
4876 Snow -3 982 94 0 6.81 225 08:23 10.01.2020
4877 Snow -2 982 91 0 8.97 244 07:44 10.01.2020
4878 Snow -2 982 91 0 8.97 244 07:26 10.01.2020
4879 Snow -2 982 91 0 8.97 244 06:46 10.01.2020
4880 Snow -2 982 91 0 8.97 244 06:26 10.01.2020
4881 Snow -2 982 91 0 8.97 244 05:48 10.01.2020
4882 Snow -2 979 96 0 4.53 282 03:37 10.01.2020
4883 Snow -2 979 96 0 4.53 282 03:18 10.01.2020
4884 Snow -2 979 96 0 4.53 282 02:47 10.01.2020
4885 Snow 0 977 97 0 6.98 268 01:38 10.01.2020
4886 Snow 0 977 97 0 6.78 272 01:19 10.01.2020
4887 Snow 0 977 97 0 6.78 272 00:39 10.01.2020
4888 Snow 0 977 97 0 6.78 272 23:58 09.01.2020
4889 Snow 0 977 97 0 6.78 272 23:38 09.01.2020
4890 Snow 0 976 98 0 7.06 251 23:20 09.01.2020
4891 Snow 0 976 98 0 7.06 251 22:57 09.01.2020
4892 Snow 0 976 98 0 7.06 251 22:39 09.01.2020
4893 Snow 0 976 98 0 7.06 251 22:19 09.01.2020
4894 Snow 0 976 98 0 7.06 251 21:57 09.01.2020
4895 Snow 0 976 98 0 7.06 251 21:37 09.01.2020
4896 Snow 0 976 98 0 7.06 251 21:37 09.01.2020
4897 Snow 0 976 98 0 7.06 251 21:19 09.01.2020
4898 Snow 0 976 98 0 7.06 251 20:57 09.01.2020
4899 Snow 0 976 98 0 7.06 251 20:39 09.01.2020
4900 Snow 0 976 97 0 10.14 234 20:19 09.01.2020
4901 Snow 0 976 97 0 10.14 234 20:19 09.01.2020
4902 Snow 0 976 97 0 10.14 234 19:56 09.01.2020
4903 Snow 0 976 97 0 10.14 234 19:37 09.01.2020
4904 Snow 0 976 97 0 10.14 234 19:19 09.01.2020
4905 Snow 0 976 97 0 10.14 234 18:55 09.01.2020
4906 Snow 0 976 97 0 10.14 234 18:36 09.01.2020
4907 Snow 0 976 97 0 10.14 234 18:18 09.01.2020
4908 Snow 0 976 97 0 10.14 234 17:41 09.01.2020
4909 Snow 0 975 96 0 13.36 226 17:18 09.01.2020
4910 Snow 0 975 96 0 13.36 226 16:49 09.01.2020
4911 Snow 0 975 96 0 13.36 226 16:24 09.01.2020
4912 Snow 0 975 96 0 13.36 226 15:59 09.01.2020
4913 Snow 0 975 96 0 13.36 226 15:40 09.01.2020
4914 Snow 0 975 96 0 13.36 226 15:19 09.01.2020
4915 Snow 0 975 96 0 13.36 226 14:42 09.01.2020
4916 Snow 0 976 96 0 12.84 214 14:22 09.01.2020
4917 Snow 0 976 96 0 12.84 214 13:57 09.01.2020
4918 Snow 0 976 96 0 12.84 214 13:39 09.01.2020
4919 Snow 0 976 96 0 12.84 214 13:20 09.01.2020
4920 Snow 0 976 96 0 13.01 211 12:58 09.01.2020
4921 Snow 0 976 96 0 13.01 211 12:58 09.01.2020
4922 Snow 0 976 96 0 13.01 211 12:39 09.01.2020
4923 Snow 0 976 96 0 13.01 211 12:19 09.01.2020
4924 Snow 0 976 96 0 13.01 211 11:56 09.01.2020
4925 Snow 0 976 96 0 13.01 211 11:37 09.01.2020
4926 Snow -1 978 91 0 12.8 205 11:19 09.01.2020
4927 Snow -1 978 91 0 12.8 205 10:43 09.01.2020
4928 Snow -1 978 91 0 12.8 205 10:22 09.01.2020
4929 Snow -1 978 91 0 12.8 205 09:55 09.01.2020
4930 Snow -1 978 91 0 12.8 205 09:37 09.01.2020
4931 Snow -1 978 91 0 12.8 205 09:18 09.01.2020
4932 Snow -1 978 91 0 12.8 205 08:54 09.01.2020
4933 Snow -1 978 91 0 12.8 205 08:36 09.01.2020
4934 Snow -5 982 86 0 11.85 197 08:18 09.01.2020
4935 Snow -5 982 86 0 11.85 197 07:41 09.01.2020
4936 Snow -5 982 86 0 11.85 197 07:23 09.01.2020
4937 Snow -5 982 86 0 11.85 197 06:38 09.01.2020
4938 Snow -5 982 86 0 11.85 197 06:18 09.01.2020
4939 Snow -5 982 86 0 11.85 197 05:43 09.01.2020
4940 Snow -6 986 89 0 11.48 198 04:42 09.01.2020
4941 Snow -6 986 89 0 11.48 198 03:30 09.01.2020
4942 Snow -6 986 89 0 11.48 198 02:48 09.01.2020
4943 Snow -6 986 89 0 11.48 198 02:23 09.01.2020
4944 Snow -7 990 90 0 10.71 183 01:35 09.01.2020
4945 Snow -7 990 90 0 10.84 184 00:40 09.01.2020
4946 Snow -7 990 90 0 10.84 184 00:20 09.01.2020
4947 Snow -7 990 90 0 10.84 184 23:41 08.01.2020
4948 Snow -7 990 90 0 10.84 184 23:23 08.01.2020
4949 Snow -9 996 87 0 9.6 175 22:58 08.01.2020
4950 Snow -9 996 87 0 9.6 175 22:38 08.01.2020
4951 Snow -9 996 87 0 9.6 175 22:20 08.01.2020
4952 Snow -9 996 87 0 9.6 175 21:56 08.01.2020
4953 Snow -9 996 87 0 9.6 175 21:56 08.01.2020
4954 Snow -9 996 87 0 9.6 175 21:37 08.01.2020
4955 Snow -9 996 87 0 9.6 175 21:18 08.01.2020
4956 Snow -9 996 87 0 9.6 175 20:56 08.01.2020
4957 Snow -9 996 87 0 9.6 175 20:37 08.01.2020
4958 Clouds -13 1002 95 0 8.12 177 20:19 08.01.2020
4959 Clouds -13 1002 95 0 8.12 177 19:39 08.01.2020
4960 Clouds -13 1002 95 0 8.12 177 19:21 08.01.2020
4961 Clouds -13 1002 95 0 8.12 177 18:59 08.01.2020
4962 Clouds -13 1002 95 0 8.12 177 18:40 08.01.2020
4963 Clouds -13 1002 95 0 8.12 177 18:19 08.01.2020
4964 Clouds -13 1002 95 0 8.12 177 17:59 08.01.2020
4965 Clouds -13 1002 95 0 8.12 177 17:40 08.01.2020
4966 Clouds -13 1006 95 0 6.87 170 17:22 08.01.2020
4967 Clouds -13 1006 95 0 6.87 170 16:57 08.01.2020
4968 Clouds -13 1006 95 0 6.87 170 16:38 08.01.2020
4969 Clouds -13 1006 95 0 6.87 170 16:19 08.01.2020
4970 Clouds -13 1006 95 0 6.87 170 15:55 08.01.2020
4971 Clouds -13 1006 95 0 6.87 170 15:37 08.01.2020
4972 Clouds -13 1006 95 0 6.87 170 15:18 08.01.2020
4973 Clouds -13 1006 95 0 6.87 170 14:41 08.01.2020
4974 Clouds -13 1009 95 0 6.52 187 14:21 08.01.2020
4975 Clouds -13 1009 95 0 6.52 187 13:42 08.01.2020
4976 Clouds -13 1009 95 0 6.44 187 13:24 08.01.2020
4977 Clouds -13 1009 95 0 6.44 187 12:59 08.01.2020
4978 Clouds -13 1009 95 0 6.44 187 12:40 08.01.2020
4979 Clouds -13 1009 95 0 6.44 187 12:18 08.01.2020
4980 Clouds -13 1009 95 0 6.44 187 11:48 08.01.2020
4981 Clouds -13 1011 96 0 6.66 203 11:20 08.01.2020
4982 Clouds -13 1011 96 0 6.66 203 10:59 08.01.2020
4983 Clouds -13 1011 96 0 6.66 203 10:41 08.01.2020
4984 Clouds -13 1011 96 0 6.66 203 10:21 08.01.2020
4985 Clouds -13 1011 96 0 6.66 203 09:57 08.01.2020
4986 Clouds -13 1011 96 0 6.66 203 09:36 08.01.2020
4987 Clouds -13 1011 96 0 6.66 203 09:18 08.01.2020
4988 Clouds -13 1011 96 0 6.66 203 08:41 08.01.2020
4989 Clouds -13 1011 96 0 6.62 199 08:22 08.01.2020
4990 Clouds -12 1012 95 0 6.66 214 07:59 08.01.2020
4991 Clouds -12 1012 95 0 6.66 214 07:40 08.01.2020
4992 Clouds -12 1012 95 0 6.66 214 07:19 08.01.2020
4993 Clouds -12 1012 95 0 6.66 214 06:42 08.01.2020
4994 Clouds -12 1012 95 0 6.66 214 05:56 08.01.2020
4995 Clouds -12 1012 95 0 6.66 214 05:27 08.01.2020
4996 Snow -10 1013 94 0 5.9 215 04:37 08.01.2020
4997 Snow -10 1013 94 0 5.9 215 02:47 08.01.2020
4998 Snow -10 1013 94 0 5.9 215 02:28 08.01.2020
4999 Clouds -10 1014 95 0 3.07 215 01:58 08.01.2020
5000 Clouds -10 1014 94 0 2.99 220 01:32 08.01.2020
5001 Clouds -10 1014 94 0 2.99 220 00:51 08.01.2020
5002 Clouds -10 1014 94 0 2.99 220 00:23 08.01.2020
5003 Clouds -10 1014 94 0 2.99 220 23:46 07.01.2020
5004 Clouds -11 1013 91 0 3.13 222 23:21 07.01.2020
5005 Clouds -11 1013 91 0 3.13 222 22:56 07.01.2020
5006 Clouds -11 1013 91 0 3.13 222 22:37 07.01.2020
5007 Clouds -11 1013 91 0 3.13 222 22:18 07.01.2020
5008 Clouds -11 1013 91 0 3.13 222 21:42 07.01.2020
5009 Clouds -11 1013 91 0 3.13 222 21:22 07.01.2020
5010 Clouds -11 1013 91 0 3.13 222 20:58 07.01.2020
5011 Clouds -11 1013 91 0 3.13 222 20:40 07.01.2020
5012 Clouds -7 1013 87 0 2.73 256 20:21 07.01.2020
5013 Clouds -7 1013 87 0 2.73 256 19:57 07.01.2020
5014 Clouds -7 1013 87 0 2.73 256 19:37 07.01.2020
5015 Clouds -7 1013 87 0 2.73 256 19:19 07.01.2020
5016 Clouds -7 1013 87 0 2.73 256 18:56 07.01.2020
5017 Clouds -7 1013 87 0 2.73 256 18:38 07.01.2020
5018 Clouds -7 1013 87 0 2.73 256 18:18 07.01.2020
5019 Clouds -7 1013 87 0 2.73 256 17:54 07.01.2020
5020 Clouds -7 1013 87 0 2.73 256 17:36 07.01.2020
5021 Clouds -6 1011 80 0 2.22 324 17:18 07.01.2020
5022 Clouds -6 1011 80 0 2.22 324 16:54 07.01.2020
5023 Clouds -6 1011 80 0 2.22 324 16:36 07.01.2020
5024 Clouds -6 1011 80 0 2.22 324 16:18 07.01.2020
5025 Clouds -6 1011 80 0 2.22 324 15:42 07.01.2020
5026 Clouds -6 1011 80 0 2.22 324 15:23 07.01.2020
5027 Clouds -6 1011 80 0 2.22 324 14:58 07.01.2020
5028 Clouds -6 1011 80 0 2.22 324 14:38 07.01.2020
5029 Clouds -6 1009 85 0 3.89 305 14:19 07.01.2020
5030 Clouds -6 1009 85 0 3.89 305 13:44 07.01.2020
5031 Clouds -6 1009 86 0 3.56 306 13:20 07.01.2020
5032 Clouds -6 1009 86 0 3.56 306 12:55 07.01.2020
5033 Clouds -6 1009 86 0 3.56 306 12:36 07.01.2020
5034 Clouds -6 1009 86 0 3.56 306 12:18 07.01.2020
5035 Clouds -6 1009 86 0 3.56 306 11:41 07.01.2020
5036 Clouds -6 1006 84 0 5.93 297 11:22 07.01.2020
5037 Clouds -6 1006 84 0 5.93 297 10:55 07.01.2020
5038 Clouds -6 1006 84 0 5.93 297 10:37 07.01.2020
5039 Clouds -6 1006 84 0 5.93 297 10:19 07.01.2020
5040 Clouds -6 1006 84 0 5.93 297 09:38 07.01.2020
5041 Clouds -6 1006 84 0 5.93 297 09:20 07.01.2020
5042 Clouds -6 1006 84 0 5.93 297 08:47 07.01.2020
5043 Clear -6 1007 83 0 5.91 291 08:29 07.01.2020
5044 Clouds -5 1004 79 0 7.09 296 07:55 07.01.2020
5045 Clouds -5 1004 79 0 7.09 296 07:35 07.01.2020
5046 Clouds -5 1004 79 0 7.09 296 06:54 07.01.2020
5047 Clouds -5 1004 79 0 7.09 296 06:35 07.01.2020
5048 Clouds -5 1004 79 0 7.09 296 05:59 07.01.2020
5049 Clouds -5 1004 79 0 7.09 296 05:40 07.01.2020
5050 Clouds -5 1002 77 0 8.38 290 03:45 07.01.2020
5051 Clouds -5 1002 77 0 8.38 290 02:47 07.01.2020
5052 Clouds -5 999 77 0 8.8 290 01:59 07.01.2020
5053 Clouds -5 999 77 0 8.8 290 01:36 07.01.2020
5054 Clouds -5 999 75 0 9.12 290 00:55 07.01.2020
5055 Clouds -5 999 75 0 9.12 290 00:20 07.01.2020
5056 Clouds -5 999 75 0 9.12 290 23:56 06.01.2020
5057 Clouds -5 999 75 0 9.12 290 23:37 06.01.2020
5058 Clouds -5 997 74 0 10.59 285 23:19 06.01.2020
5059 Clouds -5 997 74 0 10.59 285 22:43 06.01.2020
5060 Clouds -5 997 74 0 10.59 285 22:24 06.01.2020
5061 Clouds -5 997 74 0 10.59 285 22:24 06.01.2020
5062 Clouds -5 997 74 0 10.59 285 21:58 06.01.2020
5063 Clouds -5 997 74 0 10.59 285 21:39 06.01.2020
5064 Clouds -5 997 74 0 10.59 285 21:20 06.01.2020
5065 Clouds -5 997 74 0 10.59 285 21:20 06.01.2020
5066 Clouds -5 997 74 0 10.59 285 21:20 06.01.2020
5067 Clouds -5 997 74 0 10.59 285 20:57 06.01.2020
5068 Clouds -5 997 74 0 10.59 285 20:38 06.01.2020
5069 Clouds -5 995 75 0 10.84 281 20:20 06.01.2020
5070 Clouds -5 995 75 0 10.84 281 19:56 06.01.2020
5071 Clouds -5 995 75 0 10.84 281 19:38 06.01.2020
5072 Clouds -5 995 75 0 10.84 281 19:20 06.01.2020
5073 Clouds -5 995 75 0 10.84 281 18:48 06.01.2020
5074 Clouds -5 995 75 0 10.84 281 18:23 06.01.2020
5075 Clouds -5 995 75 0 10.84 281 17:59 06.01.2020
5076 Clouds -5 995 75 0 10.84 281 17:38 06.01.2020
5077 Clouds -5 994 75 0 10.66 277 17:18 06.01.2020
5078 Clouds -5 994 75 0 10.66 277 16:44 06.01.2020
5079 Clouds -5 994 75 0 10.66 277 16:25 06.01.2020
5080 Clouds -5 994 75 0 10.66 277 16:25 06.01.2020
5081 Clouds -5 994 75 0 10.66 277 15:59 06.01.2020
5082 Clouds -5 994 75 0 10.66 277 15:39 06.01.2020
5083 Clouds -5 994 75 0 10.66 277 15:19 06.01.2020
5084 Clouds -5 994 75 0 10.66 277 14:58 06.01.2020
5085 Clouds -5 994 75 0 10.66 277 14:39 06.01.2020
5086 Clouds -5 991 75 0 10.84 273 14:19 06.01.2020
5087 Clouds -5 991 75 0 10.84 273 13:54 06.01.2020
5088 Clouds -5 991 75 0 10.84 273 13:36 06.01.2020
5089 Clouds -5 991 75 0 10.84 273 13:18 06.01.2020
5090 Clouds -5 991 72 0 11.35 274 12:41 06.01.2020
5091 Clouds -5 991 72 0 11.35 274 12:20 06.01.2020
5092 Clouds -5 991 72 0 11.35 274 11:57 06.01.2020
5093 Clouds -5 991 72 0 11.35 274 11:38 06.01.2020
5094 Clouds -5 991 72 0 11.35 274 11:38 06.01.2020
5095 Clouds -5 989 72 0 10.82 270 11:20 06.01.2020
5096 Clouds -5 989 72 0 10.82 270 10:43 06.01.2020
5097 Clouds -5 989 72 0 10.82 270 10:25 06.01.2020
5098 Clouds -5 989 72 0 10.82 270 09:57 06.01.2020
5099 Clouds -5 989 72 0 10.82 270 09:37 06.01.2020
5100 Clouds -5 989 72 0 10.82 270 09:19 06.01.2020
5101 Clouds -5 989 72 0 10.82 270 08:42 06.01.2020
5102 Clouds -6 990 69 0 11.52 277 08:23 06.01.2020
5103 Clouds -5 988 68 0 11.1 273 07:48 06.01.2020
5104 Clouds -5 988 68 0 11.1 273 07:23 06.01.2020
5105 Clouds -5 988 68 0 11.1 273 06:44 06.01.2020
5106 Clouds -5 988 68 0 11.1 273 05:52 06.01.2020
5107 Clouds -5 988 68 0 11.1 273 05:33 06.01.2020
5108 Snow -5 986 73 0 9.84 268 04:26 06.01.2020
5109 Snow -5 986 73 0 9.84 268 03:58 06.01.2020
5110 Snow -5 986 73 0 9.84 268 02:40 06.01.2020
5111 Snow -5 985 93 0 9.23 261 02:20 06.01.2020
5112 Snow -5 985 93 0 9.23 261 01:41 06.01.2020
5113 Snow -5 985 85 0 9.49 277 01:20 06.01.2020
5114 Snow -5 985 85 0 9.49 277 00:40 06.01.2020
5115 Snow -5 985 85 0 9.49 277 00:19 06.01.2020
5116 Snow -5 985 85 0 9.49 277 00:19 06.01.2020
5117 Snow -5 985 85 0 9.49 277 23:41 05.01.2020
5118 Snow -4 983 80 0 10.92 248 23:21 05.01.2020
5119 Snow -4 983 80 0 10.92 248 22:55 05.01.2020
5120 Snow -4 983 80 0 10.92 248 22:37 05.01.2020
5121 Snow -4 983 80 0 10.92 248 22:18 05.01.2020
5122 Snow -4 983 80 0 10.92 248 21:41 05.01.2020
5123 Snow -4 983 80 0 10.92 248 21:21 05.01.2020
5124 Snow -4 983 80 0 10.92 248 20:59 05.01.2020
5125 Snow -4 983 80 0 10.92 248 20:39 05.01.2020
5126 Snow -4 981 80 0 8.56 264 20:20 05.01.2020
5127 Snow -4 981 80 0 8.56 264 20:20 05.01.2020
5128 Snow -5 982 79 0 7.25 258 19:59 05.01.2020
5129 Snow -5 982 79 0 7.25 258 19:41 05.01.2020
5130 Snow -5 982 79 0 7.25 258 19:21 05.01.2020
5131 Snow -5 982 79 0 7.25 258 18:56 05.01.2020
5132 Snow -5 982 79 0 7.25 258 18:38 05.01.2020
5133 Snow -5 982 79 0 7.25 258 18:19 05.01.2020
5134 Snow -5 982 79 0 7.25 258 17:59 05.01.2020
5135 Snow -5 982 79 0 7.25 258 17:39 05.01.2020
5136 Snow -4 980 93 0 11.98 257 17:20 05.01.2020
5137 Snow -4 980 93 0 11.98 257 16:57 05.01.2020
5138 Snow -4 980 93 0 11.98 257 16:39 05.01.2020
5139 Snow -4 980 93 0 11.98 257 16:20 05.01.2020
5140 Snow -4 980 93 0 11.98 257 15:40 05.01.2020
5141 Snow -4 980 93 0 11.98 257 15:22 05.01.2020
5142 Snow -4 980 93 0 11.98 257 14:57 05.01.2020
5143 Snow -4 980 93 0 11.98 257 14:39 05.01.2020
5144 Snow -5 977 89 0 9.56 252 14:20 05.01.2020
5145 Snow -5 977 89 0 9.56 252 13:57 05.01.2020
5146 Snow -5 977 89 0 9.56 252 13:38 05.01.2020
5147 Snow -5 977 93 0 9.15 250 13:20 05.01.2020
5148 Snow -5 977 93 0 9.15 250 13:20 05.01.2020
5149 Snow -5 977 93 0 9.15 250 12:56 05.01.2020
5150 Snow -5 977 93 0 9.15 250 12:37 05.01.2020
5151 Snow -5 977 93 0 9.15 250 12:19 05.01.2020
5152 Snow -5 977 93 0 9.15 250 12:19 05.01.2020
5153 Snow -5 977 93 0 9.15 250 11:54 05.01.2020
5154 Snow -5 977 93 0 9.15 250 11:36 05.01.2020
5155 Snow -4 973 93 0 8.2 271 11:18 05.01.2020
5156 Snow -4 973 93 0 8.2 271 10:40 05.01.2020
5157 Snow -4 973 93 0 8.2 271 10:20 05.01.2020
5158 Snow -4 973 93 0 8.2 271 09:42 05.01.2020
5159 Snow -4 973 93 0 8.2 271 09:22 05.01.2020
5160 Snow -4 973 93 0 8.2 271 08:54 05.01.2020
5161 Snow -4 973 93 0 8.2 271 08:35 05.01.2020
5162 Clouds -6 968 88 0 10.79 266 07:59 05.01.2020
5163 Clouds -6 968 88 0 10.79 266 07:39 05.01.2020
5164 Clouds -6 968 88 0 10.79 266 07:21 05.01.2020
5165 Clouds -6 968 88 0 10.79 266 06:47 05.01.2020
5166 Clouds -6 968 88 0 10.79 266 05:39 05.01.2020
5167 Snow -3 965 90 0 12.74 230 04:56 05.01.2020
5168 Snow -3 965 90 0 12.74 230 04:18 05.01.2020
5169 Snow -3 965 90 0 12.74 230 03:27 05.01.2020
5170 Snow -3 965 90 0 12.74 230 02:32 05.01.2020
5171 Snow -3 965 92 0 14.45 204 01:49 05.01.2020
5172 Snow -3 965 92 0 14.45 204 01:20 05.01.2020
5173 Snow -4 966 92 0 13.93 207 00:57 05.01.2020
5174 Snow -4 966 92 0 13.93 207 00:57 05.01.2020
5175 Snow -4 966 92 0 13.93 207 00:39 05.01.2020
5176 Snow -4 966 92 0 13.93 207 00:19 05.01.2020
5177 Snow -4 966 92 0 13.93 207 23:41 04.01.2020
5178 Clouds -5 968 88 0 11.99 198 23:20 04.01.2020
5179 Clouds -5 968 88 0 11.99 198 22:56 04.01.2020
5180 Clouds -5 968 88 0 11.99 198 22:38 04.01.2020
5181 Clouds -5 968 88 0 11.99 198 22:20 04.01.2020
5182 Clouds -5 968 88 0 11.99 198 21:55 04.01.2020
5183 Clouds -5 968 88 0 11.99 198 21:36 04.01.2020
5184 Clouds -5 968 88 0 11.99 198 21:18 04.01.2020
5185 Clouds -5 968 88 0 11.99 198 20:41 04.01.2020
5186 Clouds -5 970 86 0 13.26 202 20:22 04.01.2020
5187 Clouds -4 970 84 0 9.49 207 19:57 04.01.2020
5188 Clouds -4 970 84 0 9.49 207 19:39 04.01.2020
5189 Clouds -4 970 84 0 9.49 207 19:21 04.01.2020
5190 Clouds -4 970 84 0 9.49 207 18:57 04.01.2020
5191 Clouds -4 970 84 0 9.49 207 18:38 04.01.2020
5192 Clouds -4 970 84 0 9.49 207 18:19 04.01.2020
5193 Clouds -4 970 84 0 9.49 207 17:42 04.01.2020
5194 Clouds -4 970 84 0 9.49 207 17:42 04.01.2020
5195 Clouds -4 970 84 0 9.49 207 17:24 04.01.2020
5196 Clouds -1 969 87 0 8.38 220 16:59 04.01.2020
5197 Clouds -1 969 87 0 8.38 220 16:40 04.01.2020
5198 Clouds -1 969 87 0 8.38 220 16:22 04.01.2020
5199 Clouds -1 969 87 0 8.38 220 16:22 04.01.2020
5200 Clouds -1 969 87 0 8.38 220 15:56 04.01.2020
5201 Clouds -1 969 87 0 8.38 220 15:38 04.01.2020
5202 Clouds -1 969 87 0 8.38 220 15:19 04.01.2020
5203 Clouds -1 969 87 0 8.38 220 14:54 04.01.2020
5204 Clouds -1 969 87 0 8.38 220 14:36 04.01.2020
5205 Snow 0 968 97 0 8.54 217 14:18 04.01.2020
5206 Snow 0 968 97 0 8.54 217 13:39 04.01.2020
5207 Snow 0 968 97 0 8.54 217 13:39 04.01.2020
5208 Snow 0 968 97 0 8.5 217 13:20 04.01.2020
5209 Snow 0 968 97 0 8.5 217 12:59 04.01.2020
5210 Snow 0 968 97 0 8.5 217 12:40 04.01.2020
5211 Snow 0 968 97 0 8.5 217 12:40 04.01.2020
5212 Snow 0 968 97 0 8.5 217 12:19 04.01.2020
5213 Snow 0 968 97 0 8.5 217 11:57 04.01.2020
5214 Snow 0 968 97 0 8.5 217 11:38 04.01.2020
5215 Snow 0 968 98 0 8.68 195 11:18 04.01.2020
5216 Snow 0 968 98 0 8.68 195 10:41 04.01.2020
5217 Snow 0 968 98 0 8.68 195 10:22 04.01.2020
5218 Snow 0 968 98 0 8.68 195 09:50 04.01.2020
5219 Snow 0 968 98 0 8.68 195 09:26 04.01.2020
5220 Snow 0 968 98 0 8.68 195 09:26 04.01.2020
5221 Snow 0 968 98 0 8.68 195 08:57 04.01.2020
5222 Snow 0 968 98 0 8.68 195 08:37 04.01.2020
5223 Snow -4 970 93 0 9.02 159 08:19 04.01.2020
5224 Snow -3 970 92 0 9.54 170 07:42 04.01.2020
5225 Snow -3 970 92 0 9.54 170 06:49 04.01.2020
5226 Snow -3 970 92 0 9.54 170 05:59 04.01.2020
5227 Snow -8 973 94 0 8.36 143 05:18 04.01.2020
5228 Snow -8 973 94 0 8.36 143 04:33 04.01.2020
5229 Snow -8 973 94 0 8.36 143 03:39 04.01.2020
5230 Snow -8 973 94 0 8.36 143 03:18 04.01.2020
5231 Snow -10 976 96 0 8.46 132 02:21 04.01.2020
5232 Snow -10 976 96 0 8.46 132 01:53 04.01.2020
5233 Snow -10 976 96 0 8.46 132 01:30 04.01.2020
5234 Clouds -11 977 96 0 8.47 128 00:30 04.01.2020
5235 Clouds -11 977 96 0 8.47 128 23:59 03.01.2020
5236 Clouds -11 977 96 0 8.47 128 23:38 03.01.2020
5237 Clouds -12 979 96 0 6.53 136 23:20 03.01.2020
5238 Clouds -12 979 96 0 6.53 136 22:41 03.01.2020
5239 Clouds -12 979 96 0 6.53 136 22:20 03.01.2020
5240 Clouds -12 979 96 0 6.53 136 21:58 03.01.2020
5241 Clouds -12 979 96 0 6.53 136 21:38 03.01.2020
5242 Clouds -12 979 96 0 6.53 136 21:19 03.01.2020
5243 Clouds -12 979 96 0 6.53 136 20:57 03.01.2020
5244 Clouds -12 979 96 0 6.53 136 20:39 03.01.2020
5245 Clouds -12 980 92 0 6.73 142 20:18 03.01.2020
5246 Clouds -12 980 92 0 6.73 142 19:55 03.01.2020
5247 Clouds -12 980 92 0 6.73 142 19:37 03.01.2020
5248 Clouds -12 980 92 0 6.73 142 19:18 03.01.2020
5249 Clouds -12 980 92 0 6.73 142 18:41 03.01.2020
5250 Clouds -12 980 92 0 6.73 142 18:23 03.01.2020
5251 Clouds -12 980 92 0 6.73 142 17:55 03.01.2020
5252 Clouds -12 980 92 0 6.73 142 17:36 03.01.2020
5253 Clouds -12 982 89 0 6.61 149 17:18 03.01.2020
5254 Clouds -12 982 89 0 6.61 149 16:42 03.01.2020
5255 Clouds -12 982 89 0 6.61 149 16:22 03.01.2020
5256 Clouds -12 982 89 0 6.61 149 16:22 03.01.2020
5257 Clouds -12 982 89 0 6.61 149 15:43 03.01.2020
5258 Clouds -12 982 89 0 6.61 149 15:19 03.01.2020
5259 Clouds -12 982 89 0 6.61 149 14:57 03.01.2020
5260 Clouds -12 982 89 0 6.61 149 14:37 03.01.2020
5261 Clouds -11 984 88 0 6.52 144 14:19 03.01.2020
5262 Clouds -11 984 88 0 6.52 144 13:43 03.01.2020
5263 Clouds -11 983 88 0 6.32 142 13:23 03.01.2020
5264 Clouds -11 983 88 0 6.32 142 12:57 03.01.2020
5265 Clouds -11 983 88 0 6.32 142 12:38 03.01.2020
5266 Clouds -11 983 88 0 6.32 142 12:20 03.01.2020
5267 Clouds -11 983 88 0 6.32 142 11:44 03.01.2020
5268 Clouds -11 985 83 0 6.14 178 11:19 03.01.2020
5269 Clouds -11 985 83 0 6.14 178 10:44 03.01.2020
5270 Clouds -11 985 83 0 6.14 178 10:25 03.01.2020
5271 Clouds -11 985 83 0 6.14 178 09:57 03.01.2020
5272 Clouds -11 985 83 0 6.14 178 09:39 03.01.2020
5273 Clouds -11 985 83 0 6.14 178 09:21 03.01.2020
5274 Clouds -11 985 83 0 6.14 178 08:56 03.01.2020
5275 Clouds -11 985 83 0 6.14 178 08:36 03.01.2020
5276 Clear -14 986 97 0 6.62 189 08:18 03.01.2020
5277 Clear -14 986 97 0 6.62 189 07:39 03.01.2020
5278 Clear -14 986 97 0 6.62 189 07:18 03.01.2020
5279 Clear -14 986 97 0 6.62 189 06:47 03.01.2020
5280 Clear -14 986 97 0 6.62 189 06:28 03.01.2020
5281 Clear -14 986 97 0 6.62 189 05:28 03.01.2020
5282 Clear -13 988 94 0 8.19 202 04:18 03.01.2020
5283 Clear -13 988 94 0 8.19 202 02:56 03.01.2020
5284 Clear -13 988 94 0 8.19 202 02:26 03.01.2020
5285 Clouds -12 990 96 0 8.78 212 01:39 03.01.2020
5286 Clouds -12 990 94 0 9.02 213 00:49 03.01.2020
5287 Clouds -12 990 94 0 9.02 213 00:29 03.01.2020
5288 Clouds -12 990 94 0 9.02 213 23:55 02.01.2020
5289 Clouds -12 990 94 0 9.02 213 23:37 02.01.2020
5290 Snow -10 990 95 0 9.93 221 23:18 02.01.2020
5291 Snow -10 990 95 0 9.93 221 22:44 02.01.2020
5292 Snow -10 990 95 0 9.93 221 22:20 02.01.2020
5293 Snow -10 990 95 0 9.93 221 21:57 02.01.2020
5294 Snow -10 990 95 0 9.93 221 21:38 02.01.2020
5295 Snow -10 990 95 0 9.93 221 21:38 02.01.2020
5296 Snow -10 990 95 0 9.93 221 21:20 02.01.2020
5297 Snow -10 990 95 0 9.93 221 20:57 02.01.2020
5298 Snow -10 990 95 0 9.93 221 20:38 02.01.2020
5299 Snow -6 990 92 0 6.52 236 20:20 02.01.2020
5300 Snow -6 990 92 0 6.52 236 20:20 02.01.2020
5301 Snow -6 990 92 0 6.52 236 19:55 02.01.2020
5302 Snow -6 990 92 0 6.52 236 19:36 02.01.2020
5303 Snow -6 990 92 0 6.52 236 19:18 02.01.2020
5304 Snow -6 990 92 0 6.52 236 18:54 02.01.2020
5305 Snow -6 990 92 0 6.52 236 18:36 02.01.2020
5306 Snow -6 990 92 0 6.52 236 18:18 02.01.2020
5307 Snow -6 990 92 0 6.52 236 17:55 02.01.2020
5308 Snow -6 990 92 0 6.52 236 17:36 02.01.2020
5309 Clouds -6 989 86 0 6.38 257 17:18 02.01.2020
5310 Clouds -6 989 86 0 6.38 257 16:42 02.01.2020
5311 Clouds -6 989 86 0 6.38 257 16:42 02.01.2020
5312 Clouds -6 989 86 0 6.38 257 16:21 02.01.2020
5313 Clouds -6 989 86 0 6.38 257 15:59 02.01.2020
5314 Clouds -6 989 86 0 6.38 257 15:40 02.01.2020
5315 Clouds -6 989 86 0 6.38 257 15:40 02.01.2020
5316 Clouds -6 989 86 0 6.38 257 15:22 02.01.2020
5317 Clouds -6 989 86 0 6.38 257 14:57 02.01.2020
5318 Clouds -6 989 86 0 6.38 257 14:37 02.01.2020
5319 Clouds -6 988 81 0 6.78 265 14:18 02.01.2020
5320 Clouds -6 988 81 0 6.78 265 13:51 02.01.2020
5321 Snow -6 988 91 0 6.4 262 13:32 02.01.2020
5322 Snow -6 988 91 0 6.4 262 12:47 02.01.2020
5323 Snow -6 988 91 0 6.4 262 12:28 02.01.2020
5324 Snow -6 988 91 0 6.4 262 11:59 02.01.2020
5325 Snow -6 988 91 0 6.4 262 11:41 02.01.2020
5326 Clouds -6 987 76 0 7.1 256 11:20 02.01.2020
5327 Clouds -6 987 76 0 7.1 256 10:45 02.01.2020
5328 Clouds -6 987 76 0 7.1 256 10:26 02.01.2020
5329 Clouds -6 987 76 0 7.1 256 09:55 02.01.2020
5330 Clouds -6 987 76 0 7.1 256 09:34 02.01.2020
5331 Clouds -6 987 76 0 7.1 256 08:50 02.01.2020
5332 Clouds -6 987 73 0 7.22 262 08:28 02.01.2020
5333 Clouds -6 985 76 0 6.87 264 07:57 02.01.2020
5334 Clouds -6 985 76 0 6.87 264 07:31 02.01.2020
5335 Clouds -6 985 76 0 6.87 264 06:57 02.01.2020
5336 Clouds -6 985 76 0 6.87 264 06:57 02.01.2020
5337 Clouds -6 985 76 0 6.87 264 06:57 02.01.2020
5338 Clouds -6 985 76 0 6.87 264 06:57 02.01.2020
5339 Clouds -6 985 76 0 6.87 264 06:39 02.01.2020
5340 Clouds -6 985 76 0 6.87 264 05:37 02.01.2020
5341 Clouds -5 984 75 0 6.35 262 04:34 02.01.2020
5342 Clouds -5 984 75 0 6.35 262 03:19 02.01.2020
5343 Snow -5 983 77 0 6.73 255 02:20 02.01.2020
5344 Snow -5 983 77 0 6.73 255 01:47 02.01.2020
5345 Snow -6 983 78 0 6.13 257 01:19 02.01.2020
5346 Snow -6 983 78 0 6.13 257 00:36 02.01.2020
5347 Snow -6 983 78 0 6.13 257 00:18 02.01.2020
5348 Snow -6 983 78 0 6.13 257 23:40 01.01.2020
5349 Snow -5 982 81 0 6.03 253 23:20 01.01.2020
5350 Snow -5 982 81 0 6.03 253 22:38 01.01.2020
5351 Snow -5 982 81 0 6.03 253 22:20 01.01.2020
5352 Snow -5 982 81 0 6.03 253 21:57 01.01.2020
5353 Snow -5 982 81 0 6.03 253 21:38 01.01.2020
5354 Snow -5 982 81 0 6.03 253 21:38 01.01.2020
5355 Snow -5 982 81 0 6.03 253 21:19 01.01.2020
5356 Snow -5 982 81 0 6.03 253 20:56 01.01.2020
5357 Snow -5 982 81 0 6.03 253 20:56 01.01.2020
5358 Snow -5 982 81 0 6.03 253 20:38 01.01.2020
5359 Snow -5 982 81 0 6.03 253 20:38 01.01.2020
5360 Snow -7 981 92 0 8.7 243 20:19 01.01.2020
5361 Snow -7 981 92 0 8.7 243 20:19 01.01.2020
5362 Snow -7 981 92 0 8.7 243 19:55 01.01.2020
5363 Snow -7 981 92 0 8.7 243 19:55 01.01.2020
5364 Snow -7 981 92 0 8.7 243 19:55 01.01.2020
5365 Snow -7 981 92 0 8.7 243 19:37 01.01.2020
5366 Snow -7 981 92 0 8.7 243 19:19 01.01.2020
5367 Snow -7 981 92 0 8.7 243 18:55 01.01.2020
5368 Snow -7 981 92 0 8.7 243 18:36 01.01.2020
5369 Snow -7 981 92 0 8.7 243 18:18 01.01.2020
5370 Snow -7 981 92 0 8.7 243 17:56 01.01.2020
5371 Snow -7 981 92 0 8.7 243 17:38 01.01.2020
5372 Snow -7 981 93 0 7.74 238 17:18 01.01.2020
5373 Snow -7 981 93 0 7.74 238 16:41 01.01.2020
5374 Snow -7 981 93 0 7.74 238 16:22 01.01.2020
5375 Snow -7 981 93 0 7.74 238 15:58 01.01.2020
5376 Snow -7 981 93 0 7.74 238 15:40 01.01.2020
5377 Snow -7 981 93 0 7.74 238 15:21 01.01.2020
5378 Snow -7 981 93 0 7.74 238 14:59 01.01.2020
5379 Snow -7 981 93 0 7.74 238 14:40 01.01.2020
5380 Snow -7 980 90 0 5.94 255 14:21 01.01.2020
5381 Snow -7 980 90 0 5.94 255 13:56 01.01.2020
5382 Snow -7 980 90 0 5.94 255 13:37 01.01.2020
5383 Snow -7 980 90 0 5.94 255 13:37 01.01.2020
5384 Snow -7 980 90 0 5.94 255 13:37 01.01.2020
5385 Snow -7 980 90 0 5.94 255 13:37 01.01.2020
5386 Snow -7 980 89 0 6.6 249 13:18 01.01.2020
5387 Snow -7 980 89 0 6.6 249 12:56 01.01.2020
5388 Snow -7 980 89 0 6.6 249 12:56 01.01.2020
5389 Snow -7 980 89 0 6.6 249 12:38 01.01.2020
5390 Snow -7 980 89 0 6.6 249 12:18 01.01.2020
5391 Snow -7 980 89 0 6.6 249 11:43 01.01.2020
5392 Snow -7 980 89 0 6.6 249 11:23 01.01.2020
5393 Clouds -8 980 89 0 6.09 242 10:59 01.01.2020
5394 Clouds -8 980 89 0 6.09 242 10:41 01.01.2020
5395 Clouds -8 980 89 0 6.09 242 10:21 01.01.2020
5396 Clouds -8 980 89 0 6.09 242 09:57 01.01.2020
5397 Clouds -8 980 89 0 6.09 242 09:37 01.01.2020
5398 Clouds -8 980 89 0 6.09 242 09:18 01.01.2020
5399 Clouds -8 980 89 0 6.09 242 08:55 01.01.2020
5400 Clouds -8 980 89 0 6.09 242 08:36 01.01.2020
5401 Clouds -8 980 89 0 6.09 242 08:36 01.01.2020
5402 Clouds -8 978 78 0 6.54 259 08:18 01.01.2020
5403 Clouds -8 979 78 0 7.09 271 07:51 01.01.2020
5404 Clouds -8 979 78 0 7.09 271 07:32 01.01.2020
5405 Clouds -8 979 78 0 7.09 271 06:44 01.01.2020
5406 Clouds -8 979 78 0 7.09 271 06:20 01.01.2020
5407 Clouds -8 977 79 0 7.89 281 05:21 01.01.2020
5408 Clouds -8 977 79 0 7.89 281 03:43 01.01.2020
5409 Clouds -8 977 79 0 7.89 281 03:22 01.01.2020
5410 Clouds -8 977 79 0 7.89 281 02:57 01.01.2020
5411 Clouds -8 977 79 0 7.89 281 02:34 01.01.2020
5412 Clouds -8 976 80 0 7.35 278 01:55 01.01.2020
5413 Clouds -8 976 80 0 7.35 278 01:36 01.01.2020
5414 Clouds -8 976 80 0 7.78 279 01:18 01.01.2020
5415 Clouds -8 976 80 0 7.78 279 00:44 01.01.2020
5416 Clouds -8 976 80 0 7.78 279 00:24 01.01.2020
5417 Clouds -8 976 80 0 7.78 279 23:41 31.12.2019
5418 Clouds -7 973 82 0 7.77 277 23:21 31.12.2019
5419 Clouds -7 973 82 0 7.77 277 22:57 31.12.2019
5420 Clouds -7 973 82 0 7.77 277 22:38 31.12.2019
5421 Clouds -7 973 82 0 7.77 277 22:19 31.12.2019
5422 Clouds -7 973 82 0 7.77 277 21:57 31.12.2019
5423 Clouds -7 973 82 0 7.77 277 21:38 31.12.2019
5424 Clouds -7 973 82 0 7.77 277 21:20 31.12.2019
5425 Clouds -7 973 82 0 7.77 277 20:55 31.12.2019
5426 Clouds -7 973 82 0 7.77 277 20:36 31.12.2019
5427 Clouds -8 972 82 0 7.95 269 20:18 31.12.2019
5428 Clouds -8 972 82 0 7.95 269 19:42 31.12.2019
5429 Clouds -8 972 82 0 7.95 269 19:24 31.12.2019
5430 Clouds -8 972 82 0 7.95 269 18:59 31.12.2019
5431 Clouds -8 972 82 0 7.95 269 18:40 31.12.2019
5432 Clouds -8 972 82 0 7.95 269 18:20 31.12.2019
5433 Clouds -8 972 82 0 7.95 269 17:57 31.12.2019
5434 Clouds -8 972 82 0 7.95 269 17:38 31.12.2019
5435 Snow -5 970 85 0 7.21 250 17:19 31.12.2019
5436 Snow -5 970 85 0 7.21 250 16:57 31.12.2019
5437 Snow -5 970 85 0 7.21 250 16:38 31.12.2019
5438 Snow -5 970 85 0 7.21 250 16:19 31.12.2019
5439 Snow -5 970 85 0 7.21 250 15:56 31.12.2019
5440 Snow -5 970 85 0 7.21 250 15:38 31.12.2019
5441 Snow -5 970 85 0 7.21 250 15:20 31.12.2019
5442 Snow -5 970 85 0 7.21 250 14:58 31.12.2019
5443 Snow -5 970 85 0 7.21 250 14:38 31.12.2019
5444 Snow -6 968 91 0 10.63 228 14:19 31.12.2019
5445 Snow -6 968 91 0 10.63 228 13:57 31.12.2019
5446 Snow -6 968 91 0 10.63 228 13:39 31.12.2019
5447 Snow -6 969 92 0 10.56 224 13:21 31.12.2019
5448 Snow -6 969 92 0 10.56 224 13:21 31.12.2019
5449 Snow -6 969 92 0 10.56 224 12:58 31.12.2019
5450 Snow -6 969 92 0 10.56 224 12:39 31.12.2019
5451 Snow -6 969 92 0 10.56 224 12:20 31.12.2019
5452 Snow -6 969 92 0 10.56 224 11:56 31.12.2019
5453 Snow -6 969 92 0 10.56 224 11:38 31.12.2019
5454 Clouds -7 967 89 0 11.51 214 11:20 31.12.2019
5455 Clouds -7 967 89 0 11.51 214 10:57 31.12.2019
5456 Clouds -7 967 89 0 11.51 214 10:57 31.12.2019
5457 Clouds -7 967 89 0 11.51 214 10:38 31.12.2019
5458 Clouds -7 967 89 0 11.51 214 10:20 31.12.2019
5459 Clouds -7 967 89 0 11.51 214 09:58 31.12.2019
5460 Clouds -7 967 89 0 11.51 214 09:39 31.12.2019
5461 Clouds -7 967 89 0 11.51 214 09:20 31.12.2019
5462 Clouds -7 967 89 0 11.51 214 08:57 31.12.2019
5463 Clouds -7 967 89 0 11.51 214 08:37 31.12.2019
5464 Snow -7 968 88 0 12.12 216 08:19 31.12.2019
5465 Snow -7 968 88 0 12.12 216 07:42 31.12.2019
5466 Snow -7 968 88 0 12.12 216 07:20 31.12.2019
5467 Snow -7 968 88 0 12.12 216 06:49 31.12.2019
5468 Snow -7 968 88 0 12.12 216 05:57 31.12.2019
5469 Snow -8 969 89 0 11.48 214 04:28 31.12.2019
5470 Snow -8 969 89 0 11.48 214 03:27 31.12.2019
5471 Snow -8 969 89 0 11.48 214 02:54 31.12.2019
5472 Snow -8 969 89 0 11.48 214 02:54 31.12.2019
5473 Snow -8 969 89 0 11.48 214 02:54 31.12.2019
5474 Snow -8 971 91 0 11.64 215 01:58 31.12.2019
5475 Snow -8 971 91 0 11.64 215 01:40 31.12.2019
5476 Snow -8 971 91 0 11.64 215 01:22 31.12.2019
5477 Snow -8 971 91 0 11.54 214 00:45 31.12.2019
5478 Snow -8 971 91 0 11.54 214 00:22 31.12.2019
5479 Snow -8 971 91 0 11.54 214 23:56 30.12.2019
5480 Snow -8 971 91 0 11.54 214 23:38 30.12.2019
5481 Snow -7 973 91 0 11.77 214 23:19 30.12.2019
5482 Snow -7 973 91 0 11.77 214 22:57 30.12.2019
5483 Snow -7 973 91 0 11.77 214 22:57 30.12.2019
5484 Snow -7 973 91 0 11.77 214 22:37 30.12.2019
5485 Snow -7 973 91 0 11.77 214 22:19 30.12.2019
5486 Snow -7 973 91 0 11.77 214 21:56 30.12.2019
5487 Snow -7 973 91 0 11.77 214 21:38 30.12.2019
5488 Snow -7 973 91 0 11.77 214 21:18 30.12.2019
5489 Snow -7 973 91 0 11.77 214 20:56 30.12.2019
5490 Snow -7 973 91 0 11.77 214 20:56 30.12.2019
5491 Snow -7 973 91 0 11.77 214 20:38 30.12.2019
5492 Clouds -8 976 85 0 11.37 210 20:19 30.12.2019
5493 Clouds -8 976 85 0 11.37 210 19:56 30.12.2019
5494 Clouds -8 976 85 0 11.37 210 19:37 30.12.2019
5495 Clouds -8 976 85 0 11.37 210 19:18 30.12.2019
5496 Clouds -8 976 85 0 11.37 210 18:56 30.12.2019
5497 Clouds -8 976 85 0 11.37 210 18:37 30.12.2019
5498 Clouds -8 976 85 0 11.37 210 18:19 30.12.2019
5499 Clouds -8 976 85 0 11.37 210 17:54 30.12.2019
5500 Clouds -8 976 85 0 11.37 210 17:36 30.12.2019
5501 Snow -8 979 87 0 12.69 219 17:18 30.12.2019
5502 Snow -8 979 87 0 12.69 219 16:41 30.12.2019
5503 Snow -8 979 87 0 12.69 219 16:41 30.12.2019
5504 Snow -8 979 87 0 12.69 219 16:21 30.12.2019
5505 Snow -8 979 87 0 12.69 219 15:58 30.12.2019
5506 Snow -8 979 87 0 12.69 219 15:39 30.12.2019
5507 Snow -8 979 87 0 12.69 219 15:20 30.12.2019
5508 Snow -8 979 87 0 12.69 219 14:56 30.12.2019
5509 Snow -8 979 87 0 12.69 219 14:38 30.12.2019
5510 Snow -7 981 90 0 13.33 222 14:18 30.12.2019
5511 Snow -7 981 90 0 13.33 222 13:43 30.12.2019
5512 Snow -7 981 90 0 13.33 222 13:24 30.12.2019
5513 Snow -7 981 91 0 13.27 223 12:59 30.12.2019
5514 Snow -7 981 91 0 13.27 223 12:41 30.12.2019
5515 Snow -7 981 91 0 13.27 223 12:19 30.12.2019
5516 Snow -7 981 91 0 13.27 223 11:58 30.12.2019
5517 Snow -7 981 91 0 13.27 223 11:39 30.12.2019
5518 Snow -6 982 90 0 14.29 227 11:18 30.12.2019
5519 Snow -6 982 90 0 14.29 227 10:43 30.12.2019
5520 Snow -6 982 90 0 14.29 227 10:21 30.12.2019
5521 Snow -6 982 90 0 14.29 227 09:55 30.12.2019
5522 Snow -6 982 90 0 14.29 227 09:37 30.12.2019
5523 Snow -6 982 90 0 14.29 227 09:19 30.12.2019
5524 Snow -6 982 90 0 14.29 227 08:46 30.12.2019
5525 Snow -6 982 90 0 14.29 227 08:23 30.12.2019
5526 Snow -7 983 90 0 15.06 224 07:53 30.12.2019
5527 Snow -7 983 90 0 15.06 224 07:33 30.12.2019
5528 Snow -7 983 90 0 15.06 224 06:50 30.12.2019
5529 Snow -7 986 89 0 14.39 228 04:50 30.12.2019
5530 Snow -7 986 89 0 14.39 228 03:52 30.12.2019
5531 Snow -7 986 89 0 14.39 228 02:47 30.12.2019
5532 Snow -7 986 89 0 14.39 228 02:29 30.12.2019
5533 Snow -7 991 90 0 14.25 228 01:47 30.12.2019
5534 Snow -7 991 90 0 14.25 228 01:19 30.12.2019
5535 Snow -8 992 90 0 14.18 228 00:42 30.12.2019
5536 Snow -8 992 90 0 14.18 228 23:59 29.12.2019
5537 Snow -8 992 90 0 14.18 228 23:59 29.12.2019
5538 Snow -8 992 90 0 14.18 228 23:38 29.12.2019
5539 Snow -8 994 89 0 13.35 232 23:20 29.12.2019
5540 Snow -8 994 89 0 13.35 232 22:42 29.12.2019
5541 Snow -8 994 89 0 13.35 232 22:22 29.12.2019
5542 Snow -8 994 89 0 13.35 232 22:22 29.12.2019
5543 Snow -8 994 89 0 13.35 232 21:57 29.12.2019
5544 Snow -8 994 89 0 13.35 232 21:39 29.12.2019
5545 Snow -8 994 89 0 13.35 232 21:20 29.12.2019
5546 Snow -8 994 89 0 13.35 232 20:57 29.12.2019
5547 Snow -8 994 89 0 13.35 232 20:38 29.12.2019
5548 Snow -7 996 90 0 13.57 234 20:20 29.12.2019
5549 Snow -7 996 90 0 13.57 234 19:58 29.12.2019
5550 Snow -7 996 90 0 13.57 234 19:39 29.12.2019
5551 Snow -7 996 90 0 13.57 234 19:20 29.12.2019
5552 Snow -7 996 90 0 13.57 234 18:56 29.12.2019
5553 Snow -7 996 90 0 13.57 234 18:38 29.12.2019
5554 Snow -7 996 90 0 13.57 234 18:19 29.12.2019
5555 Snow -7 996 90 0 13.57 234 17:57 29.12.2019
5556 Snow -7 996 90 0 13.57 234 17:39 29.12.2019
5557 Snow -3 997 91 0 13.1 244 17:20 29.12.2019
5558 Snow -3 997 91 0 13.1 244 16:56 29.12.2019
5559 Snow -3 997 91 0 13.1 244 16:37 29.12.2019
5560 Snow -3 997 91 0 13.1 244 16:19 29.12.2019
5561 Snow -3 997 91 0 13.1 244 15:56 29.12.2019
5562 Snow -3 997 91 0 13.1 244 15:38 29.12.2019
5563 Snow -3 997 91 0 13.1 244 15:19 29.12.2019
5564 Snow -3 997 91 0 13.1 244 14:55 29.12.2019
5565 Snow -3 997 91 0 13.1 244 14:37 29.12.2019
5566 Snow -3 999 92 0 12.6 234 14:18 29.12.2019
5567 Snow -3 999 92 0 12.6 234 13:55 29.12.2019
5568 Snow -3 999 92 0 12.6 234 13:37 29.12.2019
5569 Snow -4 1000 92 0 12.68 233 13:18 29.12.2019
5570 Snow -4 1000 92 0 12.68 233 12:42 29.12.2019
5571 Snow -4 1000 92 0 12.68 233 12:24 29.12.2019
5572 Snow -4 1000 92 0 12.68 233 11:56 29.12.2019
5573 Snow -4 1000 92 0 12.68 233 11:37 29.12.2019
5574 Snow -4 1000 92 0 12.68 233 11:37 29.12.2019
5575 Snow -4 1000 92 0 12.68 233 11:37 29.12.2019
5576 Snow -6 1002 91 0 13.03 230 11:19 29.12.2019
5577 Snow -6 1002 91 0 13.03 230 10:42 29.12.2019
5578 Snow -6 1002 91 0 13.03 230 10:22 29.12.2019
5579 Snow -6 1002 91 0 13.03 230 09:56 29.12.2019
5580 Snow -6 1002 91 0 13.03 230 09:38 29.12.2019
5581 Snow -6 1002 91 0 13.03 230 09:19 29.12.2019
5582 Snow -6 1002 91 0 13.03 230 08:46 29.12.2019
5583 Snow -7 1003 88 0 13.17 231 08:24 29.12.2019
5584 Snow -7 1005 90 0 13.66 230 07:54 29.12.2019
5585 Snow -7 1005 90 0 13.66 230 07:28 29.12.2019
5586 Snow -7 1005 90 0 13.66 230 06:53 29.12.2019
5587 Snow -7 1005 90 0 13.66 230 06:24 29.12.2019
5588 Snow -7 1005 90 0 13.66 230 05:51 29.12.2019
5589 Snow -6 1008 91 0 12.14 236 04:36 29.12.2019
5590 Snow -6 1008 91 0 12.14 236 03:43 29.12.2019
5591 Snow -6 1008 91 0 12.14 236 03:19 29.12.2019
5592 Snow -5 1011 93 0 11.86 242 02:20 29.12.2019
5593 Snow -5 1011 93 0 11.86 242 02:20 29.12.2019
5594 Snow -5 1011 93 0 11.86 242 01:31 29.12.2019
5595 Snow -5 1011 93 0 11.86 242 01:31 29.12.2019
5596 Snow -5 1011 93 0 11.08 242 00:55 29.12.2019
5597 Snow -5 1011 93 0 11.08 242 00:36 29.12.2019
5598 Snow -5 1011 93 0 11.08 242 00:18 29.12.2019
5599 Snow -5 1011 93 0 11.08 242 23:41 28.12.2019
5600 Snow -4 1012 90 0 11.79 249 23:18 28.12.2019
5601 Snow -4 1012 90 0 11.79 249 22:39 28.12.2019
5602 Snow -4 1012 90 0 11.79 249 22:20 28.12.2019
5603 Snow -4 1012 90 0 11.79 249 21:58 28.12.2019
5604 Snow -4 1012 90 0 11.79 249 21:39 28.12.2019
5605 Snow -4 1012 90 0 11.79 249 21:20 28.12.2019
5606 Snow -4 1012 90 0 11.79 249 20:56 28.12.2019
5607 Snow -4 1012 90 0 11.79 249 20:37 28.12.2019
5608 Snow -4 1014 92 0 10.09 248 20:18 28.12.2019
5609 Snow -4 1015 92 0 10.23 248 19:55 28.12.2019
5610 Snow -4 1015 92 0 10.23 248 19:36 28.12.2019
5611 Snow -4 1015 92 0 10.23 248 19:18 28.12.2019
5612 Snow -4 1015 92 0 10.23 248 18:55 28.12.2019
5613 Snow -4 1015 92 0 10.23 248 18:37 28.12.2019
5614 Snow -4 1015 92 0 10.23 248 18:18 28.12.2019
5615 Snow -4 1015 92 0 10.23 248 17:42 28.12.2019
5616 Snow -11 1018 93 0 7.86 216 17:21 28.12.2019
5617 Snow -11 1018 93 0 7.86 216 16:55 28.12.2019
5618 Snow -11 1018 93 0 7.86 216 16:37 28.12.2019
5619 Snow -11 1018 93 0 7.86 216 16:19 28.12.2019
5620 Snow -11 1018 93 0 7.86 216 15:43 28.12.2019
5621 Snow -11 1018 93 0 7.86 216 15:22 28.12.2019
5622 Snow -11 1018 93 0 7.86 216 14:55 28.12.2019
5623 Snow -11 1018 93 0 7.86 216 14:36 28.12.2019
5624 Clouds -15 1022 93 0 4.63 218 14:18 28.12.2019
5625 Clouds -15 1022 93 0 4.63 218 13:42 28.12.2019
5626 Clouds -15 1022 93 0 4.63 218 13:21 28.12.2019
5627 Clouds -16 1022 93 0 4.19 219 12:58 28.12.2019
5628 Clouds -16 1022 93 0 4.19 219 12:40 28.12.2019
5629 Clouds -16 1022 93 0 4.19 219 12:21 28.12.2019
5630 Clouds -16 1022 93 0 4.19 219 11:40 28.12.2019
5631 Clouds -16 1022 93 0 4.19 219 11:40 28.12.2019
5632 Clouds -18 1023 95 0 2.22 296 11:21 28.12.2019
5633 Clouds -18 1023 95 0 2.22 296 11:21 28.12.2019
5634 Clouds -18 1023 95 0 2.22 296 10:56 28.12.2019
5635 Clouds -18 1023 95 0 2.22 296 10:37 28.12.2019
5636 Clouds -18 1023 95 0 2.22 296 10:18 28.12.2019
5637 Clouds -18 1023 95 0 2.22 296 09:46 28.12.2019
5638 Clouds -18 1023 95 0 2.22 296 09:24 28.12.2019
5639 Clouds -18 1023 95 0 2.22 296 08:58 28.12.2019
5640 Clouds -18 1023 95 0 2.22 296 08:40 28.12.2019
5641 Clouds -19 1023 95 0 2.79 324 08:22 28.12.2019
5642 Clouds -19 1023 95 0 2.79 324 07:43 28.12.2019
5643 Clouds -19 1023 95 0 2.79 324 07:21 28.12.2019
5644 Clouds -19 1023 95 0 2.79 324 05:46 28.12.2019
5645 Clouds -18 1021 94 0 4.06 341 03:48 28.12.2019
5646 Clouds -18 1021 94 0 4.06 341 02:51 28.12.2019
5647 Clouds -17 1019 95 0 4.47 344 02:20 28.12.2019
5648 Clouds -17 1019 95 0 4.47 344 01:55 28.12.2019
5649 Clouds -17 1019 95 0 4.22 342 01:23 28.12.2019
5650 Clouds -17 1019 95 0 4.22 342 00:45 28.12.2019
5651 Clouds -17 1019 95 0 4.22 342 00:27 28.12.2019
5652 Clouds -17 1019 95 0 4.22 342 23:58 27.12.2019
5653 Clouds -17 1019 95 0 4.22 342 23:38 27.12.2019
5654 Snow -14 1017 92 0 4.4 9 23:18 27.12.2019
5655 Snow -14 1017 92 0 4.4 9 22:55 27.12.2019
5656 Snow -14 1017 92 0 4.4 9 22:37 27.12.2019
5657 Snow -14 1017 92 0 4.4 9 22:19 27.12.2019
5658 Snow -14 1017 92 0 4.4 9 21:43 27.12.2019
5659 Snow -14 1017 92 0 4.4 9 21:24 27.12.2019
5660 Snow -14 1017 92 0 4.4 9 20:45 27.12.2019
5661 Snow -14 1017 92 0 4.4 9 20:26 27.12.2019
5662 Snow -16 1015 95 0 1.53 231 19:59 27.12.2019
5663 Snow -16 1015 95 0 1.53 231 19:40 27.12.2019
5664 Snow -16 1015 95 0 1.53 231 19:19 27.12.2019
5665 Snow -16 1015 95 0 1.53 231 18:56 27.12.2019
5666 Snow -16 1015 95 0 1.53 231 18:37 27.12.2019
5667 Snow -16 1015 95 0 1.53 231 18:18 27.12.2019
5668 Snow -16 1015 95 0 1.53 231 17:55 27.12.2019
5669 Snow -16 1015 95 0 1.53 231 17:37 27.12.2019
5670 Snow -17 1014 95 0 4.33 218 17:18 27.12.2019
5671 Snow -17 1014 95 0 4.33 218 16:41 27.12.2019
5672 Snow -17 1014 95 0 4.33 218 16:23 27.12.2019
5673 Snow -17 1014 95 0 4.33 218 15:57 27.12.2019
5674 Snow -17 1014 95 0 4.33 218 15:37 27.12.2019
5675 Snow -17 1014 95 0 4.33 218 15:19 27.12.2019
5676 Snow -17 1014 95 0 4.33 218 14:55 27.12.2019
5677 Snow -17 1014 95 0 4.33 218 14:37 27.12.2019
5678 Clouds -18 1014 95 0 5.07 213 14:19 27.12.2019
5679 Clouds -18 1014 95 0 5.07 213 14:19 27.12.2019
5680 Clouds -18 1014 95 0 5.07 213 13:46 27.12.2019
5681 Clouds -18 1014 96 0 5.88 223 13:23 27.12.2019
5682 Clouds -18 1014 96 0 5.88 223 12:49 27.12.2019
5683 Clouds -18 1014 96 0 5.88 223 12:29 27.12.2019
5684 Clouds -18 1014 96 0 5.88 223 11:59 27.12.2019
5685 Clouds -18 1014 96 0 5.88 223 11:41 27.12.2019
5686 Clouds -20 1015 94 0 4.38 230 11:20 27.12.2019
5687 Clouds -20 1015 94 0 4.38 230 11:20 27.12.2019
5688 Clouds -20 1015 94 0 4.38 230 11:20 27.12.2019
5689 Clouds -20 1015 94 0 4.38 230 10:47 27.12.2019
5690 Clouds -20 1015 94 0 4.38 230 10:24 27.12.2019
5691 Clouds -20 1015 94 0 4.38 230 09:57 27.12.2019
5692 Clouds -20 1015 94 0 4.38 230 09:38 27.12.2019
5693 Clouds -20 1015 94 0 4.38 230 09:20 27.12.2019
5694 Clouds -20 1015 94 0 4.38 230 08:46 27.12.2019
5695 Clouds -20 1015 94 0 4.38 230 08:27 27.12.2019
5696 Clouds -20 1017 91 0 3.11 236 07:41 27.12.2019
5697 Clouds -20 1017 91 0 3.11 236 07:22 27.12.2019
5698 Clouds -20 1017 91 0 3.11 236 06:27 27.12.2019
5699 Clouds -19 1018 89 0 2.3 238 04:40 27.12.2019
5700 Clouds -19 1018 89 0 2.3 238 02:29 27.12.2019
5701 Clouds -18 1020 87 0 1.56 227 01:48 27.12.2019
5702 Clouds -19 1020 86 0 1.52 246 01:23 27.12.2019
5703 Clouds -19 1020 86 0 1.52 246 00:51 27.12.2019
5704 Clouds -19 1020 86 0 1.52 246 00:33 27.12.2019
5705 Clouds -19 1020 86 0 1.52 246 23:57 26.12.2019
5706 Clouds -19 1020 86 0 1.52 246 23:38 26.12.2019
5707 Clouds -19 1021 90 0 1.2 182 23:20 26.12.2019
5708 Clouds -19 1021 90 0 1.2 182 22:42 26.12.2019
5709 Clouds -19 1021 90 0 1.2 182 22:21 26.12.2019
5710 Clouds -19 1021 90 0 1.2 182 21:55 26.12.2019
5711 Clouds -19 1021 90 0 1.2 182 21:37 26.12.2019
5712 Clouds -19 1021 90 0 1.2 182 21:19 26.12.2019
5713 Clouds -19 1021 90 0 1.2 182 20:44 26.12.2019
5714 Clouds -19 1023 92 0 1.5 125 20:22 26.12.2019
5715 Clouds -19 1023 92 0 1.5 125 19:58 26.12.2019
5716 Clouds -19 1023 92 0 1.5 125 19:38 26.12.2019
5717 Clouds -19 1023 92 0 1.5 125 19:20 26.12.2019
5718 Clouds -19 1023 92 0 1.5 125 18:57 26.12.2019
5719 Clouds -19 1023 92 0 1.5 125 18:37 26.12.2019
5720 Clouds -19 1023 92 0 1.5 125 18:19 26.12.2019
5721 Clouds -19 1023 92 0 1.5 125 17:42 26.12.2019
5722 Clouds -19 1023 92 0 1.5 125 17:42 26.12.2019
5723 Clouds -19 1024 89 0 1.24 167 17:22 26.12.2019
5724 Clouds -19 1024 89 0 1.24 167 16:51 26.12.2019
5725 Clouds -19 1024 89 0 1.24 167 16:29 26.12.2019
5726 Clouds -19 1024 89 0 1.24 167 15:59 26.12.2019
5727 Clouds -19 1024 89 0 1.24 167 15:40 26.12.2019
5728 Clouds -19 1024 89 0 1.24 167 15:19 26.12.2019
5729 Clouds -19 1024 89 0 1.24 167 14:43 26.12.2019
5730 Clouds -19 1024 89 0 1.24 167 14:24 26.12.2019
5731 Clouds -19 1024 89 0 1.24 167 14:24 26.12.2019
5732 Clouds -19 1026 92 0 1.57 215 13:58 26.12.2019
5733 Clouds -19 1026 92 0 1.57 215 13:40 26.12.2019
5734 Clouds -20 1025 92 0 1.88 215 13:18 26.12.2019
5735 Clouds -20 1025 92 0 1.88 215 12:56 26.12.2019
5736 Clouds -20 1025 92 0 1.88 215 12:36 26.12.2019
5737 Clouds -20 1025 92 0 1.88 215 12:18 26.12.2019
5738 Clouds -20 1025 92 0 1.88 215 11:42 26.12.2019
5739 Clouds -20 1025 92 0 1.88 215 11:23 26.12.2019
5740 Clouds -20 1026 92 0 2.76 211 10:54 26.12.2019
5741 Clouds -20 1026 92 0 2.76 211 10:36 26.12.2019
5742 Clouds -20 1026 92 0 2.76 211 10:18 26.12.2019
5743 Clouds -20 1026 92 0 2.76 211 09:42 26.12.2019
5744 Clouds -20 1026 92 0 2.76 211 09:24 26.12.2019
5745 Clouds -20 1026 92 0 2.76 211 08:40 26.12.2019
5746 Clouds -20 1026 92 0 2.59 216 08:21 26.12.2019
5747 Clouds -20 1026 92 0 2.59 216 07:44 26.12.2019
5748 Clouds -20 1026 92 0 2.59 216 07:24 26.12.2019
5749 Clouds -20 1026 92 0 2.59 216 06:39 26.12.2019
5750 Clouds -20 1026 92 0 2.59 216 06:20 26.12.2019
5751 Clouds -20 1026 92 0 2.59 216 05:43 26.12.2019
5752 Clouds -20 1027 93 0 2.75 238 04:36 26.12.2019
5753 Clouds -20 1027 93 0 2.75 238 03:32 26.12.2019
5754 Clouds -20 1027 93 0 2.75 238 02:47 26.12.2019
5755 Clouds -20 1027 93 0 2.75 238 02:29 26.12.2019
5756 Clouds -20 1028 99 0 2 228 01:44 26.12.2019
5757 Clouds -20 1028 99 0 2 228 01:25 26.12.2019
5758 Clouds -20 1028 99 0 2.49 235 00:44 26.12.2019
5759 Clouds -20 1028 99 0 2.49 235 00:23 26.12.2019
5760 Clouds -20 1028 99 0 2.49 235 23:57 25.12.2019
5761 Clouds -20 1028 99 0 2.49 235 23:37 25.12.2019
5762 Clouds -20 1027 97 0 1.37 241 23:19 25.12.2019
5763 Clouds -20 1027 97 0 1.37 241 22:56 25.12.2019
5764 Clouds -20 1027 97 0 1.37 241 22:37 25.12.2019
5765 Clouds -20 1027 97 0 1.37 241 22:18 25.12.2019
5766 Clouds -20 1027 97 0 1.37 241 22:18 25.12.2019
5767 Clouds -20 1027 97 0 1.37 241 21:55 25.12.2019
5768 Clouds -20 1027 97 0 1.37 241 21:37 25.12.2019
5769 Clouds -20 1027 97 0 1.37 241 21:19 25.12.2019
5770 Clouds -20 1027 97 0 1.37 241 20:40 25.12.2019
5771 Clouds -20 1026 96 0 0.82 296 20:21 25.12.2019
5772 Clouds -20 1026 96 0 0.82 296 19:59 25.12.2019
5773 Clouds -20 1026 96 0 0.82 296 19:41 25.12.2019
5774 Clouds -20 1026 96 0 0.82 296 19:21 25.12.2019
5775 Clouds -20 1026 96 0 0.82 296 18:40 25.12.2019
5776 Clouds -20 1026 96 0 0.82 296 18:21 25.12.2019
5777 Clouds -20 1026 96 0 0.82 296 18:21 25.12.2019
5778 Clouds -20 1026 96 0 0.82 296 17:57 25.12.2019
5779 Clouds -20 1026 96 0 0.82 296 17:39 25.12.2019
5780 Clouds -20 1026 95 0 0.94 353 17:18 25.12.2019
5781 Clouds -20 1026 95 0 0.94 353 16:54 25.12.2019
5782 Clouds -20 1026 95 0 0.94 353 16:36 25.12.2019
5783 Clouds -20 1026 95 0 0.94 353 16:18 25.12.2019
5784 Clouds -20 1026 95 0 0.94 353 15:40 25.12.2019
5785 Clouds -20 1026 95 0 0.94 353 15:22 25.12.2019
5786 Clouds -20 1026 95 0 0.94 353 14:59 25.12.2019
5787 Clouds -20 1026 95 0 0.94 353 14:41 25.12.2019
5788 Clouds -20 1026 95 0 0.94 353 14:23 25.12.2019
5789 Clouds -20 1025 99 0 2.36 16 13:58 25.12.2019
5790 Clouds -20 1025 99 0 2.36 16 13:39 25.12.2019
5791 Clouds -20 1025 99 0 2.36 16 13:19 25.12.2019
5792 Clouds -20 1025 97 0 2.11 11 12:43 25.12.2019
5793 Clouds -20 1025 97 0 2.11 11 12:22 25.12.2019
5794 Clouds -20 1025 97 0 2.11 11 11:58 25.12.2019
5795 Clouds -20 1025 97 0 2.11 11 11:39 25.12.2019
5796 Clouds -20 1024 98 0 2.68 358 11:20 25.12.2019
5797 Clouds -20 1024 98 0 2.68 358 10:39 25.12.2019
5798 Clouds -20 1024 98 0 2.68 358 10:39 25.12.2019
5799 Clouds -20 1024 98 0 2.68 358 10:21 25.12.2019
5800 Clouds -20 1024 98 0 2.68 358 09:51 25.12.2019
5801 Clouds -20 1024 98 0 2.68 358 09:33 25.12.2019
5802 Clouds -20 1024 98 0 2.68 358 08:56 25.12.2019
5803 Clouds -20 1024 98 0 2.68 358 08:38 25.12.2019
5804 Clouds -20 1022 100 0 3.11 360 08:19 25.12.2019
5805 Clouds -20 1022 98 0 3.06 2 07:40 25.12.2019
5806 Clouds -20 1022 98 0 3.06 2 07:40 25.12.2019
5807 Clouds -20 1022 98 0 3.06 2 07:22 25.12.2019
5808 Clouds -20 1022 98 0 3.06 2 06:24 25.12.2019
5809 Clouds -20 1022 98 0 3.06 2 05:49 25.12.2019
5810 Clouds -20 1021 99 0 3.38 3 04:42 25.12.2019
5811 Clouds -20 1021 99 0 3.38 3 04:24 25.12.2019
5812 Clouds -20 1021 99 0 3.38 3 03:43 25.12.2019
5813 Clouds -20 1021 99 0 3.38 3 02:58 25.12.2019
5814 Clouds -20 1021 99 0 3.38 3 02:29 25.12.2019
5815 Clouds -20 1020 100 0 3.94 4 01:42 25.12.2019
5816 Clouds -20 1021 98 0 3.63 9 01:18 25.12.2019
5817 Clouds -20 1021 98 0 3.63 9 00:41 25.12.2019
5818 Clouds -20 1021 98 0 3.63 9 00:22 25.12.2019
5819 Clouds -20 1021 98 0 3.63 9 23:39 24.12.2019
5820 Clouds -20 1020 99 0 4.11 1 23:20 24.12.2019
5821 Clouds -20 1020 99 0 4.11 1 22:42 24.12.2019
5822 Clouds -20 1020 99 0 4.11 1 22:24 24.12.2019
5823 Clouds -20 1020 99 0 4.11 1 21:59 24.12.2019
5824 Clouds -20 1020 99 0 4.11 1 21:40 24.12.2019
5825 Clouds -20 1020 99 0 4.11 1 21:19 24.12.2019
5826 Clouds -20 1020 99 0 4.11 1 20:42 24.12.2019
5827 Clouds -20 1019 99 0 4.52 4 20:22 24.12.2019
5828 Clouds -20 1019 99 0 4.25 10 19:49 24.12.2019
5829 Clouds -20 1019 99 0 4.25 10 19:22 24.12.2019
5830 Clouds -20 1019 99 0 4.25 10 18:59 24.12.2019
5831 Clouds -20 1019 99 0 4.25 10 18:40 24.12.2019
5832 Clouds -20 1019 99 0 4.25 10 18:18 24.12.2019
5833 Clouds -20 1019 99 0 4.25 10 18:18 24.12.2019
5834 Clouds -20 1019 99 0 4.25 10 17:43 24.12.2019
5835 Clouds -20 1019 99 0 4.31 3 17:22 24.12.2019
5836 Clouds -20 1019 99 0 4.31 3 16:58 24.12.2019
5837 Clouds -20 1019 99 0 4.31 3 16:39 24.12.2019
5838 Clouds -20 1019 99 0 4.31 3 16:20 24.12.2019
5839 Clouds -20 1019 99 0 4.31 3 15:57 24.12.2019
5840 Clouds -20 1019 99 0 4.31 3 15:37 24.12.2019
5841 Clouds -20 1019 99 0 4.31 3 15:19 24.12.2019
5842 Clouds -20 1019 99 0 4.31 3 14:58 24.12.2019
5843 Clouds -20 1019 99 0 4.31 3 14:39 24.12.2019
5844 Clouds -19 1018 98 0 4.96 2 14:21 24.12.2019
5845 Clouds -19 1018 98 0 4.96 2 14:21 24.12.2019
5846 Clouds -19 1018 98 0 4.96 2 13:56 24.12.2019
5847 Clouds -19 1018 98 0 4.96 2 13:37 24.12.2019
5848 Clouds -19 1018 98 0 4.96 2 13:19 24.12.2019
5849 Clouds -19 1019 98 0 4.63 0 12:56 24.12.2019
5850 Clouds -19 1019 98 0 4.63 0 12:56 24.12.2019
5851 Clouds -19 1019 98 0 4.63 0 12:56 24.12.2019
5852 Clouds -19 1019 98 0 4.63 0 12:37 24.12.2019
5853 Clouds -19 1019 98 0 4.63 0 12:19 24.12.2019
5854 Clouds -19 1019 98 0 4.63 0 12:19 24.12.2019
5855 Clouds -19 1019 98 0 4.63 0 12:19 24.12.2019
5856 Clouds -19 1019 98 0 4.63 0 11:56 24.12.2019
5857 Clouds -19 1019 98 0 4.63 0 11:37 24.12.2019
5858 Clouds -19 1019 98 0 4.63 0 11:37 24.12.2019
5859 Clouds -19 1018 99 0 4.89 359 11:19 24.12.2019
5860 Clouds -19 1018 99 0 4.89 359 10:56 24.12.2019
5861 Clouds -19 1018 99 0 4.89 359 10:56 24.12.2019
5862 Clouds -19 1018 99 0 4.89 359 10:37 24.12.2019
5863 Clouds -19 1018 99 0 4.89 359 10:19 24.12.2019
5864 Clouds -19 1018 99 0 4.89 359 09:55 24.12.2019
5865 Clouds -19 1018 99 0 4.89 359 09:37 24.12.2019
5866 Clouds -19 1018 99 0 4.89 359 09:37 24.12.2019
5867 Clouds -19 1018 99 0 4.89 359 09:19 24.12.2019
5868 Clouds -19 1018 99 0 4.89 359 08:45 24.12.2019
5869 Clouds -20 1018 99 0 4.93 0 08:24 24.12.2019
5870 Clouds -19 1018 99 0 5.27 354 07:46 24.12.2019
5871 Clouds -19 1018 99 0 5.27 354 07:26 24.12.2019
5872 Clouds -19 1018 99 0 5.27 354 06:58 24.12.2019
5873 Clouds -19 1018 99 0 5.27 354 06:38 24.12.2019
5874 Clouds -19 1018 99 0 5.27 354 06:19 24.12.2019
5875 Clouds -19 1018 99 0 5.27 354 05:27 24.12.2019
5876 Clouds -20 1017 100 0 5.95 353 04:59 24.12.2019
5877 Clouds -20 1017 100 0 5.95 353 03:50 24.12.2019
5878 Clouds -20 1017 100 0 5.95 353 03:22 24.12.2019
5879 Clouds -20 1017 100 0 5.95 353 02:23 24.12.2019
5880 Clouds -20 1017 99 0 6.5 345 01:51 24.12.2019
5881 Clouds -21 1017 99 0 6.16 346 01:22 24.12.2019
5882 Clouds -21 1017 99 0 6.16 346 00:45 24.12.2019
5883 Clouds -21 1017 99 0 6.16 346 00:24 24.12.2019
5884 Clouds -21 1017 99 0 6.16 346 23:59 23.12.2019
5885 Clouds -21 1017 99 0 6.16 346 23:40 23.12.2019
5886 Clouds -21 1017 98 0 6.68 347 23:22 23.12.2019
5887 Clouds -21 1017 98 0 6.68 347 22:56 23.12.2019
5888 Clouds -21 1017 98 0 6.68 347 22:37 23.12.2019
5889 Clouds -21 1017 98 0 6.68 347 22:18 23.12.2019
5890 Clouds -21 1017 98 0 6.68 347 21:55 23.12.2019
5891 Clouds -21 1017 98 0 6.68 347 21:36 23.12.2019
5892 Clouds -21 1017 98 0 6.68 347 21:18 23.12.2019
5893 Clouds -21 1017 98 0 6.68 347 20:57 23.12.2019
5894 Clouds -21 1017 98 0 6.68 347 20:39 23.12.2019
5895 Clouds -19 1017 100 0 6.24 356 20:18 23.12.2019
5896 Clouds -19 1017 100 0 6.24 356 19:55 23.12.2019
5897 Clouds -19 1017 100 0 6.24 356 19:37 23.12.2019
5898 Clouds -19 1017 100 0 6.24 356 19:19 23.12.2019
5899 Clouds -19 1017 100 0 6.24 356 18:57 23.12.2019
5900 Clouds -19 1017 100 0 6.24 356 18:38 23.12.2019
5901 Clouds -19 1017 100 0 6.24 356 18:20 23.12.2019
5902 Clouds -19 1017 100 0 6.24 356 17:55 23.12.2019
5903 Clouds -19 1017 100 0 6.24 356 17:55 23.12.2019
5904 Clouds -19 1017 100 0 6.24 356 17:37 23.12.2019
5905 Clouds -20 1016 100 0 6.33 2 17:19 23.12.2019
5906 Clouds -20 1016 100 0 6.33 2 16:42 23.12.2019
5907 Clouds -20 1016 100 0 6.33 2 16:42 23.12.2019
5908 Clouds -20 1016 100 0 6.33 2 16:19 23.12.2019
5909 Clouds -20 1016 100 0 6.33 2 15:59 23.12.2019
5910 Clouds -20 1016 100 0 6.33 2 15:39 23.12.2019
5911 Clouds -20 1016 100 0 6.33 2 15:20 23.12.2019
5912 Clouds -20 1016 100 0 6.33 2 14:59 23.12.2019
5913 Clouds -20 1016 100 0 6.33 2 14:41 23.12.2019
5914 Clouds -20 1016 100 0 6.33 2 14:23 23.12.2019
5915 Clouds -19 1015 100 0 6.91 3 13:59 23.12.2019
5916 Clouds -19 1015 100 0 6.91 3 13:40 23.12.2019
5917 Clouds -19 1015 100 0 6.91 3 13:40 23.12.2019
5918 Clouds -18 1015 100 0 6.2 5 13:22 23.12.2019
5919 Clouds -18 1015 100 0 6.2 5 13:22 23.12.2019
5920 Clouds -18 1015 100 0 6.2 5 13:22 23.12.2019
5921 Clouds -18 1015 100 0 6.2 5 12:58 23.12.2019
5922 Clouds -18 1015 100 0 6.2 5 12:39 23.12.2019
5923 Clouds -18 1015 100 0 6.2 5 12:20 23.12.2019
5924 Clouds -18 1015 100 0 6.2 5 11:44 23.12.2019
5925 Clouds -18 1015 100 0 6.2 5 11:26 23.12.2019
5926 Clouds -17 1014 100 0 6.37 9 10:59 23.12.2019
5927 Clouds -17 1014 100 0 6.37 9 10:40 23.12.2019
5928 Clouds -17 1014 100 0 6.37 9 10:21 23.12.2019
5929 Clouds -17 1014 100 0 6.37 9 09:59 23.12.2019
5930 Clouds -17 1014 100 0 6.37 9 09:40 23.12.2019
5931 Clouds -17 1014 100 0 6.37 9 09:21 23.12.2019
5932 Clouds -17 1014 100 0 6.37 9 08:56 23.12.2019
5933 Clouds -17 1014 100 0 6.37 9 08:38 23.12.2019
5934 Clouds -15 1012 96 0 7.32 18 08:20 23.12.2019
5935 Clouds -15 1012 96 0 7.32 18 07:43 23.12.2019
5936 Clouds -15 1012 96 0 7.32 18 07:20 23.12.2019
5937 Clouds -15 1012 96 0 7.32 18 06:53 23.12.2019
5938 Clouds -15 1012 96 0 7.32 18 06:26 23.12.2019
5939 Clouds -15 1012 96 0 7.32 18 05:53 23.12.2019
5940 Clouds -15 1012 96 0 7.32 18 05:28 23.12.2019
5941 Snow -13 1010 92 0 7.64 24 04:31 23.12.2019
5942 Snow -13 1010 92 0 7.64 24 03:18 23.12.2019
5943 Snow -13 1010 92 0 7.64 24 02:40 23.12.2019
5944 Clouds -12 1010 91 0 7.19 24 02:18 23.12.2019
5945 Clouds -12 1010 91 0 7.19 24 01:41 23.12.2019
5946 Clouds -12 1010 91 0 7.19 24 01:20 23.12.2019
5947 Clouds -12 1009 91 0 6.83 27 00:43 23.12.2019
5948 Clouds -12 1009 91 0 6.83 27 00:21 23.12.2019
5949 Clouds -12 1009 91 0 6.83 27 23:39 22.12.2019
5950 Snow -11 1008 94 0 6.3 39 23:21 22.12.2019
5951 Snow -11 1008 94 0 6.3 39 22:58 22.12.2019
5952 Snow -11 1008 94 0 6.3 39 22:39 22.12.2019
5953 Snow -11 1008 94 0 6.3 39 22:19 22.12.2019
5954 Snow -11 1008 94 0 6.3 39 21:57 22.12.2019
5955 Snow -11 1008 94 0 6.3 39 21:39 22.12.2019
5956 Snow -11 1008 94 0 6.3 39 21:21 22.12.2019
5957 Snow -11 1008 94 0 6.3 39 20:57 22.12.2019
5958 Snow -11 1008 94 0 6.3 39 20:38 22.12.2019
5959 Snow -8 1008 88 0 2.79 82 20:18 22.12.2019
5960 Snow -8 1008 88 0 2.79 82 19:55 22.12.2019
5961 Snow -8 1008 88 0 2.79 82 19:37 22.12.2019
5962 Snow -8 1008 88 0 2.79 82 19:18 22.12.2019
5963 Snow -8 1008 88 0 2.79 82 18:40 22.12.2019
5964 Snow -8 1008 88 0 2.79 82 18:22 22.12.2019
5965 Snow -8 1008 88 0 2.79 82 17:55 22.12.2019
5966 Snow -8 1008 88 0 2.79 82 17:37 22.12.2019
5967 Clouds -10 1009 91 0 2 160 17:18 22.12.2019
5968 Clouds -10 1009 91 0 2 160 16:56 22.12.2019
5969 Clouds -10 1009 91 0 2 160 16:37 22.12.2019
5970 Clouds -10 1009 91 0 2 160 16:19 22.12.2019
5971 Clouds -10 1009 91 0 2 160 15:56 22.12.2019
5972 Clouds -10 1009 91 0 2 160 15:36 22.12.2019
5973 Clouds -10 1009 91 0 2 160 15:36 22.12.2019
5974 Clouds -10 1009 91 0 2 160 15:18 22.12.2019
5975 Clouds -10 1009 91 0 2 160 14:54 22.12.2019
5976 Clouds -10 1009 91 0 2 160 14:36 22.12.2019
5977 Snow -10 1011 91 0 2.58 203 14:18 22.12.2019
5978 Snow -10 1011 91 0 2.58 203 13:55 22.12.2019
5979 Snow -10 1011 91 0 2.58 203 13:36 22.12.2019
5980 Snow -10 1010 91 0 2.6 201 13:18 22.12.2019
5981 Snow -10 1010 91 0 2.6 201 12:54 22.12.2019
5982 Snow -10 1010 91 0 2.6 201 12:54 22.12.2019
5983 Snow -10 1010 91 0 2.6 201 12:36 22.12.2019
5984 Snow -10 1010 91 0 2.6 201 12:18 22.12.2019
5985 Snow -10 1010 91 0 2.6 201 11:39 22.12.2019
5986 Clouds -10 1011 91 0 3.21 197 11:20 22.12.2019
5987 Clouds -10 1011 91 0 3.21 197 10:58 22.12.2019
5988 Clouds -10 1011 91 0 3.21 197 10:40 22.12.2019
5989 Clouds -10 1011 91 0 3.21 197 10:21 22.12.2019
5990 Clouds -10 1011 91 0 3.21 197 09:58 22.12.2019
5991 Clouds -10 1011 91 0 3.21 197 09:40 22.12.2019
5992 Clouds -10 1011 91 0 3.21 197 09:21 22.12.2019
5993 Clouds -10 1011 91 0 3.21 197 08:55 22.12.2019
5994 Clouds -10 1011 91 0 3.21 197 08:37 22.12.2019
5995 Clouds -10 1011 92 0 3.91 201 08:18 22.12.2019
5996 Clouds -10 1011 92 0 3.91 201 07:36 22.12.2019
5997 Clouds -10 1011 92 0 3.91 201 07:18 22.12.2019
5998 Clouds -10 1011 92 0 3.91 201 06:40 22.12.2019
5999 Clouds -10 1011 92 0 3.91 201 05:49 22.12.2019
6000 Clouds -10 1011 93 0 3.44 214 05:21 22.12.2019
6001 Clouds -10 1011 93 0 3.44 214 04:28 22.12.2019
6002 Clouds -10 1011 93 0 3.44 214 03:45 22.12.2019
6003 Clouds -10 1011 93 0 3.44 214 02:38 22.12.2019
6004 Clouds -9 1012 91 0 3.73 220 01:37 22.12.2019
6005 Snow -9 1012 91 0 3.73 217 01:18 22.12.2019
6006 Snow -9 1012 91 0 3.73 217 00:45 22.12.2019
6007 Snow -9 1012 91 0 3.73 217 00:21 22.12.2019
6008 Snow -9 1012 91 0 3.73 217 23:42 21.12.2019
6009 Snow -9 1012 91 0 3.73 217 23:24 21.12.2019
6010 Snow -9 1011 92 0 4.13 210 22:59 21.12.2019
6011 Snow -9 1011 92 0 4.13 210 22:40 21.12.2019
6012 Snow -9 1011 92 0 4.13 210 22:19 21.12.2019
6013 Snow -9 1011 92 0 4.13 210 21:56 21.12.2019
6014 Snow -9 1011 92 0 4.13 210 21:37 21.12.2019
6015 Snow -9 1011 92 0 4.13 210 21:19 21.12.2019
6016 Snow -9 1011 92 0 4.13 210 20:58 21.12.2019
6017 Snow -9 1011 92 0 4.13 210 20:39 21.12.2019
6018 Snow -10 1012 90 0 3.07 218 20:21 21.12.2019
6019 Snow -10 1012 90 0 3.07 218 19:57 21.12.2019
6020 Snow -10 1012 90 0 3.07 218 19:39 21.12.2019
6021 Snow -10 1012 90 0 3.07 218 19:19 21.12.2019
6022 Snow -10 1012 90 0 3.07 218 18:44 21.12.2019
6023 Snow -10 1012 90 0 3.07 218 18:24 21.12.2019
6024 Snow -10 1012 90 0 3.07 218 17:57 21.12.2019
6025 Snow -10 1012 90 0 3.07 218 17:39 21.12.2019
6026 Snow -10 1012 92 0 3.7 215 17:21 21.12.2019
6027 Snow -10 1012 92 0 3.7 215 16:58 21.12.2019
6028 Snow -10 1012 92 0 3.7 215 16:39 21.12.2019
6029 Snow -10 1012 92 0 3.7 215 16:18 21.12.2019
6030 Snow -10 1012 92 0 3.7 215 16:18 21.12.2019
6031 Snow -10 1012 92 0 3.7 215 15:57 21.12.2019
6032 Snow -10 1012 92 0 3.7 215 15:38 21.12.2019
6033 Snow -10 1012 92 0 3.7 215 15:19 21.12.2019
6034 Snow -10 1012 92 0 3.7 215 14:55 21.12.2019
6035 Snow -10 1012 92 0 3.7 215 14:37 21.12.2019
6036 Snow -10 1012 93 0 3.75 218 14:18 21.12.2019
6037 Snow -10 1012 93 0 3.75 218 13:54 21.12.2019
6038 Snow -10 1012 93 0 3.75 218 13:36 21.12.2019
6039 Snow -10 1012 93 0 3.74 217 13:18 21.12.2019
6040 Snow -10 1012 93 0 3.74 217 12:54 21.12.2019
6041 Snow -10 1012 93 0 3.74 217 12:36 21.12.2019
6042 Snow -10 1012 93 0 3.74 217 12:18 21.12.2019
6043 Snow -10 1012 93 0 3.74 217 11:41 21.12.2019
6044 Snow -10 1012 93 0 3.74 217 11:23 21.12.2019
6045 Snow -10 1011 93 0 3.98 218 10:42 21.12.2019
6046 Snow -10 1011 93 0 3.98 218 10:23 21.12.2019
6047 Snow -10 1011 93 0 3.98 218 09:59 21.12.2019
6048 Snow -10 1011 93 0 3.98 218 09:41 21.12.2019
6049 Snow -10 1011 93 0 3.98 218 09:20 21.12.2019
6050 Snow -10 1011 93 0 3.98 218 08:55 21.12.2019
6051 Snow -10 1011 93 0 3.98 218 08:36 21.12.2019
6052 Snow -9 1010 92 0 3.48 225 08:18 21.12.2019
6053 Snow -9 1010 92 0 3.48 225 07:41 21.12.2019
6054 Snow -9 1010 92 0 3.48 225 07:21 21.12.2019
6055 Snow -9 1010 92 0 3.48 225 06:42 21.12.2019
6056 Snow -9 1010 92 0 3.48 225 06:24 21.12.2019
6057 Snow -9 1010 92 0 3.48 225 05:45 21.12.2019
6058 Snow -8 1010 92 0 3.37 231 04:57 21.12.2019
6059 Snow -8 1010 92 0 3.37 231 03:56 21.12.2019
6060 Snow -8 1010 92 0 3.37 231 02:40 21.12.2019
6061 Snow -8 1010 92 0 2.25 219 01:53 21.12.2019
6062 Snow -8 1010 92 0 1.68 197 01:27 21.12.2019
6063 Snow -8 1010 92 0 1.68 197 00:50 21.12.2019
6064 Snow -8 1010 92 0 1.68 197 00:28 21.12.2019
6065 Snow -8 1010 92 0 1.68 197 23:55 20.12.2019
6066 Snow -8 1010 92 0 1.68 197 23:36 20.12.2019
6067 Clouds -8 1009 90 0 1.39 189 23:18 20.12.2019
6068 Clouds -8 1009 90 0 1.39 189 22:40 20.12.2019
6069 Clouds -8 1009 90 0 1.39 189 22:21 20.12.2019
6070 Clouds -8 1009 90 0 1.39 189 21:57 20.12.2019
6071 Clouds -8 1009 90 0 1.39 189 21:39 20.12.2019
6072 Clouds -8 1009 90 0 1.39 189 21:18 20.12.2019
6073 Clouds -8 1009 90 0 1.39 189 20:39 20.12.2019
6074 Clouds -8 1009 87 0 2.11 94 20:19 20.12.2019
6075 Clouds -8 1009 87 0 2.11 94 19:57 20.12.2019
6076 Clouds -8 1009 87 0 2.11 94 19:57 20.12.2019
6077 Clouds -8 1009 87 0 2.11 94 19:39 20.12.2019
6078 Clouds -8 1009 87 0 2.11 94 19:19 20.12.2019
6079 Clouds -8 1009 87 0 2.11 94 18:42 20.12.2019
6080 Clouds -8 1009 87 0 2.11 94 18:24 20.12.2019
6081 Clouds -8 1009 87 0 2.11 94 17:58 20.12.2019
6082 Clouds -8 1009 87 0 2.11 94 17:40 20.12.2019
6083 Clouds -8 1009 88 0 2.37 101 17:21 20.12.2019
6084 Clouds -8 1009 88 0 2.37 101 16:59 20.12.2019
6085 Clouds -8 1009 88 0 2.37 101 16:38 20.12.2019
6086 Clouds -8 1009 88 0 2.37 101 16:20 20.12.2019
6087 Clouds -8 1009 88 0 2.37 101 16:20 20.12.2019
6088 Clouds -8 1009 88 0 2.37 101 15:56 20.12.2019
6089 Clouds -8 1009 88 0 2.37 101 15:38 20.12.2019
6090 Clouds -8 1009 88 0 2.37 101 15:38 20.12.2019
6091 Clouds -8 1009 88 0 2.37 101 15:19 20.12.2019
6092 Clouds -8 1009 88 0 2.37 101 14:43 20.12.2019
6093 Clouds -8 1009 88 0 2.37 101 14:24 20.12.2019
6094 Clouds -7 1009 89 0 3.05 96 13:59 20.12.2019
6095 Clouds -7 1009 89 0 3.05 96 13:59 20.12.2019
6096 Clouds -7 1009 89 0 3.05 96 13:40 20.12.2019
6097 Clouds -7 1009 89 0 3.05 96 13:19 20.12.2019
6098 Clouds -7 1009 90 0 2.58 110 12:57 20.12.2019
6099 Clouds -7 1009 90 0 2.58 110 12:37 20.12.2019
6100 Clouds -7 1009 90 0 2.58 110 12:18 20.12.2019
6101 Clouds -7 1009 90 0 2.58 110 11:57 20.12.2019
6102 Clouds -7 1009 90 0 2.58 110 11:39 20.12.2019
6103 Clouds -7 1008 87 0 1.25 117 11:18 20.12.2019
6104 Clouds -7 1008 87 0 1.25 117 10:56 20.12.2019
6105 Clouds -7 1008 87 0 1.25 117 10:38 20.12.2019
6106 Clouds -7 1008 87 0 1.25 117 10:20 20.12.2019
6107 Clouds -7 1008 87 0 1.25 117 09:43 20.12.2019
6108 Clouds -7 1008 87 0 1.25 117 09:21 20.12.2019
6109 Clouds -7 1008 87 0 1.25 117 08:58 20.12.2019
6110 Clouds -7 1008 87 0 1.25 117 08:40 20.12.2019
6111 Clouds -8 1007 84 0 1.87 131 08:21 20.12.2019
6112 Clouds -8 1007 84 0 1.87 131 07:57 20.12.2019
6113 Clouds -8 1007 84 0 1.87 131 07:57 20.12.2019
6114 Clouds -8 1007 84 0 1.87 131 07:38 20.12.2019
6115 Clouds -8 1007 84 0 1.87 131 07:18 20.12.2019
6116 Clouds -8 1007 84 0 1.87 131 06:46 20.12.2019
6117 Clouds -8 1007 84 0 1.87 131 06:28 20.12.2019
6118 Clouds -8 1007 84 0 1.87 131 05:48 20.12.2019
6119 Clouds -8 1006 83 0 2.08 139 05:18 20.12.2019
6120 Clouds -8 1006 83 0 2.08 139 03:50 20.12.2019
6121 Clouds -8 1006 83 0 2.08 139 03:20 20.12.2019
6122 Clouds -8 1006 85 0 2.23 153 02:20 20.12.2019
6123 Clouds -8 1006 85 0 2.23 153 01:36 20.12.2019
6124 Clouds -8 1007 85 0 2.05 143 00:57 20.12.2019
6125 Clouds -8 1007 85 0 2.05 143 00:35 20.12.2019
6126 Clouds -8 1007 85 0 2.05 143 23:58 19.12.2019
6127 Clouds -8 1007 85 0 2.05 143 23:40 19.12.2019
6128 Clouds -8 1006 89 0 3.16 165 23:19 19.12.2019
6129 Clouds -8 1006 89 0 3.16 165 22:40 19.12.2019
6130 Clouds -8 1006 89 0 3.16 165 22:22 19.12.2019
6131 Clouds -8 1006 89 0 3.16 165 21:57 19.12.2019
6132 Clouds -8 1006 89 0 3.16 165 21:39 19.12.2019
6133 Clouds -8 1006 89 0 3.16 165 21:19 19.12.2019
6134 Clouds -8 1006 89 0 3.16 165 20:57 19.12.2019
6135 Clouds -8 1006 89 0 3.16 165 20:37 19.12.2019
6136 Snow -9 1006 91 0 4.7 162 20:19 19.12.2019
6137 Snow -9 1006 91 0 4.7 162 19:58 19.12.2019
6138 Snow -9 1006 91 0 4.7 162 19:58 19.12.2019
6139 Snow -9 1006 91 0 4.7 162 19:39 19.12.2019
6140 Snow -9 1006 91 0 4.7 162 19:19 19.12.2019
6141 Snow -9 1006 91 0 4.7 162 19:19 19.12.2019
6142 Snow -9 1006 91 0 4.7 162 19:19 19.12.2019
6143 Snow -9 1006 91 0 4.7 162 19:19 19.12.2019
6144 Snow -9 1006 91 0 4.7 162 18:57 19.12.2019
6145 Snow -9 1006 91 0 4.7 162 18:39 19.12.2019
6146 Snow -9 1006 91 0 4.7 162 18:19 19.12.2019
6147 Snow -9 1006 91 0 4.7 162 17:55 19.12.2019
6148 Snow -9 1006 91 0 4.7 162 17:37 19.12.2019
6149 Clouds -10 1005 91 0 5.07 156 17:18 19.12.2019
6150 Clouds -10 1005 91 0 5.07 156 16:55 19.12.2019
6151 Clouds -10 1005 91 0 5.07 156 16:37 19.12.2019
6152 Clouds -10 1005 91 0 5.07 156 16:19 19.12.2019
6153 Clouds -10 1005 91 0 5.07 156 15:55 19.12.2019
6154 Clouds -10 1005 91 0 5.07 156 15:37 19.12.2019
6155 Clouds -10 1005 91 0 5.07 156 15:18 19.12.2019
6156 Clouds -10 1005 91 0 5.07 156 14:42 19.12.2019
6157 Clouds -10 1005 88 0 4.85 166 14:20 19.12.2019
6158 Clouds -10 1005 88 0 4.85 166 13:58 19.12.2019
6159 Clouds -10 1005 88 0 4.85 166 13:58 19.12.2019
6160 Clouds -10 1005 88 0 4.85 166 13:38 19.12.2019
6161 Clouds -10 1005 89 0 4.65 165 13:19 19.12.2019
6162 Clouds -10 1005 89 0 4.65 165 12:57 19.12.2019
6163 Clouds -10 1005 89 0 4.65 165 12:39 19.12.2019
6164 Clouds -10 1005 89 0 4.65 165 12:39 19.12.2019
6165 Clouds -10 1005 89 0 4.65 165 12:19 19.12.2019
6166 Clouds -10 1005 89 0 4.65 165 12:19 19.12.2019
6167 Clouds -10 1005 89 0 4.65 165 12:19 19.12.2019
6168 Clouds -10 1005 89 0 4.65 165 11:58 19.12.2019
6169 Clouds -10 1005 89 0 4.65 165 11:40 19.12.2019
6170 Clouds -9 1005 88 0 4.66 173 11:18 19.12.2019
6171 Clouds -9 1005 88 0 4.66 173 11:18 19.12.2019
6172 Clouds -9 1005 88 0 4.66 173 10:56 19.12.2019
6173 Clouds -9 1005 88 0 4.66 173 10:37 19.12.2019
6174 Clouds -9 1005 88 0 4.66 173 10:19 19.12.2019
6175 Clouds -9 1005 88 0 4.66 173 09:40 19.12.2019
6176 Clouds -9 1005 88 0 4.66 173 09:21 19.12.2019
6177 Clouds -9 1005 88 0 4.66 173 08:58 19.12.2019
6178 Clouds -9 1005 88 0 4.66 173 08:40 19.12.2019
6179 Snow -8 1005 91 0 4.9 199 08:19 19.12.2019
6180 Snow -8 1005 91 0 4.9 199 07:57 19.12.2019
6181 Snow -8 1005 91 0 4.9 199 07:38 19.12.2019
6182 Snow -8 1005 91 0 4.9 199 07:19 19.12.2019
6183 Snow -8 1005 91 0 4.9 199 06:50 19.12.2019
6184 Snow -8 1005 91 0 4.9 199 06:50 19.12.2019
6185 Snow -8 1005 91 0 4.9 199 06:29 19.12.2019
6186 Snow -8 1005 91 0 4.9 199 05:55 19.12.2019
6187 Snow -8 1005 91 0 4.9 199 05:36 19.12.2019
6188 Snow -7 1005 92 0 4.41 195 04:52 19.12.2019
6189 Snow -7 1005 92 0 4.41 195 03:21 19.12.2019
6190 Snow -6 1007 93 0 3.49 192 02:22 19.12.2019
6191 Snow -6 1007 93 0 3.49 192 01:22 19.12.2019
6192 Snow -6 1007 93 0 3.34 193 00:43 19.12.2019
6193 Snow -6 1007 93 0 3.34 193 00:24 19.12.2019
6194 Snow -6 1007 93 0 3.34 193 23:57 18.12.2019
6195 Snow -6 1007 93 0 3.34 193 23:38 18.12.2019
6196 Snow -6 1007 93 0 2.02 170 23:18 18.12.2019
6197 Snow -6 1007 93 0 2.02 170 22:55 18.12.2019
6198 Snow -6 1007 93 0 2.02 170 22:36 18.12.2019
6199 Snow -6 1007 93 0 2.02 170 22:18 18.12.2019
6200 Snow -6 1007 93 0 2.02 170 21:55 18.12.2019
6201 Snow -6 1007 93 0 2.02 170 21:37 18.12.2019
6202 Snow -6 1007 93 0 2.02 170 21:18 18.12.2019
6203 Snow -6 1007 93 0 2.02 170 20:54 18.12.2019
6204 Snow -6 1007 93 0 2.02 170 20:36 18.12.2019
6205 Snow -6 1008 88 0 3.31 189 20:18 18.12.2019
6206 Snow -6 1008 88 0 3.31 189 19:54 18.12.2019
6207 Snow -6 1008 88 0 3.31 189 19:36 18.12.2019
6208 Snow -6 1008 88 0 3.31 189 19:18 18.12.2019
6209 Snow -6 1008 88 0 3.31 189 19:18 18.12.2019
6210 Snow -6 1008 88 0 3.31 189 18:43 18.12.2019
6211 Snow -6 1008 88 0 3.31 189 18:25 18.12.2019
6212 Snow -6 1008 88 0 3.31 189 18:25 18.12.2019
6213 Snow -6 1008 88 0 3.31 189 17:57 18.12.2019
6214 Snow -6 1008 88 0 3.31 189 17:38 18.12.2019
6215 Snow -5 1008 94 0 3.61 168 17:19 18.12.2019
6216 Snow -5 1008 94 0 3.61 168 16:54 18.12.2019
6217 Snow -5 1008 94 0 3.61 168 16:36 18.12.2019
6218 Snow -5 1008 94 0 3.61 168 16:18 18.12.2019
6219 Snow -5 1008 94 0 3.61 168 15:55 18.12.2019
6220 Snow -5 1008 94 0 3.61 168 15:36 18.12.2019
6221 Snow -5 1008 94 0 3.61 168 15:18 18.12.2019
6222 Snow -5 1008 94 0 3.61 168 14:40 18.12.2019
6223 Snow -6 1010 92 0 2.89 153 14:20 18.12.2019
6224 Snow -6 1010 92 0 2.89 153 13:57 18.12.2019
6225 Snow -6 1010 92 0 2.89 153 13:37 18.12.2019
6226 Clouds -6 1010 91 0 2.92 163 13:19 18.12.2019
6227 Clouds -6 1010 91 0 2.92 163 12:57 18.12.2019
6228 Clouds -6 1010 91 0 2.92 163 12:37 18.12.2019
6229 Clouds -6 1010 91 0 2.92 163 12:19 18.12.2019
6230 Clouds -6 1010 91 0 2.92 163 11:55 18.12.2019
6231 Clouds -6 1010 91 0 2.92 163 11:37 18.12.2019
6232 Clouds -6 1010 91 0 2.92 163 11:37 18.12.2019
6233 Clouds -7 1010 89 0 3.16 193 11:18 18.12.2019
6234 Clouds -7 1010 89 0 3.16 193 10:55 18.12.2019
6235 Clouds -7 1010 89 0 3.16 193 10:37 18.12.2019
6236 Clouds -7 1010 89 0 3.16 193 10:18 18.12.2019
6237 Clouds -7 1010 89 0 3.16 193 09:43 18.12.2019
6238 Clouds -7 1010 89 0 3.16 193 09:18 18.12.2019
6239 Clouds -7 1010 89 0 3.16 193 09:18 18.12.2019
6240 Clouds -7 1010 89 0 3.16 193 08:40 18.12.2019
6241 Clouds -8 1010 88 0 3.7 200 08:21 18.12.2019
6242 Clouds -8 1010 88 0 3.7 200 07:43 18.12.2019
6243 Clouds -8 1010 88 0 3.7 200 07:22 18.12.2019
6244 Clouds -8 1010 88 0 3.7 200 06:55 18.12.2019
6245 Clouds -8 1010 88 0 3.7 200 06:27 18.12.2019
6246 Clouds -8 1010 88 0 3.7 200 05:44 18.12.2019
6247 Clouds -7 1009 87 0 4.05 196 04:52 18.12.2019
6248 Clouds -7 1009 87 0 4.05 196 02:55 18.12.2019
6249 Clouds -7 1009 87 0 4.05 196 02:36 18.12.2019
6250 Snow -6 1010 91 0 4.31 198 02:18 18.12.2019
6251 Snow -6 1010 91 0 4.31 198 01:40 18.12.2019
6252 Snow -6 1010 91 0 4.31 198 01:21 18.12.2019
6253 Snow -6 1010 93 0 4.16 203 00:40 18.12.2019
6254 Snow -6 1010 93 0 4.16 203 00:22 18.12.2019
6255 Snow -6 1010 93 0 4.16 203 23:56 17.12.2019
6256 Snow -6 1010 93 0 4.16 203 23:37 17.12.2019
6257 Snow -5 1010 93 0 4.22 193 23:18 17.12.2019
6258 Snow -5 1010 93 0 4.22 193 23:18 17.12.2019
6259 Snow -5 1010 93 0 4.22 193 22:55 17.12.2019
6260 Snow -5 1010 93 0 4.22 193 22:37 17.12.2019
6261 Snow -5 1010 93 0 4.22 193 22:18 17.12.2019
6262 Snow -5 1010 93 0 4.22 193 21:55 17.12.2019
6263 Snow -5 1010 93 0 4.22 193 21:55 17.12.2019
6264 Snow -5 1010 93 0 4.22 193 21:37 17.12.2019
6265 Snow -5 1010 93 0 4.22 193 21:18 17.12.2019
6266 Snow -5 1010 93 0 4.22 193 20:55 17.12.2019
6267 Snow -5 1010 93 0 4.22 193 20:37 17.12.2019
6268 Snow -5 1011 93 0 3.99 181 20:18 17.12.2019
6269 Snow -5 1011 93 0 4.3 185 19:41 17.12.2019
6270 Snow -5 1011 93 0 4.3 185 19:20 17.12.2019
6271 Snow -5 1011 93 0 4.3 185 18:58 17.12.2019
6272 Snow -5 1011 93 0 4.3 185 18:40 17.12.2019
6273 Snow -5 1011 93 0 4.3 185 18:21 17.12.2019
6274 Snow -5 1011 93 0 4.3 185 17:58 17.12.2019
6275 Snow -5 1011 93 0 4.3 185 17:40 17.12.2019
6276 Snow -5 1011 93 0 3.85 167 17:19 17.12.2019
6277 Snow -5 1011 93 0 3.85 167 16:56 17.12.2019
6278 Snow -5 1011 93 0 3.85 167 16:37 17.12.2019
6279 Snow -5 1011 93 0 3.85 167 16:19 17.12.2019
6280 Snow -5 1011 93 0 3.85 167 15:55 17.12.2019
6281 Snow -5 1011 93 0 3.85 167 15:37 17.12.2019
6282 Snow -5 1011 93 0 3.85 167 15:18 17.12.2019
6283 Snow -5 1011 93 0 3.85 167 14:55 17.12.2019
6284 Snow -5 1011 93 0 3.85 167 14:36 17.12.2019
6285 Snow -5 1012 93 0 4 167 14:18 17.12.2019
6286 Snow -5 1012 93 0 4 167 13:55 17.12.2019
6287 Snow -5 1012 93 0 4 167 13:37 17.12.2019
6288 Snow -5 1012 92 0 4.14 175 13:18 17.12.2019
6289 Snow -5 1012 92 0 4.14 175 12:41 17.12.2019
6290 Snow -5 1012 92 0 4.14 175 12:19 17.12.2019
6291 Snow -5 1012 92 0 4.14 175 12:19 17.12.2019
6292 Snow -5 1012 92 0 4.14 175 11:59 17.12.2019
6293 Snow -5 1012 92 0 4.14 175 11:37 17.12.2019
6294 Snow -5 1012 94 0 4.21 171 11:19 17.12.2019
6295 Snow -5 1012 94 0 4.21 171 10:59 17.12.2019
6296 Snow -5 1012 94 0 4.21 171 10:40 17.12.2019
6297 Snow -5 1012 94 0 4.21 171 10:21 17.12.2019
6298 Snow -5 1012 94 0 4.21 171 09:59 17.12.2019
6299 Snow -5 1012 94 0 4.21 171 09:41 17.12.2019
6300 Snow -5 1012 94 0 4.21 171 09:20 17.12.2019
6301 Snow -5 1012 94 0 4.21 171 08:56 17.12.2019
6302 Snow -5 1012 94 0 4.21 171 08:38 17.12.2019
6303 Clouds -5 1013 90 0 4.39 189 08:19 17.12.2019
6304 Clouds -6 1013 90 0 4.45 189 07:45 17.12.2019
6305 Clouds -6 1013 90 0 4.45 189 07:26 17.12.2019
6306 Clouds -6 1013 90 0 4.45 189 06:56 17.12.2019
6307 Clouds -6 1013 90 0 4.45 189 06:35 17.12.2019
6308 Clouds -6 1013 90 0 4.45 189 05:53 17.12.2019
6309 Clouds -6 1013 90 0 4.45 189 05:34 17.12.2019
6310 Snow -6 1013 91 0 3.62 171 04:30 17.12.2019
6311 Snow -6 1013 91 0 3.62 171 02:34 17.12.2019
6312 Clouds -8 1014 91 0 3.46 173 01:54 17.12.2019
6313 Clouds -8 1014 91 0 3.14 170 00:58 17.12.2019
6314 Clouds -8 1014 91 0 3.14 170 00:37 17.12.2019
6315 Clouds -8 1014 91 0 3.14 170 00:18 17.12.2019
6316 Clouds -8 1014 91 0 3.14 170 23:41 16.12.2019
6317 Clouds -9 1014 91 0 3.86 181 23:19 16.12.2019
6318 Clouds -9 1014 91 0 3.86 181 23:19 16.12.2019
6319 Clouds -9 1014 91 0 3.86 181 22:56 16.12.2019
6320 Clouds -9 1014 91 0 3.86 181 22:37 16.12.2019
6321 Clouds -9 1014 91 0 3.86 181 22:19 16.12.2019
6322 Clouds -9 1014 91 0 3.86 181 21:55 16.12.2019
6323 Clouds -9 1014 91 0 3.86 181 21:37 16.12.2019
6324 Clouds -9 1014 91 0 3.86 181 21:37 16.12.2019
6325 Clouds -9 1014 91 0 3.86 181 21:37 16.12.2019
6326 Clouds -9 1014 91 0 3.86 181 21:18 16.12.2019
6327 Clouds -9 1014 91 0 3.86 181 20:56 16.12.2019
6328 Clouds -9 1014 91 0 3.86 181 20:56 16.12.2019
6329 Clouds -9 1014 91 0 3.86 181 20:37 16.12.2019
6330 Clouds -9 1015 90 0 3.95 196 20:19 16.12.2019
6331 Clouds -9 1015 90 0 3.68 202 19:55 16.12.2019
6332 Clouds -9 1015 90 0 3.68 202 19:36 16.12.2019
6333 Clouds -9 1015 90 0 3.68 202 19:18 16.12.2019
6334 Clouds -9 1015 90 0 3.68 202 18:55 16.12.2019
6335 Clouds -9 1015 90 0 3.68 202 18:37 16.12.2019
6336 Clouds -9 1015 90 0 3.68 202 18:37 16.12.2019
6337 Clouds -9 1015 90 0 3.68 202 18:19 16.12.2019
6338 Clouds -9 1015 90 0 3.68 202 17:57 16.12.2019
6339 Clouds -9 1015 90 0 3.68 202 17:37 16.12.2019
6340 Clouds -9 1016 92 0 5.04 216 17:19 16.12.2019
6341 Clouds -9 1016 92 0 5.04 216 16:55 16.12.2019
6342 Clouds -9 1016 92 0 5.04 216 16:37 16.12.2019
6343 Clouds -9 1016 92 0 5.04 216 16:18 16.12.2019
6344 Clouds -9 1016 92 0 5.04 216 15:55 16.12.2019
6345 Clouds -9 1016 92 0 5.04 216 15:37 16.12.2019
6346 Clouds -9 1016 92 0 5.04 216 15:19 16.12.2019
6347 Clouds -9 1016 92 0 5.04 216 14:54 16.12.2019
6348 Clouds -9 1016 92 0 5.04 216 14:36 16.12.2019
6349 Clouds -8 1017 94 0 5.78 217 14:18 16.12.2019
6350 Clouds -8 1017 94 0 5.78 217 14:18 16.12.2019
6351 Clouds -8 1017 94 0 5.78 217 13:55 16.12.2019
6352 Clouds -8 1017 94 0 5.78 217 13:36 16.12.2019
6353 Clouds -8 1017 94 0 5.78 217 13:18 16.12.2019
6354 Clouds -8 1017 94 0 5.68 216 13:18 16.12.2019
6355 Clouds -8 1017 94 0 5.68 216 12:54 16.12.2019
6356 Clouds -8 1017 93 0 5.63 216 12:36 16.12.2019
6357 Clouds -8 1017 93 0 5.63 216 12:18 16.12.2019
6358 Clouds -8 1017 93 0 5.63 216 11:55 16.12.2019
6359 Clouds -8 1017 93 0 5.63 216 11:37 16.12.2019
6360 Clouds -6 1017 92 0 5.83 221 11:19 16.12.2019
6361 Clouds -6 1017 92 0 5.83 221 10:40 16.12.2019
6362 Clouds -6 1017 92 0 5.83 221 10:21 16.12.2019
6363 Clouds -6 1017 92 0 5.83 221 09:56 16.12.2019
6364 Clouds -7 1017 92 0 5.97 220 09:38 16.12.2019
6365 Clouds -7 1017 92 0 5.97 220 09:20 16.12.2019
6366 Clouds -6 1017 92 0 5.83 221 08:40 16.12.2019
6367 Snow -3 1017 93 0 6.44 231 08:19 16.12.2019
6368 Snow -5 1017 93 0 6.73 226 07:52 16.12.2019
6369 Snow -5 1017 93 0 6.73 226 07:31 16.12.2019
6370 Snow -5 1017 93 0 6.73 226 06:52 16.12.2019
6371 Snow -5 1017 93 0 6.73 226 06:27 16.12.2019
6372 Snow -5 1017 93 0 6.73 226 05:59 16.12.2019
6373 Snow -5 1017 93 0 6.73 226 05:40 16.12.2019
6374 Clouds -4 1016 95 0 6.12 233 05:22 16.12.2019
6375 Clouds -4 1016 95 0 6.12 233 02:59 16.12.2019
6376 Snow -3 1017 95 0 5.21 242 01:46 16.12.2019
6377 Clouds -3 1017 94 0 5.03 242 00:57 16.12.2019
6378 Clouds -3 1017 94 0 5.03 242 00:38 16.12.2019
6379 Clouds -3 1017 94 0 5.03 242 00:19 16.12.2019
6380 Clouds -3 1017 94 0 5.03 242 23:44 15.12.2019
6381 Clouds -3 1017 94 0 5.03 242 23:25 15.12.2019
6382 Snow -2 1016 95 0 5.42 240 22:57 15.12.2019
6383 Snow -2 1016 95 0 5.42 240 22:38 15.12.2019
6384 Snow -2 1016 95 0 5.42 240 22:38 15.12.2019
6385 Snow -2 1016 95 0 5.42 240 22:19 15.12.2019
6386 Snow -2 1016 95 0 5.42 240 21:58 15.12.2019
6387 Snow -2 1016 95 0 5.42 240 21:39 15.12.2019
6388 Snow -2 1016 95 0 5.42 240 21:20 15.12.2019
6389 Snow -2 1016 95 0 5.42 240 20:58 15.12.2019
6390 Snow -2 1016 95 0 5.42 240 20:58 15.12.2019
6391 Snow -2 1016 95 0 5.42 240 20:40 15.12.2019
6392 Snow -3 1015 95 0 5.37 242 20:22 15.12.2019
6393 Snow -3 1015 96 0 5.16 251 19:58 15.12.2019
6394 Clouds -3 1015 96 0 4.74 252 19:40 15.12.2019
6395 Snow -3 1015 96 0 5.16 251 19:20 15.12.2019
6396 Snow -3 1015 96 0 5.16 251 18:58 15.12.2019
6397 Snow -3 1015 96 0 5.16 251 18:39 15.12.2019
6398 Snow -3 1015 96 0 5.16 251 18:19 15.12.2019
6399 Snow -3 1015 96 0 5.16 251 17:57 15.12.2019
6400 Clouds -3 1015 96 0 4.74 252 17:38 15.12.2019
6401 Snow -3 1013 96 0 5.5 251 17:19 15.12.2019
6402 Snow -3 1014 95 0 5.68 246 16:59 15.12.2019
6403 Snow -3 1014 95 0 5.68 246 16:41 15.12.2019
6404 Snow -3 1013 96 0 5.5 251 16:21 15.12.2019
6405 Snow -3 1013 96 0 5.5 251 15:56 15.12.2019
6406 Snow -3 1014 95 0 5.68 246 15:56 15.12.2019
6407 Snow -3 1014 95 0 5.68 246 15:38 15.12.2019
6408 Snow -3 1014 95 0 5.68 246 15:19 15.12.2019
6409 Snow -3 1013 96 0 5.5 251 14:56 15.12.2019
6410 Snow -3 1013 96 0 5.5 251 14:37 15.12.2019
6411 Snow -3 1013 95 0 6.25 238 14:18 15.12.2019
6412 Snow -3 1014 95 0 6.27 238 13:58 15.12.2019
6413 Snow -3 1013 95 0 6.25 238 13:37 15.12.2019
6414 Snow -3 1013 95 0 6.25 238 13:19 15.12.2019
6415 Snow -3 1013 95 0 6.25 238 12:56 15.12.2019
6416 Snow -3 1013 95 0 6.25 238 12:38 15.12.2019
6417 Snow -3 1013 95 0 6.25 238 12:20 15.12.2019
6418 Snow -3 1013 95 0 6.25 238 11:55 15.12.2019
6419 Snow -3 1013 95 0 6.25 238 11:36 15.12.2019
6420 Snow -4 1012 94 0 6.37 231 11:18 15.12.2019
6421 Snow -4 1012 94 0 6.37 231 10:55 15.12.2019
6422 Snow -4 1012 94 0 6.37 231 10:36 15.12.2019
6423 Snow -4 1012 94 0 6.37 231 10:18 15.12.2019
6424 Snow -4 1012 94 0 6.37 231 09:39 15.12.2019
6425 Snow -4 1012 94 0 6.37 231 09:20 15.12.2019
6426 Snow -4 1012 94 0 6.37 231 08:57 15.12.2019
6427 Snow -4 1012 94 0 6.37 231 08:39 15.12.2019
6428 Snow -4 1012 95 0 6.14 232 08:20 15.12.2019
6429 Snow -3 1012 94 0 7.18 232 07:55 15.12.2019
6430 Snow -3 1012 94 0 7.18 232 07:34 15.12.2019
6431 Snow -3 1012 94 0 7.18 232 06:39 15.12.2019
6432 Snow -3 1012 94 0 7.18 232 06:19 15.12.2019
6433 Snow -3 1012 94 0 7.18 232 05:25 15.12.2019
6434 Snow -3 1012 94 0 7.18 232 05:25 15.12.2019
6435 Snow -3 1011 94 0 7.01 238 04:24 15.12.2019
6436 Snow -3 1011 94 0 7.01 238 03:22 15.12.2019
6437 Snow -3 1011 94 0 7.01 238 02:33 15.12.2019
6438 Snow -3 1012 94 0 6.94 234 01:44 15.12.2019
6439 Snow -3 1012 94 0 6.94 234 01:25 15.12.2019
6440 Snow -3 1012 94 0 6.7 238 00:54 15.12.2019
6441 Snow -3 1012 94 0 6.7 238 00:35 15.12.2019
6442 Snow -3 1012 94 0 6.7 238 23:58 14.12.2019
6443 Snow -3 1012 94 0 6.7 238 23:39 14.12.2019
6444 Snow -4 1011 93 0 7.75 229 23:19 14.12.2019
6445 Snow -4 1011 93 0 7.75 229 22:57 14.12.2019
6446 Snow -4 1011 93 0 7.75 229 22:39 14.12.2019
6447 Snow -4 1011 93 0 7.75 229 22:39 14.12.2019
6448 Snow -4 1011 93 0 7.75 229 22:20 14.12.2019
6449 Snow -4 1011 93 0 7.75 229 21:55 14.12.2019
6450 Snow -4 1011 93 0 7.75 229 21:37 14.12.2019
6451 Snow -4 1011 93 0 7.75 229 21:18 14.12.2019
6452 Snow -4 1011 93 0 7.75 229 20:54 14.12.2019
6453 Snow -4 1011 93 0 7.75 229 20:36 14.12.2019
6454 Snow -6 1011 92 0 6.86 223 20:18 14.12.2019
6455 Snow -6 1011 92 0 6.86 223 20:18 14.12.2019
6456 Snow -6 1011 92 0 6.86 223 19:40 14.12.2019
6457 Snow -6 1011 92 0 6.86 223 19:21 14.12.2019
6458 Snow -6 1011 92 0 6.86 223 19:21 14.12.2019
6459 Snow -6 1011 92 0 6.86 223 18:57 14.12.2019
6460 Snow -6 1011 92 0 6.86 223 18:39 14.12.2019
6461 Snow -6 1011 92 0 6.86 223 18:21 14.12.2019
6462 Snow -6 1011 92 0 6.86 223 17:58 14.12.2019
6463 Snow -6 1011 92 0 6.86 223 17:40 14.12.2019
6464 Clouds -5 1011 91 0 6.57 221 17:21 14.12.2019
6465 Clouds -5 1011 91 0 6.57 221 16:41 14.12.2019
6466 Clouds -5 1011 91 0 6.57 221 16:19 14.12.2019
6467 Clouds -5 1011 91 0 6.57 221 15:56 14.12.2019
6468 Clouds -5 1011 91 0 6.57 221 15:38 14.12.2019
6469 Clouds -5 1011 91 0 6.57 221 15:19 14.12.2019
6470 Clouds -5 1011 91 0 6.57 221 14:56 14.12.2019
6471 Clouds -5 1011 91 0 6.57 221 14:37 14.12.2019
6472 Snow -6 1011 91 0 5.66 209 14:18 14.12.2019
6473 Snow -6 1011 91 0 5.66 209 13:44 14.12.2019
6474 Snow -6 1011 91 0 5.38 208 13:19 14.12.2019
6475 Snow -6 1011 91 0 5.38 208 12:57 14.12.2019
6476 Snow -5 1012 90 0 6.88 215 12:38 14.12.2019
6477 Snow -5 1012 90 0 6.88 215 12:38 14.12.2019
6478 Snow -5 1012 90 0 6.88 215 12:20 14.12.2019
6479 Snow -6 1011 91 0 5.38 208 11:56 14.12.2019
6480 Snow -6 1011 91 0 5.38 208 11:38 14.12.2019
6481 Snow -7 1011 92 0 4.79 175 11:19 14.12.2019
6482 Snow -7 1011 91 0 5.23 195 10:56 14.12.2019
6483 Snow -7 1011 92 0 4.79 175 10:38 14.12.2019
6484 Snow -7 1011 92 0 4.79 175 10:19 14.12.2019
6485 Snow -7 1011 92 0 4.79 175 09:43 14.12.2019
6486 Snow -7 1011 92 0 4.79 175 09:23 14.12.2019
6487 Snow -7 1011 91 0 5.23 195 08:57 14.12.2019
6488 Snow -7 1011 91 0 5.23 195 08:57 14.12.2019
6489 Snow -7 1011 92 0 4.79 175 08:38 14.12.2019
6490 Clouds -8 1012 86 0 5.3 173 08:19 14.12.2019
6491 Clouds -8 1012 86 0 5.3 173 07:40 14.12.2019
6492 Clouds -8 1012 86 0 5.3 173 07:21 14.12.2019
6493 Clouds -8 1012 86 0 5.3 173 06:55 14.12.2019
6494 Clouds -8 1012 86 0 5.3 173 06:36 14.12.2019
6495 Clouds -8 1012 86 0 5.3 173 05:52 14.12.2019
6496 Clouds -8 1012 84 0 4.36 164 04:29 14.12.2019
6497 Clouds -8 1012 84 0 4.36 164 02:24 14.12.2019
6498 Clouds -9 1013 86 0 4.34 158 01:44 14.12.2019
6499 Clouds -9 1013 86 0 4.51 158 01:20 14.12.2019
6500 Clouds -9 1013 86 0 4.51 158 00:43 14.12.2019
6501 Clouds -9 1013 86 0 4.51 158 00:22 14.12.2019
6502 Clouds -9 1013 86 0 4.51 158 23:41 13.12.2019
6503 Clouds -9 1013 81 0 2.4 131 23:20 13.12.2019
6504 Clouds -9 1013 81 0 2.4 131 22:57 13.12.2019
6505 Clouds -9 1013 81 0 2.4 131 22:38 13.12.2019
6506 Clouds -9 1013 81 0 2.4 131 22:18 13.12.2019
6507 Clouds -9 1013 81 0 2.4 131 21:44 13.12.2019
6508 Clouds -9 1013 81 0 2.4 131 21:22 13.12.2019
6509 Clouds -9 1013 81 0 2.4 131 20:59 13.12.2019
6510 Clouds -9 1013 81 0 2.4 131 20:40 13.12.2019
6511 Clouds -10 1012 87 0 2.78 74 20:21 13.12.2019
6512 Clouds -9 1012 86 0 3.22 101 19:57 13.12.2019
6513 Clouds -9 1012 86 0 3.22 101 19:39 13.12.2019
6514 Clouds -9 1012 86 0 3.22 101 19:20 13.12.2019
6515 Clouds -9 1012 86 0 3.22 101 18:55 13.12.2019
6516 Clouds -9 1012 86 0 3.22 101 18:36 13.12.2019
6517 Clouds -9 1012 86 0 3.22 101 18:18 13.12.2019
6518 Clouds -9 1012 86 0 3.22 101 17:40 13.12.2019
6519 Clouds -9 1012 86 0 3.22 101 17:40 13.12.2019
6520 Clouds -9 1011 83 0 2.26 71 17:19 13.12.2019
6521 Clouds -9 1011 83 0 2.26 71 16:58 13.12.2019
6522 Clouds -9 1011 83 0 2.26 71 16:39 13.12.2019
6523 Clouds -9 1011 83 0 2.26 71 16:20 13.12.2019
6524 Clouds -9 1011 83 0 2.26 71 15:43 13.12.2019
6525 Clouds -9 1011 83 0 2.26 71 15:22 13.12.2019
6526 Clouds -9 1011 83 0 2.26 71 14:57 13.12.2019
6527 Clouds -9 1011 83 0 2.26 71 14:57 13.12.2019
6528 Clouds -9 1011 83 0 2.26 71 14:39 13.12.2019
6529 Clouds -9 1011 81 0 3.05 34 14:19 13.12.2019
6530 Clouds -9 1011 81 0 3.05 34 13:44 13.12.2019
6531 Clouds -9 1011 81 0 3.05 34 13:26 13.12.2019
6532 Clouds -9 1011 82 0 3.1 26 12:59 13.12.2019
6533 Clouds -9 1011 82 0 3.1 26 12:41 13.12.2019
6534 Clouds -9 1011 82 0 3.1 26 12:19 13.12.2019
6535 Clouds -9 1011 82 0 3.1 26 11:45 13.12.2019
6536 Clouds -9 1011 82 0 3.1 26 11:45 13.12.2019
6537 Clouds -9 1011 82 0 3.1 26 11:26 13.12.2019
6538 Clouds -9 1010 81 0 3.22 359 10:58 13.12.2019
6539 Clouds -9 1010 81 0 3.22 359 10:40 13.12.2019
6540 Clouds -9 1010 81 0 3.22 359 10:21 13.12.2019
6541 Clouds -9 1010 81 0 3.22 359 09:43 13.12.2019
6542 Clouds -9 1010 81 0 3.22 359 09:22 13.12.2019
6543 Clouds -9 1010 81 0 3.22 359 08:55 13.12.2019
6544 Clouds -9 1010 81 0 3.22 359 08:36 13.12.2019
6545 Snow -9 1009 82 0 3.54 357 08:18 13.12.2019
6546 Snow -9 1009 82 0 3.48 7 07:42 13.12.2019
6547 Snow -9 1009 82 0 3.48 7 07:19 13.12.2019
6548 Snow -9 1009 82 0 3.48 7 06:45 13.12.2019
6549 Snow -9 1009 82 0 3.48 7 06:25 13.12.2019
6550 Snow -9 1009 82 0 3.48 7 05:38 13.12.2019
6551 Clouds -8 1008 83 0 4.38 13 05:20 13.12.2019
6552 Clouds -8 1008 83 0 4.38 13 04:29 13.12.2019
6553 Clouds -8 1008 83 0 4.38 13 02:57 13.12.2019
6554 Clouds -8 1008 83 0 4.38 13 02:30 13.12.2019
6555 Snow -7 1008 81 0 3.8 4 01:38 13.12.2019
6556 Clouds -7 1008 81 0 3.08 357 00:51 13.12.2019
6557 Clouds -7 1008 81 0 3.08 357 00:28 13.12.2019
6558 Clouds -7 1008 81 0 3.08 357 23:44 12.12.2019
6559 Snow -7 1007 83 0 3.72 357 23:26 12.12.2019
6560 Snow -7 1007 83 0 3.72 357 22:57 12.12.2019
6561 Snow -7 1007 83 0 3.72 357 22:39 12.12.2019
6562 Snow -7 1007 83 0 3.72 357 22:21 12.12.2019
6563 Snow -7 1007 83 0 3.72 357 21:56 12.12.2019
6564 Snow -7 1007 83 0 3.72 357 21:37 12.12.2019
6565 Snow -7 1007 83 0 3.72 357 21:19 12.12.2019
6566 Snow -7 1007 83 0 3.72 357 21:19 12.12.2019
6567 Snow -7 1007 83 0 3.72 357 20:59 12.12.2019
6568 Snow -7 1007 83 0 3.72 357 20:40 12.12.2019
6569 Snow -6 1006 84 0 3.13 326 20:22 12.12.2019
6570 Snow -6 1006 84 0 3.13 326 19:56 12.12.2019
6571 Snow -6 1006 84 0 3.13 326 19:37 12.12.2019
6572 Snow -6 1006 84 0 3.13 326 19:18 12.12.2019
6573 Snow -6 1006 84 0 3.13 326 18:56 12.12.2019
6574 Snow -6 1006 84 0 3.13 326 18:38 12.12.2019
6575 Snow -6 1006 84 0 3.13 326 18:19 12.12.2019
6576 Snow -6 1006 84 0 3.13 326 17:57 12.12.2019
6577 Snow -6 1006 84 0 3.13 326 17:38 12.12.2019
6578 Snow -6 1006 86 0 4.61 303 17:19 12.12.2019
6579 Snow -6 1006 86 0 4.61 303 16:55 12.12.2019
6580 Snow -6 1006 86 0 4.61 303 16:36 12.12.2019
6581 Snow -6 1006 86 0 4.61 303 16:18 12.12.2019
6582 Snow -6 1006 86 0 4.61 303 15:42 12.12.2019
6583 Snow -6 1006 86 0 4.61 303 15:20 12.12.2019
6584 Snow -6 1006 86 0 4.61 303 14:59 12.12.2019
6585 Snow -6 1006 86 0 4.61 303 14:38 12.12.2019
6586 Snow -6 1005 87 0 4.5 305 14:19 12.12.2019
6587 Snow -6 1005 87 0 4.5 305 13:56 12.12.2019
6588 Snow -6 1005 87 0 4.5 305 13:38 12.12.2019
6589 Snow -6 1006 86 0 4.84 301 13:20 12.12.2019
6590 Snow -6 1006 86 0 4.84 301 12:56 12.12.2019
6591 Snow -6 1006 86 0 4.84 301 12:38 12.12.2019
6592 Snow -6 1006 86 0 4.84 301 12:19 12.12.2019
6593 Snow -6 1006 86 0 4.84 301 11:54 12.12.2019
6594 Snow -6 1006 86 0 4.84 301 11:36 12.12.2019
6595 Snow -5 1005 88 0 4.27 318 11:18 12.12.2019
6596 Snow -5 1005 88 0 4.27 318 10:41 12.12.2019
6597 Snow -5 1005 88 0 4.27 318 10:23 12.12.2019
6598 Snow -5 1005 88 0 4.27 318 10:23 12.12.2019
6599 Snow -5 1005 88 0 4.27 318 09:59 12.12.2019
6600 Snow -5 1005 88 0 4.27 318 09:41 12.12.2019
6601 Snow -5 1005 88 0 4.27 318 09:23 12.12.2019
6602 Snow -5 1005 88 0 4.27 318 08:55 12.12.2019
6603 Snow -5 1005 88 0 4.27 318 08:37 12.12.2019
6604 Snow -5 1005 82 0 3.78 331 08:18 12.12.2019
6605 Snow -5 1005 82 0 3.78 331 07:41 12.12.2019
6606 Snow -5 1005 82 0 3.78 331 07:23 12.12.2019
6607 Snow -5 1005 82 0 3.78 331 06:44 12.12.2019
6608 Snow -5 1005 82 0 3.78 331 06:24 12.12.2019
6609 Snow -5 1005 82 0 3.78 331 05:36 12.12.2019
6610 Snow -5 1003 83 0 4.33 356 04:51 12.12.2019
6611 Snow -5 1003 83 0 4.33 356 02:57 12.12.2019
6612 Snow -5 1003 83 0 4.33 356 02:37 12.12.2019
6613 Clouds -5 1003 84 0 4.67 356 02:18 12.12.2019
6614 Clouds -5 1003 84 0 4.67 356 01:37 12.12.2019
6615 Clouds -5 1003 84 0 4.67 356 01:18 12.12.2019
6616 Clouds -5 1003 83 0 4.14 355 00:40 12.12.2019
6617 Clouds -5 1003 83 0 4.14 355 00:18 12.12.2019
6618 Clouds -5 1003 83 0 4.14 355 23:42 11.12.2019
6619 Snow -4 1000 87 0 5.84 17 23:20 11.12.2019
6620 Snow -4 1000 87 0 5.84 17 22:57 11.12.2019
6621 Snow -4 1000 87 0 5.84 17 22:57 11.12.2019
6622 Snow -4 1000 87 0 5.84 17 22:38 11.12.2019
6623 Snow -4 1000 87 0 5.84 17 22:19 11.12.2019
6624 Snow -4 1000 87 0 5.84 17 21:56 11.12.2019
6625 Snow -4 1000 87 0 5.84 17 21:37 11.12.2019
6626 Snow -4 1000 87 0 5.84 17 21:37 11.12.2019
6627 Snow -4 1000 87 0 5.84 17 21:19 11.12.2019
6628 Snow -4 1000 87 0 5.84 17 21:19 11.12.2019
6629 Snow -4 1000 87 0 5.84 17 20:55 11.12.2019
6630 Snow -4 1000 87 0 5.84 17 20:37 11.12.2019
6631 Snow -5 999 87 0 4.73 329 20:18 11.12.2019
6632 Snow -5 999 85 0 4.85 321 19:55 11.12.2019
6633 Snow -5 999 85 0 4.85 321 19:36 11.12.2019
6634 Snow -5 999 85 0 4.85 321 19:18 11.12.2019
6635 Snow -5 999 85 0 4.85 321 18:40 11.12.2019
6636 Snow -5 999 85 0 4.85 321 18:21 11.12.2019
6637 Snow -5 999 85 0 4.85 321 17:57 11.12.2019
6638 Snow -5 999 85 0 4.85 321 17:38 11.12.2019
6639 Clouds -6 996 82 0 4.64 314 17:18 11.12.2019
6640 Clouds -6 996 82 0 4.64 314 16:57 11.12.2019
6641 Clouds -6 996 82 0 4.64 314 16:38 11.12.2019
6642 Clouds -6 996 82 0 4.64 314 16:19 11.12.2019
6643 Clouds -6 996 82 0 4.64 314 15:58 11.12.2019
6644 Clouds -6 996 82 0 4.64 314 15:38 11.12.2019
6645 Clouds -6 996 82 0 4.64 314 15:20 11.12.2019
6646 Clouds -6 996 82 0 4.64 314 14:56 11.12.2019
6647 Clouds -6 996 82 0 4.64 314 14:37 11.12.2019
6648 Clouds -6 996 82 0 4.64 314 14:37 11.12.2019
6649 Clouds -6 995 81 0 5.28 314 14:19 11.12.2019
6650 -273 0 0 0 0 0 13:54 11.12.2019
6651 Clouds -6 995 81 0 5.28 314 13:36 11.12.2019
6652 Clouds -6 995 81 0 5.28 314 13:18 11.12.2019
6653 Clouds -6 995 81 0 4.62 321 12:54 11.12.2019
6654 Clouds -6 995 81 0 4.62 321 12:36 11.12.2019
6655 Clouds -6 995 81 0 4.62 321 12:36 11.12.2019
6656 Clouds -6 995 81 0 4.62 321 12:18 11.12.2019
6657 Clouds -6 995 81 0 4.62 321 11:54 11.12.2019
6658 Clouds -6 995 81 0 4.62 321 11:36 11.12.2019
6659 Clouds -6 993 82 0 4.88 309 11:18 11.12.2019
6660 Clouds -6 993 82 0 4.88 309 10:40 11.12.2019
6661 Clouds -6 993 82 0 4.88 309 10:22 11.12.2019
6662 Clouds -6 993 82 0 4.88 309 09:58 11.12.2019
6663 Clouds -6 993 82 0 4.88 309 09:38 11.12.2019
6664 Clouds -6 993 82 0 4.88 309 09:19 11.12.2019
6665 Clouds -6 993 82 0 4.88 309 08:56 11.12.2019
6666 Clouds -6 993 82 0 4.88 309 08:37 11.12.2019
6667 Clouds -6 992 85 0 4.32 303 08:18 11.12.2019
6668 Clouds -6 992 85 0 4.32 303 07:43 11.12.2019
6669 Clouds -6 992 85 0 4.32 303 07:24 11.12.2019
6670 Clouds -6 992 85 0 4.32 303 07:24 11.12.2019
6671 Clouds -6 992 85 0 4.32 303 06:46 11.12.2019
6672 Clouds -6 992 85 0 4.32 303 06:25 11.12.2019
6673 Clouds -6 992 85 0 4.32 303 05:56 11.12.2019
6674 Clouds -6 992 85 0 4.32 303 05:35 11.12.2019
6675 Clouds -5 990 87 0 4.94 310 04:51 11.12.2019
6676 Clouds -5 990 87 0 4.94 310 03:29 11.12.2019
6677 Clouds -5 990 87 0 4.94 310 02:35 11.12.2019
6678 Snow -4 990 90 0 5.24 304 01:22 11.12.2019
6679 Snow -5 991 90 0 5.13 307 00:43 11.12.2019
6680 Snow -5 991 90 0 5.13 307 00:43 11.12.2019
6681 Snow -5 991 90 0 5.13 307 00:19 11.12.2019
6682 Snow -5 991 90 0 5.13 307 23:45 10.12.2019
6683 Snow -5 991 90 0 5.13 307 23:26 10.12.2019
6684 Clouds -3 988 92 0 5.25 328 22:57 10.12.2019
6685 Clouds -3 988 92 0 5.25 328 22:39 10.12.2019
6686 Clouds -3 988 92 0 5.25 328 22:20 10.12.2019
6687 Clouds -3 988 92 0 5.25 328 21:54 10.12.2019
6688 Clouds -3 988 92 0 5.25 328 21:36 10.12.2019
6689 Clouds -3 988 92 0 5.25 328 21:18 10.12.2019
6690 Clouds -3 988 92 0 5.25 328 20:55 10.12.2019
6691 Clouds -3 988 92 0 5.25 328 20:36 10.12.2019
6692 Clouds -4 986 94 0 3.42 354 20:18 10.12.2019
6693 Clouds -4 986 94 0 3.42 354 19:44 10.12.2019
6694 Clouds -4 986 94 0 3.42 354 19:25 10.12.2019
6695 Clouds -4 986 94 0 3.42 354 18:57 10.12.2019
6696 Clouds -4 986 94 0 3.42 354 18:39 10.12.2019
6697 Clouds -4 986 94 0 3.42 354 18:19 10.12.2019
6698 Clouds -4 986 94 0 3.42 354 17:55 10.12.2019
6699 Clouds -4 986 94 0 3.42 354 17:36 10.12.2019
6700 Clouds -4 983 95 0 3.29 21 17:18 10.12.2019
6701 Clouds -4 983 95 0 3.29 21 17:18 10.12.2019
6702 Clouds -4 983 95 0 3.29 21 16:42 10.12.2019
6703 Clouds -4 983 95 0 3.29 21 16:20 10.12.2019
6704 Clouds -4 983 95 0 3.29 21 15:54 10.12.2019
6705 Clouds -4 983 95 0 3.29 21 15:36 10.12.2019
6706 Clouds -4 983 95 0 3.29 21 15:18 10.12.2019
6707 Clouds -4 983 95 0 3.29 21 15:18 10.12.2019
6708 Clouds -4 983 95 0 3.29 21 14:54 10.12.2019
6709 Clouds -4 983 95 0 3.29 21 14:36 10.12.2019
6710 Clouds -4 983 94 0 1.52 61 14:18 10.12.2019
6711 Clouds -4 983 94 0 1.52 61 14:18 10.12.2019
6712 Clouds -4 983 94 0 1.52 61 13:54 10.12.2019
6713 Clouds -4 983 94 0 1.52 61 13:36 10.12.2019
6714 Clouds -4 983 94 0 1.52 61 13:18 10.12.2019
6715 Snow -3 983 95 0 2.41 47 12:38 10.12.2019
6716 Snow -3 983 95 0 2.41 47 12:20 10.12.2019
6717 Snow -3 983 95 0 2.41 47 11:41 10.12.2019
6718 Snow -3 983 95 0 2.41 47 11:41 10.12.2019
6719 Snow -3 983 95 0 2.41 47 11:23 10.12.2019
6720 Snow -3 983 96 0 3.02 125 10:56 10.12.2019
6721 Snow -3 983 96 0 3.02 125 10:37 10.12.2019
6722 Snow -3 983 96 0 3.02 125 10:19 10.12.2019
6723 Snow -3 983 96 0 3.02 125 09:54 10.12.2019
6724 Snow -3 983 96 0 3.02 125 09:36 10.12.2019
6725 Snow -3 983 96 0 3.02 125 09:18 10.12.2019
6726 Snow -3 983 96 0 3.02 125 08:41 10.12.2019
6727 Snow -3 984 93 0 3.32 153 08:22 10.12.2019
6728 Snow -3 984 93 0 3.32 153 07:57 10.12.2019
6729 Snow -3 984 93 0 3.32 153 07:39 10.12.2019
6730 Snow -3 984 93 0 3.32 153 07:21 10.12.2019
6731 Snow -3 984 93 0 3.32 153 06:46 10.12.2019
6732 Snow -3 984 93 0 3.32 153 06:19 10.12.2019
6733 Snow -3 984 93 0 3.32 153 05:52 10.12.2019
6734 Clouds -4 984 90 0 5.59 200 04:51 10.12.2019
6735 Clouds -4 984 90 0 5.59 200 03:36 10.12.2019
6736 Clouds -4 984 90 0 5.59 200 02:44 10.12.2019
6737 Clouds -5 985 90 0 8.98 214 01:44 10.12.2019
6738 Clouds -5 985 90 0 8.98 214 01:20 10.12.2019
6739 Clouds -5 985 89 0 9.12 215 00:41 10.12.2019
6740 Clouds -5 985 89 0 9.12 215 00:20 10.12.2019
6741 Clouds -5 985 89 0 9.12 215 23:41 09.12.2019
6742 Snow -3 984 91 0 10.09 231 23:22 09.12.2019
6743 Snow -3 984 91 0 10.09 231 22:58 09.12.2019
6744 Snow -3 984 91 0 10.09 231 22:40 09.12.2019
6745 Snow -3 984 91 0 10.09 231 22:19 09.12.2019
6746 Snow -3 984 91 0 10.09 231 21:56 09.12.2019
6747 Snow -3 984 91 0 10.09 231 21:38 09.12.2019
6748 Snow -3 984 91 0 10.09 231 21:19 09.12.2019
6749 Snow -3 984 91 0 10.09 231 20:56 09.12.2019
6750 Snow -3 984 91 0 10.09 231 20:38 09.12.2019
6751 Clouds -3 983 90 0 10.75 232 20:20 09.12.2019
6752 Clouds -3 983 90 0 10.75 232 19:55 09.12.2019
6753 Clouds -3 983 90 0 10.75 232 19:37 09.12.2019
6754 Clouds -3 983 90 0 10.75 232 19:19 09.12.2019
6755 Clouds -3 983 90 0 10.75 232 18:56 09.12.2019
6756 Clouds -3 983 90 0 10.75 232 18:37 09.12.2019
6757 Clouds -3 983 90 0 10.75 232 18:19 09.12.2019
6758 Clouds -3 983 90 0 10.75 232 17:57 09.12.2019
6759 Clouds -3 983 90 0 10.75 232 17:38 09.12.2019
6760 Clouds -2 980 93 0 7.45 222 17:20 09.12.2019
6761 Clouds -2 980 93 0 7.45 222 16:56 09.12.2019
6762 Clouds -2 980 93 0 7.45 222 16:37 09.12.2019
6763 Clouds -2 980 93 0 7.45 222 16:19 09.12.2019
6764 Clouds -2 980 93 0 7.45 222 15:55 09.12.2019
6765 Clouds -2 980 93 0 7.45 222 15:37 09.12.2019
6766 Clouds -2 980 93 0 7.45 222 15:19 09.12.2019
6767 Clouds -2 980 93 0 7.45 222 14:42 09.12.2019
6768 Clouds -2 979 91 0 7.56 198 14:19 09.12.2019
6769 Clouds -2 979 91 0 7.56 198 13:59 09.12.2019
6770 Clouds -2 979 91 0 7.56 198 13:39 09.12.2019
6771 Clouds -2 980 92 0 7.47 198 13:19 09.12.2019
6772 Clouds -2 980 92 0 7.47 198 12:57 09.12.2019
6773 Clouds -2 980 92 0 7.47 198 12:38 09.12.2019
6774 Clouds -2 980 92 0 7.47 198 12:20 09.12.2019
6775 Clouds -2 980 92 0 7.47 198 11:58 09.12.2019
6776 Clouds -2 980 92 0 7.47 198 11:39 09.12.2019
6777 Snow -1 978 93 0 6.89 188 11:21 09.12.2019
6778 Snow -1 978 93 0 6.89 188 10:55 09.12.2019
6779 Snow -1 978 93 0 6.89 188 10:37 09.12.2019
6780 Snow -1 978 93 0 6.89 188 10:18 09.12.2019
6781 Snow -1 978 93 0 6.89 188 09:41 09.12.2019
6782 Snow -1 978 93 0 6.89 188 09:22 09.12.2019
6783 Snow -1 978 93 0 6.89 188 08:55 09.12.2019
6784 Snow -1 978 93 0 6.89 188 08:37 09.12.2019
6785 Snow -2 980 92 0 6.53 185 08:19 09.12.2019
6786 Snow -2 980 92 0 6.53 185 07:42 09.12.2019
6787 Snow -2 980 92 0 6.53 185 07:24 09.12.2019
6788 Snow -2 980 92 0 6.53 185 06:54 09.12.2019
6789 Snow -2 980 92 0 6.53 185 06:26 09.12.2019
6790 Snow -2 980 92 0 6.53 185 05:29 09.12.2019
6791 Snow -2 980 92 0 7.63 193 04:49 09.12.2019
6792 Snow -2 980 92 0 7.63 193 04:20 09.12.2019
6793 Snow -2 980 92 0 7.63 193 02:27 09.12.2019
6794 Snow -6 982 92 0 7.58 166 01:44 09.12.2019
6795 Snow -6 982 91 0 7.97 167 00:53 09.12.2019
6796 Snow -6 982 91 0 7.97 167 00:32 09.12.2019
6797 Snow -6 982 91 0 7.97 167 23:54 08.12.2019
6798 Snow -6 982 91 0 7.97 167 23:36 08.12.2019
6799 Snow -7 985 94 0 9.48 142 23:18 08.12.2019
6800 Snow -7 985 94 0 9.48 142 22:56 08.12.2019
6801 Snow -7 985 94 0 9.48 142 22:37 08.12.2019
6802 Snow -7 985 94 0 9.48 142 22:18 08.12.2019
6803 Snow -7 985 94 0 9.48 142 21:54 08.12.2019
6804 Snow -7 985 94 0 9.48 142 21:36 08.12.2019
6805 Snow -7 985 94 0 9.48 142 21:18 08.12.2019
6806 Snow -7 985 94 0 9.48 142 20:54 08.12.2019
6807 Snow -7 985 94 0 9.48 142 20:36 08.12.2019
6808 Snow -9 989 93 0 9.05 122 20:18 08.12.2019
6809 Snow -9 989 93 0 9.05 122 19:42 08.12.2019
6810 Snow -9 989 93 0 9.05 122 19:23 08.12.2019
6811 Snow -9 989 93 0 9.05 122 18:56 08.12.2019
6812 Snow -9 989 93 0 9.05 122 18:56 08.12.2019
6813 Snow -9 989 93 0 9.05